<?xml version="1.0" encoding="UTF-8" standalone="no" ?>
<gpx xmlns="http://www.topografix.com/GPX/1/1" xmlns:xsi="http://www.w3.org/2001/XMLSchema-instance" xsi:schemaLocation="http://www.topografix.com/GPX/1/1 http://www.topografix.com/GPX/1/1/gpx.xsd" version="1.1" creator="VisuGPX - https://www.visugpx.com">
  <metadata>
    <name>bdp-lus-veynes</name>
  </metadata>
  <trk>
    <name><![CDATA[10278009-bdp-lus-veynes]]></name>
    <trkseg>
      <trkpt lat="45.02609" lon="5.07469">
        <ele>182</ele>
        <time>2019-07-25T11:11:39Z</time>
      </trkpt>
      <trkpt lat="45.02566" lon="5.07492">
        <ele>184</ele>
        <time>2019-07-25T11:11:47Z</time>
      </trkpt>
      <trkpt lat="45.02534" lon="5.07498">
        <ele>183</ele>
        <time>2019-07-25T11:11:53Z</time>
      </trkpt>
      <trkpt lat="45.02509" lon="5.07508">
        <ele>184</ele>
        <time>2019-07-25T11:11:58Z</time>
      </trkpt>
      <trkpt lat="45.0249" lon="5.07522">
        <ele>184</ele>
        <time>2019-07-25T11:12:01Z</time>
      </trkpt>
      <trkpt lat="45.02459" lon="5.07549">
        <ele>186</ele>
        <time>2019-07-25T11:12:08Z</time>
      </trkpt>
      <trkpt lat="45.02394" lon="5.07584">
        <ele>186</ele>
        <time>2019-07-25T11:12:20Z</time>
      </trkpt>
      <trkpt lat="45.02323" lon="5.07637">
        <ele>187</ele>
        <time>2019-07-25T11:12:34Z</time>
      </trkpt>
      <trkpt lat="45.02303" lon="5.07648">
        <ele>188</ele>
        <time>2019-07-25T11:12:38Z</time>
      </trkpt>
      <trkpt lat="45.02282" lon="5.07656">
        <ele>189</ele>
        <time>2019-07-25T11:12:42Z</time>
      </trkpt>
      <trkpt lat="45.02245" lon="5.07667">
        <ele>191</ele>
        <time>2019-07-25T11:12:49Z</time>
      </trkpt>
      <trkpt lat="45.0217" lon="5.07659">
        <ele>191</ele>
        <time>2019-07-25T11:13:02Z</time>
      </trkpt>
      <trkpt lat="45.02139" lon="5.0766">
        <ele>192</ele>
        <time>2019-07-25T11:13:08Z</time>
      </trkpt>
      <trkpt lat="45.02103" lon="5.07673">
        <ele>192</ele>
        <time>2019-07-25T11:13:14Z</time>
      </trkpt>
      <trkpt lat="45.0202" lon="5.0771">
        <ele>193</ele>
        <time>2019-07-25T11:13:30Z</time>
      </trkpt>
      <trkpt lat="45.01959" lon="5.07751">
        <ele>194</ele>
        <time>2019-07-25T11:13:42Z</time>
      </trkpt>
      <trkpt lat="45.01908" lon="5.0779">
        <ele>195</ele>
        <time>2019-07-25T11:13:52Z</time>
      </trkpt>
      <trkpt lat="45.01865" lon="5.07834">
        <ele>195</ele>
        <time>2019-07-25T11:14:02Z</time>
      </trkpt>
      <trkpt lat="45.01824" lon="5.0789">
        <ele>196</ele>
        <time>2019-07-25T11:14:12Z</time>
      </trkpt>
      <trkpt lat="45.01729" lon="5.08028">
        <ele>196</ele>
        <time>2019-07-25T11:14:36Z</time>
      </trkpt>
      <trkpt lat="45.0167" lon="5.08082">
        <ele>195</ele>
        <time>2019-07-25T11:14:49Z</time>
      </trkpt>
      <trkpt lat="45.01527" lon="5.0822">
        <ele>198</ele>
        <time>2019-07-25T11:15:19Z</time>
      </trkpt>
      <trkpt lat="45.01473" lon="5.08282">
        <ele>199</ele>
        <time>2019-07-25T11:15:32Z</time>
      </trkpt>
      <trkpt lat="45.01408" lon="5.08368">
        <ele>199</ele>
        <time>2019-07-25T11:15:48Z</time>
      </trkpt>
      <trkpt lat="45.01392" lon="5.08385">
        <ele>199</ele>
        <time>2019-07-25T11:15:51Z</time>
      </trkpt>
      <trkpt lat="45.0133" lon="5.08414">
        <ele>201</ele>
        <time>2019-07-25T11:16:03Z</time>
      </trkpt>
      <trkpt lat="45.0132" lon="5.08422">
        <ele>201</ele>
        <time>2019-07-25T11:16:05Z</time>
      </trkpt>
      <trkpt lat="45.01305" lon="5.08441">
        <ele>201</ele>
        <time>2019-07-25T11:16:08Z</time>
      </trkpt>
      <trkpt lat="45.01252" lon="5.08532">
        <ele>202</ele>
        <time>2019-07-25T11:16:23Z</time>
      </trkpt>
      <trkpt lat="45.01177" lon="5.0864">
        <ele>204</ele>
        <time>2019-07-25T11:16:42Z</time>
      </trkpt>
      <trkpt lat="45.01152" lon="5.0868">
        <ele>204</ele>
        <time>2019-07-25T11:16:49Z</time>
      </trkpt>
      <trkpt lat="45.01119" lon="5.08745">
        <ele>205</ele>
        <time>2019-07-25T11:16:59Z</time>
      </trkpt>
      <trkpt lat="45.01104" lon="5.08781">
        <ele>205</ele>
        <time>2019-07-25T11:17:04Z</time>
      </trkpt>
      <trkpt lat="45.01089" lon="5.0881">
        <ele>205</ele>
        <time>2019-07-25T11:17:09Z</time>
      </trkpt>
      <trkpt lat="45.01076" lon="5.08827">
        <ele>205</ele>
        <time>2019-07-25T11:17:12Z</time>
      </trkpt>
      <trkpt lat="45.01015" lon="5.08879">
        <ele>206</ele>
        <time>2019-07-25T11:17:25Z</time>
      </trkpt>
      <trkpt lat="45.0099" lon="5.08894">
        <ele>206</ele>
        <time>2019-07-25T11:17:29Z</time>
      </trkpt>
      <trkpt lat="45.00978" lon="5.08895">
        <ele>206</ele>
        <time>2019-07-25T11:17:32Z</time>
      </trkpt>
      <trkpt lat="45.00935" lon="5.08893">
        <ele>207</ele>
        <time>2019-07-25T11:17:39Z</time>
      </trkpt>
      <trkpt lat="45.00922" lon="5.08895">
        <ele>207</ele>
        <time>2019-07-25T11:17:42Z</time>
      </trkpt>
      <trkpt lat="45.00893" lon="5.08908">
        <ele>208</ele>
        <time>2019-07-25T11:17:47Z</time>
      </trkpt>
      <trkpt lat="45.00828" lon="5.08944">
        <ele>212</ele>
        <time>2019-07-25T11:17:59Z</time>
      </trkpt>
      <trkpt lat="45.00787" lon="5.08975">
        <ele>213</ele>
        <time>2019-07-25T11:18:08Z</time>
      </trkpt>
      <trkpt lat="45.00723" lon="5.09037">
        <ele>215</ele>
        <time>2019-07-25T11:18:21Z</time>
      </trkpt>
      <trkpt lat="45.0069" lon="5.0906">
        <ele>216</ele>
        <time>2019-07-25T11:18:28Z</time>
      </trkpt>
      <trkpt lat="45.00636" lon="5.09083">
        <ele>217</ele>
        <time>2019-07-25T11:18:38Z</time>
      </trkpt>
      <trkpt lat="45.00521" lon="5.09157">
        <ele>220</ele>
        <time>2019-07-25T11:19:01Z</time>
      </trkpt>
      <trkpt lat="45.00445" lon="5.09216">
        <ele>221</ele>
        <time>2019-07-25T11:19:16Z</time>
      </trkpt>
      <trkpt lat="45.00289" lon="5.09304">
        <ele>224</ele>
        <time>2019-07-25T11:19:46Z</time>
      </trkpt>
      <trkpt lat="44.99947" lon="5.09599">
        <ele>231</ele>
        <time>2019-07-25T11:20:57Z</time>
      </trkpt>
      <trkpt lat="44.99919" lon="5.09619">
        <ele>232</ele>
        <time>2019-07-25T11:21:03Z</time>
      </trkpt>
      <trkpt lat="44.99837" lon="5.09654">
        <ele>234</ele>
        <time>2019-07-25T11:21:18Z</time>
      </trkpt>
      <trkpt lat="44.99701" lon="5.09739">
        <ele>237</ele>
        <time>2019-07-25T11:21:44Z</time>
      </trkpt>
      <trkpt lat="44.99669" lon="5.09765">
        <ele>238</ele>
        <time>2019-07-25T11:21:51Z</time>
      </trkpt>
      <trkpt lat="44.99509" lon="5.09911">
        <ele>243</ele>
        <time>2019-07-25T11:22:25Z</time>
      </trkpt>
      <trkpt lat="44.9944" lon="5.09964">
        <ele>244</ele>
        <time>2019-07-25T11:22:39Z</time>
      </trkpt>
      <trkpt lat="44.99365" lon="5.10027">
        <ele>246</ele>
        <time>2019-07-25T11:22:54Z</time>
      </trkpt>
      <trkpt lat="44.99214" lon="5.10148">
        <ele>250</ele>
        <time>2019-07-25T11:23:25Z</time>
      </trkpt>
      <trkpt lat="44.9919" lon="5.10167">
        <ele>250</ele>
        <time>2019-07-25T11:23:30Z</time>
      </trkpt>
      <trkpt lat="44.99165" lon="5.10183">
        <ele>251</ele>
        <time>2019-07-25T11:23:35Z</time>
      </trkpt>
      <trkpt lat="44.98993" lon="5.10239">
        <ele>255</ele>
        <time>2019-07-25T11:24:06Z</time>
      </trkpt>
      <trkpt lat="44.98955" lon="5.10247">
        <ele>257</ele>
        <time>2019-07-25T11:24:13Z</time>
      </trkpt>
      <trkpt lat="44.98934" lon="5.10241">
        <ele>257</ele>
        <time>2019-07-25T11:24:17Z</time>
      </trkpt>
      <trkpt lat="44.98935" lon="5.10232">
        <ele>257</ele>
        <time>2019-07-25T11:24:18Z</time>
      </trkpt>
      <trkpt lat="44.98931" lon="5.10223">
        <ele>257</ele>
        <time>2019-07-25T11:24:20Z</time>
      </trkpt>
      <trkpt lat="44.98928" lon="5.10219">
        <ele>257</ele>
        <time>2019-07-25T11:24:20Z</time>
      </trkpt>
      <trkpt lat="44.98921" lon="5.10218">
        <ele>257</ele>
        <time>2019-07-25T11:24:22Z</time>
      </trkpt>
      <trkpt lat="44.98915" lon="5.10221">
        <ele>257</ele>
        <time>2019-07-25T11:24:23Z</time>
      </trkpt>
      <trkpt lat="44.98912" lon="5.10227">
        <ele>258</ele>
        <time>2019-07-25T11:24:24Z</time>
      </trkpt>
      <trkpt lat="44.98911" lon="5.1024">
        <ele>258</ele>
        <time>2019-07-25T11:24:25Z</time>
      </trkpt>
      <trkpt lat="44.98916" lon="5.1025">
        <ele>258</ele>
        <time>2019-07-25T11:24:27Z</time>
      </trkpt>
      <trkpt lat="44.9888" lon="5.1032">
        <ele>259</ele>
        <time>2019-07-25T11:24:38Z</time>
      </trkpt>
      <trkpt lat="44.98815" lon="5.10442">
        <ele>263</ele>
        <time>2019-07-25T11:24:57Z</time>
      </trkpt>
      <trkpt lat="44.98762" lon="5.10533">
        <ele>266</ele>
        <time>2019-07-25T11:25:12Z</time>
      </trkpt>
      <trkpt lat="44.98544" lon="5.10712">
        <ele>273</ele>
        <time>2019-07-25T11:25:57Z</time>
      </trkpt>
      <trkpt lat="44.98356" lon="5.10831">
        <ele>278</ele>
        <time>2019-07-25T11:26:33Z</time>
      </trkpt>
      <trkpt lat="44.98271" lon="5.10881">
        <ele>281</ele>
        <time>2019-07-25T11:26:50Z</time>
      </trkpt>
      <trkpt lat="44.98249" lon="5.10905">
        <ele>282</ele>
        <time>2019-07-25T11:26:55Z</time>
      </trkpt>
      <trkpt lat="44.98166" lon="5.11015">
        <ele>285</ele>
        <time>2019-07-25T11:27:15Z</time>
      </trkpt>
      <trkpt lat="44.98116" lon="5.11055">
        <ele>287</ele>
        <time>2019-07-25T11:27:25Z</time>
      </trkpt>
      <trkpt lat="44.98006" lon="5.11195">
        <ele>294</ele>
        <time>2019-07-25T11:27:51Z</time>
      </trkpt>
      <trkpt lat="44.97957" lon="5.11255">
        <ele>296</ele>
        <time>2019-07-25T11:28:03Z</time>
      </trkpt>
      <trkpt lat="44.9779" lon="5.1136">
        <ele>302</ele>
        <time>2019-07-25T11:28:35Z</time>
      </trkpt>
      <trkpt lat="44.97723" lon="5.1142">
        <ele>305</ele>
        <time>2019-07-25T11:28:50Z</time>
      </trkpt>
      <trkpt lat="44.97646" lon="5.11533">
        <ele>309</ele>
        <time>2019-07-25T11:29:09Z</time>
      </trkpt>
      <trkpt lat="44.97509" lon="5.11757">
        <ele>319</ele>
        <time>2019-07-25T11:29:47Z</time>
      </trkpt>
      <trkpt lat="44.97478" lon="5.1178">
        <ele>320</ele>
        <time>2019-07-25T11:29:53Z</time>
      </trkpt>
      <trkpt lat="44.97263" lon="5.11855">
        <ele>328</ele>
        <time>2019-07-25T11:30:32Z</time>
      </trkpt>
      <trkpt lat="44.97195" lon="5.11899">
        <ele>330</ele>
        <time>2019-07-25T11:30:45Z</time>
      </trkpt>
      <trkpt lat="44.97082" lon="5.11965">
        <ele>334</ele>
        <time>2019-07-25T11:31:07Z</time>
      </trkpt>
      <trkpt lat="44.96978" lon="5.12029">
        <ele>339</ele>
        <time>2019-07-25T11:31:27Z</time>
      </trkpt>
      <trkpt lat="44.9695" lon="5.12059">
        <ele>340</ele>
        <time>2019-07-25T11:31:34Z</time>
      </trkpt>
      <trkpt lat="44.96885" lon="5.12157">
        <ele>345</ele>
        <time>2019-07-25T11:31:51Z</time>
      </trkpt>
      <trkpt lat="44.9677" lon="5.12318">
        <ele>353</ele>
        <time>2019-07-25T11:32:19Z</time>
      </trkpt>
      <trkpt lat="44.96721" lon="5.12382">
        <ele>356</ele>
        <time>2019-07-25T11:32:31Z</time>
      </trkpt>
      <trkpt lat="44.96657" lon="5.12439">
        <ele>358</ele>
        <time>2019-07-25T11:32:45Z</time>
      </trkpt>
      <trkpt lat="44.96584" lon="5.12508">
        <ele>361</ele>
        <time>2019-07-25T11:33:00Z</time>
      </trkpt>
      <trkpt lat="44.96541" lon="5.12556">
        <ele>366</ele>
        <time>2019-07-25T11:33:10Z</time>
      </trkpt>
      <trkpt lat="44.96474" lon="5.12648">
        <ele>371</ele>
        <time>2019-07-25T11:33:27Z</time>
      </trkpt>
      <trkpt lat="44.96447" lon="5.1267">
        <ele>372</ele>
        <time>2019-07-25T11:33:32Z</time>
      </trkpt>
      <trkpt lat="44.96373" lon="5.12717">
        <ele>376</ele>
        <time>2019-07-25T11:33:47Z</time>
      </trkpt>
      <trkpt lat="44.96252" lon="5.12782">
        <ele>381</ele>
        <time>2019-07-25T11:34:10Z</time>
      </trkpt>
      <trkpt lat="44.96222" lon="5.12811">
        <ele>383</ele>
        <time>2019-07-25T11:34:16Z</time>
      </trkpt>
      <trkpt lat="44.96168" lon="5.12872">
        <ele>387</ele>
        <time>2019-07-25T11:34:28Z</time>
      </trkpt>
      <trkpt lat="44.9612" lon="5.12924">
        <ele>389</ele>
        <time>2019-07-25T11:34:39Z</time>
      </trkpt>
      <trkpt lat="44.9607" lon="5.12989">
        <ele>391</ele>
        <time>2019-07-25T11:34:51Z</time>
      </trkpt>
      <trkpt lat="44.96028" lon="5.13056">
        <ele>394</ele>
        <time>2019-07-25T11:35:03Z</time>
      </trkpt>
      <trkpt lat="44.95953" lon="5.13188">
        <ele>400</ele>
        <time>2019-07-25T11:35:24Z</time>
      </trkpt>
      <trkpt lat="44.95941" lon="5.13196">
        <ele>401</ele>
        <time>2019-07-25T11:35:26Z</time>
      </trkpt>
      <trkpt lat="44.95929" lon="5.13197">
        <ele>401</ele>
        <time>2019-07-25T11:35:28Z</time>
      </trkpt>
      <trkpt lat="44.9592" lon="5.13208">
        <ele>402</ele>
        <time>2019-07-25T11:35:31Z</time>
      </trkpt>
      <trkpt lat="44.95921" lon="5.13231">
        <ele>402</ele>
        <time>2019-07-25T11:35:33Z</time>
      </trkpt>
      <trkpt lat="44.95918" lon="5.13252">
        <ele>403</ele>
        <time>2019-07-25T11:35:36Z</time>
      </trkpt>
      <trkpt lat="44.95858" lon="5.13374">
        <ele>408</ele>
        <time>2019-07-25T11:35:55Z</time>
      </trkpt>
      <trkpt lat="44.95703" lon="5.13648">
        <ele>417</ele>
        <time>2019-07-25T11:36:39Z</time>
      </trkpt>
      <trkpt lat="44.95663" lon="5.13722">
        <ele>419</ele>
        <time>2019-07-25T11:36:51Z</time>
      </trkpt>
      <trkpt lat="44.95648" lon="5.13734">
        <ele>418</ele>
        <time>2019-07-25T11:36:54Z</time>
      </trkpt>
      <trkpt lat="44.95652" lon="5.13765">
        <ele>420</ele>
        <time>2019-07-25T11:36:58Z</time>
      </trkpt>
      <trkpt lat="44.95653" lon="5.13825">
        <ele>422</ele>
        <time>2019-07-25T11:37:05Z</time>
      </trkpt>
      <trkpt lat="44.95652" lon="5.1385">
        <ele>423</ele>
        <time>2019-07-25T11:37:08Z</time>
      </trkpt>
      <trkpt lat="44.95638" lon="5.13983">
        <ele>426</ele>
        <time>2019-07-25T11:37:25Z</time>
      </trkpt>
      <trkpt lat="44.9562" lon="5.14066">
        <ele>429</ele>
        <time>2019-07-25T11:37:36Z</time>
      </trkpt>
      <trkpt lat="44.95596" lon="5.14151">
        <ele>432</ele>
        <time>2019-07-25T11:37:48Z</time>
      </trkpt>
      <trkpt lat="44.95566" lon="5.14197">
        <ele>434</ele>
        <time>2019-07-25T11:37:56Z</time>
      </trkpt>
      <trkpt lat="44.95538" lon="5.14219">
        <ele>435</ele>
        <time>2019-07-25T11:38:01Z</time>
      </trkpt>
      <trkpt lat="44.95513" lon="5.14228">
        <ele>436</ele>
        <time>2019-07-25T11:38:06Z</time>
      </trkpt>
      <trkpt lat="44.95451" lon="5.14267">
        <ele>436</ele>
        <time>2019-07-25T11:38:18Z</time>
      </trkpt>
      <trkpt lat="44.95402" lon="5.14306">
        <ele>440</ele>
        <time>2019-07-25T11:38:28Z</time>
      </trkpt>
      <trkpt lat="44.95366" lon="5.14328">
        <ele>440</ele>
        <time>2019-07-25T11:38:35Z</time>
      </trkpt>
      <trkpt lat="44.95333" lon="5.1434">
        <ele>440</ele>
        <time>2019-07-25T11:38:41Z</time>
      </trkpt>
      <trkpt lat="44.95286" lon="5.14368">
        <ele>451</ele>
        <time>2019-07-25T11:38:50Z</time>
      </trkpt>
      <trkpt lat="44.95247" lon="5.14411">
        <ele>452</ele>
        <time>2019-07-25T11:38:59Z</time>
      </trkpt>
      <trkpt lat="44.95211" lon="5.14419">
        <ele>452</ele>
        <time>2019-07-25T11:39:05Z</time>
      </trkpt>
      <trkpt lat="44.95191" lon="5.14446">
        <ele>451</ele>
        <time>2019-07-25T11:39:10Z</time>
      </trkpt>
      <trkpt lat="44.9516" lon="5.14493">
        <ele>441</ele>
        <time>2019-07-25T11:39:19Z</time>
      </trkpt>
      <trkpt lat="44.95146" lon="5.14522">
        <ele>440</ele>
        <time>2019-07-25T11:39:23Z</time>
      </trkpt>
      <trkpt lat="44.95119" lon="5.14566">
        <ele>440</ele>
        <time>2019-07-25T11:39:30Z</time>
      </trkpt>
      <trkpt lat="44.9508" lon="5.14588">
        <ele>440</ele>
        <time>2019-07-25T11:39:38Z</time>
      </trkpt>
      <trkpt lat="44.95014" lon="5.14618">
        <ele>449</ele>
        <time>2019-07-25T11:39:50Z</time>
      </trkpt>
      <trkpt lat="44.94971" lon="5.14653">
        <ele>454</ele>
        <time>2019-07-25T11:39:59Z</time>
      </trkpt>
      <trkpt lat="44.94926" lon="5.14694">
        <ele>458</ele>
        <time>2019-07-25T11:40:08Z</time>
      </trkpt>
      <trkpt lat="44.94897" lon="5.14715">
        <ele>459</ele>
        <time>2019-07-25T11:40:14Z</time>
      </trkpt>
      <trkpt lat="44.94853" lon="5.14727">
        <ele>460</ele>
        <time>2019-07-25T11:40:22Z</time>
      </trkpt>
      <trkpt lat="44.9483" lon="5.14737">
        <ele>460</ele>
        <time>2019-07-25T11:40:26Z</time>
      </trkpt>
      <trkpt lat="44.94808" lon="5.1476">
        <ele>465</ele>
        <time>2019-07-25T11:40:31Z</time>
      </trkpt>
      <trkpt lat="44.94781" lon="5.14791">
        <ele>474</ele>
        <time>2019-07-25T11:40:38Z</time>
      </trkpt>
      <trkpt lat="44.94751" lon="5.14808">
        <ele>477</ele>
        <time>2019-07-25T11:40:43Z</time>
      </trkpt>
      <trkpt lat="44.94719" lon="5.1482">
        <ele>477</ele>
        <time>2019-07-25T11:40:49Z</time>
      </trkpt>
      <trkpt lat="44.94663" lon="5.14827">
        <ele>471</ele>
        <time>2019-07-25T11:40:59Z</time>
      </trkpt>
      <trkpt lat="44.94633" lon="5.14847">
        <ele>474</ele>
        <time>2019-07-25T11:41:05Z</time>
      </trkpt>
      <trkpt lat="44.94493" lon="5.15049">
        <ele>483</ele>
        <time>2019-07-25T11:41:41Z</time>
      </trkpt>
      <trkpt lat="44.94474" lon="5.15099">
        <ele>487</ele>
        <time>2019-07-25T11:41:48Z</time>
      </trkpt>
      <trkpt lat="44.94452" lon="5.15314">
        <ele>500</ele>
        <time>2019-07-25T11:42:15Z</time>
      </trkpt>
      <trkpt lat="44.94442" lon="5.15372">
        <ele>503</ele>
        <time>2019-07-25T11:42:23Z</time>
      </trkpt>
      <trkpt lat="44.94414" lon="5.15453">
        <ele>501</ele>
        <time>2019-07-25T11:42:34Z</time>
      </trkpt>
      <trkpt lat="44.94301" lon="5.15981">
        <ele>544</ele>
        <time>2019-07-25T11:43:44Z</time>
      </trkpt>
      <trkpt lat="44.94288" lon="5.16045">
        <ele>549</ele>
        <time>2019-07-25T11:43:52Z</time>
      </trkpt>
      <trkpt lat="44.94267" lon="5.16113">
        <ele>547</ele>
        <time>2019-07-25T11:44:01Z</time>
      </trkpt>
      <trkpt lat="44.94226" lon="5.1622">
        <ele>549</ele>
        <time>2019-07-25T11:44:17Z</time>
      </trkpt>
      <trkpt lat="44.94213" lon="5.16226">
        <ele>552</ele>
        <time>2019-07-25T11:44:19Z</time>
      </trkpt>
      <trkpt lat="44.94204" lon="5.16226">
        <ele>554</ele>
        <time>2019-07-25T11:44:21Z</time>
      </trkpt>
      <trkpt lat="44.9419" lon="5.16218">
        <ele>557</ele>
        <time>2019-07-25T11:44:23Z</time>
      </trkpt>
      <trkpt lat="44.94187" lon="5.16209">
        <ele>558</ele>
        <time>2019-07-25T11:44:25Z</time>
      </trkpt>
      <trkpt lat="44.94189" lon="5.16128">
        <ele>558</ele>
        <time>2019-07-25T11:44:35Z</time>
      </trkpt>
      <trkpt lat="44.94186" lon="5.16036">
        <ele>556</ele>
        <time>2019-07-25T11:44:46Z</time>
      </trkpt>
      <trkpt lat="44.94183" lon="5.16007">
        <ele>557</ele>
        <time>2019-07-25T11:44:50Z</time>
      </trkpt>
      <trkpt lat="44.94162" lon="5.15915">
        <ele>562</ele>
        <time>2019-07-25T11:45:02Z</time>
      </trkpt>
      <trkpt lat="44.9416" lon="5.15887">
        <ele>562</ele>
        <time>2019-07-25T11:45:06Z</time>
      </trkpt>
      <trkpt lat="44.94162" lon="5.1583">
        <ele>560</ele>
        <time>2019-07-25T11:45:13Z</time>
      </trkpt>
      <trkpt lat="44.94151" lon="5.15801">
        <ele>561</ele>
        <time>2019-07-25T11:45:17Z</time>
      </trkpt>
      <trkpt lat="44.9394" lon="5.15598">
        <ele>579</ele>
        <time>2019-07-25T11:46:03Z</time>
      </trkpt>
      <trkpt lat="44.93926" lon="5.15591">
        <ele>578</ele>
        <time>2019-07-25T11:46:05Z</time>
      </trkpt>
      <trkpt lat="44.93919" lon="5.15597">
        <ele>581</ele>
        <time>2019-07-25T11:46:07Z</time>
      </trkpt>
      <trkpt lat="44.93921" lon="5.15611">
        <ele>586</ele>
        <time>2019-07-25T11:46:08Z</time>
      </trkpt>
      <trkpt lat="44.93951" lon="5.15628">
        <ele>586</ele>
        <time>2019-07-25T11:46:14Z</time>
      </trkpt>
      <trkpt lat="44.93989" lon="5.15669">
        <ele>588</ele>
        <time>2019-07-25T11:46:23Z</time>
      </trkpt>
      <trkpt lat="44.94021" lon="5.15719">
        <ele>591</ele>
        <time>2019-07-25T11:46:31Z</time>
      </trkpt>
      <trkpt lat="44.94039" lon="5.15765">
        <ele>594</ele>
        <time>2019-07-25T11:46:38Z</time>
      </trkpt>
      <trkpt lat="44.94052" lon="5.15818">
        <ele>597</ele>
        <time>2019-07-25T11:46:45Z</time>
      </trkpt>
      <trkpt lat="44.9406" lon="5.15873">
        <ele>597</ele>
        <time>2019-07-25T11:46:52Z</time>
      </trkpt>
      <trkpt lat="44.94059" lon="5.15894">
        <ele>599</ele>
        <time>2019-07-25T11:46:55Z</time>
      </trkpt>
      <trkpt lat="44.94051" lon="5.15898">
        <ele>602</ele>
        <time>2019-07-25T11:46:56Z</time>
      </trkpt>
      <trkpt lat="44.94044" lon="5.1589">
        <ele>605</ele>
        <time>2019-07-25T11:46:58Z</time>
      </trkpt>
      <trkpt lat="44.94045" lon="5.15866">
        <ele>604</ele>
        <time>2019-07-25T11:47:01Z</time>
      </trkpt>
      <trkpt lat="44.94038" lon="5.15822">
        <ele>604</ele>
        <time>2019-07-25T11:47:06Z</time>
      </trkpt>
      <trkpt lat="44.94015" lon="5.15774">
        <ele>605</ele>
        <time>2019-07-25T11:47:14Z</time>
      </trkpt>
      <trkpt lat="44.93991" lon="5.15737">
        <ele>605</ele>
        <time>2019-07-25T11:47:20Z</time>
      </trkpt>
      <trkpt lat="44.93964" lon="5.15711">
        <ele>608</ele>
        <time>2019-07-25T11:47:26Z</time>
      </trkpt>
      <trkpt lat="44.93923" lon="5.15695">
        <ele>616</ele>
        <time>2019-07-25T11:47:33Z</time>
      </trkpt>
      <trkpt lat="44.93865" lon="5.15682">
        <ele>618</ele>
        <time>2019-07-25T11:47:44Z</time>
      </trkpt>
      <trkpt lat="44.93755" lon="5.15679">
        <ele>622</ele>
        <time>2019-07-25T11:48:03Z</time>
      </trkpt>
      <trkpt lat="44.93743" lon="5.15686">
        <ele>623</ele>
        <time>2019-07-25T11:48:06Z</time>
      </trkpt>
      <trkpt lat="44.9373" lon="5.15704">
        <ele>626</ele>
        <time>2019-07-25T11:48:09Z</time>
      </trkpt>
      <trkpt lat="44.93706" lon="5.15758">
        <ele>638</ele>
        <time>2019-07-25T11:48:17Z</time>
      </trkpt>
      <trkpt lat="44.93709" lon="5.15769">
        <ele>641</ele>
        <time>2019-07-25T11:48:18Z</time>
      </trkpt>
      <trkpt lat="44.93716" lon="5.15772">
        <ele>642</ele>
        <time>2019-07-25T11:48:20Z</time>
      </trkpt>
      <trkpt lat="44.93726" lon="5.15753">
        <ele>638</ele>
        <time>2019-07-25T11:48:23Z</time>
      </trkpt>
      <trkpt lat="44.93748" lon="5.15719">
        <ele>632</ele>
        <time>2019-07-25T11:48:29Z</time>
      </trkpt>
      <trkpt lat="44.93769" lon="5.15717">
        <ele>632</ele>
        <time>2019-07-25T11:48:32Z</time>
      </trkpt>
      <trkpt lat="44.93862" lon="5.15745">
        <ele>641</ele>
        <time>2019-07-25T11:48:49Z</time>
      </trkpt>
      <trkpt lat="44.93929" lon="5.15785">
        <ele>646</ele>
        <time>2019-07-25T11:49:02Z</time>
      </trkpt>
      <trkpt lat="44.93946" lon="5.15806">
        <ele>644</ele>
        <time>2019-07-25T11:49:06Z</time>
      </trkpt>
      <trkpt lat="44.9395" lon="5.1583">
        <ele>649</ele>
        <time>2019-07-25T11:49:09Z</time>
      </trkpt>
      <trkpt lat="44.93949" lon="5.15876">
        <ele>654</ele>
        <time>2019-07-25T11:49:15Z</time>
      </trkpt>
      <trkpt lat="44.93945" lon="5.15934">
        <ele>661</ele>
        <time>2019-07-25T11:49:22Z</time>
      </trkpt>
      <trkpt lat="44.93943" lon="5.16">
        <ele>667</ele>
        <time>2019-07-25T11:49:31Z</time>
      </trkpt>
      <trkpt lat="44.93947" lon="5.16047">
        <ele>670</ele>
        <time>2019-07-25T11:49:37Z</time>
      </trkpt>
      <trkpt lat="44.93958" lon="5.1612">
        <ele>670</ele>
        <time>2019-07-25T11:49:46Z</time>
      </trkpt>
      <trkpt lat="44.93972" lon="5.16186">
        <ele>665</ele>
        <time>2019-07-25T11:49:55Z</time>
      </trkpt>
      <trkpt lat="44.93972" lon="5.16205">
        <ele>664</ele>
        <time>2019-07-25T11:49:57Z</time>
      </trkpt>
      <trkpt lat="44.93969" lon="5.1621">
        <ele>665</ele>
        <time>2019-07-25T11:49:58Z</time>
      </trkpt>
      <trkpt lat="44.93965" lon="5.16208">
        <ele>667</ele>
        <time>2019-07-25T11:49:59Z</time>
      </trkpt>
      <trkpt lat="44.93959" lon="5.16195">
        <ele>671</ele>
        <time>2019-07-25T11:50:01Z</time>
      </trkpt>
      <trkpt lat="44.93951" lon="5.16158">
        <ele>676</ele>
        <time>2019-07-25T11:50:06Z</time>
      </trkpt>
      <trkpt lat="44.93919" lon="5.16035">
        <ele>686</ele>
        <time>2019-07-25T11:50:22Z</time>
      </trkpt>
      <trkpt lat="44.93913" lon="5.15997">
        <ele>685</ele>
        <time>2019-07-25T11:50:27Z</time>
      </trkpt>
      <trkpt lat="44.93911" lon="5.15954">
        <ele>683</ele>
        <time>2019-07-25T11:50:32Z</time>
      </trkpt>
      <trkpt lat="44.93913" lon="5.159">
        <ele>677</ele>
        <time>2019-07-25T11:50:39Z</time>
      </trkpt>
      <trkpt lat="44.9391" lon="5.15864">
        <ele>673</ele>
        <time>2019-07-25T11:50:44Z</time>
      </trkpt>
      <trkpt lat="44.93898" lon="5.15849">
        <ele>672</ele>
        <time>2019-07-25T11:50:47Z</time>
      </trkpt>
      <trkpt lat="44.93875" lon="5.15845">
        <ele>674</ele>
        <time>2019-07-25T11:50:51Z</time>
      </trkpt>
      <trkpt lat="44.93834" lon="5.15858">
        <ele>681</ele>
        <time>2019-07-25T11:50:58Z</time>
      </trkpt>
      <trkpt lat="44.93818" lon="5.15869">
        <ele>681</ele>
        <time>2019-07-25T11:51:01Z</time>
      </trkpt>
      <trkpt lat="44.93812" lon="5.15877">
        <ele>682</ele>
        <time>2019-07-25T11:51:03Z</time>
      </trkpt>
      <trkpt lat="44.9381" lon="5.15889">
        <ele>685</ele>
        <time>2019-07-25T11:51:04Z</time>
      </trkpt>
      <trkpt lat="44.93815" lon="5.15894">
        <ele>687</ele>
        <time>2019-07-25T11:51:06Z</time>
      </trkpt>
      <trkpt lat="44.93826" lon="5.15892">
        <ele>688</ele>
        <time>2019-07-25T11:51:08Z</time>
      </trkpt>
      <trkpt lat="44.9386" lon="5.15865">
        <ele>680</ele>
        <time>2019-07-25T11:51:14Z</time>
      </trkpt>
      <trkpt lat="44.93878" lon="5.1587">
        <ele>678</ele>
        <time>2019-07-25T11:51:18Z</time>
      </trkpt>
      <trkpt lat="44.93892" lon="5.15895">
        <ele>680</ele>
        <time>2019-07-25T11:51:22Z</time>
      </trkpt>
      <trkpt lat="44.93891" lon="5.15922">
        <ele>685</ele>
        <time>2019-07-25T11:51:25Z</time>
      </trkpt>
      <trkpt lat="44.93879" lon="5.15981">
        <ele>696</ele>
        <time>2019-07-25T11:51:33Z</time>
      </trkpt>
      <trkpt lat="44.93888" lon="5.16076">
        <ele>703</ele>
        <time>2019-07-25T11:51:45Z</time>
      </trkpt>
      <trkpt lat="44.93892" lon="5.16158">
        <ele>705</ele>
        <time>2019-07-25T11:51:55Z</time>
      </trkpt>
      <trkpt lat="44.9389" lon="5.16187">
        <ele>705</ele>
        <time>2019-07-25T11:51:59Z</time>
      </trkpt>
      <trkpt lat="44.93876" lon="5.1622">
        <ele>707</ele>
        <time>2019-07-25T11:52:04Z</time>
      </trkpt>
      <trkpt lat="44.93844" lon="5.16284">
        <ele>709</ele>
        <time>2019-07-25T11:52:14Z</time>
      </trkpt>
      <trkpt lat="44.93827" lon="5.16302">
        <ele>710</ele>
        <time>2019-07-25T11:52:17Z</time>
      </trkpt>
      <trkpt lat="44.93809" lon="5.16307">
        <ele>712</ele>
        <time>2019-07-25T11:52:21Z</time>
      </trkpt>
      <trkpt lat="44.93777" lon="5.16302">
        <ele>720</ele>
        <time>2019-07-25T11:52:26Z</time>
      </trkpt>
      <trkpt lat="44.93762" lon="5.16292">
        <ele>726</ele>
        <time>2019-07-25T11:52:29Z</time>
      </trkpt>
      <trkpt lat="44.9376" lon="5.16284">
        <ele>729</ele>
        <time>2019-07-25T11:52:30Z</time>
      </trkpt>
      <trkpt lat="44.93765" lon="5.16278">
        <ele>729</ele>
        <time>2019-07-25T11:52:32Z</time>
      </trkpt>
      <trkpt lat="44.93775" lon="5.16281">
        <ele>726</ele>
        <time>2019-07-25T11:52:33Z</time>
      </trkpt>
      <trkpt lat="44.93786" lon="5.16287">
        <ele>722</ele>
        <time>2019-07-25T11:52:36Z</time>
      </trkpt>
      <trkpt lat="44.93808" lon="5.1629">
        <ele>717</ele>
        <time>2019-07-25T11:52:39Z</time>
      </trkpt>
      <trkpt lat="44.93819" lon="5.16284">
        <ele>716</ele>
        <time>2019-07-25T11:52:42Z</time>
      </trkpt>
      <trkpt lat="44.93829" lon="5.16271">
        <ele>717</ele>
        <time>2019-07-25T11:52:44Z</time>
      </trkpt>
      <trkpt lat="44.93841" lon="5.16241">
        <ele>719</ele>
        <time>2019-07-25T11:52:48Z</time>
      </trkpt>
      <trkpt lat="44.93844" lon="5.16186">
        <ele>724</ele>
        <time>2019-07-25T11:52:55Z</time>
      </trkpt>
      <trkpt lat="44.93843" lon="5.16136">
        <ele>725</ele>
        <time>2019-07-25T11:53:02Z</time>
      </trkpt>
      <trkpt lat="44.93835" lon="5.16082">
        <ele>725</ele>
        <time>2019-07-25T11:53:09Z</time>
      </trkpt>
      <trkpt lat="44.93827" lon="5.16042">
        <ele>721</ele>
        <time>2019-07-25T11:53:14Z</time>
      </trkpt>
      <trkpt lat="44.93816" lon="5.16025">
        <ele>719</ele>
        <time>2019-07-25T11:53:17Z</time>
      </trkpt>
      <trkpt lat="44.93801" lon="5.16022">
        <ele>718</ele>
        <time>2019-07-25T11:53:19Z</time>
      </trkpt>
      <trkpt lat="44.93771" lon="5.16039">
        <ele>722</ele>
        <time>2019-07-25T11:53:25Z</time>
      </trkpt>
      <trkpt lat="44.93719" lon="5.16091">
        <ele>733</ele>
        <time>2019-07-25T11:53:36Z</time>
      </trkpt>
      <trkpt lat="44.93682" lon="5.16119">
        <ele>736</ele>
        <time>2019-07-25T11:53:44Z</time>
      </trkpt>
      <trkpt lat="44.93644" lon="5.16129">
        <ele>735</ele>
        <time>2019-07-25T11:53:51Z</time>
      </trkpt>
      <trkpt lat="44.93612" lon="5.16127">
        <ele>732</ele>
        <time>2019-07-25T11:53:57Z</time>
      </trkpt>
      <trkpt lat="44.93597" lon="5.16145">
        <ele>736</ele>
        <time>2019-07-25T11:54:00Z</time>
      </trkpt>
      <trkpt lat="44.93563" lon="5.16195">
        <ele>744</ele>
        <time>2019-07-25T11:54:09Z</time>
      </trkpt>
      <trkpt lat="44.93542" lon="5.16213">
        <ele>745</ele>
        <time>2019-07-25T11:54:13Z</time>
      </trkpt>
      <trkpt lat="44.93508" lon="5.1623">
        <ele>743</ele>
        <time>2019-07-25T11:54:20Z</time>
      </trkpt>
      <trkpt lat="44.93491" lon="5.16236">
        <ele>740</ele>
        <time>2019-07-25T11:54:23Z</time>
      </trkpt>
      <trkpt lat="44.93481" lon="5.16258">
        <ele>740</ele>
        <time>2019-07-25T11:54:26Z</time>
      </trkpt>
      <trkpt lat="44.935" lon="5.16342">
        <ele>754</ele>
        <time>2019-07-25T11:54:37Z</time>
      </trkpt>
      <trkpt lat="44.93507" lon="5.16412">
        <ele>759</ele>
        <time>2019-07-25T11:54:46Z</time>
      </trkpt>
      <trkpt lat="44.93502" lon="5.16452">
        <ele>763</ele>
        <time>2019-07-25T11:54:51Z</time>
      </trkpt>
      <trkpt lat="44.93492" lon="5.16485">
        <ele>764</ele>
        <time>2019-07-25T11:54:56Z</time>
      </trkpt>
      <trkpt lat="44.93477" lon="5.16516">
        <ele>763</ele>
        <time>2019-07-25T11:55:00Z</time>
      </trkpt>
      <trkpt lat="44.93433" lon="5.16564">
        <ele>756</ele>
        <time>2019-07-25T11:55:10Z</time>
      </trkpt>
      <trkpt lat="44.93429" lon="5.16582">
        <ele>757</ele>
        <time>2019-07-25T11:55:13Z</time>
      </trkpt>
      <trkpt lat="44.93429" lon="5.166">
        <ele>759</ele>
        <time>2019-07-25T11:55:15Z</time>
      </trkpt>
      <trkpt lat="44.93435" lon="5.16669">
        <ele>764</ele>
        <time>2019-07-25T11:55:24Z</time>
      </trkpt>
      <trkpt lat="44.93431" lon="5.16693">
        <ele>764</ele>
        <time>2019-07-25T11:55:27Z</time>
      </trkpt>
      <trkpt lat="44.93422" lon="5.16732">
        <ele>765</ele>
        <time>2019-07-25T11:55:32Z</time>
      </trkpt>
      <trkpt lat="44.93417" lon="5.16756">
        <ele>766</ele>
        <time>2019-07-25T11:55:35Z</time>
      </trkpt>
      <trkpt lat="44.9343" lon="5.16797">
        <ele>767</ele>
        <time>2019-07-25T11:55:41Z</time>
      </trkpt>
      <trkpt lat="44.93434" lon="5.16823">
        <ele>767</ele>
        <time>2019-07-25T11:55:44Z</time>
      </trkpt>
      <trkpt lat="44.93431" lon="5.16848">
        <ele>768</ele>
        <time>2019-07-25T11:55:47Z</time>
      </trkpt>
      <trkpt lat="44.9338" lon="5.17059">
        <ele>795</ele>
        <time>2019-07-25T11:56:15Z</time>
      </trkpt>
      <trkpt lat="44.93371" lon="5.17081">
        <ele>799</ele>
        <time>2019-07-25T11:56:19Z</time>
      </trkpt>
      <trkpt lat="44.93352" lon="5.17098">
        <ele>800</ele>
        <time>2019-07-25T11:56:23Z</time>
      </trkpt>
      <trkpt lat="44.93334" lon="5.17099">
        <ele>797</ele>
        <time>2019-07-25T11:56:26Z</time>
      </trkpt>
      <trkpt lat="44.93321" lon="5.17095">
        <ele>791</ele>
        <time>2019-07-25T11:56:28Z</time>
      </trkpt>
      <trkpt lat="44.93301" lon="5.17085">
        <ele>782</ele>
        <time>2019-07-25T11:56:32Z</time>
      </trkpt>
      <trkpt lat="44.93291" lon="5.1709">
        <ele>781</ele>
        <time>2019-07-25T11:56:34Z</time>
      </trkpt>
      <trkpt lat="44.9325" lon="5.17174">
        <ele>796</ele>
        <time>2019-07-25T11:56:47Z</time>
      </trkpt>
      <trkpt lat="44.93239" lon="5.17216">
        <ele>799</ele>
        <time>2019-07-25T11:56:52Z</time>
      </trkpt>
      <trkpt lat="44.93212" lon="5.17346">
        <ele>816</ele>
        <time>2019-07-25T11:57:09Z</time>
      </trkpt>
      <trkpt lat="44.93203" lon="5.17363">
        <ele>817</ele>
        <time>2019-07-25T11:57:12Z</time>
      </trkpt>
      <trkpt lat="44.93182" lon="5.17378">
        <ele>817</ele>
        <time>2019-07-25T11:57:16Z</time>
      </trkpt>
      <trkpt lat="44.93155" lon="5.17376">
        <ele>811</ele>
        <time>2019-07-25T11:57:21Z</time>
      </trkpt>
      <trkpt lat="44.93136" lon="5.17387">
        <ele>810</ele>
        <time>2019-07-25T11:57:25Z</time>
      </trkpt>
      <trkpt lat="44.93121" lon="5.17408">
        <ele>812</ele>
        <time>2019-07-25T11:57:28Z</time>
      </trkpt>
      <trkpt lat="44.93104" lon="5.17456">
        <ele>818</ele>
        <time>2019-07-25T11:57:35Z</time>
      </trkpt>
      <trkpt lat="44.93082" lon="5.17495">
        <ele>822</ele>
        <time>2019-07-25T11:57:41Z</time>
      </trkpt>
      <trkpt lat="44.93053" lon="5.17536">
        <ele>823</ele>
        <time>2019-07-25T11:57:49Z</time>
      </trkpt>
      <trkpt lat="44.93022" lon="5.17567">
        <ele>826</ele>
        <time>2019-07-25T11:57:56Z</time>
      </trkpt>
      <trkpt lat="44.92965" lon="5.17602">
        <ele>831</ele>
        <time>2019-07-25T11:58:07Z</time>
      </trkpt>
      <trkpt lat="44.92918" lon="5.17623">
        <ele>834</ele>
        <time>2019-07-25T11:58:15Z</time>
      </trkpt>
      <trkpt lat="44.92846" lon="5.17649">
        <ele>839</ele>
        <time>2019-07-25T11:58:29Z</time>
      </trkpt>
      <trkpt lat="44.92807" lon="5.17672">
        <ele>836</ele>
        <time>2019-07-25T11:58:36Z</time>
      </trkpt>
      <trkpt lat="44.92796" lon="5.17692">
        <ele>838</ele>
        <time>2019-07-25T11:58:39Z</time>
      </trkpt>
      <trkpt lat="44.92792" lon="5.17717">
        <ele>842</ele>
        <time>2019-07-25T11:58:42Z</time>
      </trkpt>
      <trkpt lat="44.92799" lon="5.17763">
        <ele>855</ele>
        <time>2019-07-25T11:58:48Z</time>
      </trkpt>
      <trkpt lat="44.92797" lon="5.17782">
        <ele>858</ele>
        <time>2019-07-25T11:58:51Z</time>
      </trkpt>
      <trkpt lat="44.92788" lon="5.17797">
        <ele>857</ele>
        <time>2019-07-25T11:58:53Z</time>
      </trkpt>
      <trkpt lat="44.92767" lon="5.17818">
        <ele>851</ele>
        <time>2019-07-25T11:58:58Z</time>
      </trkpt>
      <trkpt lat="44.92765" lon="5.17833">
        <ele>853</ele>
        <time>2019-07-25T11:59:00Z</time>
      </trkpt>
      <trkpt lat="44.92766" lon="5.17885">
        <ele>860</ele>
        <time>2019-07-25T11:59:06Z</time>
      </trkpt>
      <trkpt lat="44.92765" lon="5.17921">
        <ele>864</ele>
        <time>2019-07-25T11:59:11Z</time>
      </trkpt>
      <trkpt lat="44.92757" lon="5.17959">
        <ele>867</ele>
        <time>2019-07-25T11:59:16Z</time>
      </trkpt>
      <trkpt lat="44.92736" lon="5.18002">
        <ele>870</ele>
        <time>2019-07-25T11:59:22Z</time>
      </trkpt>
      <trkpt lat="44.92703" lon="5.18084">
        <ele>877</ele>
        <time>2019-07-25T11:59:34Z</time>
      </trkpt>
      <trkpt lat="44.92691" lon="5.18093">
        <ele>878</ele>
        <time>2019-07-25T11:59:37Z</time>
      </trkpt>
      <trkpt lat="44.92683" lon="5.18104">
        <ele>880</ele>
        <time>2019-07-25T11:59:39Z</time>
      </trkpt>
      <trkpt lat="44.9267" lon="5.18103">
        <ele>877</ele>
        <time>2019-07-25T11:59:41Z</time>
      </trkpt>
      <trkpt lat="44.92642" lon="5.18088">
        <ele>875</ele>
        <time>2019-07-25T11:59:46Z</time>
      </trkpt>
      <trkpt lat="44.92605" lon="5.18086">
        <ele>882</ele>
        <time>2019-07-25T11:59:53Z</time>
      </trkpt>
      <trkpt lat="44.9257" lon="5.18072">
        <ele>884</ele>
        <time>2019-07-25T11:59:59Z</time>
      </trkpt>
      <trkpt lat="44.92553" lon="5.18043">
        <ele>878</ele>
        <time>2019-07-25T12:00:04Z</time>
      </trkpt>
      <trkpt lat="44.92536" lon="5.18029">
        <ele>875</ele>
        <time>2019-07-25T12:00:08Z</time>
      </trkpt>
      <trkpt lat="44.92515" lon="5.18033">
        <ele>880</ele>
        <time>2019-07-25T12:00:11Z</time>
      </trkpt>
      <trkpt lat="44.92479" lon="5.18056">
        <ele>890</ele>
        <time>2019-07-25T12:00:19Z</time>
      </trkpt>
      <trkpt lat="44.92434" lon="5.18072">
        <ele>896</ele>
        <time>2019-07-25T12:00:27Z</time>
      </trkpt>
      <trkpt lat="44.92384" lon="5.1808">
        <ele>902</ele>
        <time>2019-07-25T12:00:36Z</time>
      </trkpt>
      <trkpt lat="44.92356" lon="5.18081">
        <ele>904</ele>
        <time>2019-07-25T12:00:41Z</time>
      </trkpt>
      <trkpt lat="44.92281" lon="5.18065">
        <ele>906</ele>
        <time>2019-07-25T12:00:54Z</time>
      </trkpt>
      <trkpt lat="44.92254" lon="5.18064">
        <ele>909</ele>
        <time>2019-07-25T12:00:59Z</time>
      </trkpt>
      <trkpt lat="44.9225" lon="5.18074">
        <ele>911</ele>
        <time>2019-07-25T12:01:00Z</time>
      </trkpt>
      <trkpt lat="44.92259" lon="5.18078">
        <ele>911</ele>
        <time>2019-07-25T12:01:02Z</time>
      </trkpt>
      <trkpt lat="44.92277" lon="5.18081">
        <ele>910</ele>
        <time>2019-07-25T12:01:05Z</time>
      </trkpt>
      <trkpt lat="44.92347" lon="5.18122">
        <ele>920</ele>
        <time>2019-07-25T12:01:19Z</time>
      </trkpt>
      <trkpt lat="44.92381" lon="5.18133">
        <ele>922</ele>
        <time>2019-07-25T12:01:25Z</time>
      </trkpt>
      <trkpt lat="44.92474" lon="5.18145">
        <ele>922</ele>
        <time>2019-07-25T12:01:42Z</time>
      </trkpt>
      <trkpt lat="44.92495" lon="5.18156">
        <ele>925</ele>
        <time>2019-07-25T12:01:46Z</time>
      </trkpt>
      <trkpt lat="44.92516" lon="5.18175">
        <ele>928</ele>
        <time>2019-07-25T12:01:50Z</time>
      </trkpt>
      <trkpt lat="44.92546" lon="5.18213">
        <ele>935</ele>
        <time>2019-07-25T12:01:57Z</time>
      </trkpt>
      <trkpt lat="44.92607" lon="5.18272">
        <ele>942</ele>
        <time>2019-07-25T12:02:10Z</time>
      </trkpt>
      <trkpt lat="44.92648" lon="5.18296">
        <ele>944</ele>
        <time>2019-07-25T12:02:18Z</time>
      </trkpt>
      <trkpt lat="44.92682" lon="5.18308">
        <ele>944</ele>
        <time>2019-07-25T12:02:25Z</time>
      </trkpt>
      <trkpt lat="44.92716" lon="5.18319">
        <ele>943</ele>
        <time>2019-07-25T12:02:31Z</time>
      </trkpt>
      <trkpt lat="44.92749" lon="5.18316">
        <ele>938</ele>
        <time>2019-07-25T12:02:37Z</time>
      </trkpt>
      <trkpt lat="44.92757" lon="5.1832">
        <ele>936</ele>
        <time>2019-07-25T12:02:38Z</time>
      </trkpt>
      <trkpt lat="44.92759" lon="5.18331">
        <ele>938</ele>
        <time>2019-07-25T12:02:40Z</time>
      </trkpt>
      <trkpt lat="44.92749" lon="5.18336">
        <ele>943</ele>
        <time>2019-07-25T12:02:41Z</time>
      </trkpt>
      <trkpt lat="44.92657" lon="5.18332">
        <ele>954</ele>
        <time>2019-07-25T12:02:58Z</time>
      </trkpt>
      <trkpt lat="44.92635" lon="5.18328">
        <ele>956</ele>
        <time>2019-07-25T12:03:02Z</time>
      </trkpt>
      <trkpt lat="44.92568" lon="5.18306">
        <ele>960</ele>
        <time>2019-07-25T12:03:14Z</time>
      </trkpt>
      <trkpt lat="44.92505" lon="5.18274">
        <ele>964</ele>
        <time>2019-07-25T12:03:26Z</time>
      </trkpt>
      <trkpt lat="44.92487" lon="5.18267">
        <ele>964</ele>
        <time>2019-07-25T12:03:29Z</time>
      </trkpt>
      <trkpt lat="44.9238" lon="5.18272">
        <ele>974</ele>
        <time>2019-07-25T12:03:48Z</time>
      </trkpt>
      <trkpt lat="44.92328" lon="5.18272">
        <ele>977</ele>
        <time>2019-07-25T12:03:58Z</time>
      </trkpt>
      <trkpt lat="44.9227" lon="5.18263">
        <ele>984</ele>
        <time>2019-07-25T12:04:08Z</time>
      </trkpt>
      <trkpt lat="44.92218" lon="5.18271">
        <ele>992</ele>
        <time>2019-07-25T12:04:17Z</time>
      </trkpt>
      <trkpt lat="44.9217" lon="5.18259">
        <ele>989</ele>
        <time>2019-07-25T12:04:26Z</time>
      </trkpt>
      <trkpt lat="44.92156" lon="5.1826">
        <ele>990</ele>
        <time>2019-07-25T12:04:28Z</time>
      </trkpt>
      <trkpt lat="44.92153" lon="5.18264">
        <ele>993</ele>
        <time>2019-07-25T12:04:29Z</time>
      </trkpt>
      <trkpt lat="44.92155" lon="5.18271">
        <ele>996</ele>
        <time>2019-07-25T12:04:30Z</time>
      </trkpt>
      <trkpt lat="44.92181" lon="5.18277">
        <ele>997</ele>
        <time>2019-07-25T12:04:35Z</time>
      </trkpt>
      <trkpt lat="44.92213" lon="5.18294">
        <ele>1003</ele>
        <time>2019-07-25T12:04:41Z</time>
      </trkpt>
      <trkpt lat="44.92307" lon="5.18322">
        <ele>1002</ele>
        <time>2019-07-25T12:04:58Z</time>
      </trkpt>
      <trkpt lat="44.92431" lon="5.18367">
        <ele>1009</ele>
        <time>2019-07-25T12:05:21Z</time>
      </trkpt>
      <trkpt lat="44.92469" lon="5.18384">
        <ele>1012</ele>
        <time>2019-07-25T12:05:28Z</time>
      </trkpt>
      <trkpt lat="44.92644" lon="5.1849">
        <ele>1019</ele>
        <time>2019-07-25T12:06:02Z</time>
      </trkpt>
      <trkpt lat="44.92651" lon="5.18496">
        <ele>1020</ele>
        <time>2019-07-25T12:06:03Z</time>
      </trkpt>
      <trkpt lat="44.92652" lon="5.18501">
        <ele>1021</ele>
        <time>2019-07-25T12:06:04Z</time>
      </trkpt>
      <trkpt lat="44.9265" lon="5.18505">
        <ele>1023</ele>
        <time>2019-07-25T12:06:04Z</time>
      </trkpt>
      <trkpt lat="44.92643" lon="5.18505">
        <ele>1025</ele>
        <time>2019-07-25T12:06:06Z</time>
      </trkpt>
      <trkpt lat="44.92623" lon="5.18492">
        <ele>1025</ele>
        <time>2019-07-25T12:06:10Z</time>
      </trkpt>
      <trkpt lat="44.92572" lon="5.18475">
        <ele>1031</ele>
        <time>2019-07-25T12:06:19Z</time>
      </trkpt>
      <trkpt lat="44.92445" lon="5.18444">
        <ele>1042</ele>
        <time>2019-07-25T12:06:42Z</time>
      </trkpt>
      <trkpt lat="44.92384" lon="5.18438">
        <ele>1047</ele>
        <time>2019-07-25T12:06:53Z</time>
      </trkpt>
      <trkpt lat="44.92266" lon="5.18435">
        <ele>1060</ele>
        <time>2019-07-25T12:07:14Z</time>
      </trkpt>
      <trkpt lat="44.92233" lon="5.18427">
        <ele>1061</ele>
        <time>2019-07-25T12:07:20Z</time>
      </trkpt>
      <trkpt lat="44.92229" lon="5.18429">
        <ele>1063</ele>
        <time>2019-07-25T12:07:20Z</time>
      </trkpt>
      <trkpt lat="44.92227" lon="5.18433">
        <ele>1065</ele>
        <time>2019-07-25T12:07:21Z</time>
      </trkpt>
      <trkpt lat="44.92228" lon="5.18438">
        <ele>1067</ele>
        <time>2019-07-25T12:07:22Z</time>
      </trkpt>
      <trkpt lat="44.92232" lon="5.18441">
        <ele>1068</ele>
        <time>2019-07-25T12:07:23Z</time>
      </trkpt>
      <trkpt lat="44.92264" lon="5.18448">
        <ele>1066</ele>
        <time>2019-07-25T12:07:28Z</time>
      </trkpt>
      <trkpt lat="44.92407" lon="5.18499">
        <ele>1074</ele>
        <time>2019-07-25T12:07:55Z</time>
      </trkpt>
      <trkpt lat="44.92445" lon="5.18522">
        <ele>1078</ele>
        <time>2019-07-25T12:08:02Z</time>
      </trkpt>
      <trkpt lat="44.92509" lon="5.18545">
        <ele>1075</ele>
        <time>2019-07-25T12:08:14Z</time>
      </trkpt>
      <trkpt lat="44.92584" lon="5.18589">
        <ele>1079</ele>
        <time>2019-07-25T12:08:28Z</time>
      </trkpt>
      <trkpt lat="44.92589" lon="5.18599">
        <ele>1082</ele>
        <time>2019-07-25T12:08:30Z</time>
      </trkpt>
      <trkpt lat="44.92584" lon="5.18605">
        <ele>1086</ele>
        <time>2019-07-25T12:08:31Z</time>
      </trkpt>
      <trkpt lat="44.92578" lon="5.18605">
        <ele>1088</ele>
        <time>2019-07-25T12:08:32Z</time>
      </trkpt>
      <trkpt lat="44.92549" lon="5.18582">
        <ele>1083</ele>
        <time>2019-07-25T12:08:38Z</time>
      </trkpt>
      <trkpt lat="44.92527" lon="5.18575">
        <ele>1085</ele>
        <time>2019-07-25T12:08:42Z</time>
      </trkpt>
      <trkpt lat="44.925" lon="5.18571">
        <ele>1089</ele>
        <time>2019-07-25T12:08:47Z</time>
      </trkpt>
      <trkpt lat="44.92437" lon="5.18571">
        <ele>1101</ele>
        <time>2019-07-25T12:08:58Z</time>
      </trkpt>
      <trkpt lat="44.92411" lon="5.18559">
        <ele>1100</ele>
        <time>2019-07-25T12:09:03Z</time>
      </trkpt>
      <trkpt lat="44.92382" lon="5.18556">
        <ele>1102</ele>
        <time>2019-07-25T12:09:08Z</time>
      </trkpt>
      <trkpt lat="44.92256" lon="5.1857">
        <ele>1123</ele>
        <time>2019-07-25T12:09:30Z</time>
      </trkpt>
      <trkpt lat="44.92219" lon="5.18566">
        <ele>1129</ele>
        <time>2019-07-25T12:09:37Z</time>
      </trkpt>
      <trkpt lat="44.92173" lon="5.1855">
        <ele>1130</ele>
        <time>2019-07-25T12:09:45Z</time>
      </trkpt>
      <trkpt lat="44.9214" lon="5.1855">
        <ele>1134</ele>
        <time>2019-07-25T12:09:51Z</time>
      </trkpt>
      <trkpt lat="44.92105" lon="5.18538">
        <ele>1131</ele>
        <time>2019-07-25T12:09:58Z</time>
      </trkpt>
      <trkpt lat="44.92075" lon="5.18539">
        <ele>1135</ele>
        <time>2019-07-25T12:10:03Z</time>
      </trkpt>
      <trkpt lat="44.9204" lon="5.1853">
        <ele>1138</ele>
        <time>2019-07-25T12:10:09Z</time>
      </trkpt>
      <trkpt lat="44.91968" lon="5.18524">
        <ele>1149</ele>
        <time>2019-07-25T12:10:22Z</time>
      </trkpt>
      <trkpt lat="44.91943" lon="5.18517">
        <ele>1150</ele>
        <time>2019-07-25T12:10:27Z</time>
      </trkpt>
      <trkpt lat="44.91915" lon="5.1849">
        <ele>1144</ele>
        <time>2019-07-25T12:10:33Z</time>
      </trkpt>
      <trkpt lat="44.91895" lon="5.18465">
        <ele>1140</ele>
        <time>2019-07-25T12:10:38Z</time>
      </trkpt>
      <trkpt lat="44.91847" lon="5.1844">
        <ele>1143</ele>
        <time>2019-07-25T12:10:47Z</time>
      </trkpt>
      <trkpt lat="44.91776" lon="5.18399">
        <ele>1144</ele>
        <time>2019-07-25T12:11:00Z</time>
      </trkpt>
      <trkpt lat="44.91688" lon="5.18365">
        <ele>1138</ele>
        <time>2019-07-25T12:11:17Z</time>
      </trkpt>
      <trkpt lat="44.91684" lon="5.18365">
        <ele>1137</ele>
        <time>2019-07-25T12:11:17Z</time>
      </trkpt>
      <trkpt lat="44.91682" lon="5.1837">
        <ele>1135</ele>
        <time>2019-07-25T12:11:18Z</time>
      </trkpt>
      <trkpt lat="44.91683" lon="5.18374">
        <ele>1134</ele>
        <time>2019-07-25T12:11:18Z</time>
      </trkpt>
      <trkpt lat="44.9174" lon="5.18403">
        <ele>1138</ele>
        <time>2019-07-25T12:11:29Z</time>
      </trkpt>
      <trkpt lat="44.9176" lon="5.18426">
        <ele>1136</ele>
        <time>2019-07-25T12:11:34Z</time>
      </trkpt>
      <trkpt lat="44.91764" lon="5.18435">
        <ele>1136</ele>
        <time>2019-07-25T12:11:35Z</time>
      </trkpt>
      <trkpt lat="44.91763" lon="5.18438">
        <ele>1135</ele>
        <time>2019-07-25T12:11:36Z</time>
      </trkpt>
      <trkpt lat="44.9176" lon="5.1844">
        <ele>1134</ele>
        <time>2019-07-25T12:11:36Z</time>
      </trkpt>
      <trkpt lat="44.9173" lon="5.18419">
        <ele>1131</ele>
        <time>2019-07-25T12:11:42Z</time>
      </trkpt>
      <trkpt lat="44.91693" lon="5.18413">
        <ele>1123</ele>
        <time>2019-07-25T12:11:49Z</time>
      </trkpt>
      <trkpt lat="44.91665" lon="5.18404">
        <ele>1120</ele>
        <time>2019-07-25T12:11:54Z</time>
      </trkpt>
      <trkpt lat="44.91638" lon="5.18389">
        <ele>1116</ele>
        <time>2019-07-25T12:11:59Z</time>
      </trkpt>
      <trkpt lat="44.9162" lon="5.1837">
        <ele>1113</ele>
        <time>2019-07-25T12:12:03Z</time>
      </trkpt>
      <trkpt lat="44.91609" lon="5.18347">
        <ele>1113</ele>
        <time>2019-07-25T12:12:07Z</time>
      </trkpt>
      <trkpt lat="44.91603" lon="5.18329">
        <ele>1113</ele>
        <time>2019-07-25T12:12:09Z</time>
      </trkpt>
      <trkpt lat="44.91591" lon="5.18212">
        <ele>1120</ele>
        <time>2019-07-25T12:12:24Z</time>
      </trkpt>
      <trkpt lat="44.91586" lon="5.18191">
        <ele>1122</ele>
        <time>2019-07-25T12:12:27Z</time>
      </trkpt>
      <trkpt lat="44.91572" lon="5.1818">
        <ele>1123</ele>
        <time>2019-07-25T12:12:30Z</time>
      </trkpt>
      <trkpt lat="44.91505" lon="5.18236">
        <ele>1103</ele>
        <time>2019-07-25T12:12:43Z</time>
      </trkpt>
      <trkpt lat="44.91478" lon="5.18254">
        <ele>1096</ele>
        <time>2019-07-25T12:12:49Z</time>
      </trkpt>
      <trkpt lat="44.91465" lon="5.18259">
        <ele>1095</ele>
        <time>2019-07-25T12:12:51Z</time>
      </trkpt>
      <trkpt lat="44.91453" lon="5.18258">
        <ele>1095</ele>
        <time>2019-07-25T12:12:53Z</time>
      </trkpt>
      <trkpt lat="44.9144" lon="5.18246">
        <ele>1098</ele>
        <time>2019-07-25T12:12:56Z</time>
      </trkpt>
      <trkpt lat="44.91422" lon="5.18225">
        <ele>1103</ele>
        <time>2019-07-25T12:13:00Z</time>
      </trkpt>
      <trkpt lat="44.91411" lon="5.18218">
        <ele>1107</ele>
        <time>2019-07-25T12:13:02Z</time>
      </trkpt>
      <trkpt lat="44.91401" lon="5.18229">
        <ele>1108</ele>
        <time>2019-07-25T12:13:05Z</time>
      </trkpt>
      <trkpt lat="44.91395" lon="5.18248">
        <ele>1105</ele>
        <time>2019-07-25T12:13:07Z</time>
      </trkpt>
      <trkpt lat="44.9139" lon="5.18308">
        <ele>1092</ele>
        <time>2019-07-25T12:13:15Z</time>
      </trkpt>
      <trkpt lat="44.91382" lon="5.18343">
        <ele>1086</ele>
        <time>2019-07-25T12:13:19Z</time>
      </trkpt>
      <trkpt lat="44.91349" lon="5.18409">
        <ele>1083</ele>
        <time>2019-07-25T12:13:30Z</time>
      </trkpt>
      <trkpt lat="44.91274" lon="5.18526">
        <ele>1072</ele>
        <time>2019-07-25T12:13:50Z</time>
      </trkpt>
      <trkpt lat="44.9125" lon="5.1856">
        <ele>1067</ele>
        <time>2019-07-25T12:13:56Z</time>
      </trkpt>
      <trkpt lat="44.91233" lon="5.18574">
        <ele>1062</ele>
        <time>2019-07-25T12:13:59Z</time>
      </trkpt>
      <trkpt lat="44.91207" lon="5.18577">
        <ele>1059</ele>
        <time>2019-07-25T12:14:04Z</time>
      </trkpt>
      <trkpt lat="44.91174" lon="5.18566">
        <ele>1058</ele>
        <time>2019-07-25T12:14:10Z</time>
      </trkpt>
      <trkpt lat="44.91133" lon="5.18519">
        <ele>1060</ele>
        <time>2019-07-25T12:14:19Z</time>
      </trkpt>
      <trkpt lat="44.91066" lon="5.18421">
        <ele>1060</ele>
        <time>2019-07-25T12:14:36Z</time>
      </trkpt>
      <trkpt lat="44.91033" lon="5.18389">
        <ele>1060</ele>
        <time>2019-07-25T12:14:43Z</time>
      </trkpt>
      <trkpt lat="44.91005" lon="5.18378">
        <ele>1057</ele>
        <time>2019-07-25T12:14:49Z</time>
      </trkpt>
      <trkpt lat="44.90966" lon="5.1838">
        <ele>1055</ele>
        <time>2019-07-25T12:14:56Z</time>
      </trkpt>
      <trkpt lat="44.90945" lon="5.18394">
        <ele>1053</ele>
        <time>2019-07-25T12:15:00Z</time>
      </trkpt>
      <trkpt lat="44.90939" lon="5.18422">
        <ele>1050</ele>
        <time>2019-07-25T12:15:03Z</time>
      </trkpt>
      <trkpt lat="44.9095" lon="5.18445">
        <ele>1050</ele>
        <time>2019-07-25T12:15:07Z</time>
      </trkpt>
      <trkpt lat="44.90966" lon="5.18459">
        <ele>1047</ele>
        <time>2019-07-25T12:15:10Z</time>
      </trkpt>
      <trkpt lat="44.90987" lon="5.18491">
        <ele>1042</ele>
        <time>2019-07-25T12:15:16Z</time>
      </trkpt>
      <trkpt lat="44.91008" lon="5.18539">
        <ele>1041</ele>
        <time>2019-07-25T12:15:23Z</time>
      </trkpt>
      <trkpt lat="44.91054" lon="5.18694">
        <ele>1037</ele>
        <time>2019-07-25T12:15:44Z</time>
      </trkpt>
      <trkpt lat="44.91084" lon="5.18753">
        <ele>1028</ele>
        <time>2019-07-25T12:15:53Z</time>
      </trkpt>
      <trkpt lat="44.911" lon="5.18773">
        <ele>1024</ele>
        <time>2019-07-25T12:15:57Z</time>
      </trkpt>
      <trkpt lat="44.91117" lon="5.18789">
        <ele>1019</ele>
        <time>2019-07-25T12:16:01Z</time>
      </trkpt>
      <trkpt lat="44.9112" lon="5.18798">
        <ele>1018</ele>
        <time>2019-07-25T12:16:02Z</time>
      </trkpt>
      <trkpt lat="44.91118" lon="5.1881">
        <ele>1016</ele>
        <time>2019-07-25T12:16:03Z</time>
      </trkpt>
      <trkpt lat="44.91105" lon="5.18821">
        <ele>1016</ele>
        <time>2019-07-25T12:16:06Z</time>
      </trkpt>
      <trkpt lat="44.91036" lon="5.18864">
        <ele>1015</ele>
        <time>2019-07-25T12:16:20Z</time>
      </trkpt>
      <trkpt lat="44.9095" lon="5.18891">
        <ele>1015</ele>
        <time>2019-07-25T12:16:35Z</time>
      </trkpt>
      <trkpt lat="44.90829" lon="5.18943">
        <ele>1003</ele>
        <time>2019-07-25T12:16:58Z</time>
      </trkpt>
      <trkpt lat="44.90768" lon="5.18962">
        <ele>1002</ele>
        <time>2019-07-25T12:17:09Z</time>
      </trkpt>
      <trkpt lat="44.90734" lon="5.1898">
        <ele>997</ele>
        <time>2019-07-25T12:17:15Z</time>
      </trkpt>
      <trkpt lat="44.90693" lon="5.19014">
        <ele>987</ele>
        <time>2019-07-25T12:17:24Z</time>
      </trkpt>
      <trkpt lat="44.9067" lon="5.19024">
        <ele>987</ele>
        <time>2019-07-25T12:17:28Z</time>
      </trkpt>
      <trkpt lat="44.90635" lon="5.19031">
        <ele>991</ele>
        <time>2019-07-25T12:17:34Z</time>
      </trkpt>
      <trkpt lat="44.90617" lon="5.19038">
        <ele>991</ele>
        <time>2019-07-25T12:17:38Z</time>
      </trkpt>
      <trkpt lat="44.90617" lon="5.19043">
        <ele>989</ele>
        <time>2019-07-25T12:17:38Z</time>
      </trkpt>
      <trkpt lat="44.90627" lon="5.19048">
        <ele>986</ele>
        <time>2019-07-25T12:17:40Z</time>
      </trkpt>
      <trkpt lat="44.90908" lon="5.19034">
        <ele>959</ele>
        <time>2019-07-25T12:18:30Z</time>
      </trkpt>
      <trkpt lat="44.90993" lon="5.19039">
        <ele>950</ele>
        <time>2019-07-25T12:18:45Z</time>
      </trkpt>
      <trkpt lat="44.91078" lon="5.19064">
        <ele>938</ele>
        <time>2019-07-25T12:19:01Z</time>
      </trkpt>
      <trkpt lat="44.91119" lon="5.19087">
        <ele>934</ele>
        <time>2019-07-25T12:19:09Z</time>
      </trkpt>
      <trkpt lat="44.91132" lon="5.19104">
        <ele>933</ele>
        <time>2019-07-25T12:19:12Z</time>
      </trkpt>
      <trkpt lat="44.91156" lon="5.19145">
        <ele>930</ele>
        <time>2019-07-25T12:19:18Z</time>
      </trkpt>
      <trkpt lat="44.91221" lon="5.19241">
        <ele>919</ele>
        <time>2019-07-25T12:19:35Z</time>
      </trkpt>
      <trkpt lat="44.91225" lon="5.1925">
        <ele>918</ele>
        <time>2019-07-25T12:19:37Z</time>
      </trkpt>
      <trkpt lat="44.91227" lon="5.1926">
        <ele>918</ele>
        <time>2019-07-25T12:19:38Z</time>
      </trkpt>
      <trkpt lat="44.91202" lon="5.1926">
        <ele>917</ele>
        <time>2019-07-25T12:19:42Z</time>
      </trkpt>
      <trkpt lat="44.91205" lon="5.19317">
        <ele>915</ele>
        <time>2019-07-25T12:19:50Z</time>
      </trkpt>
      <trkpt lat="44.91204" lon="5.1936">
        <ele>913</ele>
        <time>2019-07-25T12:19:55Z</time>
      </trkpt>
      <trkpt lat="44.91201" lon="5.19385">
        <ele>912</ele>
        <time>2019-07-25T12:19:58Z</time>
      </trkpt>
      <trkpt lat="44.91192" lon="5.19423">
        <ele>910</ele>
        <time>2019-07-25T12:20:03Z</time>
      </trkpt>
      <trkpt lat="44.91189" lon="5.19451">
        <ele>909</ele>
        <time>2019-07-25T12:20:07Z</time>
      </trkpt>
      <trkpt lat="44.91185" lon="5.19503">
        <ele>908</ele>
        <time>2019-07-25T12:20:13Z</time>
      </trkpt>
      <trkpt lat="44.91187" lon="5.19526">
        <ele>911</ele>
        <time>2019-07-25T12:20:16Z</time>
      </trkpt>
      <trkpt lat="44.91189" lon="5.19538">
        <ele>912</ele>
        <time>2019-07-25T12:20:18Z</time>
      </trkpt>
      <trkpt lat="44.91195" lon="5.1955">
        <ele>913</ele>
        <time>2019-07-25T12:20:20Z</time>
      </trkpt>
      <trkpt lat="44.91203" lon="5.19559">
        <ele>914</ele>
        <time>2019-07-25T12:20:21Z</time>
      </trkpt>
      <trkpt lat="44.91211" lon="5.19565">
        <ele>914</ele>
        <time>2019-07-25T12:20:23Z</time>
      </trkpt>
      <trkpt lat="44.91299" lon="5.1958">
        <ele>916</ele>
        <time>2019-07-25T12:20:39Z</time>
      </trkpt>
      <trkpt lat="44.91314" lon="5.19585">
        <ele>918</ele>
        <time>2019-07-25T12:20:42Z</time>
      </trkpt>
      <trkpt lat="44.91327" lon="5.19594">
        <ele>920</ele>
        <time>2019-07-25T12:20:44Z</time>
      </trkpt>
      <trkpt lat="44.91358" lon="5.19619">
        <ele>925</ele>
        <time>2019-07-25T12:20:51Z</time>
      </trkpt>
      <trkpt lat="44.91367" lon="5.19624">
        <ele>926</ele>
        <time>2019-07-25T12:20:52Z</time>
      </trkpt>
      <trkpt lat="44.91377" lon="5.19625">
        <ele>927</ele>
        <time>2019-07-25T12:20:54Z</time>
      </trkpt>
      <trkpt lat="44.91414" lon="5.19612">
        <ele>925</ele>
        <time>2019-07-25T12:21:01Z</time>
      </trkpt>
      <trkpt lat="44.91437" lon="5.1961">
        <ele>925</ele>
        <time>2019-07-25T12:21:05Z</time>
      </trkpt>
      <trkpt lat="44.91511" lon="5.19623">
        <ele>931</ele>
        <time>2019-07-25T12:21:18Z</time>
      </trkpt>
      <trkpt lat="44.91589" lon="5.19641">
        <ele>938</ele>
        <time>2019-07-25T12:21:32Z</time>
      </trkpt>
      <trkpt lat="44.91655" lon="5.19677">
        <ele>948</ele>
        <time>2019-07-25T12:21:45Z</time>
      </trkpt>
      <trkpt lat="44.91726" lon="5.19731">
        <ele>959</ele>
        <time>2019-07-25T12:21:59Z</time>
      </trkpt>
      <trkpt lat="44.91743" lon="5.19741">
        <ele>960</ele>
        <time>2019-07-25T12:22:02Z</time>
      </trkpt>
      <trkpt lat="44.91772" lon="5.19751">
        <ele>960</ele>
        <time>2019-07-25T12:22:08Z</time>
      </trkpt>
      <trkpt lat="44.91826" lon="5.19777">
        <ele>963</ele>
        <time>2019-07-25T12:22:18Z</time>
      </trkpt>
      <trkpt lat="44.91849" lon="5.19786">
        <ele>962</ele>
        <time>2019-07-25T12:22:22Z</time>
      </trkpt>
      <trkpt lat="44.91853" lon="5.19791">
        <ele>963</ele>
        <time>2019-07-25T12:22:23Z</time>
      </trkpt>
      <trkpt lat="44.91854" lon="5.19798">
        <ele>965</ele>
        <time>2019-07-25T12:22:24Z</time>
      </trkpt>
      <trkpt lat="44.91854" lon="5.19806">
        <ele>967</ele>
        <time>2019-07-25T12:22:25Z</time>
      </trkpt>
      <trkpt lat="44.9185" lon="5.19811">
        <ele>969</ele>
        <time>2019-07-25T12:22:26Z</time>
      </trkpt>
      <trkpt lat="44.91844" lon="5.19812">
        <ele>971</ele>
        <time>2019-07-25T12:22:27Z</time>
      </trkpt>
      <trkpt lat="44.91814" lon="5.19801">
        <ele>972</ele>
        <time>2019-07-25T12:22:33Z</time>
      </trkpt>
      <trkpt lat="44.91709" lon="5.19793">
        <ele>980</ele>
        <time>2019-07-25T12:22:51Z</time>
      </trkpt>
      <trkpt lat="44.91665" lon="5.19793">
        <ele>984</ele>
        <time>2019-07-25T12:22:59Z</time>
      </trkpt>
      <trkpt lat="44.91547" lon="5.19817">
        <ele>993</ele>
        <time>2019-07-25T12:23:20Z</time>
      </trkpt>
      <trkpt lat="44.9149" lon="5.19815">
        <ele>993</ele>
        <time>2019-07-25T12:23:30Z</time>
      </trkpt>
      <trkpt lat="44.91469" lon="5.19819">
        <ele>993</ele>
        <time>2019-07-25T12:23:34Z</time>
      </trkpt>
      <trkpt lat="44.91367" lon="5.19852">
        <ele>998</ele>
        <time>2019-07-25T12:23:53Z</time>
      </trkpt>
      <trkpt lat="44.91341" lon="5.19858">
        <ele>998</ele>
        <time>2019-07-25T12:23:58Z</time>
      </trkpt>
      <trkpt lat="44.91337" lon="5.19864">
        <ele>1001</ele>
        <time>2019-07-25T12:23:59Z</time>
      </trkpt>
      <trkpt lat="44.91336" lon="5.19871">
        <ele>1004</ele>
        <time>2019-07-25T12:23:59Z</time>
      </trkpt>
      <trkpt lat="44.91337" lon="5.19881">
        <ele>1008</ele>
        <time>2019-07-25T12:24:01Z</time>
      </trkpt>
      <trkpt lat="44.91341" lon="5.19885">
        <ele>1010</ele>
        <time>2019-07-25T12:24:02Z</time>
      </trkpt>
      <trkpt lat="44.91347" lon="5.19886">
        <ele>1011</ele>
        <time>2019-07-25T12:24:03Z</time>
      </trkpt>
      <trkpt lat="44.91356" lon="5.19882">
        <ele>1010</ele>
        <time>2019-07-25T12:24:04Z</time>
      </trkpt>
      <trkpt lat="44.91367" lon="5.19873">
        <ele>1007</ele>
        <time>2019-07-25T12:24:07Z</time>
      </trkpt>
      <trkpt lat="44.91376" lon="5.19871">
        <ele>1007</ele>
        <time>2019-07-25T12:24:08Z</time>
      </trkpt>
      <trkpt lat="44.91416" lon="5.19871">
        <ele>1011</ele>
        <time>2019-07-25T12:24:15Z</time>
      </trkpt>
      <trkpt lat="44.91436" lon="5.19872">
        <ele>1013</ele>
        <time>2019-07-25T12:24:19Z</time>
      </trkpt>
      <trkpt lat="44.91471" lon="5.1988">
        <ele>1018</ele>
        <time>2019-07-25T12:24:25Z</time>
      </trkpt>
      <trkpt lat="44.91495" lon="5.19883">
        <ele>1020</ele>
        <time>2019-07-25T12:24:30Z</time>
      </trkpt>
      <trkpt lat="44.91531" lon="5.19883">
        <ele>1021</ele>
        <time>2019-07-25T12:24:36Z</time>
      </trkpt>
      <trkpt lat="44.91616" lon="5.19893">
        <ele>1025</ele>
        <time>2019-07-25T12:24:51Z</time>
      </trkpt>
      <trkpt lat="44.91628" lon="5.19896">
        <ele>1026</ele>
        <time>2019-07-25T12:24:53Z</time>
      </trkpt>
      <trkpt lat="44.91641" lon="5.19902">
        <ele>1029</ele>
        <time>2019-07-25T12:24:56Z</time>
      </trkpt>
      <trkpt lat="44.91756" lon="5.19959">
        <ele>1041</ele>
        <time>2019-07-25T12:25:17Z</time>
      </trkpt>
      <trkpt lat="44.91776" lon="5.19967">
        <ele>1042</ele>
        <time>2019-07-25T12:25:21Z</time>
      </trkpt>
      <trkpt lat="44.91814" lon="5.19977">
        <ele>1041</ele>
        <time>2019-07-25T12:25:28Z</time>
      </trkpt>
      <trkpt lat="44.9183" lon="5.19985">
        <ele>1042</ele>
        <time>2019-07-25T12:25:31Z</time>
      </trkpt>
      <trkpt lat="44.91892" lon="5.20024">
        <ele>1049</ele>
        <time>2019-07-25T12:25:43Z</time>
      </trkpt>
      <trkpt lat="44.91945" lon="5.20066">
        <ele>1055</ele>
        <time>2019-07-25T12:25:54Z</time>
      </trkpt>
      <trkpt lat="44.92003" lon="5.20119">
        <ele>1065</ele>
        <time>2019-07-25T12:26:06Z</time>
      </trkpt>
      <trkpt lat="44.92128" lon="5.20204">
        <ele>1067</ele>
        <time>2019-07-25T12:26:31Z</time>
      </trkpt>
      <trkpt lat="44.92145" lon="5.20213">
        <ele>1066</ele>
        <time>2019-07-25T12:26:34Z</time>
      </trkpt>
      <trkpt lat="44.92155" lon="5.20222">
        <ele>1068</ele>
        <time>2019-07-25T12:26:36Z</time>
      </trkpt>
      <trkpt lat="44.92165" lon="5.20243">
        <ele>1074</ele>
        <time>2019-07-25T12:26:39Z</time>
      </trkpt>
      <trkpt lat="44.92165" lon="5.20254">
        <ele>1077</ele>
        <time>2019-07-25T12:26:41Z</time>
      </trkpt>
      <trkpt lat="44.92159" lon="5.20271">
        <ele>1080</ele>
        <time>2019-07-25T12:26:43Z</time>
      </trkpt>
      <trkpt lat="44.92155" lon="5.20275">
        <ele>1081</ele>
        <time>2019-07-25T12:26:44Z</time>
      </trkpt>
      <trkpt lat="44.92127" lon="5.20282">
        <ele>1086</ele>
        <time>2019-07-25T12:26:49Z</time>
      </trkpt>
      <trkpt lat="44.92119" lon="5.20288">
        <ele>1087</ele>
        <time>2019-07-25T12:26:51Z</time>
      </trkpt>
      <trkpt lat="44.92109" lon="5.20303">
        <ele>1090</ele>
        <time>2019-07-25T12:26:53Z</time>
      </trkpt>
      <trkpt lat="44.92086" lon="5.20372">
        <ele>1092</ele>
        <time>2019-07-25T12:27:03Z</time>
      </trkpt>
      <trkpt lat="44.92056" lon="5.20429">
        <ele>1100</ele>
        <time>2019-07-25T12:27:12Z</time>
      </trkpt>
      <trkpt lat="44.92046" lon="5.20473">
        <ele>1102</ele>
        <time>2019-07-25T12:27:18Z</time>
      </trkpt>
      <trkpt lat="44.92024" lon="5.20581">
        <ele>1105</ele>
        <time>2019-07-25T12:27:32Z</time>
      </trkpt>
      <trkpt lat="44.92017" lon="5.20602">
        <ele>1106</ele>
        <time>2019-07-25T12:27:35Z</time>
      </trkpt>
      <trkpt lat="44.92009" lon="5.20616">
        <ele>1108</ele>
        <time>2019-07-25T12:27:37Z</time>
      </trkpt>
      <trkpt lat="44.91998" lon="5.20631">
        <ele>1110</ele>
        <time>2019-07-25T12:27:40Z</time>
      </trkpt>
      <trkpt lat="44.91979" lon="5.2065">
        <ele>1113</ele>
        <time>2019-07-25T12:27:44Z</time>
      </trkpt>
      <trkpt lat="44.91958" lon="5.20675">
        <ele>1116</ele>
        <time>2019-07-25T12:27:49Z</time>
      </trkpt>
      <trkpt lat="44.91921" lon="5.2075">
        <ele>1120</ele>
        <time>2019-07-25T12:28:00Z</time>
      </trkpt>
      <trkpt lat="44.91911" lon="5.20765">
        <ele>1120</ele>
        <time>2019-07-25T12:28:03Z</time>
      </trkpt>
      <trkpt lat="44.91895" lon="5.20783">
        <ele>1121</ele>
        <time>2019-07-25T12:28:07Z</time>
      </trkpt>
      <trkpt lat="44.91841" lon="5.20816">
        <ele>1127</ele>
        <time>2019-07-25T12:28:17Z</time>
      </trkpt>
      <trkpt lat="44.91769" lon="5.20867">
        <ele>1134</ele>
        <time>2019-07-25T12:28:31Z</time>
      </trkpt>
      <trkpt lat="44.91685" lon="5.20935">
        <ele>1141</ele>
        <time>2019-07-25T12:28:49Z</time>
      </trkpt>
      <trkpt lat="44.91662" lon="5.20949">
        <ele>1143</ele>
        <time>2019-07-25T12:28:53Z</time>
      </trkpt>
      <trkpt lat="44.91642" lon="5.20956">
        <ele>1145</ele>
        <time>2019-07-25T12:28:57Z</time>
      </trkpt>
      <trkpt lat="44.91623" lon="5.2096">
        <ele>1146</ele>
        <time>2019-07-25T12:29:00Z</time>
      </trkpt>
      <trkpt lat="44.91571" lon="5.20955">
        <ele>1152</ele>
        <time>2019-07-25T12:29:09Z</time>
      </trkpt>
      <trkpt lat="44.91503" lon="5.20959">
        <ele>1156</ele>
        <time>2019-07-25T12:29:21Z</time>
      </trkpt>
      <trkpt lat="44.91484" lon="5.20958">
        <ele>1158</ele>
        <time>2019-07-25T12:29:25Z</time>
      </trkpt>
      <trkpt lat="44.91465" lon="5.20954">
        <ele>1159</ele>
        <time>2019-07-25T12:29:28Z</time>
      </trkpt>
      <trkpt lat="44.91444" lon="5.20941">
        <ele>1161</ele>
        <time>2019-07-25T12:29:32Z</time>
      </trkpt>
      <trkpt lat="44.91264" lon="5.20825">
        <ele>1181</ele>
        <time>2019-07-25T12:30:08Z</time>
      </trkpt>
      <trkpt lat="44.91237" lon="5.20816">
        <ele>1184</ele>
        <time>2019-07-25T12:30:13Z</time>
      </trkpt>
      <trkpt lat="44.91216" lon="5.20813">
        <ele>1186</ele>
        <time>2019-07-25T12:30:16Z</time>
      </trkpt>
      <trkpt lat="44.91194" lon="5.20815">
        <ele>1188</ele>
        <time>2019-07-25T12:30:20Z</time>
      </trkpt>
      <trkpt lat="44.91166" lon="5.20821">
        <ele>1190</ele>
        <time>2019-07-25T12:30:25Z</time>
      </trkpt>
      <trkpt lat="44.91145" lon="5.20833">
        <ele>1191</ele>
        <time>2019-07-25T12:30:29Z</time>
      </trkpt>
      <trkpt lat="44.9112" lon="5.20859">
        <ele>1192</ele>
        <time>2019-07-25T12:30:35Z</time>
      </trkpt>
      <trkpt lat="44.911" lon="5.20891">
        <ele>1193</ele>
        <time>2019-07-25T12:30:40Z</time>
      </trkpt>
      <trkpt lat="44.91085" lon="5.20925">
        <ele>1193</ele>
        <time>2019-07-25T12:30:45Z</time>
      </trkpt>
      <trkpt lat="44.91074" lon="5.20978">
        <ele>1195</ele>
        <time>2019-07-25T12:30:52Z</time>
      </trkpt>
      <trkpt lat="44.9106" lon="5.21071">
        <ele>1198</ele>
        <time>2019-07-25T12:31:04Z</time>
      </trkpt>
      <trkpt lat="44.9106" lon="5.21108">
        <ele>1199</ele>
        <time>2019-07-25T12:31:09Z</time>
      </trkpt>
      <trkpt lat="44.91062" lon="5.21154">
        <ele>1199</ele>
        <time>2019-07-25T12:31:15Z</time>
      </trkpt>
      <trkpt lat="44.91061" lon="5.21178">
        <ele>1199</ele>
        <time>2019-07-25T12:31:18Z</time>
      </trkpt>
      <trkpt lat="44.91055" lon="5.21208">
        <ele>1199</ele>
        <time>2019-07-25T12:31:22Z</time>
      </trkpt>
      <trkpt lat="44.91048" lon="5.2123">
        <ele>1200</ele>
        <time>2019-07-25T12:31:25Z</time>
      </trkpt>
      <trkpt lat="44.91034" lon="5.21256">
        <ele>1201</ele>
        <time>2019-07-25T12:31:29Z</time>
      </trkpt>
      <trkpt lat="44.9098" lon="5.21333">
        <ele>1204</ele>
        <time>2019-07-25T12:31:42Z</time>
      </trkpt>
      <trkpt lat="44.90959" lon="5.21357">
        <ele>1203</ele>
        <time>2019-07-25T12:31:47Z</time>
      </trkpt>
      <trkpt lat="44.90943" lon="5.21367">
        <ele>1203</ele>
        <time>2019-07-25T12:31:50Z</time>
      </trkpt>
      <trkpt lat="44.90925" lon="5.21376">
        <ele>1204</ele>
        <time>2019-07-25T12:31:54Z</time>
      </trkpt>
      <trkpt lat="44.909" lon="5.21385">
        <ele>1206</ele>
        <time>2019-07-25T12:31:58Z</time>
      </trkpt>
      <trkpt lat="44.90882" lon="5.21397">
        <ele>1209</ele>
        <time>2019-07-25T12:32:02Z</time>
      </trkpt>
      <trkpt lat="44.90865" lon="5.21425">
        <ele>1211</ele>
        <time>2019-07-25T12:32:06Z</time>
      </trkpt>
      <trkpt lat="44.90858" lon="5.21458">
        <ele>1212</ele>
        <time>2019-07-25T12:32:11Z</time>
      </trkpt>
      <trkpt lat="44.90862" lon="5.2149">
        <ele>1211</ele>
        <time>2019-07-25T12:32:15Z</time>
      </trkpt>
      <trkpt lat="44.90871" lon="5.21515">
        <ele>1214</ele>
        <time>2019-07-25T12:32:18Z</time>
      </trkpt>
      <trkpt lat="44.90893" lon="5.21545">
        <ele>1217</ele>
        <time>2019-07-25T12:32:24Z</time>
      </trkpt>
      <trkpt lat="44.90912" lon="5.21566">
        <ele>1218</ele>
        <time>2019-07-25T12:32:28Z</time>
      </trkpt>
      <trkpt lat="44.90932" lon="5.21578">
        <ele>1219</ele>
        <time>2019-07-25T12:32:32Z</time>
      </trkpt>
      <trkpt lat="44.90973" lon="5.21596">
        <ele>1218</ele>
        <time>2019-07-25T12:32:40Z</time>
      </trkpt>
      <trkpt lat="44.90982" lon="5.21605">
        <ele>1219</ele>
        <time>2019-07-25T12:32:42Z</time>
      </trkpt>
      <trkpt lat="44.90989" lon="5.21616">
        <ele>1220</ele>
        <time>2019-07-25T12:32:44Z</time>
      </trkpt>
      <trkpt lat="44.90992" lon="5.2163">
        <ele>1221</ele>
        <time>2019-07-25T12:32:45Z</time>
      </trkpt>
      <trkpt lat="44.90991" lon="5.21649">
        <ele>1224</ele>
        <time>2019-07-25T12:32:48Z</time>
      </trkpt>
      <trkpt lat="44.90978" lon="5.21697">
        <ele>1235</ele>
        <time>2019-07-25T12:32:54Z</time>
      </trkpt>
      <trkpt lat="44.90979" lon="5.2171">
        <ele>1237</ele>
        <time>2019-07-25T12:32:56Z</time>
      </trkpt>
      <trkpt lat="44.90983" lon="5.2172">
        <ele>1238</ele>
        <time>2019-07-25T12:32:57Z</time>
      </trkpt>
      <trkpt lat="44.90991" lon="5.21728">
        <ele>1237</ele>
        <time>2019-07-25T12:32:59Z</time>
      </trkpt>
      <trkpt lat="44.91041" lon="5.21746">
        <ele>1233</ele>
        <time>2019-07-25T12:33:08Z</time>
      </trkpt>
      <trkpt lat="44.91056" lon="5.21754">
        <ele>1233</ele>
        <time>2019-07-25T12:33:11Z</time>
      </trkpt>
      <trkpt lat="44.91116" lon="5.21807">
        <ele>1240</ele>
        <time>2019-07-25T12:33:24Z</time>
      </trkpt>
      <trkpt lat="44.91135" lon="5.21819">
        <ele>1241</ele>
        <time>2019-07-25T12:33:27Z</time>
      </trkpt>
      <trkpt lat="44.91145" lon="5.21829">
        <ele>1243</ele>
        <time>2019-07-25T12:33:30Z</time>
      </trkpt>
      <trkpt lat="44.91151" lon="5.21841">
        <ele>1245</ele>
        <time>2019-07-25T12:33:31Z</time>
      </trkpt>
      <trkpt lat="44.91161" lon="5.21875">
        <ele>1249</ele>
        <time>2019-07-25T12:33:36Z</time>
      </trkpt>
      <trkpt lat="44.91177" lon="5.2191">
        <ele>1253</ele>
        <time>2019-07-25T12:33:41Z</time>
      </trkpt>
      <trkpt lat="44.91206" lon="5.21967">
        <ele>1258</ele>
        <time>2019-07-25T12:33:50Z</time>
      </trkpt>
      <trkpt lat="44.91213" lon="5.21986">
        <ele>1259</ele>
        <time>2019-07-25T12:33:53Z</time>
      </trkpt>
      <trkpt lat="44.91218" lon="5.22013">
        <ele>1260</ele>
        <time>2019-07-25T12:33:56Z</time>
      </trkpt>
      <trkpt lat="44.91216" lon="5.22099">
        <ele>1268</ele>
        <time>2019-07-25T12:34:07Z</time>
      </trkpt>
      <trkpt lat="44.91217" lon="5.22153">
        <ele>1274</ele>
        <time>2019-07-25T12:34:14Z</time>
      </trkpt>
      <trkpt lat="44.9122" lon="5.22182">
        <ele>1277</ele>
        <time>2019-07-25T12:34:18Z</time>
      </trkpt>
      <trkpt lat="44.91229" lon="5.22204">
        <ele>1278</ele>
        <time>2019-07-25T12:34:21Z</time>
      </trkpt>
      <trkpt lat="44.91287" lon="5.22278">
        <ele>1274</ele>
        <time>2019-07-25T12:34:35Z</time>
      </trkpt>
      <trkpt lat="44.91309" lon="5.22309">
        <ele>1274</ele>
        <time>2019-07-25T12:34:40Z</time>
      </trkpt>
      <trkpt lat="44.91324" lon="5.2234">
        <ele>1275</ele>
        <time>2019-07-25T12:34:45Z</time>
      </trkpt>
      <trkpt lat="44.91384" lon="5.22523">
        <ele>1286</ele>
        <time>2019-07-25T12:35:11Z</time>
      </trkpt>
      <trkpt lat="44.91393" lon="5.22573">
        <ele>1291</ele>
        <time>2019-07-25T12:35:17Z</time>
      </trkpt>
      <trkpt lat="44.91395" lon="5.22608">
        <ele>1294</ele>
        <time>2019-07-25T12:35:21Z</time>
      </trkpt>
      <trkpt lat="44.91391" lon="5.22636">
        <ele>1296</ele>
        <time>2019-07-25T12:35:25Z</time>
      </trkpt>
      <trkpt lat="44.91382" lon="5.22656">
        <ele>1298</ele>
        <time>2019-07-25T12:35:28Z</time>
      </trkpt>
      <trkpt lat="44.91349" lon="5.22702">
        <ele>1296</ele>
        <time>2019-07-25T12:35:36Z</time>
      </trkpt>
      <trkpt lat="44.91331" lon="5.22735">
        <ele>1294</ele>
        <time>2019-07-25T12:35:42Z</time>
      </trkpt>
      <trkpt lat="44.9132" lon="5.22745">
        <ele>1293</ele>
        <time>2019-07-25T12:35:44Z</time>
      </trkpt>
      <trkpt lat="44.91307" lon="5.2275">
        <ele>1292</ele>
        <time>2019-07-25T12:35:46Z</time>
      </trkpt>
      <trkpt lat="44.91293" lon="5.22748">
        <ele>1292</ele>
        <time>2019-07-25T12:35:49Z</time>
      </trkpt>
      <trkpt lat="44.91238" lon="5.22728">
        <ele>1294</ele>
        <time>2019-07-25T12:35:59Z</time>
      </trkpt>
      <trkpt lat="44.91164" lon="5.22693">
        <ele>1297</ele>
        <time>2019-07-25T12:36:13Z</time>
      </trkpt>
      <trkpt lat="44.91119" lon="5.22663">
        <ele>1300</ele>
        <time>2019-07-25T12:36:22Z</time>
      </trkpt>
      <trkpt lat="44.91101" lon="5.22655">
        <ele>1300</ele>
        <time>2019-07-25T12:36:25Z</time>
      </trkpt>
      <trkpt lat="44.91081" lon="5.22649">
        <ele>1300</ele>
        <time>2019-07-25T12:36:29Z</time>
      </trkpt>
      <trkpt lat="44.91017" lon="5.22646">
        <ele>1301</ele>
        <time>2019-07-25T12:36:40Z</time>
      </trkpt>
      <trkpt lat="44.90999" lon="5.22648">
        <ele>1301</ele>
        <time>2019-07-25T12:36:43Z</time>
      </trkpt>
      <trkpt lat="44.90988" lon="5.22653">
        <ele>1302</ele>
        <time>2019-07-25T12:36:45Z</time>
      </trkpt>
      <trkpt lat="44.90972" lon="5.22667">
        <ele>1301</ele>
        <time>2019-07-25T12:36:49Z</time>
      </trkpt>
      <trkpt lat="44.9095" lon="5.22697">
        <ele>1298</ele>
        <time>2019-07-25T12:36:54Z</time>
      </trkpt>
      <trkpt lat="44.90933" lon="5.22709">
        <ele>1297</ele>
        <time>2019-07-25T12:36:57Z</time>
      </trkpt>
      <trkpt lat="44.90913" lon="5.22714">
        <ele>1298</ele>
        <time>2019-07-25T12:37:01Z</time>
      </trkpt>
      <trkpt lat="44.90895" lon="5.22712">
        <ele>1299</ele>
        <time>2019-07-25T12:37:04Z</time>
      </trkpt>
      <trkpt lat="44.90838" lon="5.22687">
        <ele>1305</ele>
        <time>2019-07-25T12:37:15Z</time>
      </trkpt>
      <trkpt lat="44.90819" lon="5.22687">
        <ele>1305</ele>
        <time>2019-07-25T12:37:18Z</time>
      </trkpt>
      <trkpt lat="44.90766" lon="5.22694">
        <ele>1306</ele>
        <time>2019-07-25T12:37:28Z</time>
      </trkpt>
      <trkpt lat="44.90705" lon="5.22696">
        <ele>1307</ele>
        <time>2019-07-25T12:37:39Z</time>
      </trkpt>
      <trkpt lat="44.90648" lon="5.22703">
        <ele>1307</ele>
        <time>2019-07-25T12:37:49Z</time>
      </trkpt>
      <trkpt lat="44.90621" lon="5.227">
        <ele>1309</ele>
        <time>2019-07-25T12:37:54Z</time>
      </trkpt>
      <trkpt lat="44.90598" lon="5.22694">
        <ele>1311</ele>
        <time>2019-07-25T12:37:58Z</time>
      </trkpt>
      <trkpt lat="44.90541" lon="5.22658">
        <ele>1314</ele>
        <time>2019-07-25T12:38:09Z</time>
      </trkpt>
      <trkpt lat="44.90532" lon="5.22647">
        <ele>1315</ele>
        <time>2019-07-25T12:38:11Z</time>
      </trkpt>
      <trkpt lat="44.90513" lon="5.22615">
        <ele>1319</ele>
        <time>2019-07-25T12:38:16Z</time>
      </trkpt>
      <trkpt lat="44.90503" lon="5.22605">
        <ele>1320</ele>
        <time>2019-07-25T12:38:18Z</time>
      </trkpt>
      <trkpt lat="44.90493" lon="5.22599">
        <ele>1321</ele>
        <time>2019-07-25T12:38:20Z</time>
      </trkpt>
      <trkpt lat="44.90469" lon="5.22596">
        <ele>1319</ele>
        <time>2019-07-25T12:38:25Z</time>
      </trkpt>
      <trkpt lat="44.90458" lon="5.22591">
        <ele>1319</ele>
        <time>2019-07-25T12:38:27Z</time>
      </trkpt>
      <trkpt lat="44.90426" lon="5.22569">
        <ele>1322</ele>
        <time>2019-07-25T12:38:33Z</time>
      </trkpt>
      <trkpt lat="44.90413" lon="5.22563">
        <ele>1322</ele>
        <time>2019-07-25T12:38:35Z</time>
      </trkpt>
      <trkpt lat="44.90345" lon="5.22558">
        <ele>1322</ele>
        <time>2019-07-25T12:38:48Z</time>
      </trkpt>
      <trkpt lat="44.90328" lon="5.2255">
        <ele>1323</ele>
        <time>2019-07-25T12:38:51Z</time>
      </trkpt>
      <trkpt lat="44.90314" lon="5.22536">
        <ele>1325</ele>
        <time>2019-07-25T12:38:54Z</time>
      </trkpt>
      <trkpt lat="44.903" lon="5.22517">
        <ele>1327</ele>
        <time>2019-07-25T12:38:57Z</time>
      </trkpt>
      <trkpt lat="44.90284" lon="5.22489">
        <ele>1332</ele>
        <time>2019-07-25T12:39:02Z</time>
      </trkpt>
      <trkpt lat="44.90268" lon="5.22473">
        <ele>1333</ele>
        <time>2019-07-25T12:39:05Z</time>
      </trkpt>
      <trkpt lat="44.90229" lon="5.22463">
        <ele>1331</ele>
        <time>2019-07-25T12:39:12Z</time>
      </trkpt>
      <trkpt lat="44.90215" lon="5.22457">
        <ele>1331</ele>
        <time>2019-07-25T12:39:15Z</time>
      </trkpt>
      <trkpt lat="44.9018" lon="5.22428">
        <ele>1332</ele>
        <time>2019-07-25T12:39:22Z</time>
      </trkpt>
      <trkpt lat="44.90154" lon="5.22397">
        <ele>1335</ele>
        <time>2019-07-25T12:39:28Z</time>
      </trkpt>
      <trkpt lat="44.9014" lon="5.22385">
        <ele>1336</ele>
        <time>2019-07-25T12:39:31Z</time>
      </trkpt>
      <trkpt lat="44.90095" lon="5.22352">
        <ele>1338</ele>
        <time>2019-07-25T12:39:40Z</time>
      </trkpt>
      <trkpt lat="44.90054" lon="5.22333">
        <ele>1337</ele>
        <time>2019-07-25T12:39:48Z</time>
      </trkpt>
      <trkpt lat="44.90025" lon="5.22328">
        <ele>1334</ele>
        <time>2019-07-25T12:39:53Z</time>
      </trkpt>
      <trkpt lat="44.89998" lon="5.22334">
        <ele>1331</ele>
        <time>2019-07-25T12:39:58Z</time>
      </trkpt>
      <trkpt lat="44.89985" lon="5.22341">
        <ele>1331</ele>
        <time>2019-07-25T12:40:00Z</time>
      </trkpt>
      <trkpt lat="44.89972" lon="5.22351">
        <ele>1331</ele>
        <time>2019-07-25T12:40:03Z</time>
      </trkpt>
      <trkpt lat="44.89954" lon="5.22379">
        <ele>1331</ele>
        <time>2019-07-25T12:40:08Z</time>
      </trkpt>
      <trkpt lat="44.89908" lon="5.22528">
        <ele>1334</ele>
        <time>2019-07-25T12:40:28Z</time>
      </trkpt>
      <trkpt lat="44.89903" lon="5.22555">
        <ele>1336</ele>
        <time>2019-07-25T12:40:32Z</time>
      </trkpt>
      <trkpt lat="44.899" lon="5.22581">
        <ele>1337</ele>
        <time>2019-07-25T12:40:35Z</time>
      </trkpt>
      <trkpt lat="44.89899" lon="5.22681">
        <ele>1339</ele>
        <time>2019-07-25T12:40:48Z</time>
      </trkpt>
      <trkpt lat="44.89901" lon="5.22701">
        <ele>1338</ele>
        <time>2019-07-25T12:40:50Z</time>
      </trkpt>
      <trkpt lat="44.89906" lon="5.22728">
        <ele>1337</ele>
        <time>2019-07-25T12:40:54Z</time>
      </trkpt>
      <trkpt lat="44.89931" lon="5.22803">
        <ele>1336</ele>
        <time>2019-07-25T12:41:04Z</time>
      </trkpt>
      <trkpt lat="44.89936" lon="5.22825">
        <ele>1337</ele>
        <time>2019-07-25T12:41:07Z</time>
      </trkpt>
      <trkpt lat="44.89939" lon="5.22843">
        <ele>1336</ele>
        <time>2019-07-25T12:41:09Z</time>
      </trkpt>
      <trkpt lat="44.89939" lon="5.22863">
        <ele>1336</ele>
        <time>2019-07-25T12:41:12Z</time>
      </trkpt>
      <trkpt lat="44.89937" lon="5.22882">
        <ele>1336</ele>
        <time>2019-07-25T12:41:14Z</time>
      </trkpt>
      <trkpt lat="44.89935" lon="5.22899">
        <ele>1336</ele>
        <time>2019-07-25T12:41:17Z</time>
      </trkpt>
      <trkpt lat="44.89927" lon="5.22929">
        <ele>1338</ele>
        <time>2019-07-25T12:41:21Z</time>
      </trkpt>
      <trkpt lat="44.89887" lon="5.23067">
        <ele>1333</ele>
        <time>2019-07-25T12:41:39Z</time>
      </trkpt>
      <trkpt lat="44.89857" lon="5.23204">
        <ele>1308</ele>
        <time>2019-07-25T12:41:57Z</time>
      </trkpt>
      <trkpt lat="44.89836" lon="5.2327">
        <ele>1303</ele>
        <time>2019-07-25T12:42:07Z</time>
      </trkpt>
      <trkpt lat="44.89817" lon="5.23323">
        <ele>1297</ele>
        <time>2019-07-25T12:42:14Z</time>
      </trkpt>
      <trkpt lat="44.8981" lon="5.23339">
        <ele>1296</ele>
        <time>2019-07-25T12:42:16Z</time>
      </trkpt>
      <trkpt lat="44.89802" lon="5.2335">
        <ele>1296</ele>
        <time>2019-07-25T12:42:18Z</time>
      </trkpt>
      <trkpt lat="44.89782" lon="5.23373">
        <ele>1299</ele>
        <time>2019-07-25T12:42:23Z</time>
      </trkpt>
      <trkpt lat="44.89776" lon="5.23385">
        <ele>1301</ele>
        <time>2019-07-25T12:42:25Z</time>
      </trkpt>
      <trkpt lat="44.89778" lon="5.23399">
        <ele>1302</ele>
        <time>2019-07-25T12:42:27Z</time>
      </trkpt>
      <trkpt lat="44.89788" lon="5.23441">
        <ele>1301</ele>
        <time>2019-07-25T12:42:32Z</time>
      </trkpt>
      <trkpt lat="44.89789" lon="5.23463">
        <ele>1302</ele>
        <time>2019-07-25T12:42:35Z</time>
      </trkpt>
      <trkpt lat="44.89788" lon="5.23495">
        <ele>1303</ele>
        <time>2019-07-25T12:42:39Z</time>
      </trkpt>
      <trkpt lat="44.89791" lon="5.23567">
        <ele>1309</ele>
        <time>2019-07-25T12:42:48Z</time>
      </trkpt>
      <trkpt lat="44.898" lon="5.23627">
        <ele>1302</ele>
        <time>2019-07-25T12:42:56Z</time>
      </trkpt>
      <trkpt lat="44.89801" lon="5.2364">
        <ele>1301</ele>
        <time>2019-07-25T12:42:58Z</time>
      </trkpt>
      <trkpt lat="44.89776" lon="5.23712">
        <ele>1315</ele>
        <time>2019-07-25T12:43:08Z</time>
      </trkpt>
      <trkpt lat="44.89773" lon="5.2373">
        <ele>1315</ele>
        <time>2019-07-25T12:43:10Z</time>
      </trkpt>
      <trkpt lat="44.89774" lon="5.23749">
        <ele>1313</ele>
        <time>2019-07-25T12:43:12Z</time>
      </trkpt>
      <trkpt lat="44.89781" lon="5.23803">
        <ele>1302</ele>
        <time>2019-07-25T12:43:19Z</time>
      </trkpt>
      <trkpt lat="44.89783" lon="5.23828">
        <ele>1297</ele>
        <time>2019-07-25T12:43:22Z</time>
      </trkpt>
      <trkpt lat="44.8978" lon="5.23846">
        <ele>1298</ele>
        <time>2019-07-25T12:43:25Z</time>
      </trkpt>
      <trkpt lat="44.89776" lon="5.23858">
        <ele>1300</ele>
        <time>2019-07-25T12:43:26Z</time>
      </trkpt>
      <trkpt lat="44.89765" lon="5.23875">
        <ele>1308</ele>
        <time>2019-07-25T12:43:29Z</time>
      </trkpt>
      <trkpt lat="44.89756" lon="5.23897">
        <ele>1313</ele>
        <time>2019-07-25T12:43:33Z</time>
      </trkpt>
      <trkpt lat="44.89749" lon="5.23922">
        <ele>1318</ele>
        <time>2019-07-25T12:43:36Z</time>
      </trkpt>
      <trkpt lat="44.8975" lon="5.23937">
        <ele>1318</ele>
        <time>2019-07-25T12:43:38Z</time>
      </trkpt>
      <trkpt lat="44.89758" lon="5.23954">
        <ele>1311</ele>
        <time>2019-07-25T12:43:40Z</time>
      </trkpt>
      <trkpt lat="44.89771" lon="5.23974">
        <ele>1299</ele>
        <time>2019-07-25T12:43:44Z</time>
      </trkpt>
      <trkpt lat="44.89782" lon="5.24001">
        <ele>1289</ele>
        <time>2019-07-25T12:43:48Z</time>
      </trkpt>
      <trkpt lat="44.89791" lon="5.24035">
        <ele>1284</ele>
        <time>2019-07-25T12:43:52Z</time>
      </trkpt>
      <trkpt lat="44.89795" lon="5.24061">
        <ele>1282</ele>
        <time>2019-07-25T12:43:56Z</time>
      </trkpt>
      <trkpt lat="44.89793" lon="5.24118">
        <ele>1287</ele>
        <time>2019-07-25T12:44:03Z</time>
      </trkpt>
      <trkpt lat="44.89795" lon="5.2415">
        <ele>1286</ele>
        <time>2019-07-25T12:44:07Z</time>
      </trkpt>
      <trkpt lat="44.89797" lon="5.24175">
        <ele>1286</ele>
        <time>2019-07-25T12:44:10Z</time>
      </trkpt>
      <trkpt lat="44.89806" lon="5.24214">
        <ele>1284</ele>
        <time>2019-07-25T12:44:15Z</time>
      </trkpt>
      <trkpt lat="44.89829" lon="5.24276">
        <ele>1276</ele>
        <time>2019-07-25T12:44:24Z</time>
      </trkpt>
      <trkpt lat="44.89865" lon="5.24344">
        <ele>1259</ele>
        <time>2019-07-25T12:44:35Z</time>
      </trkpt>
      <trkpt lat="44.89867" lon="5.24363">
        <ele>1259</ele>
        <time>2019-07-25T12:44:37Z</time>
      </trkpt>
      <trkpt lat="44.8986" lon="5.24403">
        <ele>1267</ele>
        <time>2019-07-25T12:44:42Z</time>
      </trkpt>
      <trkpt lat="44.89858" lon="5.24424">
        <ele>1269</ele>
        <time>2019-07-25T12:44:45Z</time>
      </trkpt>
      <trkpt lat="44.89861" lon="5.24439">
        <ele>1267</ele>
        <time>2019-07-25T12:44:47Z</time>
      </trkpt>
      <trkpt lat="44.89867" lon="5.24448">
        <ele>1261</ele>
        <time>2019-07-25T12:44:49Z</time>
      </trkpt>
      <trkpt lat="44.8987" lon="5.24455">
        <ele>1259</ele>
        <time>2019-07-25T12:44:50Z</time>
      </trkpt>
      <trkpt lat="44.89864" lon="5.24534">
        <ele>1268</ele>
        <time>2019-07-25T12:45:00Z</time>
      </trkpt>
      <trkpt lat="44.89864" lon="5.24556">
        <ele>1271</ele>
        <time>2019-07-25T12:45:02Z</time>
      </trkpt>
      <trkpt lat="44.89869" lon="5.2458">
        <ele>1269</ele>
        <time>2019-07-25T12:45:06Z</time>
      </trkpt>
      <trkpt lat="44.8988" lon="5.24601">
        <ele>1267</ele>
        <time>2019-07-25T12:45:09Z</time>
      </trkpt>
      <trkpt lat="44.89894" lon="5.24622">
        <ele>1263</ele>
        <time>2019-07-25T12:45:13Z</time>
      </trkpt>
      <trkpt lat="44.89943" lon="5.24676">
        <ele>1245</ele>
        <time>2019-07-25T12:45:24Z</time>
      </trkpt>
      <trkpt lat="44.8996" lon="5.247">
        <ele>1244</ele>
        <time>2019-07-25T12:45:28Z</time>
      </trkpt>
      <trkpt lat="44.89989" lon="5.24757">
        <ele>1250</ele>
        <time>2019-07-25T12:45:37Z</time>
      </trkpt>
      <trkpt lat="44.90004" lon="5.24779">
        <ele>1252</ele>
        <time>2019-07-25T12:45:41Z</time>
      </trkpt>
      <trkpt lat="44.90042" lon="5.24822">
        <ele>1242</ele>
        <time>2019-07-25T12:45:49Z</time>
      </trkpt>
      <trkpt lat="44.9007" lon="5.24865">
        <ele>1230</ele>
        <time>2019-07-25T12:45:57Z</time>
      </trkpt>
      <trkpt lat="44.90099" lon="5.24895">
        <ele>1221</ele>
        <time>2019-07-25T12:46:03Z</time>
      </trkpt>
      <trkpt lat="44.90112" lon="5.24904">
        <ele>1219</ele>
        <time>2019-07-25T12:46:06Z</time>
      </trkpt>
      <trkpt lat="44.9013" lon="5.24913">
        <ele>1215</ele>
        <time>2019-07-25T12:46:09Z</time>
      </trkpt>
      <trkpt lat="44.90145" lon="5.24916">
        <ele>1210</ele>
        <time>2019-07-25T12:46:12Z</time>
      </trkpt>
      <trkpt lat="44.9016" lon="5.24915">
        <ele>1204</ele>
        <time>2019-07-25T12:46:14Z</time>
      </trkpt>
      <trkpt lat="44.90173" lon="5.24909">
        <ele>1194</ele>
        <time>2019-07-25T12:46:17Z</time>
      </trkpt>
      <trkpt lat="44.90195" lon="5.24887">
        <ele>1167</ele>
        <time>2019-07-25T12:46:22Z</time>
      </trkpt>
      <trkpt lat="44.90204" lon="5.24886">
        <ele>1160</ele>
        <time>2019-07-25T12:46:23Z</time>
      </trkpt>
      <trkpt lat="44.9021" lon="5.24887">
        <ele>1156</ele>
        <time>2019-07-25T12:46:24Z</time>
      </trkpt>
      <trkpt lat="44.90216" lon="5.2489">
        <ele>1153</ele>
        <time>2019-07-25T12:46:25Z</time>
      </trkpt>
      <trkpt lat="44.90223" lon="5.24904">
        <ele>1157</ele>
        <time>2019-07-25T12:46:28Z</time>
      </trkpt>
      <trkpt lat="44.90226" lon="5.24917">
        <ele>1163</ele>
        <time>2019-07-25T12:46:29Z</time>
      </trkpt>
      <trkpt lat="44.90225" lon="5.24936">
        <ele>1168</ele>
        <time>2019-07-25T12:46:32Z</time>
      </trkpt>
      <trkpt lat="44.9022" lon="5.24954">
        <ele>1175</ele>
        <time>2019-07-25T12:46:34Z</time>
      </trkpt>
      <trkpt lat="44.90211" lon="5.24968">
        <ele>1183</ele>
        <time>2019-07-25T12:46:36Z</time>
      </trkpt>
      <trkpt lat="44.90191" lon="5.24989">
        <ele>1194</ele>
        <time>2019-07-25T12:46:41Z</time>
      </trkpt>
      <trkpt lat="44.9016" lon="5.2501">
        <ele>1201</ele>
        <time>2019-07-25T12:46:47Z</time>
      </trkpt>
      <trkpt lat="44.90073" lon="5.25072">
        <ele>1201</ele>
        <time>2019-07-25T12:47:04Z</time>
      </trkpt>
      <trkpt lat="44.90058" lon="5.25088">
        <ele>1200</ele>
        <time>2019-07-25T12:47:08Z</time>
      </trkpt>
      <trkpt lat="44.90019" lon="5.25144">
        <ele>1184</ele>
        <time>2019-07-25T12:47:18Z</time>
      </trkpt>
      <trkpt lat="44.90006" lon="5.25156">
        <ele>1183</ele>
        <time>2019-07-25T12:47:20Z</time>
      </trkpt>
      <trkpt lat="44.89992" lon="5.25167">
        <ele>1182</ele>
        <time>2019-07-25T12:47:23Z</time>
      </trkpt>
      <trkpt lat="44.8992" lon="5.25207">
        <ele>1182</ele>
        <time>2019-07-25T12:47:37Z</time>
      </trkpt>
      <trkpt lat="44.89896" lon="5.25213">
        <ele>1181</ele>
        <time>2019-07-25T12:47:41Z</time>
      </trkpt>
      <trkpt lat="44.89739" lon="5.25239">
        <ele>1174</ele>
        <time>2019-07-25T12:48:09Z</time>
      </trkpt>
      <trkpt lat="44.896" lon="5.25254">
        <ele>1159</ele>
        <time>2019-07-25T12:48:34Z</time>
      </trkpt>
      <trkpt lat="44.89531" lon="5.25272">
        <ele>1156</ele>
        <time>2019-07-25T12:48:47Z</time>
      </trkpt>
      <trkpt lat="44.89504" lon="5.25284">
        <ele>1155</ele>
        <time>2019-07-25T12:48:52Z</time>
      </trkpt>
      <trkpt lat="44.89468" lon="5.25306">
        <ele>1149</ele>
        <time>2019-07-25T12:48:59Z</time>
      </trkpt>
      <trkpt lat="44.89436" lon="5.25317">
        <ele>1146</ele>
        <time>2019-07-25T12:49:05Z</time>
      </trkpt>
      <trkpt lat="44.89377" lon="5.2533">
        <ele>1142</ele>
        <time>2019-07-25T12:49:15Z</time>
      </trkpt>
      <trkpt lat="44.89347" lon="5.25333">
        <ele>1141</ele>
        <time>2019-07-25T12:49:21Z</time>
      </trkpt>
      <trkpt lat="44.89308" lon="5.25327">
        <ele>1141</ele>
        <time>2019-07-25T12:49:28Z</time>
      </trkpt>
      <trkpt lat="44.89284" lon="5.25326">
        <ele>1140</ele>
        <time>2019-07-25T12:49:32Z</time>
      </trkpt>
      <trkpt lat="44.89266" lon="5.2533">
        <ele>1139</ele>
        <time>2019-07-25T12:49:35Z</time>
      </trkpt>
      <trkpt lat="44.89248" lon="5.25341">
        <ele>1138</ele>
        <time>2019-07-25T12:49:39Z</time>
      </trkpt>
      <trkpt lat="44.89235" lon="5.25351">
        <ele>1139</ele>
        <time>2019-07-25T12:49:41Z</time>
      </trkpt>
      <trkpt lat="44.89219" lon="5.25373">
        <ele>1141</ele>
        <time>2019-07-25T12:49:45Z</time>
      </trkpt>
      <trkpt lat="44.8921" lon="5.25393">
        <ele>1143</ele>
        <time>2019-07-25T12:49:48Z</time>
      </trkpt>
      <trkpt lat="44.89208" lon="5.25413">
        <ele>1143</ele>
        <time>2019-07-25T12:49:51Z</time>
      </trkpt>
      <trkpt lat="44.8921" lon="5.25433">
        <ele>1146</ele>
        <time>2019-07-25T12:49:53Z</time>
      </trkpt>
      <trkpt lat="44.89215" lon="5.25448">
        <ele>1148</ele>
        <time>2019-07-25T12:49:55Z</time>
      </trkpt>
      <trkpt lat="44.89226" lon="5.25457">
        <ele>1148</ele>
        <time>2019-07-25T12:49:58Z</time>
      </trkpt>
      <trkpt lat="44.89285" lon="5.25482">
        <ele>1150</ele>
        <time>2019-07-25T12:50:09Z</time>
      </trkpt>
      <trkpt lat="44.8932" lon="5.25507">
        <ele>1153</ele>
        <time>2019-07-25T12:50:16Z</time>
      </trkpt>
      <trkpt lat="44.89346" lon="5.25529">
        <ele>1156</ele>
        <time>2019-07-25T12:50:21Z</time>
      </trkpt>
      <trkpt lat="44.89365" lon="5.25552">
        <ele>1159</ele>
        <time>2019-07-25T12:50:25Z</time>
      </trkpt>
      <trkpt lat="44.89441" lon="5.25674">
        <ele>1170</ele>
        <time>2019-07-25T12:50:46Z</time>
      </trkpt>
      <trkpt lat="44.89469" lon="5.25704">
        <ele>1174</ele>
        <time>2019-07-25T12:50:52Z</time>
      </trkpt>
      <trkpt lat="44.89563" lon="5.2577">
        <ele>1184</ele>
        <time>2019-07-25T12:51:11Z</time>
      </trkpt>
      <trkpt lat="44.89597" lon="5.25785">
        <ele>1186</ele>
        <time>2019-07-25T12:51:17Z</time>
      </trkpt>
      <trkpt lat="44.89673" lon="5.25802">
        <ele>1185</ele>
        <time>2019-07-25T12:51:31Z</time>
      </trkpt>
      <trkpt lat="44.89711" lon="5.25819">
        <ele>1188</ele>
        <time>2019-07-25T12:51:38Z</time>
      </trkpt>
      <trkpt lat="44.89899" lon="5.25913">
        <ele>1206</ele>
        <time>2019-07-25T12:52:13Z</time>
      </trkpt>
      <trkpt lat="44.89935" lon="5.25925">
        <ele>1208</ele>
        <time>2019-07-25T12:52:20Z</time>
      </trkpt>
      <trkpt lat="44.90117" lon="5.2597">
        <ele>1221</ele>
        <time>2019-07-25T12:52:53Z</time>
      </trkpt>
      <trkpt lat="44.90172" lon="5.25992">
        <ele>1221</ele>
        <time>2019-07-25T12:53:03Z</time>
      </trkpt>
      <trkpt lat="44.90181" lon="5.26">
        <ele>1216</ele>
        <time>2019-07-25T12:53:05Z</time>
      </trkpt>
      <trkpt lat="44.90189" lon="5.26012">
        <ele>1210</ele>
        <time>2019-07-25T12:53:07Z</time>
      </trkpt>
      <trkpt lat="44.90193" lon="5.26024">
        <ele>1208</ele>
        <time>2019-07-25T12:53:09Z</time>
      </trkpt>
      <trkpt lat="44.90196" lon="5.26037">
        <ele>1206</ele>
        <time>2019-07-25T12:53:10Z</time>
      </trkpt>
      <trkpt lat="44.90194" lon="5.2607">
        <ele>1208</ele>
        <time>2019-07-25T12:53:15Z</time>
      </trkpt>
      <trkpt lat="44.90179" lon="5.26101">
        <ele>1217</ele>
        <time>2019-07-25T12:53:19Z</time>
      </trkpt>
      <trkpt lat="44.90166" lon="5.26118">
        <ele>1223</ele>
        <time>2019-07-25T12:53:22Z</time>
      </trkpt>
      <trkpt lat="44.90157" lon="5.2614">
        <ele>1223</ele>
        <time>2019-07-25T12:53:26Z</time>
      </trkpt>
      <trkpt lat="44.90156" lon="5.26155">
        <ele>1222</ele>
        <time>2019-07-25T12:53:28Z</time>
      </trkpt>
      <trkpt lat="44.90157" lon="5.26171">
        <ele>1222</ele>
        <time>2019-07-25T12:53:30Z</time>
      </trkpt>
      <trkpt lat="44.90165" lon="5.26193">
        <ele>1224</ele>
        <time>2019-07-25T12:53:33Z</time>
      </trkpt>
      <trkpt lat="44.90211" lon="5.26275">
        <ele>1223</ele>
        <time>2019-07-25T12:53:46Z</time>
      </trkpt>
      <trkpt lat="44.90221" lon="5.26298">
        <ele>1222</ele>
        <time>2019-07-25T12:53:49Z</time>
      </trkpt>
      <trkpt lat="44.90225" lon="5.26323">
        <ele>1222</ele>
        <time>2019-07-25T12:53:53Z</time>
      </trkpt>
      <trkpt lat="44.90225" lon="5.26339">
        <ele>1221</ele>
        <time>2019-07-25T12:53:55Z</time>
      </trkpt>
      <trkpt lat="44.90224" lon="5.26351">
        <ele>1218</ele>
        <time>2019-07-25T12:53:56Z</time>
      </trkpt>
      <trkpt lat="44.90214" lon="5.26373">
        <ele>1216</ele>
        <time>2019-07-25T12:53:59Z</time>
      </trkpt>
      <trkpt lat="44.90182" lon="5.26425">
        <ele>1223</ele>
        <time>2019-07-25T12:54:08Z</time>
      </trkpt>
      <trkpt lat="44.90144" lon="5.26513">
        <ele>1222</ele>
        <time>2019-07-25T12:54:21Z</time>
      </trkpt>
      <trkpt lat="44.90099" lon="5.26629">
        <ele>1227</ele>
        <time>2019-07-25T12:54:38Z</time>
      </trkpt>
      <trkpt lat="44.90071" lon="5.26725">
        <ele>1227</ele>
        <time>2019-07-25T12:54:51Z</time>
      </trkpt>
      <trkpt lat="44.90053" lon="5.26772">
        <ele>1226</ele>
        <time>2019-07-25T12:54:58Z</time>
      </trkpt>
      <trkpt lat="44.9003" lon="5.26808">
        <ele>1228</ele>
        <time>2019-07-25T12:55:04Z</time>
      </trkpt>
      <trkpt lat="44.89945" lon="5.26908">
        <ele>1230</ele>
        <time>2019-07-25T12:55:23Z</time>
      </trkpt>
      <trkpt lat="44.89835" lon="5.26996">
        <ele>1238</ele>
        <time>2019-07-25T12:55:46Z</time>
      </trkpt>
      <trkpt lat="44.89809" lon="5.27025">
        <ele>1243</ele>
        <time>2019-07-25T12:55:52Z</time>
      </trkpt>
      <trkpt lat="44.89744" lon="5.27123">
        <ele>1250</ele>
        <time>2019-07-25T12:56:09Z</time>
      </trkpt>
      <trkpt lat="44.89719" lon="5.27142">
        <ele>1251</ele>
        <time>2019-07-25T12:56:14Z</time>
      </trkpt>
      <trkpt lat="44.89695" lon="5.27148">
        <ele>1251</ele>
        <time>2019-07-25T12:56:18Z</time>
      </trkpt>
      <trkpt lat="44.89671" lon="5.27148">
        <ele>1252</ele>
        <time>2019-07-25T12:56:22Z</time>
      </trkpt>
      <trkpt lat="44.89651" lon="5.27155">
        <ele>1252</ele>
        <time>2019-07-25T12:56:26Z</time>
      </trkpt>
      <trkpt lat="44.89641" lon="5.27177">
        <ele>1253</ele>
        <time>2019-07-25T12:56:29Z</time>
      </trkpt>
      <trkpt lat="44.89648" lon="5.27201">
        <ele>1256</ele>
        <time>2019-07-25T12:56:33Z</time>
      </trkpt>
      <trkpt lat="44.89666" lon="5.27214">
        <ele>1257</ele>
        <time>2019-07-25T12:56:36Z</time>
      </trkpt>
      <trkpt lat="44.89693" lon="5.2722">
        <ele>1259</ele>
        <time>2019-07-25T12:56:41Z</time>
      </trkpt>
      <trkpt lat="44.89724" lon="5.27219">
        <ele>1259</ele>
        <time>2019-07-25T12:56:47Z</time>
      </trkpt>
      <trkpt lat="44.89782" lon="5.27187">
        <ele>1255</ele>
        <time>2019-07-25T12:56:58Z</time>
      </trkpt>
      <trkpt lat="44.8981" lon="5.27185">
        <ele>1256</ele>
        <time>2019-07-25T12:57:03Z</time>
      </trkpt>
      <trkpt lat="44.89837" lon="5.27196">
        <ele>1260</ele>
        <time>2019-07-25T12:57:08Z</time>
      </trkpt>
      <trkpt lat="44.89867" lon="5.27201">
        <ele>1263</ele>
        <time>2019-07-25T12:57:13Z</time>
      </trkpt>
      <trkpt lat="44.89935" lon="5.27184">
        <ele>1264</ele>
        <time>2019-07-25T12:57:25Z</time>
      </trkpt>
      <trkpt lat="44.89972" lon="5.27183">
        <ele>1265</ele>
        <time>2019-07-25T12:57:32Z</time>
      </trkpt>
      <trkpt lat="44.90121" lon="5.27202">
        <ele>1282</ele>
        <time>2019-07-25T12:57:58Z</time>
      </trkpt>
      <trkpt lat="44.90257" lon="5.27198">
        <ele>1291</ele>
        <time>2019-07-25T12:58:23Z</time>
      </trkpt>
      <trkpt lat="44.90327" lon="5.27205">
        <ele>1295</ele>
        <time>2019-07-25T12:58:35Z</time>
      </trkpt>
      <trkpt lat="44.90352" lon="5.2721">
        <ele>1295</ele>
        <time>2019-07-25T12:58:40Z</time>
      </trkpt>
      <trkpt lat="44.90369" lon="5.27218">
        <ele>1295</ele>
        <time>2019-07-25T12:58:43Z</time>
      </trkpt>
      <trkpt lat="44.90389" lon="5.27235">
        <ele>1296</ele>
        <time>2019-07-25T12:58:47Z</time>
      </trkpt>
      <trkpt lat="44.90409" lon="5.27259">
        <ele>1299</ele>
        <time>2019-07-25T12:58:52Z</time>
      </trkpt>
      <trkpt lat="44.90466" lon="5.27362">
        <ele>1306</ele>
        <time>2019-07-25T12:59:08Z</time>
      </trkpt>
      <trkpt lat="44.90492" lon="5.27396">
        <ele>1308</ele>
        <time>2019-07-25T12:59:14Z</time>
      </trkpt>
      <trkpt lat="44.90523" lon="5.27422">
        <ele>1309</ele>
        <time>2019-07-25T12:59:21Z</time>
      </trkpt>
      <trkpt lat="44.90561" lon="5.27461">
        <ele>1310</ele>
        <time>2019-07-25T12:59:29Z</time>
      </trkpt>
      <trkpt lat="44.90632" lon="5.27544">
        <ele>1314</ele>
        <time>2019-07-25T12:59:46Z</time>
      </trkpt>
      <trkpt lat="44.90679" lon="5.27589">
        <ele>1317</ele>
        <time>2019-07-25T12:59:56Z</time>
      </trkpt>
      <trkpt lat="44.90713" lon="5.27609">
        <ele>1321</ele>
        <time>2019-07-25T13:00:02Z</time>
      </trkpt>
      <trkpt lat="44.90751" lon="5.27621">
        <ele>1323</ele>
        <time>2019-07-25T13:00:09Z</time>
      </trkpt>
      <trkpt lat="44.90778" lon="5.27626">
        <ele>1322</ele>
        <time>2019-07-25T13:00:14Z</time>
      </trkpt>
      <trkpt lat="44.9081" lon="5.27622">
        <ele>1320</ele>
        <time>2019-07-25T13:00:20Z</time>
      </trkpt>
      <trkpt lat="44.90847" lon="5.27623">
        <ele>1319</ele>
        <time>2019-07-25T13:00:26Z</time>
      </trkpt>
      <trkpt lat="44.90871" lon="5.27627">
        <ele>1320</ele>
        <time>2019-07-25T13:00:31Z</time>
      </trkpt>
      <trkpt lat="44.90896" lon="5.27642">
        <ele>1322</ele>
        <time>2019-07-25T13:00:35Z</time>
      </trkpt>
      <trkpt lat="44.90929" lon="5.2767">
        <ele>1324</ele>
        <time>2019-07-25T13:00:42Z</time>
      </trkpt>
      <trkpt lat="44.90975" lon="5.27719">
        <ele>1320</ele>
        <time>2019-07-25T13:00:53Z</time>
      </trkpt>
      <trkpt lat="44.90987" lon="5.27743">
        <ele>1320</ele>
        <time>2019-07-25T13:00:56Z</time>
      </trkpt>
      <trkpt lat="44.90993" lon="5.27776">
        <ele>1316</ele>
        <time>2019-07-25T13:01:01Z</time>
      </trkpt>
      <trkpt lat="44.90994" lon="5.27805">
        <ele>1313</ele>
        <time>2019-07-25T13:01:04Z</time>
      </trkpt>
      <trkpt lat="44.90986" lon="5.27832">
        <ele>1310</ele>
        <time>2019-07-25T13:01:08Z</time>
      </trkpt>
      <trkpt lat="44.9097" lon="5.27858">
        <ele>1310</ele>
        <time>2019-07-25T13:01:12Z</time>
      </trkpt>
      <trkpt lat="44.90918" lon="5.27913">
        <ele>1309</ele>
        <time>2019-07-25T13:01:24Z</time>
      </trkpt>
      <trkpt lat="44.90898" lon="5.27942">
        <ele>1310</ele>
        <time>2019-07-25T13:01:29Z</time>
      </trkpt>
      <trkpt lat="44.90887" lon="5.27965">
        <ele>1310</ele>
        <time>2019-07-25T13:01:32Z</time>
      </trkpt>
      <trkpt lat="44.90881" lon="5.27988">
        <ele>1309</ele>
        <time>2019-07-25T13:01:35Z</time>
      </trkpt>
      <trkpt lat="44.90879" lon="5.28021">
        <ele>1307</ele>
        <time>2019-07-25T13:01:40Z</time>
      </trkpt>
      <trkpt lat="44.90883" lon="5.28063">
        <ele>1303</ele>
        <time>2019-07-25T13:01:45Z</time>
      </trkpt>
      <trkpt lat="44.90893" lon="5.28145">
        <ele>1296</ele>
        <time>2019-07-25T13:01:55Z</time>
      </trkpt>
      <trkpt lat="44.90893" lon="5.28168">
        <ele>1294</ele>
        <time>2019-07-25T13:01:58Z</time>
      </trkpt>
      <trkpt lat="44.90888" lon="5.28188">
        <ele>1291</ele>
        <time>2019-07-25T13:02:01Z</time>
      </trkpt>
      <trkpt lat="44.90876" lon="5.28206">
        <ele>1289</ele>
        <time>2019-07-25T13:02:04Z</time>
      </trkpt>
      <trkpt lat="44.90849" lon="5.28231">
        <ele>1287</ele>
        <time>2019-07-25T13:02:10Z</time>
      </trkpt>
      <trkpt lat="44.90832" lon="5.28255">
        <ele>1284</ele>
        <time>2019-07-25T13:02:14Z</time>
      </trkpt>
      <trkpt lat="44.90821" lon="5.2828">
        <ele>1281</ele>
        <time>2019-07-25T13:02:18Z</time>
      </trkpt>
      <trkpt lat="44.90806" lon="5.28333">
        <ele>1274</ele>
        <time>2019-07-25T13:02:25Z</time>
      </trkpt>
      <trkpt lat="44.90794" lon="5.28357">
        <ele>1273</ele>
        <time>2019-07-25T13:02:29Z</time>
      </trkpt>
      <trkpt lat="44.9077" lon="5.28389">
        <ele>1273</ele>
        <time>2019-07-25T13:02:35Z</time>
      </trkpt>
      <trkpt lat="44.90756" lon="5.28413">
        <ele>1273</ele>
        <time>2019-07-25T13:02:39Z</time>
      </trkpt>
      <trkpt lat="44.90749" lon="5.28443">
        <ele>1272</ele>
        <time>2019-07-25T13:02:43Z</time>
      </trkpt>
      <trkpt lat="44.90748" lon="5.28472">
        <ele>1272</ele>
        <time>2019-07-25T13:02:46Z</time>
      </trkpt>
      <trkpt lat="44.9075" lon="5.28498">
        <ele>1271</ele>
        <time>2019-07-25T13:02:50Z</time>
      </trkpt>
      <trkpt lat="44.90757" lon="5.2852">
        <ele>1271</ele>
        <time>2019-07-25T13:02:53Z</time>
      </trkpt>
      <trkpt lat="44.9077" lon="5.28539">
        <ele>1270</ele>
        <time>2019-07-25T13:02:56Z</time>
      </trkpt>
      <trkpt lat="44.90782" lon="5.28552">
        <ele>1270</ele>
        <time>2019-07-25T13:02:59Z</time>
      </trkpt>
      <trkpt lat="44.90873" lon="5.28598">
        <ele>1269</ele>
        <time>2019-07-25T13:03:16Z</time>
      </trkpt>
      <trkpt lat="44.90919" lon="5.28627">
        <ele>1274</ele>
        <time>2019-07-25T13:03:25Z</time>
      </trkpt>
      <trkpt lat="44.90931" lon="5.28631">
        <ele>1275</ele>
        <time>2019-07-25T13:03:27Z</time>
      </trkpt>
      <trkpt lat="44.90945" lon="5.28628">
        <ele>1276</ele>
        <time>2019-07-25T13:03:29Z</time>
      </trkpt>
      <trkpt lat="44.90962" lon="5.28617">
        <ele>1275</ele>
        <time>2019-07-25T13:03:33Z</time>
      </trkpt>
      <trkpt lat="44.90993" lon="5.2859">
        <ele>1272</ele>
        <time>2019-07-25T13:03:39Z</time>
      </trkpt>
      <trkpt lat="44.91008" lon="5.2858">
        <ele>1271</ele>
        <time>2019-07-25T13:03:42Z</time>
      </trkpt>
      <trkpt lat="44.91024" lon="5.28575">
        <ele>1271</ele>
        <time>2019-07-25T13:03:45Z</time>
      </trkpt>
      <trkpt lat="44.91155" lon="5.28553">
        <ele>1272</ele>
        <time>2019-07-25T13:04:09Z</time>
      </trkpt>
      <trkpt lat="44.91243" lon="5.28524">
        <ele>1274</ele>
        <time>2019-07-25T13:04:25Z</time>
      </trkpt>
      <trkpt lat="44.91261" lon="5.28521">
        <ele>1273</ele>
        <time>2019-07-25T13:04:28Z</time>
      </trkpt>
      <trkpt lat="44.91282" lon="5.28522">
        <ele>1272</ele>
        <time>2019-07-25T13:04:32Z</time>
      </trkpt>
      <trkpt lat="44.91299" lon="5.28527">
        <ele>1272</ele>
        <time>2019-07-25T13:04:35Z</time>
      </trkpt>
      <trkpt lat="44.91319" lon="5.28537">
        <ele>1273</ele>
        <time>2019-07-25T13:04:39Z</time>
      </trkpt>
      <trkpt lat="44.91337" lon="5.28552">
        <ele>1274</ele>
        <time>2019-07-25T13:04:42Z</time>
      </trkpt>
      <trkpt lat="44.91358" lon="5.28576">
        <ele>1274</ele>
        <time>2019-07-25T13:04:47Z</time>
      </trkpt>
      <trkpt lat="44.91382" lon="5.28608">
        <ele>1276</ele>
        <time>2019-07-25T13:04:53Z</time>
      </trkpt>
      <trkpt lat="44.91421" lon="5.28675">
        <ele>1283</ele>
        <time>2019-07-25T13:05:04Z</time>
      </trkpt>
      <trkpt lat="44.91435" lon="5.28693">
        <ele>1287</ele>
        <time>2019-07-25T13:05:07Z</time>
      </trkpt>
      <trkpt lat="44.91446" lon="5.28699">
        <ele>1288</ele>
        <time>2019-07-25T13:05:09Z</time>
      </trkpt>
      <trkpt lat="44.91461" lon="5.287">
        <ele>1288</ele>
        <time>2019-07-25T13:05:12Z</time>
      </trkpt>
      <trkpt lat="44.91499" lon="5.28689">
        <ele>1283</ele>
        <time>2019-07-25T13:05:19Z</time>
      </trkpt>
      <trkpt lat="44.91516" lon="5.28689">
        <ele>1283</ele>
        <time>2019-07-25T13:05:22Z</time>
      </trkpt>
      <trkpt lat="44.91537" lon="5.28693">
        <ele>1284</ele>
        <time>2019-07-25T13:05:26Z</time>
      </trkpt>
      <trkpt lat="44.9156" lon="5.28703">
        <ele>1286</ele>
        <time>2019-07-25T13:05:30Z</time>
      </trkpt>
      <trkpt lat="44.91634" lon="5.28755">
        <ele>1294</ele>
        <time>2019-07-25T13:05:45Z</time>
      </trkpt>
      <trkpt lat="44.91662" lon="5.28769">
        <ele>1295</ele>
        <time>2019-07-25T13:05:50Z</time>
      </trkpt>
      <trkpt lat="44.9178" lon="5.28799">
        <ele>1289</ele>
        <time>2019-07-25T13:06:11Z</time>
      </trkpt>
      <trkpt lat="44.91809" lon="5.28812">
        <ele>1286</ele>
        <time>2019-07-25T13:06:17Z</time>
      </trkpt>
      <trkpt lat="44.91829" lon="5.28825">
        <ele>1286</ele>
        <time>2019-07-25T13:06:21Z</time>
      </trkpt>
      <trkpt lat="44.91841" lon="5.2884">
        <ele>1286</ele>
        <time>2019-07-25T13:06:23Z</time>
      </trkpt>
      <trkpt lat="44.91847" lon="5.28854">
        <ele>1285</ele>
        <time>2019-07-25T13:06:26Z</time>
      </trkpt>
      <trkpt lat="44.9185" lon="5.28874">
        <ele>1287</ele>
        <time>2019-07-25T13:06:28Z</time>
      </trkpt>
      <trkpt lat="44.9185" lon="5.28893">
        <ele>1291</ele>
        <time>2019-07-25T13:06:31Z</time>
      </trkpt>
      <trkpt lat="44.91845" lon="5.2891">
        <ele>1296</ele>
        <time>2019-07-25T13:06:33Z</time>
      </trkpt>
      <trkpt lat="44.91832" lon="5.2893">
        <ele>1300</ele>
        <time>2019-07-25T13:06:36Z</time>
      </trkpt>
      <trkpt lat="44.91782" lon="5.28965">
        <ele>1304</ele>
        <time>2019-07-25T13:06:46Z</time>
      </trkpt>
      <trkpt lat="44.91727" lon="5.29026">
        <ele>1302</ele>
        <time>2019-07-25T13:06:59Z</time>
      </trkpt>
      <trkpt lat="44.91688" lon="5.29072">
        <ele>1300</ele>
        <time>2019-07-25T13:07:08Z</time>
      </trkpt>
      <trkpt lat="44.91677" lon="5.29091">
        <ele>1299</ele>
        <time>2019-07-25T13:07:11Z</time>
      </trkpt>
      <trkpt lat="44.91674" lon="5.29109">
        <ele>1299</ele>
        <time>2019-07-25T13:07:13Z</time>
      </trkpt>
      <trkpt lat="44.91675" lon="5.29125">
        <ele>1298</ele>
        <time>2019-07-25T13:07:15Z</time>
      </trkpt>
      <trkpt lat="44.9168" lon="5.29141">
        <ele>1297</ele>
        <time>2019-07-25T13:07:17Z</time>
      </trkpt>
      <trkpt lat="44.91694" lon="5.2916">
        <ele>1294</ele>
        <time>2019-07-25T13:07:21Z</time>
      </trkpt>
      <trkpt lat="44.91724" lon="5.29195">
        <ele>1291</ele>
        <time>2019-07-25T13:07:28Z</time>
      </trkpt>
      <trkpt lat="44.91757" lon="5.2924">
        <ele>1289</ele>
        <time>2019-07-25T13:07:36Z</time>
      </trkpt>
      <trkpt lat="44.9177" lon="5.29251">
        <ele>1288</ele>
        <time>2019-07-25T13:07:39Z</time>
      </trkpt>
      <trkpt lat="44.91785" lon="5.29258">
        <ele>1286</ele>
        <time>2019-07-25T13:07:41Z</time>
      </trkpt>
      <trkpt lat="44.91803" lon="5.29259">
        <ele>1283</ele>
        <time>2019-07-25T13:07:45Z</time>
      </trkpt>
      <trkpt lat="44.91901" lon="5.29254">
        <ele>1275</ele>
        <time>2019-07-25T13:08:02Z</time>
      </trkpt>
      <trkpt lat="44.91966" lon="5.29246">
        <ele>1273</ele>
        <time>2019-07-25T13:08:14Z</time>
      </trkpt>
      <trkpt lat="44.92025" lon="5.2922">
        <ele>1269</ele>
        <time>2019-07-25T13:08:25Z</time>
      </trkpt>
      <trkpt lat="44.9207" lon="5.29195">
        <ele>1263</ele>
        <time>2019-07-25T13:08:33Z</time>
      </trkpt>
      <trkpt lat="44.92134" lon="5.2917">
        <ele>1258</ele>
        <time>2019-07-25T13:08:45Z</time>
      </trkpt>
      <trkpt lat="44.92201" lon="5.29133">
        <ele>1253</ele>
        <time>2019-07-25T13:08:58Z</time>
      </trkpt>
      <trkpt lat="44.92244" lon="5.29117">
        <ele>1250</ele>
        <time>2019-07-25T13:09:06Z</time>
      </trkpt>
      <trkpt lat="44.92333" lon="5.29095">
        <ele>1241</ele>
        <time>2019-07-25T13:09:22Z</time>
      </trkpt>
      <trkpt lat="44.92348" lon="5.29093">
        <ele>1239</ele>
        <time>2019-07-25T13:09:25Z</time>
      </trkpt>
      <trkpt lat="44.92421" lon="5.29108">
        <ele>1235</ele>
        <time>2019-07-25T13:09:38Z</time>
      </trkpt>
      <trkpt lat="44.92436" lon="5.29108">
        <ele>1234</ele>
        <time>2019-07-25T13:09:40Z</time>
      </trkpt>
      <trkpt lat="44.92449" lon="5.29102">
        <ele>1232</ele>
        <time>2019-07-25T13:09:43Z</time>
      </trkpt>
      <trkpt lat="44.92464" lon="5.29088">
        <ele>1228</ele>
        <time>2019-07-25T13:09:46Z</time>
      </trkpt>
      <trkpt lat="44.92488" lon="5.29051">
        <ele>1221</ele>
        <time>2019-07-25T13:09:52Z</time>
      </trkpt>
      <trkpt lat="44.92503" lon="5.2904">
        <ele>1219</ele>
        <time>2019-07-25T13:09:55Z</time>
      </trkpt>
      <trkpt lat="44.92519" lon="5.29036">
        <ele>1219</ele>
        <time>2019-07-25T13:09:58Z</time>
      </trkpt>
      <trkpt lat="44.92591" lon="5.29032">
        <ele>1219</ele>
        <time>2019-07-25T13:10:11Z</time>
      </trkpt>
      <trkpt lat="44.92637" lon="5.29027">
        <ele>1215</ele>
        <time>2019-07-25T13:10:19Z</time>
      </trkpt>
      <trkpt lat="44.92776" lon="5.28996">
        <ele>1200</ele>
        <time>2019-07-25T13:10:44Z</time>
      </trkpt>
      <trkpt lat="44.92853" lon="5.28984">
        <ele>1194</ele>
        <time>2019-07-25T13:10:58Z</time>
      </trkpt>
      <trkpt lat="44.92894" lon="5.28982">
        <ele>1190</ele>
        <time>2019-07-25T13:11:05Z</time>
      </trkpt>
      <trkpt lat="44.92917" lon="5.28985">
        <ele>1187</ele>
        <time>2019-07-25T13:11:09Z</time>
      </trkpt>
      <trkpt lat="44.92945" lon="5.28994">
        <ele>1187</ele>
        <time>2019-07-25T13:11:15Z</time>
      </trkpt>
      <trkpt lat="44.92985" lon="5.29015">
        <ele>1187</ele>
        <time>2019-07-25T13:11:22Z</time>
      </trkpt>
      <trkpt lat="44.92999" lon="5.29015">
        <ele>1186</ele>
        <time>2019-07-25T13:11:25Z</time>
      </trkpt>
      <trkpt lat="44.93015" lon="5.29009">
        <ele>1187</ele>
        <time>2019-07-25T13:11:28Z</time>
      </trkpt>
      <trkpt lat="44.93108" lon="5.28912">
        <ele>1178</ele>
        <time>2019-07-25T13:11:48Z</time>
      </trkpt>
      <trkpt lat="44.93132" lon="5.28883">
        <ele>1177</ele>
        <time>2019-07-25T13:11:54Z</time>
      </trkpt>
      <trkpt lat="44.93155" lon="5.28844">
        <ele>1174</ele>
        <time>2019-07-25T13:12:00Z</time>
      </trkpt>
      <trkpt lat="44.93177" lon="5.28819">
        <ele>1172</ele>
        <time>2019-07-25T13:12:05Z</time>
      </trkpt>
      <trkpt lat="44.93203" lon="5.288">
        <ele>1172</ele>
        <time>2019-07-25T13:12:10Z</time>
      </trkpt>
      <trkpt lat="44.93298" lon="5.28741">
        <ele>1168</ele>
        <time>2019-07-25T13:12:29Z</time>
      </trkpt>
      <trkpt lat="44.93386" lon="5.28697">
        <ele>1163</ele>
        <time>2019-07-25T13:12:45Z</time>
      </trkpt>
      <trkpt lat="44.93453" lon="5.28677">
        <ele>1159</ele>
        <time>2019-07-25T13:12:58Z</time>
      </trkpt>
      <trkpt lat="44.9352" lon="5.28669">
        <ele>1155</ele>
        <time>2019-07-25T13:13:10Z</time>
      </trkpt>
      <trkpt lat="44.93611" lon="5.28676">
        <ele>1152</ele>
        <time>2019-07-25T13:13:26Z</time>
      </trkpt>
      <trkpt lat="44.93664" lon="5.28695">
        <ele>1149</ele>
        <time>2019-07-25T13:13:36Z</time>
      </trkpt>
      <trkpt lat="44.93745" lon="5.28746">
        <ele>1142</ele>
        <time>2019-07-25T13:13:51Z</time>
      </trkpt>
      <trkpt lat="44.93782" lon="5.28759">
        <ele>1142</ele>
        <time>2019-07-25T13:13:58Z</time>
      </trkpt>
      <trkpt lat="44.93797" lon="5.2876">
        <ele>1141</ele>
        <time>2019-07-25T13:14:01Z</time>
      </trkpt>
      <trkpt lat="44.93806" lon="5.28758">
        <ele>1141</ele>
        <time>2019-07-25T13:14:02Z</time>
      </trkpt>
      <trkpt lat="44.93814" lon="5.28751">
        <ele>1139</ele>
        <time>2019-07-25T13:14:04Z</time>
      </trkpt>
      <trkpt lat="44.93822" lon="5.28736">
        <ele>1136</ele>
        <time>2019-07-25T13:14:06Z</time>
      </trkpt>
      <trkpt lat="44.93832" lon="5.28709">
        <ele>1132</ele>
        <time>2019-07-25T13:14:10Z</time>
      </trkpt>
      <trkpt lat="44.93844" lon="5.28688">
        <ele>1130</ele>
        <time>2019-07-25T13:14:14Z</time>
      </trkpt>
      <trkpt lat="44.93861" lon="5.28667">
        <ele>1130</ele>
        <time>2019-07-25T13:14:18Z</time>
      </trkpt>
      <trkpt lat="44.93909" lon="5.28619">
        <ele>1131</ele>
        <time>2019-07-25T13:14:28Z</time>
      </trkpt>
      <trkpt lat="44.93946" lon="5.28571">
        <ele>1125</ele>
        <time>2019-07-25T13:14:37Z</time>
      </trkpt>
      <trkpt lat="44.93967" lon="5.28553">
        <ele>1123</ele>
        <time>2019-07-25T13:14:41Z</time>
      </trkpt>
      <trkpt lat="44.94001" lon="5.28536">
        <ele>1121</ele>
        <time>2019-07-25T13:14:48Z</time>
      </trkpt>
      <trkpt lat="44.94041" lon="5.28522">
        <ele>1117</ele>
        <time>2019-07-25T13:14:55Z</time>
      </trkpt>
      <trkpt lat="44.94086" lon="5.28511">
        <ele>1115</ele>
        <time>2019-07-25T13:15:03Z</time>
      </trkpt>
      <trkpt lat="44.9411" lon="5.2851">
        <ele>1113</ele>
        <time>2019-07-25T13:15:08Z</time>
      </trkpt>
      <trkpt lat="44.94179" lon="5.28515">
        <ele>1111</ele>
        <time>2019-07-25T13:15:20Z</time>
      </trkpt>
      <trkpt lat="44.9424" lon="5.28529">
        <ele>1106</ele>
        <time>2019-07-25T13:15:31Z</time>
      </trkpt>
      <trkpt lat="44.94295" lon="5.2855">
        <ele>1106</ele>
        <time>2019-07-25T13:15:41Z</time>
      </trkpt>
      <trkpt lat="44.94311" lon="5.28559">
        <ele>1106</ele>
        <time>2019-07-25T13:15:44Z</time>
      </trkpt>
      <trkpt lat="44.94321" lon="5.28569">
        <ele>1107</ele>
        <time>2019-07-25T13:15:46Z</time>
      </trkpt>
      <trkpt lat="44.94333" lon="5.28586">
        <ele>1107</ele>
        <time>2019-07-25T13:15:49Z</time>
      </trkpt>
      <trkpt lat="44.94352" lon="5.2862">
        <ele>1108</ele>
        <time>2019-07-25T13:15:55Z</time>
      </trkpt>
      <trkpt lat="44.94362" lon="5.28632">
        <ele>1109</ele>
        <time>2019-07-25T13:15:57Z</time>
      </trkpt>
      <trkpt lat="44.94376" lon="5.2864">
        <ele>1108</ele>
        <time>2019-07-25T13:16:00Z</time>
      </trkpt>
      <trkpt lat="44.94392" lon="5.28644">
        <ele>1107</ele>
        <time>2019-07-25T13:16:03Z</time>
      </trkpt>
      <trkpt lat="44.94508" lon="5.28625">
        <ele>1102</ele>
        <time>2019-07-25T13:16:23Z</time>
      </trkpt>
      <trkpt lat="44.94532" lon="5.28627">
        <ele>1101</ele>
        <time>2019-07-25T13:16:28Z</time>
      </trkpt>
      <trkpt lat="44.94554" lon="5.28633">
        <ele>1101</ele>
        <time>2019-07-25T13:16:32Z</time>
      </trkpt>
      <trkpt lat="44.94592" lon="5.28654">
        <ele>1100</ele>
        <time>2019-07-25T13:16:39Z</time>
      </trkpt>
      <trkpt lat="44.94643" lon="5.28685">
        <ele>1101</ele>
        <time>2019-07-25T13:16:49Z</time>
      </trkpt>
      <trkpt lat="44.94684" lon="5.28717">
        <ele>1104</ele>
        <time>2019-07-25T13:16:57Z</time>
      </trkpt>
      <trkpt lat="44.9471" lon="5.28729">
        <ele>1103</ele>
        <time>2019-07-25T13:17:02Z</time>
      </trkpt>
      <trkpt lat="44.9474" lon="5.28736">
        <ele>1100</ele>
        <time>2019-07-25T13:17:07Z</time>
      </trkpt>
      <trkpt lat="44.9477" lon="5.28752">
        <ele>1099</ele>
        <time>2019-07-25T13:17:13Z</time>
      </trkpt>
      <trkpt lat="44.94785" lon="5.28767">
        <ele>1101</ele>
        <time>2019-07-25T13:17:16Z</time>
      </trkpt>
      <trkpt lat="44.9481" lon="5.28804">
        <ele>1105</ele>
        <time>2019-07-25T13:17:23Z</time>
      </trkpt>
      <trkpt lat="44.94824" lon="5.28835">
        <ele>1106</ele>
        <time>2019-07-25T13:17:28Z</time>
      </trkpt>
      <trkpt lat="44.94833" lon="5.2886">
        <ele>1108</ele>
        <time>2019-07-25T13:17:31Z</time>
      </trkpt>
      <trkpt lat="44.94842" lon="5.28932">
        <ele>1117</ele>
        <time>2019-07-25T13:17:40Z</time>
      </trkpt>
      <trkpt lat="44.94847" lon="5.2895">
        <ele>1121</ele>
        <time>2019-07-25T13:17:43Z</time>
      </trkpt>
      <trkpt lat="44.94857" lon="5.2896">
        <ele>1121</ele>
        <time>2019-07-25T13:17:45Z</time>
      </trkpt>
      <trkpt lat="44.94884" lon="5.28978">
        <ele>1122</ele>
        <time>2019-07-25T13:17:50Z</time>
      </trkpt>
      <trkpt lat="44.94914" lon="5.28993">
        <ele>1120</ele>
        <time>2019-07-25T13:17:56Z</time>
      </trkpt>
      <trkpt lat="44.94977" lon="5.29014">
        <ele>1124</ele>
        <time>2019-07-25T13:18:07Z</time>
      </trkpt>
      <trkpt lat="44.95018" lon="5.29032">
        <ele>1127</ele>
        <time>2019-07-25T13:18:15Z</time>
      </trkpt>
      <trkpt lat="44.95044" lon="5.2905">
        <ele>1129</ele>
        <time>2019-07-25T13:18:20Z</time>
      </trkpt>
      <trkpt lat="44.95073" lon="5.2908">
        <ele>1135</ele>
        <time>2019-07-25T13:18:27Z</time>
      </trkpt>
      <trkpt lat="44.95128" lon="5.29144">
        <ele>1146</ele>
        <time>2019-07-25T13:18:39Z</time>
      </trkpt>
      <trkpt lat="44.9515" lon="5.29172">
        <ele>1150</ele>
        <time>2019-07-25T13:18:44Z</time>
      </trkpt>
      <trkpt lat="44.95174" lon="5.2919">
        <ele>1151</ele>
        <time>2019-07-25T13:18:49Z</time>
      </trkpt>
      <trkpt lat="44.95271" lon="5.29229">
        <ele>1152</ele>
        <time>2019-07-25T13:19:07Z</time>
      </trkpt>
      <trkpt lat="44.95378" lon="5.29284">
        <ele>1162</ele>
        <time>2019-07-25T13:19:28Z</time>
      </trkpt>
      <trkpt lat="44.95437" lon="5.29328">
        <ele>1169</ele>
        <time>2019-07-25T13:19:39Z</time>
      </trkpt>
      <trkpt lat="44.95511" lon="5.29379">
        <ele>1175</ele>
        <time>2019-07-25T13:19:54Z</time>
      </trkpt>
      <trkpt lat="44.95579" lon="5.29415">
        <ele>1179</ele>
        <time>2019-07-25T13:20:07Z</time>
      </trkpt>
      <trkpt lat="44.9565" lon="5.29449">
        <ele>1183</ele>
        <time>2019-07-25T13:20:20Z</time>
      </trkpt>
      <trkpt lat="44.95663" lon="5.29458">
        <ele>1183</ele>
        <time>2019-07-25T13:20:23Z</time>
      </trkpt>
      <trkpt lat="44.95672" lon="5.29471">
        <ele>1184</ele>
        <time>2019-07-25T13:20:25Z</time>
      </trkpt>
      <trkpt lat="44.95683" lon="5.29539">
        <ele>1191</ele>
        <time>2019-07-25T13:20:34Z</time>
      </trkpt>
      <trkpt lat="44.95695" lon="5.29586">
        <ele>1192</ele>
        <time>2019-07-25T13:20:40Z</time>
      </trkpt>
      <trkpt lat="44.95721" lon="5.29674">
        <ele>1191</ele>
        <time>2019-07-25T13:20:52Z</time>
      </trkpt>
      <trkpt lat="44.95727" lon="5.29716">
        <ele>1191</ele>
        <time>2019-07-25T13:20:58Z</time>
      </trkpt>
      <trkpt lat="44.95729" lon="5.29749">
        <ele>1192</ele>
        <time>2019-07-25T13:21:02Z</time>
      </trkpt>
      <trkpt lat="44.95723" lon="5.29798">
        <ele>1194</ele>
        <time>2019-07-25T13:21:08Z</time>
      </trkpt>
      <trkpt lat="44.95705" lon="5.29885">
        <ele>1194</ele>
        <time>2019-07-25T13:21:19Z</time>
      </trkpt>
      <trkpt lat="44.95669" lon="5.3">
        <ele>1194</ele>
        <time>2019-07-25T13:21:35Z</time>
      </trkpt>
      <trkpt lat="44.95538" lon="5.30343">
        <ele>1188</ele>
        <time>2019-07-25T13:22:24Z</time>
      </trkpt>
      <trkpt lat="44.95518" lon="5.3039">
        <ele>1186</ele>
        <time>2019-07-25T13:22:31Z</time>
      </trkpt>
      <trkpt lat="44.95496" lon="5.30426">
        <ele>1186</ele>
        <time>2019-07-25T13:22:37Z</time>
      </trkpt>
      <trkpt lat="44.95451" lon="5.30478">
        <ele>1188</ele>
        <time>2019-07-25T13:22:48Z</time>
      </trkpt>
      <trkpt lat="44.95428" lon="5.3051">
        <ele>1188</ele>
        <time>2019-07-25T13:22:53Z</time>
      </trkpt>
      <trkpt lat="44.95369" lon="5.30612">
        <ele>1187</ele>
        <time>2019-07-25T13:23:10Z</time>
      </trkpt>
      <trkpt lat="44.95351" lon="5.30652">
        <ele>1184</ele>
        <time>2019-07-25T13:23:16Z</time>
      </trkpt>
      <trkpt lat="44.9534" lon="5.30667">
        <ele>1182</ele>
        <time>2019-07-25T13:23:19Z</time>
      </trkpt>
      <trkpt lat="44.95327" lon="5.30678">
        <ele>1182</ele>
        <time>2019-07-25T13:23:21Z</time>
      </trkpt>
      <trkpt lat="44.95313" lon="5.30685">
        <ele>1184</ele>
        <time>2019-07-25T13:23:24Z</time>
      </trkpt>
      <trkpt lat="44.95295" lon="5.30692">
        <ele>1185</ele>
        <time>2019-07-25T13:23:27Z</time>
      </trkpt>
      <trkpt lat="44.95282" lon="5.307">
        <ele>1186</ele>
        <time>2019-07-25T13:23:30Z</time>
      </trkpt>
      <trkpt lat="44.9527" lon="5.30713">
        <ele>1185</ele>
        <time>2019-07-25T13:23:33Z</time>
      </trkpt>
      <trkpt lat="44.95243" lon="5.30756">
        <ele>1179</ele>
        <time>2019-07-25T13:23:40Z</time>
      </trkpt>
      <trkpt lat="44.95226" lon="5.30776">
        <ele>1177</ele>
        <time>2019-07-25T13:23:44Z</time>
      </trkpt>
      <trkpt lat="44.95202" lon="5.30797">
        <ele>1175</ele>
        <time>2019-07-25T13:23:49Z</time>
      </trkpt>
      <trkpt lat="44.95146" lon="5.30831">
        <ele>1171</ele>
        <time>2019-07-25T13:24:00Z</time>
      </trkpt>
      <trkpt lat="44.95102" lon="5.3087">
        <ele>1167</ele>
        <time>2019-07-25T13:24:09Z</time>
      </trkpt>
      <trkpt lat="44.95082" lon="5.3088">
        <ele>1167</ele>
        <time>2019-07-25T13:24:13Z</time>
      </trkpt>
      <trkpt lat="44.95016" lon="5.30904">
        <ele>1168</ele>
        <time>2019-07-25T13:24:25Z</time>
      </trkpt>
      <trkpt lat="44.94991" lon="5.309">
        <ele>1170</ele>
        <time>2019-07-25T13:24:29Z</time>
      </trkpt>
      <trkpt lat="44.94969" lon="5.30902">
        <ele>1172</ele>
        <time>2019-07-25T13:24:33Z</time>
      </trkpt>
      <trkpt lat="44.94951" lon="5.30912">
        <ele>1172</ele>
        <time>2019-07-25T13:24:37Z</time>
      </trkpt>
      <trkpt lat="44.94905" lon="5.30951">
        <ele>1165</ele>
        <time>2019-07-25T13:24:46Z</time>
      </trkpt>
      <trkpt lat="44.94839" lon="5.30986">
        <ele>1158</ele>
        <time>2019-07-25T13:24:59Z</time>
      </trkpt>
      <trkpt lat="44.94656" lon="5.3102">
        <ele>1148</ele>
        <time>2019-07-25T13:25:31Z</time>
      </trkpt>
      <trkpt lat="44.94613" lon="5.31022">
        <ele>1144</ele>
        <time>2019-07-25T13:25:39Z</time>
      </trkpt>
      <trkpt lat="44.94556" lon="5.31004">
        <ele>1143</ele>
        <time>2019-07-25T13:25:50Z</time>
      </trkpt>
      <trkpt lat="44.94536" lon="5.30995">
        <ele>1143</ele>
        <time>2019-07-25T13:25:53Z</time>
      </trkpt>
      <trkpt lat="44.94385" lon="5.30906">
        <ele>1136</ele>
        <time>2019-07-25T13:26:22Z</time>
      </trkpt>
      <trkpt lat="44.94357" lon="5.30887">
        <ele>1137</ele>
        <time>2019-07-25T13:26:28Z</time>
      </trkpt>
      <trkpt lat="44.94335" lon="5.30883">
        <ele>1136</ele>
        <time>2019-07-25T13:26:32Z</time>
      </trkpt>
      <trkpt lat="44.94232" lon="5.30879">
        <ele>1131</ele>
        <time>2019-07-25T13:26:50Z</time>
      </trkpt>
      <trkpt lat="44.94164" lon="5.30883">
        <ele>1129</ele>
        <time>2019-07-25T13:27:02Z</time>
      </trkpt>
      <trkpt lat="44.94136" lon="5.30881">
        <ele>1131</ele>
        <time>2019-07-25T13:27:07Z</time>
      </trkpt>
      <trkpt lat="44.94133" lon="5.30883">
        <ele>1131</ele>
        <time>2019-07-25T13:27:08Z</time>
      </trkpt>
      <trkpt lat="44.94129" lon="5.30894">
        <ele>1129</ele>
        <time>2019-07-25T13:27:09Z</time>
      </trkpt>
      <trkpt lat="44.94096" lon="5.30882">
        <ele>1133</ele>
        <time>2019-07-25T13:27:15Z</time>
      </trkpt>
      <trkpt lat="44.94058" lon="5.30865">
        <ele>1138</ele>
        <time>2019-07-25T13:27:23Z</time>
      </trkpt>
      <trkpt lat="44.94028" lon="5.30856">
        <ele>1141</ele>
        <time>2019-07-25T13:27:28Z</time>
      </trkpt>
      <trkpt lat="44.93995" lon="5.30863">
        <ele>1143</ele>
        <time>2019-07-25T13:27:34Z</time>
      </trkpt>
      <trkpt lat="44.93943" lon="5.30903">
        <ele>1147</ele>
        <time>2019-07-25T13:27:45Z</time>
      </trkpt>
      <trkpt lat="44.93918" lon="5.30911">
        <ele>1150</ele>
        <time>2019-07-25T13:27:49Z</time>
      </trkpt>
      <trkpt lat="44.93902" lon="5.30913">
        <ele>1151</ele>
        <time>2019-07-25T13:27:52Z</time>
      </trkpt>
      <trkpt lat="44.93886" lon="5.30909">
        <ele>1152</ele>
        <time>2019-07-25T13:27:55Z</time>
      </trkpt>
      <trkpt lat="44.93865" lon="5.30879">
        <ele>1153</ele>
        <time>2019-07-25T13:28:00Z</time>
      </trkpt>
      <trkpt lat="44.93833" lon="5.30819">
        <ele>1153</ele>
        <time>2019-07-25T13:28:10Z</time>
      </trkpt>
      <trkpt lat="44.93805" lon="5.30783">
        <ele>1155</ele>
        <time>2019-07-25T13:28:16Z</time>
      </trkpt>
      <trkpt lat="44.93732" lon="5.30707">
        <ele>1159</ele>
        <time>2019-07-25T13:28:32Z</time>
      </trkpt>
      <trkpt lat="44.93704" lon="5.30689">
        <ele>1160</ele>
        <time>2019-07-25T13:28:38Z</time>
      </trkpt>
      <trkpt lat="44.93685" lon="5.3068">
        <ele>1161</ele>
        <time>2019-07-25T13:28:42Z</time>
      </trkpt>
      <trkpt lat="44.93664" lon="5.30679">
        <ele>1162</ele>
        <time>2019-07-25T13:28:45Z</time>
      </trkpt>
      <trkpt lat="44.93604" lon="5.30715">
        <ele>1163</ele>
        <time>2019-07-25T13:28:57Z</time>
      </trkpt>
      <trkpt lat="44.93533" lon="5.30751">
        <ele>1169</ele>
        <time>2019-07-25T13:29:10Z</time>
      </trkpt>
      <trkpt lat="44.93504" lon="5.3077">
        <ele>1172</ele>
        <time>2019-07-25T13:29:16Z</time>
      </trkpt>
      <trkpt lat="44.93482" lon="5.30795">
        <ele>1174</ele>
        <time>2019-07-25T13:29:21Z</time>
      </trkpt>
      <trkpt lat="44.93446" lon="5.3089">
        <ele>1175</ele>
        <time>2019-07-25T13:29:35Z</time>
      </trkpt>
      <trkpt lat="44.93434" lon="5.30926">
        <ele>1176</ele>
        <time>2019-07-25T13:29:40Z</time>
      </trkpt>
      <trkpt lat="44.93455" lon="5.30973">
        <ele>1177</ele>
        <time>2019-07-25T13:29:47Z</time>
      </trkpt>
      <trkpt lat="44.93485" lon="5.31029">
        <ele>1177</ele>
        <time>2019-07-25T13:29:55Z</time>
      </trkpt>
      <trkpt lat="44.93495" lon="5.31063">
        <ele>1178</ele>
        <time>2019-07-25T13:30:00Z</time>
      </trkpt>
      <trkpt lat="44.93502" lon="5.31099">
        <ele>1180</ele>
        <time>2019-07-25T13:30:05Z</time>
      </trkpt>
      <trkpt lat="44.93511" lon="5.31159">
        <ele>1184</ele>
        <time>2019-07-25T13:30:12Z</time>
      </trkpt>
      <trkpt lat="44.93491" lon="5.31356">
        <ele>1178</ele>
        <time>2019-07-25T13:30:38Z</time>
      </trkpt>
      <trkpt lat="44.9348" lon="5.31371">
        <ele>1178</ele>
        <time>2019-07-25T13:30:40Z</time>
      </trkpt>
      <trkpt lat="44.93467" lon="5.31378">
        <ele>1178</ele>
        <time>2019-07-25T13:30:43Z</time>
      </trkpt>
      <trkpt lat="44.93407" lon="5.31391">
        <ele>1182</ele>
        <time>2019-07-25T13:30:54Z</time>
      </trkpt>
      <trkpt lat="44.93394" lon="5.31399">
        <ele>1183</ele>
        <time>2019-07-25T13:30:56Z</time>
      </trkpt>
      <trkpt lat="44.93382" lon="5.3141">
        <ele>1184</ele>
        <time>2019-07-25T13:30:59Z</time>
      </trkpt>
      <trkpt lat="44.93351" lon="5.31512">
        <ele>1184</ele>
        <time>2019-07-25T13:31:13Z</time>
      </trkpt>
      <trkpt lat="44.93346" lon="5.31546">
        <ele>1185</ele>
        <time>2019-07-25T13:31:17Z</time>
      </trkpt>
      <trkpt lat="44.93354" lon="5.31578">
        <ele>1182</ele>
        <time>2019-07-25T13:31:21Z</time>
      </trkpt>
      <trkpt lat="44.93375" lon="5.31615">
        <ele>1176</ele>
        <time>2019-07-25T13:31:27Z</time>
      </trkpt>
      <trkpt lat="44.93379" lon="5.31636">
        <ele>1176</ele>
        <time>2019-07-25T13:31:30Z</time>
      </trkpt>
      <trkpt lat="44.93379" lon="5.31652">
        <ele>1177</ele>
        <time>2019-07-25T13:31:32Z</time>
      </trkpt>
      <trkpt lat="44.93375" lon="5.31664">
        <ele>1178</ele>
        <time>2019-07-25T13:31:34Z</time>
      </trkpt>
      <trkpt lat="44.93361" lon="5.31687">
        <ele>1179</ele>
        <time>2019-07-25T13:31:37Z</time>
      </trkpt>
      <trkpt lat="44.93308" lon="5.31708">
        <ele>1188</ele>
        <time>2019-07-25T13:31:47Z</time>
      </trkpt>
      <trkpt lat="44.93276" lon="5.31737">
        <ele>1191</ele>
        <time>2019-07-25T13:31:54Z</time>
      </trkpt>
      <trkpt lat="44.93225" lon="5.31847">
        <ele>1186</ele>
        <time>2019-07-25T13:32:11Z</time>
      </trkpt>
      <trkpt lat="44.93199" lon="5.31877">
        <ele>1187</ele>
        <time>2019-07-25T13:32:17Z</time>
      </trkpt>
      <trkpt lat="44.93162" lon="5.31898">
        <ele>1190</ele>
        <time>2019-07-25T13:32:24Z</time>
      </trkpt>
      <trkpt lat="44.93108" lon="5.31884">
        <ele>1197</ele>
        <time>2019-07-25T13:32:33Z</time>
      </trkpt>
      <trkpt lat="44.92967" lon="5.31892">
        <ele>1203</ele>
        <time>2019-07-25T13:32:59Z</time>
      </trkpt>
      <trkpt lat="44.9292" lon="5.31915">
        <ele>1201</ele>
        <time>2019-07-25T13:33:07Z</time>
      </trkpt>
      <trkpt lat="44.92874" lon="5.31942">
        <ele>1207</ele>
        <time>2019-07-25T13:33:16Z</time>
      </trkpt>
      <trkpt lat="44.92803" lon="5.32017">
        <ele>1211</ele>
        <time>2019-07-25T13:33:32Z</time>
      </trkpt>
      <trkpt lat="44.92784" lon="5.32047">
        <ele>1213</ele>
        <time>2019-07-25T13:33:37Z</time>
      </trkpt>
      <trkpt lat="44.92773" lon="5.3207">
        <ele>1213</ele>
        <time>2019-07-25T13:33:41Z</time>
      </trkpt>
      <trkpt lat="44.92766" lon="5.32091">
        <ele>1212</ele>
        <time>2019-07-25T13:33:43Z</time>
      </trkpt>
      <trkpt lat="44.92773" lon="5.32115">
        <ele>1211</ele>
        <time>2019-07-25T13:33:47Z</time>
      </trkpt>
      <trkpt lat="44.92778" lon="5.32122">
        <ele>1211</ele>
        <time>2019-07-25T13:33:48Z</time>
      </trkpt>
      <trkpt lat="44.92801" lon="5.32121">
        <ele>1209</ele>
        <time>2019-07-25T13:33:52Z</time>
      </trkpt>
      <trkpt lat="44.92853" lon="5.32089">
        <ele>1201</ele>
        <time>2019-07-25T13:34:02Z</time>
      </trkpt>
      <trkpt lat="44.92868" lon="5.32082">
        <ele>1201</ele>
        <time>2019-07-25T13:34:05Z</time>
      </trkpt>
      <trkpt lat="44.92913" lon="5.32068">
        <ele>1203</ele>
        <time>2019-07-25T13:34:13Z</time>
      </trkpt>
      <trkpt lat="44.92944" lon="5.32068">
        <ele>1204</ele>
        <time>2019-07-25T13:34:19Z</time>
      </trkpt>
      <trkpt lat="44.93006" lon="5.32078">
        <ele>1208</ele>
        <time>2019-07-25T13:34:30Z</time>
      </trkpt>
      <trkpt lat="44.93049" lon="5.32089">
        <ele>1207</ele>
        <time>2019-07-25T13:34:38Z</time>
      </trkpt>
      <trkpt lat="44.93106" lon="5.32119">
        <ele>1208</ele>
        <time>2019-07-25T13:34:48Z</time>
      </trkpt>
      <trkpt lat="44.93123" lon="5.3213">
        <ele>1207</ele>
        <time>2019-07-25T13:34:52Z</time>
      </trkpt>
      <trkpt lat="44.9314" lon="5.32144">
        <ele>1207</ele>
        <time>2019-07-25T13:34:55Z</time>
      </trkpt>
      <trkpt lat="44.93148" lon="5.32159">
        <ele>1207</ele>
        <time>2019-07-25T13:34:58Z</time>
      </trkpt>
      <trkpt lat="44.93153" lon="5.32175">
        <ele>1209</ele>
        <time>2019-07-25T13:35:00Z</time>
      </trkpt>
      <trkpt lat="44.93165" lon="5.32251">
        <ele>1219</ele>
        <time>2019-07-25T13:35:10Z</time>
      </trkpt>
      <trkpt lat="44.93173" lon="5.32274">
        <ele>1224</ele>
        <time>2019-07-25T13:35:13Z</time>
      </trkpt>
      <trkpt lat="44.9318" lon="5.32289">
        <ele>1227</ele>
        <time>2019-07-25T13:35:15Z</time>
      </trkpt>
      <trkpt lat="44.93187" lon="5.323">
        <ele>1229</ele>
        <time>2019-07-25T13:35:17Z</time>
      </trkpt>
      <trkpt lat="44.93197" lon="5.32309">
        <ele>1230</ele>
        <time>2019-07-25T13:35:19Z</time>
      </trkpt>
      <trkpt lat="44.93208" lon="5.32315">
        <ele>1230</ele>
        <time>2019-07-25T13:35:21Z</time>
      </trkpt>
      <trkpt lat="44.93219" lon="5.32317">
        <ele>1229</ele>
        <time>2019-07-25T13:35:23Z</time>
      </trkpt>
      <trkpt lat="44.93232" lon="5.32318">
        <ele>1227</ele>
        <time>2019-07-25T13:35:25Z</time>
      </trkpt>
      <trkpt lat="44.9327" lon="5.32313">
        <ele>1221</ele>
        <time>2019-07-25T13:35:32Z</time>
      </trkpt>
      <trkpt lat="44.93283" lon="5.32313">
        <ele>1219</ele>
        <time>2019-07-25T13:35:35Z</time>
      </trkpt>
      <trkpt lat="44.933" lon="5.32317">
        <ele>1218</ele>
        <time>2019-07-25T13:35:38Z</time>
      </trkpt>
      <trkpt lat="44.93318" lon="5.32324">
        <ele>1217</ele>
        <time>2019-07-25T13:35:41Z</time>
      </trkpt>
      <trkpt lat="44.93322" lon="5.32328">
        <ele>1218</ele>
        <time>2019-07-25T13:35:42Z</time>
      </trkpt>
      <trkpt lat="44.93325" lon="5.32335">
        <ele>1220</ele>
        <time>2019-07-25T13:35:43Z</time>
      </trkpt>
      <trkpt lat="44.93325" lon="5.32341">
        <ele>1222</ele>
        <time>2019-07-25T13:35:44Z</time>
      </trkpt>
      <trkpt lat="44.93321" lon="5.32344">
        <ele>1224</ele>
        <time>2019-07-25T13:35:44Z</time>
      </trkpt>
      <trkpt lat="44.93315" lon="5.32345">
        <ele>1225</ele>
        <time>2019-07-25T13:35:46Z</time>
      </trkpt>
      <trkpt lat="44.93293" lon="5.32337">
        <ele>1225</ele>
        <time>2019-07-25T13:35:50Z</time>
      </trkpt>
      <trkpt lat="44.93234" lon="5.32345">
        <ele>1235</ele>
        <time>2019-07-25T13:36:00Z</time>
      </trkpt>
      <trkpt lat="44.93217" lon="5.32345">
        <ele>1238</ele>
        <time>2019-07-25T13:36:03Z</time>
      </trkpt>
      <trkpt lat="44.93202" lon="5.32343">
        <ele>1239</ele>
        <time>2019-07-25T13:36:06Z</time>
      </trkpt>
      <trkpt lat="44.9314" lon="5.32326">
        <ele>1243</ele>
        <time>2019-07-25T13:36:17Z</time>
      </trkpt>
      <trkpt lat="44.93126" lon="5.32316">
        <ele>1243</ele>
        <time>2019-07-25T13:36:20Z</time>
      </trkpt>
      <trkpt lat="44.93085" lon="5.32254">
        <ele>1240</ele>
        <time>2019-07-25T13:36:31Z</time>
      </trkpt>
      <trkpt lat="44.93073" lon="5.32242">
        <ele>1239</ele>
        <time>2019-07-25T13:36:33Z</time>
      </trkpt>
      <trkpt lat="44.9306" lon="5.32233">
        <ele>1239</ele>
        <time>2019-07-25T13:36:36Z</time>
      </trkpt>
      <trkpt lat="44.93042" lon="5.32228">
        <ele>1240</ele>
        <time>2019-07-25T13:36:39Z</time>
      </trkpt>
      <trkpt lat="44.92988" lon="5.32241">
        <ele>1246</ele>
        <time>2019-07-25T13:36:49Z</time>
      </trkpt>
      <trkpt lat="44.9293" lon="5.32262">
        <ele>1252</ele>
        <time>2019-07-25T13:36:59Z</time>
      </trkpt>
      <trkpt lat="44.92882" lon="5.32275">
        <ele>1253</ele>
        <time>2019-07-25T13:37:08Z</time>
      </trkpt>
      <trkpt lat="44.92852" lon="5.32287">
        <ele>1253</ele>
        <time>2019-07-25T13:37:14Z</time>
      </trkpt>
      <trkpt lat="44.92839" lon="5.32296">
        <ele>1254</ele>
        <time>2019-07-25T13:37:16Z</time>
      </trkpt>
      <trkpt lat="44.92798" lon="5.32334">
        <ele>1259</ele>
        <time>2019-07-25T13:37:25Z</time>
      </trkpt>
      <trkpt lat="44.92771" lon="5.32365">
        <ele>1262</ele>
        <time>2019-07-25T13:37:31Z</time>
      </trkpt>
      <trkpt lat="44.92746" lon="5.32403">
        <ele>1266</ele>
        <time>2019-07-25T13:37:38Z</time>
      </trkpt>
      <trkpt lat="44.9269" lon="5.32475">
        <ele>1275</ele>
        <time>2019-07-25T13:37:51Z</time>
      </trkpt>
      <trkpt lat="44.92673" lon="5.32485">
        <ele>1274</ele>
        <time>2019-07-25T13:37:54Z</time>
      </trkpt>
      <trkpt lat="44.92621" lon="5.3247">
        <ele>1275</ele>
        <time>2019-07-25T13:38:04Z</time>
      </trkpt>
      <trkpt lat="44.92545" lon="5.32493">
        <ele>1286</ele>
        <time>2019-07-25T13:38:18Z</time>
      </trkpt>
      <trkpt lat="44.9252" lon="5.32492">
        <ele>1288</ele>
        <time>2019-07-25T13:38:22Z</time>
      </trkpt>
      <trkpt lat="44.925" lon="5.32485">
        <ele>1289</ele>
        <time>2019-07-25T13:38:26Z</time>
      </trkpt>
      <trkpt lat="44.92483" lon="5.32476">
        <ele>1289</ele>
        <time>2019-07-25T13:38:29Z</time>
      </trkpt>
      <trkpt lat="44.9244" lon="5.32449">
        <ele>1289</ele>
        <time>2019-07-25T13:38:37Z</time>
      </trkpt>
      <trkpt lat="44.92415" lon="5.32439">
        <ele>1290</ele>
        <time>2019-07-25T13:38:42Z</time>
      </trkpt>
      <trkpt lat="44.92398" lon="5.32436">
        <ele>1291</ele>
        <time>2019-07-25T13:38:45Z</time>
      </trkpt>
      <trkpt lat="44.92252" lon="5.32445">
        <ele>1297</ele>
        <time>2019-07-25T13:39:11Z</time>
      </trkpt>
      <trkpt lat="44.9224" lon="5.32444">
        <ele>1298</ele>
        <time>2019-07-25T13:39:13Z</time>
      </trkpt>
      <trkpt lat="44.92229" lon="5.3244">
        <ele>1299</ele>
        <time>2019-07-25T13:39:15Z</time>
      </trkpt>
      <trkpt lat="44.92162" lon="5.324">
        <ele>1302</ele>
        <time>2019-07-25T13:39:28Z</time>
      </trkpt>
      <trkpt lat="44.92113" lon="5.32383">
        <ele>1302</ele>
        <time>2019-07-25T13:39:37Z</time>
      </trkpt>
      <trkpt lat="44.9207" lon="5.32377">
        <ele>1303</ele>
        <time>2019-07-25T13:39:45Z</time>
      </trkpt>
      <trkpt lat="44.92053" lon="5.32383">
        <ele>1304</ele>
        <time>2019-07-25T13:39:48Z</time>
      </trkpt>
      <trkpt lat="44.92037" lon="5.32401">
        <ele>1306</ele>
        <time>2019-07-25T13:39:52Z</time>
      </trkpt>
      <trkpt lat="44.92018" lon="5.32446">
        <ele>1310</ele>
        <time>2019-07-25T13:39:58Z</time>
      </trkpt>
      <trkpt lat="44.9201" lon="5.32465">
        <ele>1312</ele>
        <time>2019-07-25T13:40:01Z</time>
      </trkpt>
      <trkpt lat="44.92" lon="5.32481">
        <ele>1313</ele>
        <time>2019-07-25T13:40:04Z</time>
      </trkpt>
      <trkpt lat="44.9195" lon="5.32519">
        <ele>1320</ele>
        <time>2019-07-25T13:40:14Z</time>
      </trkpt>
      <trkpt lat="44.91936" lon="5.32525">
        <ele>1321</ele>
        <time>2019-07-25T13:40:16Z</time>
      </trkpt>
      <trkpt lat="44.91921" lon="5.32528">
        <ele>1322</ele>
        <time>2019-07-25T13:40:19Z</time>
      </trkpt>
      <trkpt lat="44.91892" lon="5.32527">
        <ele>1324</ele>
        <time>2019-07-25T13:40:24Z</time>
      </trkpt>
      <trkpt lat="44.91858" lon="5.32517">
        <ele>1326</ele>
        <time>2019-07-25T13:40:30Z</time>
      </trkpt>
      <trkpt lat="44.91826" lon="5.32511">
        <ele>1328</ele>
        <time>2019-07-25T13:40:36Z</time>
      </trkpt>
      <trkpt lat="44.91727" lon="5.32534">
        <ele>1341</ele>
        <time>2019-07-25T13:40:54Z</time>
      </trkpt>
      <trkpt lat="44.91715" lon="5.32533">
        <ele>1342</ele>
        <time>2019-07-25T13:40:56Z</time>
      </trkpt>
      <trkpt lat="44.91707" lon="5.32529">
        <ele>1342</ele>
        <time>2019-07-25T13:40:58Z</time>
      </trkpt>
      <trkpt lat="44.91662" lon="5.32496">
        <ele>1341</ele>
        <time>2019-07-25T13:41:07Z</time>
      </trkpt>
      <trkpt lat="44.91636" lon="5.32483">
        <ele>1341</ele>
        <time>2019-07-25T13:41:12Z</time>
      </trkpt>
      <trkpt lat="44.91618" lon="5.32484">
        <ele>1342</ele>
        <time>2019-07-25T13:41:15Z</time>
      </trkpt>
      <trkpt lat="44.91531" lon="5.32521">
        <ele>1351</ele>
        <time>2019-07-25T13:41:31Z</time>
      </trkpt>
      <trkpt lat="44.91441" lon="5.32551">
        <ele>1358</ele>
        <time>2019-07-25T13:41:47Z</time>
      </trkpt>
      <trkpt lat="44.91426" lon="5.32554">
        <ele>1359</ele>
        <time>2019-07-25T13:41:50Z</time>
      </trkpt>
      <trkpt lat="44.91409" lon="5.32555">
        <ele>1361</ele>
        <time>2019-07-25T13:41:53Z</time>
      </trkpt>
      <trkpt lat="44.91392" lon="5.3255">
        <ele>1362</ele>
        <time>2019-07-25T13:41:56Z</time>
      </trkpt>
      <trkpt lat="44.91348" lon="5.32527">
        <ele>1365</ele>
        <time>2019-07-25T13:42:05Z</time>
      </trkpt>
      <trkpt lat="44.91316" lon="5.32515">
        <ele>1366</ele>
        <time>2019-07-25T13:42:10Z</time>
      </trkpt>
      <trkpt lat="44.91299" lon="5.32514">
        <ele>1367</ele>
        <time>2019-07-25T13:42:13Z</time>
      </trkpt>
      <trkpt lat="44.91282" lon="5.32519">
        <ele>1368</ele>
        <time>2019-07-25T13:42:17Z</time>
      </trkpt>
      <trkpt lat="44.91249" lon="5.32526">
        <ele>1371</ele>
        <time>2019-07-25T13:42:23Z</time>
      </trkpt>
      <trkpt lat="44.91222" lon="5.32527">
        <ele>1373</ele>
        <time>2019-07-25T13:42:27Z</time>
      </trkpt>
      <trkpt lat="44.91147" lon="5.32526">
        <ele>1377</ele>
        <time>2019-07-25T13:42:41Z</time>
      </trkpt>
      <trkpt lat="44.91047" lon="5.32522">
        <ele>1380</ele>
        <time>2019-07-25T13:42:58Z</time>
      </trkpt>
      <trkpt lat="44.91035" lon="5.32526">
        <ele>1381</ele>
        <time>2019-07-25T13:43:01Z</time>
      </trkpt>
      <trkpt lat="44.91022" lon="5.32536">
        <ele>1382</ele>
        <time>2019-07-25T13:43:03Z</time>
      </trkpt>
      <trkpt lat="44.91013" lon="5.32547">
        <ele>1383</ele>
        <time>2019-07-25T13:43:05Z</time>
      </trkpt>
      <trkpt lat="44.91004" lon="5.32564">
        <ele>1385</ele>
        <time>2019-07-25T13:43:08Z</time>
      </trkpt>
      <trkpt lat="44.90992" lon="5.32597">
        <ele>1388</ele>
        <time>2019-07-25T13:43:13Z</time>
      </trkpt>
      <trkpt lat="44.90984" lon="5.32613">
        <ele>1389</ele>
        <time>2019-07-25T13:43:15Z</time>
      </trkpt>
      <trkpt lat="44.90973" lon="5.3263">
        <ele>1390</ele>
        <time>2019-07-25T13:43:18Z</time>
      </trkpt>
      <trkpt lat="44.90966" lon="5.32645">
        <ele>1390</ele>
        <time>2019-07-25T13:43:20Z</time>
      </trkpt>
      <trkpt lat="44.90963" lon="5.32664">
        <ele>1391</ele>
        <time>2019-07-25T13:43:23Z</time>
      </trkpt>
      <trkpt lat="44.90963" lon="5.32682">
        <ele>1392</ele>
        <time>2019-07-25T13:43:25Z</time>
      </trkpt>
      <trkpt lat="44.90967" lon="5.32701">
        <ele>1393</ele>
        <time>2019-07-25T13:43:28Z</time>
      </trkpt>
      <trkpt lat="44.90978" lon="5.32737">
        <ele>1397</ele>
        <time>2019-07-25T13:43:33Z</time>
      </trkpt>
      <trkpt lat="44.90987" lon="5.32754">
        <ele>1399</ele>
        <time>2019-07-25T13:43:35Z</time>
      </trkpt>
      <trkpt lat="44.91015" lon="5.32796">
        <ele>1402</ele>
        <time>2019-07-25T13:43:43Z</time>
      </trkpt>
      <trkpt lat="44.91026" lon="5.32816">
        <ele>1403</ele>
        <time>2019-07-25T13:43:46Z</time>
      </trkpt>
      <trkpt lat="44.91031" lon="5.32831">
        <ele>1403</ele>
        <time>2019-07-25T13:43:48Z</time>
      </trkpt>
      <trkpt lat="44.91049" lon="5.32899">
        <ele>1407</ele>
        <time>2019-07-25T13:43:57Z</time>
      </trkpt>
      <trkpt lat="44.91085" lon="5.33006">
        <ele>1409</ele>
        <time>2019-07-25T13:44:12Z</time>
      </trkpt>
      <trkpt lat="44.91092" lon="5.33035">
        <ele>1410</ele>
        <time>2019-07-25T13:44:16Z</time>
      </trkpt>
      <trkpt lat="44.91094" lon="5.33056">
        <ele>1409</ele>
        <time>2019-07-25T13:44:18Z</time>
      </trkpt>
      <trkpt lat="44.91093" lon="5.33077">
        <ele>1409</ele>
        <time>2019-07-25T13:44:21Z</time>
      </trkpt>
      <trkpt lat="44.9108" lon="5.33146">
        <ele>1410</ele>
        <time>2019-07-25T13:44:30Z</time>
      </trkpt>
      <trkpt lat="44.91071" lon="5.33165">
        <ele>1411</ele>
        <time>2019-07-25T13:44:33Z</time>
      </trkpt>
      <trkpt lat="44.91063" lon="5.33172">
        <ele>1412</ele>
        <time>2019-07-25T13:44:35Z</time>
      </trkpt>
      <trkpt lat="44.91034" lon="5.33188">
        <ele>1413</ele>
        <time>2019-07-25T13:44:40Z</time>
      </trkpt>
      <trkpt lat="44.91017" lon="5.332">
        <ele>1414</ele>
        <time>2019-07-25T13:44:44Z</time>
      </trkpt>
      <trkpt lat="44.90986" lon="5.33251">
        <ele>1413</ele>
        <time>2019-07-25T13:44:52Z</time>
      </trkpt>
      <trkpt lat="44.90963" lon="5.33264">
        <ele>1414</ele>
        <time>2019-07-25T13:44:56Z</time>
      </trkpt>
      <trkpt lat="44.90932" lon="5.33261">
        <ele>1415</ele>
        <time>2019-07-25T13:45:02Z</time>
      </trkpt>
      <trkpt lat="44.90915" lon="5.33256">
        <ele>1416</ele>
        <time>2019-07-25T13:45:05Z</time>
      </trkpt>
      <trkpt lat="44.90897" lon="5.33272">
        <ele>1417</ele>
        <time>2019-07-25T13:45:09Z</time>
      </trkpt>
      <trkpt lat="44.90875" lon="5.33318">
        <ele>1418</ele>
        <time>2019-07-25T13:45:16Z</time>
      </trkpt>
      <trkpt lat="44.90862" lon="5.33366">
        <ele>1420</ele>
        <time>2019-07-25T13:45:22Z</time>
      </trkpt>
      <trkpt lat="44.90745" lon="5.3349">
        <ele>1432</ele>
        <time>2019-07-25T13:45:48Z</time>
      </trkpt>
      <trkpt lat="44.90717" lon="5.33497">
        <ele>1433</ele>
        <time>2019-07-25T13:45:53Z</time>
      </trkpt>
      <trkpt lat="44.90658" lon="5.33492">
        <ele>1432</ele>
        <time>2019-07-25T13:46:04Z</time>
      </trkpt>
      <trkpt lat="44.90633" lon="5.33492">
        <ele>1433</ele>
        <time>2019-07-25T13:46:08Z</time>
      </trkpt>
      <trkpt lat="44.90622" lon="5.33497">
        <ele>1433</ele>
        <time>2019-07-25T13:46:10Z</time>
      </trkpt>
      <trkpt lat="44.9061" lon="5.33505">
        <ele>1434</ele>
        <time>2019-07-25T13:46:13Z</time>
      </trkpt>
      <trkpt lat="44.9059" lon="5.33531">
        <ele>1437</ele>
        <time>2019-07-25T13:46:18Z</time>
      </trkpt>
      <trkpt lat="44.90586" lon="5.33544">
        <ele>1438</ele>
        <time>2019-07-25T13:46:19Z</time>
      </trkpt>
      <trkpt lat="44.90566" lon="5.33728">
        <ele>1438</ele>
        <time>2019-07-25T13:46:43Z</time>
      </trkpt>
      <trkpt lat="44.90565" lon="5.33796">
        <ele>1437</ele>
        <time>2019-07-25T13:46:51Z</time>
      </trkpt>
      <trkpt lat="44.90567" lon="5.3389">
        <ele>1432</ele>
        <time>2019-07-25T13:47:03Z</time>
      </trkpt>
      <trkpt lat="44.90572" lon="5.33921">
        <ele>1430</ele>
        <time>2019-07-25T13:47:07Z</time>
      </trkpt>
      <trkpt lat="44.90591" lon="5.33951">
        <ele>1430</ele>
        <time>2019-07-25T13:47:12Z</time>
      </trkpt>
      <trkpt lat="44.90629" lon="5.33979">
        <ele>1433</ele>
        <time>2019-07-25T13:47:20Z</time>
      </trkpt>
      <trkpt lat="44.90638" lon="5.33996">
        <ele>1433</ele>
        <time>2019-07-25T13:47:23Z</time>
      </trkpt>
      <trkpt lat="44.90638" lon="5.34015">
        <ele>1432</ele>
        <time>2019-07-25T13:47:25Z</time>
      </trkpt>
      <trkpt lat="44.90627" lon="5.34044">
        <ele>1430</ele>
        <time>2019-07-25T13:47:29Z</time>
      </trkpt>
      <trkpt lat="44.90573" lon="5.34078">
        <ele>1424</ele>
        <time>2019-07-25T13:47:40Z</time>
      </trkpt>
      <trkpt lat="44.90555" lon="5.34085">
        <ele>1422</ele>
        <time>2019-07-25T13:47:43Z</time>
      </trkpt>
      <trkpt lat="44.9054" lon="5.34115">
        <ele>1421</ele>
        <time>2019-07-25T13:47:48Z</time>
      </trkpt>
      <trkpt lat="44.9053" lon="5.3415">
        <ele>1420</ele>
        <time>2019-07-25T13:47:52Z</time>
      </trkpt>
      <trkpt lat="44.90528" lon="5.34184">
        <ele>1419</ele>
        <time>2019-07-25T13:47:57Z</time>
      </trkpt>
      <trkpt lat="44.9054" lon="5.34216">
        <ele>1417</ele>
        <time>2019-07-25T13:48:01Z</time>
      </trkpt>
      <trkpt lat="44.90566" lon="5.34241">
        <ele>1417</ele>
        <time>2019-07-25T13:48:07Z</time>
      </trkpt>
      <trkpt lat="44.90695" lon="5.34326">
        <ele>1413</ele>
        <time>2019-07-25T13:48:32Z</time>
      </trkpt>
      <trkpt lat="44.90741" lon="5.34384">
        <ele>1410</ele>
        <time>2019-07-25T13:48:43Z</time>
      </trkpt>
      <trkpt lat="44.90758" lon="5.34416">
        <ele>1407</ele>
        <time>2019-07-25T13:48:48Z</time>
      </trkpt>
      <trkpt lat="44.9077" lon="5.34489">
        <ele>1403</ele>
        <time>2019-07-25T13:48:58Z</time>
      </trkpt>
      <trkpt lat="44.90781" lon="5.3452">
        <ele>1402</ele>
        <time>2019-07-25T13:49:02Z</time>
      </trkpt>
      <trkpt lat="44.90823" lon="5.34557">
        <ele>1402</ele>
        <time>2019-07-25T13:49:11Z</time>
      </trkpt>
      <trkpt lat="44.90849" lon="5.34612">
        <ele>1397</ele>
        <time>2019-07-25T13:49:19Z</time>
      </trkpt>
      <trkpt lat="44.90865" lon="5.34633">
        <ele>1395</ele>
        <time>2019-07-25T13:49:23Z</time>
      </trkpt>
      <trkpt lat="44.90881" lon="5.34637">
        <ele>1395</ele>
        <time>2019-07-25T13:49:26Z</time>
      </trkpt>
      <trkpt lat="44.90897" lon="5.34635">
        <ele>1395</ele>
        <time>2019-07-25T13:49:29Z</time>
      </trkpt>
      <trkpt lat="44.90923" lon="5.34624">
        <ele>1398</ele>
        <time>2019-07-25T13:49:34Z</time>
      </trkpt>
      <trkpt lat="44.9094" lon="5.34622">
        <ele>1399</ele>
        <time>2019-07-25T13:49:37Z</time>
      </trkpt>
      <trkpt lat="44.9096" lon="5.34641">
        <ele>1398</ele>
        <time>2019-07-25T13:49:41Z</time>
      </trkpt>
      <trkpt lat="44.90972" lon="5.34695">
        <ele>1393</ele>
        <time>2019-07-25T13:49:48Z</time>
      </trkpt>
      <trkpt lat="44.90977" lon="5.34764">
        <ele>1389</ele>
        <time>2019-07-25T13:49:57Z</time>
      </trkpt>
      <trkpt lat="44.90998" lon="5.34885">
        <ele>1384</ele>
        <time>2019-07-25T13:50:13Z</time>
      </trkpt>
      <trkpt lat="44.9099" lon="5.34975">
        <ele>1377</ele>
        <time>2019-07-25T13:50:24Z</time>
      </trkpt>
      <trkpt lat="44.9099" lon="5.35019">
        <ele>1374</ele>
        <time>2019-07-25T13:50:29Z</time>
      </trkpt>
      <trkpt lat="44.91009" lon="5.3516">
        <ele>1374</ele>
        <time>2019-07-25T13:50:48Z</time>
      </trkpt>
      <trkpt lat="44.91" lon="5.35294">
        <ele>1370</ele>
        <time>2019-07-25T13:51:05Z</time>
      </trkpt>
      <trkpt lat="44.91004" lon="5.35337">
        <ele>1370</ele>
        <time>2019-07-25T13:51:10Z</time>
      </trkpt>
      <trkpt lat="44.91023" lon="5.35422">
        <ele>1370</ele>
        <time>2019-07-25T13:51:21Z</time>
      </trkpt>
      <trkpt lat="44.91024" lon="5.35463">
        <ele>1372</ele>
        <time>2019-07-25T13:51:26Z</time>
      </trkpt>
      <trkpt lat="44.91013" lon="5.35505">
        <ele>1373</ele>
        <time>2019-07-25T13:51:32Z</time>
      </trkpt>
      <trkpt lat="44.90995" lon="5.35532">
        <ele>1375</ele>
        <time>2019-07-25T13:51:37Z</time>
      </trkpt>
      <trkpt lat="44.9092" lon="5.35555">
        <ele>1371</ele>
        <time>2019-07-25T13:51:50Z</time>
      </trkpt>
      <trkpt lat="44.90884" lon="5.35571">
        <ele>1368</ele>
        <time>2019-07-25T13:51:57Z</time>
      </trkpt>
      <trkpt lat="44.90859" lon="5.35579">
        <ele>1365</ele>
        <time>2019-07-25T13:52:02Z</time>
      </trkpt>
      <trkpt lat="44.90828" lon="5.35574">
        <ele>1360</ele>
        <time>2019-07-25T13:52:07Z</time>
      </trkpt>
      <trkpt lat="44.90811" lon="5.35575">
        <ele>1357</ele>
        <time>2019-07-25T13:52:10Z</time>
      </trkpt>
      <trkpt lat="44.90744" lon="5.35632">
        <ele>1347</ele>
        <time>2019-07-25T13:52:24Z</time>
      </trkpt>
      <trkpt lat="44.90731" lon="5.35661">
        <ele>1347</ele>
        <time>2019-07-25T13:52:28Z</time>
      </trkpt>
      <trkpt lat="44.90724" lon="5.3569">
        <ele>1346</ele>
        <time>2019-07-25T13:52:32Z</time>
      </trkpt>
      <trkpt lat="44.90724" lon="5.35737">
        <ele>1344</ele>
        <time>2019-07-25T13:52:38Z</time>
      </trkpt>
      <trkpt lat="44.90743" lon="5.35792">
        <ele>1342</ele>
        <time>2019-07-25T13:52:46Z</time>
      </trkpt>
      <trkpt lat="44.90746" lon="5.35823">
        <ele>1340</ele>
        <time>2019-07-25T13:52:50Z</time>
      </trkpt>
      <trkpt lat="44.90733" lon="5.35874">
        <ele>1336</ele>
        <time>2019-07-25T13:52:57Z</time>
      </trkpt>
      <trkpt lat="44.90732" lon="5.35912">
        <ele>1333</ele>
        <time>2019-07-25T13:53:02Z</time>
      </trkpt>
      <trkpt lat="44.90735" lon="5.35948">
        <ele>1331</ele>
        <time>2019-07-25T13:53:06Z</time>
      </trkpt>
      <trkpt lat="44.90726" lon="5.35985">
        <ele>1327</ele>
        <time>2019-07-25T13:53:11Z</time>
      </trkpt>
      <trkpt lat="44.90721" lon="5.3602">
        <ele>1320</ele>
        <time>2019-07-25T13:53:16Z</time>
      </trkpt>
      <trkpt lat="44.90724" lon="5.36051">
        <ele>1316</ele>
        <time>2019-07-25T13:53:19Z</time>
      </trkpt>
      <trkpt lat="44.90735" lon="5.36078">
        <ele>1316</ele>
        <time>2019-07-25T13:53:23Z</time>
      </trkpt>
      <trkpt lat="44.90761" lon="5.36117">
        <ele>1317</ele>
        <time>2019-07-25T13:53:30Z</time>
      </trkpt>
      <trkpt lat="44.90799" lon="5.36216">
        <ele>1302</ele>
        <time>2019-07-25T13:53:44Z</time>
      </trkpt>
      <trkpt lat="44.9088" lon="5.36307">
        <ele>1296</ele>
        <time>2019-07-25T13:54:03Z</time>
      </trkpt>
      <trkpt lat="44.91023" lon="5.36413">
        <ele>1290</ele>
        <time>2019-07-25T13:54:31Z</time>
      </trkpt>
      <trkpt lat="44.91116" lon="5.36493">
        <ele>1283</ele>
        <time>2019-07-25T13:54:51Z</time>
      </trkpt>
      <trkpt lat="44.91152" lon="5.36543">
        <ele>1271</ele>
        <time>2019-07-25T13:55:00Z</time>
      </trkpt>
      <trkpt lat="44.91208" lon="5.36585">
        <ele>1272</ele>
        <time>2019-07-25T13:55:11Z</time>
      </trkpt>
      <trkpt lat="44.91233" lon="5.36617">
        <ele>1266</ele>
        <time>2019-07-25T13:55:17Z</time>
      </trkpt>
      <trkpt lat="44.91281" lon="5.36653">
        <ele>1264</ele>
        <time>2019-07-25T13:55:27Z</time>
      </trkpt>
      <trkpt lat="44.91338" lon="5.36709">
        <ele>1260</ele>
        <time>2019-07-25T13:55:39Z</time>
      </trkpt>
      <trkpt lat="44.91363" lon="5.36735">
        <ele>1259</ele>
        <time>2019-07-25T13:55:45Z</time>
      </trkpt>
      <trkpt lat="44.91406" lon="5.36797">
        <ele>1249</ele>
        <time>2019-07-25T13:55:56Z</time>
      </trkpt>
      <trkpt lat="44.91428" lon="5.36826">
        <ele>1245</ele>
        <time>2019-07-25T13:56:01Z</time>
      </trkpt>
      <trkpt lat="44.91474" lon="5.36877">
        <ele>1244</ele>
        <time>2019-07-25T13:56:11Z</time>
      </trkpt>
      <trkpt lat="44.91519" lon="5.36924">
        <ele>1241</ele>
        <time>2019-07-25T13:56:21Z</time>
      </trkpt>
      <trkpt lat="44.91557" lon="5.3698">
        <ele>1232</ele>
        <time>2019-07-25T13:56:31Z</time>
      </trkpt>
      <trkpt lat="44.91601" lon="5.37027">
        <ele>1227</ele>
        <time>2019-07-25T13:56:41Z</time>
      </trkpt>
      <trkpt lat="44.91626" lon="5.37049">
        <ele>1224</ele>
        <time>2019-07-25T13:56:46Z</time>
      </trkpt>
      <trkpt lat="44.91702" lon="5.37099">
        <ele>1218</ele>
        <time>2019-07-25T13:57:01Z</time>
      </trkpt>
      <trkpt lat="44.91745" lon="5.3713">
        <ele>1212</ele>
        <time>2019-07-25T13:57:10Z</time>
      </trkpt>
      <trkpt lat="44.91768" lon="5.37137">
        <ele>1211</ele>
        <time>2019-07-25T13:57:14Z</time>
      </trkpt>
      <trkpt lat="44.91807" lon="5.37138">
        <ele>1214</ele>
        <time>2019-07-25T13:57:21Z</time>
      </trkpt>
      <trkpt lat="44.91817" lon="5.37148">
        <ele>1210</ele>
        <time>2019-07-25T13:57:23Z</time>
      </trkpt>
      <trkpt lat="44.91813" lon="5.37161">
        <ele>1204</ele>
        <time>2019-07-25T13:57:25Z</time>
      </trkpt>
      <trkpt lat="44.91798" lon="5.37163">
        <ele>1201</ele>
        <time>2019-07-25T13:57:27Z</time>
      </trkpt>
      <trkpt lat="44.91716" lon="5.37143">
        <ele>1201</ele>
        <time>2019-07-25T13:57:42Z</time>
      </trkpt>
      <trkpt lat="44.91686" lon="5.37131">
        <ele>1202</ele>
        <time>2019-07-25T13:57:48Z</time>
      </trkpt>
      <trkpt lat="44.91595" lon="5.37112">
        <ele>1192</ele>
        <time>2019-07-25T13:58:04Z</time>
      </trkpt>
      <trkpt lat="44.91562" lon="5.37102">
        <ele>1188</ele>
        <time>2019-07-25T13:58:10Z</time>
      </trkpt>
      <trkpt lat="44.9151" lon="5.37068">
        <ele>1186</ele>
        <time>2019-07-25T13:58:20Z</time>
      </trkpt>
      <trkpt lat="44.91467" lon="5.37027">
        <ele>1187</ele>
        <time>2019-07-25T13:58:30Z</time>
      </trkpt>
      <trkpt lat="44.91426" lon="5.36992">
        <ele>1185</ele>
        <time>2019-07-25T13:58:38Z</time>
      </trkpt>
      <trkpt lat="44.91397" lon="5.36977">
        <ele>1184</ele>
        <time>2019-07-25T13:58:44Z</time>
      </trkpt>
      <trkpt lat="44.91372" lon="5.36978">
        <ele>1179</ele>
        <time>2019-07-25T13:58:48Z</time>
      </trkpt>
      <trkpt lat="44.91344" lon="5.36985">
        <ele>1172</ele>
        <time>2019-07-25T13:58:53Z</time>
      </trkpt>
      <trkpt lat="44.91312" lon="5.37002">
        <ele>1162</ele>
        <time>2019-07-25T13:58:59Z</time>
      </trkpt>
      <trkpt lat="44.91284" lon="5.37011">
        <ele>1157</ele>
        <time>2019-07-25T13:59:04Z</time>
      </trkpt>
      <trkpt lat="44.91257" lon="5.37002">
        <ele>1155</ele>
        <time>2019-07-25T13:59:09Z</time>
      </trkpt>
      <trkpt lat="44.9123" lon="5.36981">
        <ele>1152</ele>
        <time>2019-07-25T13:59:15Z</time>
      </trkpt>
      <trkpt lat="44.91196" lon="5.36921">
        <ele>1153</ele>
        <time>2019-07-25T13:59:24Z</time>
      </trkpt>
      <trkpt lat="44.91169" lon="5.36901">
        <ele>1149</ele>
        <time>2019-07-25T13:59:30Z</time>
      </trkpt>
      <trkpt lat="44.91138" lon="5.36888">
        <ele>1146</ele>
        <time>2019-07-25T13:59:36Z</time>
      </trkpt>
      <trkpt lat="44.91073" lon="5.36879">
        <ele>1136</ele>
        <time>2019-07-25T13:59:47Z</time>
      </trkpt>
      <trkpt lat="44.90982" lon="5.36835">
        <ele>1129</ele>
        <time>2019-07-25T14:00:04Z</time>
      </trkpt>
      <trkpt lat="44.90914" lon="5.36824">
        <ele>1124</ele>
        <time>2019-07-25T14:00:17Z</time>
      </trkpt>
      <trkpt lat="44.90882" lon="5.36826">
        <ele>1117</ele>
        <time>2019-07-25T14:00:22Z</time>
      </trkpt>
      <trkpt lat="44.90861" lon="5.36818">
        <ele>1115</ele>
        <time>2019-07-25T14:00:26Z</time>
      </trkpt>
      <trkpt lat="44.90843" lon="5.36801">
        <ele>1114</ele>
        <time>2019-07-25T14:00:30Z</time>
      </trkpt>
      <trkpt lat="44.9082" lon="5.36774">
        <ele>1114</ele>
        <time>2019-07-25T14:00:35Z</time>
      </trkpt>
      <trkpt lat="44.90733" lon="5.36685">
        <ele>1113</ele>
        <time>2019-07-25T14:00:54Z</time>
      </trkpt>
      <trkpt lat="44.90714" lon="5.36685">
        <ele>1112</ele>
        <time>2019-07-25T14:00:58Z</time>
      </trkpt>
      <trkpt lat="44.9069" lon="5.36701">
        <ele>1108</ele>
        <time>2019-07-25T14:01:02Z</time>
      </trkpt>
      <trkpt lat="44.9065" lon="5.36749">
        <ele>1100</ele>
        <time>2019-07-25T14:01:12Z</time>
      </trkpt>
      <trkpt lat="44.90398" lon="5.371">
        <ele>1067</ele>
        <time>2019-07-25T14:02:15Z</time>
      </trkpt>
      <trkpt lat="44.90366" lon="5.37147">
        <ele>1064</ele>
        <time>2019-07-25T14:02:23Z</time>
      </trkpt>
      <trkpt lat="44.9036" lon="5.37169">
        <ele>1063</ele>
        <time>2019-07-25T14:02:26Z</time>
      </trkpt>
      <trkpt lat="44.90329" lon="5.37161">
        <ele>1063</ele>
        <time>2019-07-25T14:02:32Z</time>
      </trkpt>
      <trkpt lat="44.90289" lon="5.37156">
        <ele>1062</ele>
        <time>2019-07-25T14:02:39Z</time>
      </trkpt>
      <trkpt lat="44.90137" lon="5.37149">
        <ele>1054</ele>
        <time>2019-07-25T14:03:06Z</time>
      </trkpt>
      <trkpt lat="44.90112" lon="5.37143">
        <ele>1053</ele>
        <time>2019-07-25T14:03:10Z</time>
      </trkpt>
      <trkpt lat="44.90075" lon="5.37114">
        <ele>1051</ele>
        <time>2019-07-25T14:03:18Z</time>
      </trkpt>
      <trkpt lat="44.89996" lon="5.37016">
        <ele>1048</ele>
        <time>2019-07-25T14:03:37Z</time>
      </trkpt>
      <trkpt lat="44.8991" lon="5.36949">
        <ele>1045</ele>
        <time>2019-07-25T14:03:54Z</time>
      </trkpt>
      <trkpt lat="44.89877" lon="5.36925">
        <ele>1045</ele>
        <time>2019-07-25T14:04:01Z</time>
      </trkpt>
      <trkpt lat="44.89846" lon="5.36908">
        <ele>1044</ele>
        <time>2019-07-25T14:04:07Z</time>
      </trkpt>
      <trkpt lat="44.89811" lon="5.36898">
        <ele>1043</ele>
        <time>2019-07-25T14:04:13Z</time>
      </trkpt>
      <trkpt lat="44.89779" lon="5.36894">
        <ele>1043</ele>
        <time>2019-07-25T14:04:19Z</time>
      </trkpt>
      <trkpt lat="44.89747" lon="5.36898">
        <ele>1043</ele>
        <time>2019-07-25T14:04:24Z</time>
      </trkpt>
      <trkpt lat="44.89708" lon="5.36908">
        <ele>1043</ele>
        <time>2019-07-25T14:04:31Z</time>
      </trkpt>
      <trkpt lat="44.89663" lon="5.36927">
        <ele>1044</ele>
        <time>2019-07-25T14:04:40Z</time>
      </trkpt>
      <trkpt lat="44.89644" lon="5.36946">
        <ele>1047</ele>
        <time>2019-07-25T14:04:44Z</time>
      </trkpt>
      <trkpt lat="44.8963" lon="5.36971">
        <ele>1049</ele>
        <time>2019-07-25T14:04:48Z</time>
      </trkpt>
      <trkpt lat="44.89624" lon="5.36991">
        <ele>1049</ele>
        <time>2019-07-25T14:04:51Z</time>
      </trkpt>
      <trkpt lat="44.89613" lon="5.37037">
        <ele>1052</ele>
        <time>2019-07-25T14:04:57Z</time>
      </trkpt>
      <trkpt lat="44.89605" lon="5.37055">
        <ele>1054</ele>
        <time>2019-07-25T14:04:59Z</time>
      </trkpt>
      <trkpt lat="44.89595" lon="5.37066">
        <ele>1056</ele>
        <time>2019-07-25T14:05:02Z</time>
      </trkpt>
      <trkpt lat="44.89578" lon="5.37073">
        <ele>1058</ele>
        <time>2019-07-25T14:05:05Z</time>
      </trkpt>
      <trkpt lat="44.89547" lon="5.37075">
        <ele>1058</ele>
        <time>2019-07-25T14:05:10Z</time>
      </trkpt>
      <trkpt lat="44.89547" lon="5.37071">
        <ele>1058</ele>
        <time>2019-07-25T14:05:11Z</time>
      </trkpt>
      <trkpt lat="44.89543" lon="5.37067">
        <ele>1058</ele>
        <time>2019-07-25T14:05:12Z</time>
      </trkpt>
      <trkpt lat="44.89538" lon="5.37068">
        <ele>1058</ele>
        <time>2019-07-25T14:05:13Z</time>
      </trkpt>
      <trkpt lat="44.89536" lon="5.37072">
        <ele>1058</ele>
        <time>2019-07-25T14:05:13Z</time>
      </trkpt>
      <trkpt lat="44.89536" lon="5.37079">
        <ele>1058</ele>
        <time>2019-07-25T14:05:14Z</time>
      </trkpt>
      <trkpt lat="44.8943" lon="5.3729">
        <ele>1059</ele>
        <time>2019-07-25T14:05:47Z</time>
      </trkpt>
      <trkpt lat="44.89406" lon="5.37326">
        <ele>1058</ele>
        <time>2019-07-25T14:05:53Z</time>
      </trkpt>
      <trkpt lat="44.89226" lon="5.37653">
        <ele>1056</ele>
        <time>2019-07-25T14:06:45Z</time>
      </trkpt>
      <trkpt lat="44.8921" lon="5.37694">
        <ele>1058</ele>
        <time>2019-07-25T14:06:51Z</time>
      </trkpt>
      <trkpt lat="44.89206" lon="5.37721">
        <ele>1058</ele>
        <time>2019-07-25T14:06:55Z</time>
      </trkpt>
      <trkpt lat="44.89205" lon="5.37749">
        <ele>1059</ele>
        <time>2019-07-25T14:06:58Z</time>
      </trkpt>
      <trkpt lat="44.89207" lon="5.37772">
        <ele>1059</ele>
        <time>2019-07-25T14:07:01Z</time>
      </trkpt>
      <trkpt lat="44.89201" lon="5.37792">
        <ele>1060</ele>
        <time>2019-07-25T14:07:04Z</time>
      </trkpt>
      <trkpt lat="44.89189" lon="5.37818">
        <ele>1061</ele>
        <time>2019-07-25T14:07:08Z</time>
      </trkpt>
      <trkpt lat="44.89163" lon="5.37858">
        <ele>1064</ele>
        <time>2019-07-25T14:07:15Z</time>
      </trkpt>
      <trkpt lat="44.89154" lon="5.37876">
        <ele>1065</ele>
        <time>2019-07-25T14:07:17Z</time>
      </trkpt>
      <trkpt lat="44.89145" lon="5.37902">
        <ele>1066</ele>
        <time>2019-07-25T14:07:21Z</time>
      </trkpt>
      <trkpt lat="44.8914" lon="5.37928">
        <ele>1066</ele>
        <time>2019-07-25T14:07:24Z</time>
      </trkpt>
      <trkpt lat="44.89137" lon="5.37951">
        <ele>1067</ele>
        <time>2019-07-25T14:07:27Z</time>
      </trkpt>
      <trkpt lat="44.89135" lon="5.38014">
        <ele>1067</ele>
        <time>2019-07-25T14:07:35Z</time>
      </trkpt>
      <trkpt lat="44.89128" lon="5.38045">
        <ele>1067</ele>
        <time>2019-07-25T14:07:39Z</time>
      </trkpt>
      <trkpt lat="44.88985" lon="5.38389">
        <ele>1073</ele>
        <time>2019-07-25T14:08:30Z</time>
      </trkpt>
      <trkpt lat="44.88962" lon="5.38422">
        <ele>1073</ele>
        <time>2019-07-25T14:08:35Z</time>
      </trkpt>
      <trkpt lat="44.88936" lon="5.38449">
        <ele>1072</ele>
        <time>2019-07-25T14:08:41Z</time>
      </trkpt>
      <trkpt lat="44.88888" lon="5.38485">
        <ele>1072</ele>
        <time>2019-07-25T14:08:51Z</time>
      </trkpt>
      <trkpt lat="44.88802" lon="5.38531">
        <ele>1073</ele>
        <time>2019-07-25T14:09:07Z</time>
      </trkpt>
      <trkpt lat="44.88769" lon="5.38553">
        <ele>1074</ele>
        <time>2019-07-25T14:09:14Z</time>
      </trkpt>
      <trkpt lat="44.88737" lon="5.38583">
        <ele>1074</ele>
        <time>2019-07-25T14:09:21Z</time>
      </trkpt>
      <trkpt lat="44.88498" lon="5.38889">
        <ele>1079</ele>
        <time>2019-07-25T14:10:18Z</time>
      </trkpt>
      <trkpt lat="44.88467" lon="5.38925">
        <ele>1078</ele>
        <time>2019-07-25T14:10:25Z</time>
      </trkpt>
      <trkpt lat="44.88312" lon="5.39089">
        <ele>1084</ele>
        <time>2019-07-25T14:11:00Z</time>
      </trkpt>
      <trkpt lat="44.88298" lon="5.39107">
        <ele>1086</ele>
        <time>2019-07-25T14:11:03Z</time>
      </trkpt>
      <trkpt lat="44.88261" lon="5.39179">
        <ele>1093</ele>
        <time>2019-07-25T14:11:14Z</time>
      </trkpt>
      <trkpt lat="44.88235" lon="5.39235">
        <ele>1097</ele>
        <time>2019-07-25T14:11:23Z</time>
      </trkpt>
      <trkpt lat="44.88231" lon="5.39263">
        <ele>1099</ele>
        <time>2019-07-25T14:11:26Z</time>
      </trkpt>
      <trkpt lat="44.88218" lon="5.39436">
        <ele>1109</ele>
        <time>2019-07-25T14:11:48Z</time>
      </trkpt>
      <trkpt lat="44.88212" lon="5.39467">
        <ele>1111</ele>
        <time>2019-07-25T14:11:52Z</time>
      </trkpt>
      <trkpt lat="44.882" lon="5.39497">
        <ele>1112</ele>
        <time>2019-07-25T14:11:57Z</time>
      </trkpt>
      <trkpt lat="44.88184" lon="5.39516">
        <ele>1113</ele>
        <time>2019-07-25T14:12:00Z</time>
      </trkpt>
      <trkpt lat="44.88115" lon="5.39568">
        <ele>1117</ele>
        <time>2019-07-25T14:12:14Z</time>
      </trkpt>
      <trkpt lat="44.88072" lon="5.39615">
        <ele>1123</ele>
        <time>2019-07-25T14:12:24Z</time>
      </trkpt>
      <trkpt lat="44.8802" lon="5.39658">
        <ele>1121</ele>
        <time>2019-07-25T14:12:35Z</time>
      </trkpt>
      <trkpt lat="44.87999" lon="5.39682">
        <ele>1122</ele>
        <time>2019-07-25T14:12:39Z</time>
      </trkpt>
      <trkpt lat="44.87969" lon="5.39734">
        <ele>1127</ele>
        <time>2019-07-25T14:12:48Z</time>
      </trkpt>
      <trkpt lat="44.87951" lon="5.39757">
        <ele>1129</ele>
        <time>2019-07-25T14:12:52Z</time>
      </trkpt>
      <trkpt lat="44.8787" lon="5.39837">
        <ele>1132</ele>
        <time>2019-07-25T14:13:10Z</time>
      </trkpt>
      <trkpt lat="44.87842" lon="5.39872">
        <ele>1142</ele>
        <time>2019-07-25T14:13:16Z</time>
      </trkpt>
      <trkpt lat="44.87823" lon="5.39888">
        <ele>1146</ele>
        <time>2019-07-25T14:13:20Z</time>
      </trkpt>
      <trkpt lat="44.87794" lon="5.39907">
        <ele>1150</ele>
        <time>2019-07-25T14:13:26Z</time>
      </trkpt>
      <trkpt lat="44.8775" lon="5.39918">
        <ele>1148</ele>
        <time>2019-07-25T14:13:34Z</time>
      </trkpt>
      <trkpt lat="44.87688" lon="5.39922">
        <ele>1149</ele>
        <time>2019-07-25T14:13:45Z</time>
      </trkpt>
      <trkpt lat="44.87658" lon="5.39931">
        <ele>1152</ele>
        <time>2019-07-25T14:13:50Z</time>
      </trkpt>
      <trkpt lat="44.87549" lon="5.39989">
        <ele>1164</ele>
        <time>2019-07-25T14:14:11Z</time>
      </trkpt>
      <trkpt lat="44.87527" lon="5.39987">
        <ele>1165</ele>
        <time>2019-07-25T14:14:15Z</time>
      </trkpt>
      <trkpt lat="44.87509" lon="5.3997">
        <ele>1165</ele>
        <time>2019-07-25T14:14:19Z</time>
      </trkpt>
      <trkpt lat="44.87481" lon="5.39896">
        <ele>1170</ele>
        <time>2019-07-25T14:14:30Z</time>
      </trkpt>
      <trkpt lat="44.87471" lon="5.39892">
        <ele>1173</ele>
        <time>2019-07-25T14:14:31Z</time>
      </trkpt>
      <trkpt lat="44.87466" lon="5.39906">
        <ele>1172</ele>
        <time>2019-07-25T14:14:33Z</time>
      </trkpt>
      <trkpt lat="44.8746" lon="5.39934">
        <ele>1172</ele>
        <time>2019-07-25T14:14:37Z</time>
      </trkpt>
      <trkpt lat="44.87429" lon="5.40019">
        <ele>1175</ele>
        <time>2019-07-25T14:14:49Z</time>
      </trkpt>
      <trkpt lat="44.87424" lon="5.40056">
        <ele>1178</ele>
        <time>2019-07-25T14:14:54Z</time>
      </trkpt>
      <trkpt lat="44.87426" lon="5.40075">
        <ele>1179</ele>
        <time>2019-07-25T14:14:56Z</time>
      </trkpt>
      <trkpt lat="44.87431" lon="5.40092">
        <ele>1181</ele>
        <time>2019-07-25T14:14:59Z</time>
      </trkpt>
      <trkpt lat="44.87457" lon="5.40135">
        <ele>1182</ele>
        <time>2019-07-25T14:15:06Z</time>
      </trkpt>
      <trkpt lat="44.87467" lon="5.40169">
        <ele>1184</ele>
        <time>2019-07-25T14:15:10Z</time>
      </trkpt>
      <trkpt lat="44.87467" lon="5.40209">
        <ele>1187</ele>
        <time>2019-07-25T14:15:15Z</time>
      </trkpt>
      <trkpt lat="44.87464" lon="5.4023">
        <ele>1189</ele>
        <time>2019-07-25T14:15:18Z</time>
      </trkpt>
      <trkpt lat="44.87442" lon="5.40322">
        <ele>1198</ele>
        <time>2019-07-25T14:15:30Z</time>
      </trkpt>
      <trkpt lat="44.87447" lon="5.40353">
        <ele>1198</ele>
        <time>2019-07-25T14:15:34Z</time>
      </trkpt>
      <trkpt lat="44.87478" lon="5.40453">
        <ele>1199</ele>
        <time>2019-07-25T14:15:48Z</time>
      </trkpt>
      <trkpt lat="44.8749" lon="5.40486">
        <ele>1200</ele>
        <time>2019-07-25T14:15:53Z</time>
      </trkpt>
      <trkpt lat="44.875" lon="5.40502">
        <ele>1202</ele>
        <time>2019-07-25T14:15:56Z</time>
      </trkpt>
      <trkpt lat="44.87522" lon="5.40513">
        <ele>1202</ele>
        <time>2019-07-25T14:16:00Z</time>
      </trkpt>
      <trkpt lat="44.87561" lon="5.40555">
        <ele>1207</ele>
        <time>2019-07-25T14:16:08Z</time>
      </trkpt>
      <trkpt lat="44.87573" lon="5.40565">
        <ele>1207</ele>
        <time>2019-07-25T14:16:11Z</time>
      </trkpt>
      <trkpt lat="44.87594" lon="5.40568">
        <ele>1205</ele>
        <time>2019-07-25T14:16:15Z</time>
      </trkpt>
      <trkpt lat="44.87628" lon="5.40586">
        <ele>1205</ele>
        <time>2019-07-25T14:16:21Z</time>
      </trkpt>
      <trkpt lat="44.8766" lon="5.40613">
        <ele>1208</ele>
        <time>2019-07-25T14:16:28Z</time>
      </trkpt>
      <trkpt lat="44.87669" lon="5.40626">
        <ele>1210</ele>
        <time>2019-07-25T14:16:30Z</time>
      </trkpt>
      <trkpt lat="44.87669" lon="5.40636">
        <ele>1212</ele>
        <time>2019-07-25T14:16:31Z</time>
      </trkpt>
      <trkpt lat="44.87666" lon="5.40639">
        <ele>1213</ele>
        <time>2019-07-25T14:16:32Z</time>
      </trkpt>
      <trkpt lat="44.87654" lon="5.40633">
        <ele>1214</ele>
        <time>2019-07-25T14:16:34Z</time>
      </trkpt>
      <trkpt lat="44.87626" lon="5.40613">
        <ele>1213</ele>
        <time>2019-07-25T14:16:40Z</time>
      </trkpt>
      <trkpt lat="44.87609" lon="5.40607">
        <ele>1213</ele>
        <time>2019-07-25T14:16:43Z</time>
      </trkpt>
      <trkpt lat="44.87582" lon="5.40604">
        <ele>1216</ele>
        <time>2019-07-25T14:16:48Z</time>
      </trkpt>
      <trkpt lat="44.87522" lon="5.40586">
        <ele>1220</ele>
        <time>2019-07-25T14:16:59Z</time>
      </trkpt>
      <trkpt lat="44.87498" lon="5.40584">
        <ele>1223</ele>
        <time>2019-07-25T14:17:03Z</time>
      </trkpt>
      <trkpt lat="44.87448" lon="5.40593">
        <ele>1226</ele>
        <time>2019-07-25T14:17:12Z</time>
      </trkpt>
      <trkpt lat="44.87406" lon="5.40595">
        <ele>1226</ele>
        <time>2019-07-25T14:17:19Z</time>
      </trkpt>
      <trkpt lat="44.87342" lon="5.40613">
        <ele>1229</ele>
        <time>2019-07-25T14:17:31Z</time>
      </trkpt>
      <trkpt lat="44.87293" lon="5.40647">
        <ele>1235</ele>
        <time>2019-07-25T14:17:41Z</time>
      </trkpt>
      <trkpt lat="44.87262" lon="5.40687">
        <ele>1234</ele>
        <time>2019-07-25T14:17:48Z</time>
      </trkpt>
      <trkpt lat="44.87243" lon="5.40715">
        <ele>1232</ele>
        <time>2019-07-25T14:17:53Z</time>
      </trkpt>
      <trkpt lat="44.87215" lon="5.40729">
        <ele>1233</ele>
        <time>2019-07-25T14:17:58Z</time>
      </trkpt>
      <trkpt lat="44.87145" lon="5.40748">
        <ele>1232</ele>
        <time>2019-07-25T14:18:11Z</time>
      </trkpt>
      <trkpt lat="44.86916" lon="5.40725">
        <ele>1232</ele>
        <time>2019-07-25T14:18:52Z</time>
      </trkpt>
      <trkpt lat="44.86848" lon="5.40694">
        <ele>1238</ele>
        <time>2019-07-25T14:19:05Z</time>
      </trkpt>
      <trkpt lat="44.86821" lon="5.40673">
        <ele>1247</ele>
        <time>2019-07-25T14:19:10Z</time>
      </trkpt>
      <trkpt lat="44.86807" lon="5.40666">
        <ele>1250</ele>
        <time>2019-07-25T14:19:13Z</time>
      </trkpt>
      <trkpt lat="44.86763" lon="5.40668">
        <ele>1247</ele>
        <time>2019-07-25T14:19:21Z</time>
      </trkpt>
      <trkpt lat="44.86716" lon="5.40677">
        <ele>1239</ele>
        <time>2019-07-25T14:19:29Z</time>
      </trkpt>
      <trkpt lat="44.86602" lon="5.40663">
        <ele>1231</ele>
        <time>2019-07-25T14:19:49Z</time>
      </trkpt>
      <trkpt lat="44.86545" lon="5.40625">
        <ele>1242</ele>
        <time>2019-07-25T14:20:01Z</time>
      </trkpt>
      <trkpt lat="44.86487" lon="5.40602">
        <ele>1245</ele>
        <time>2019-07-25T14:20:11Z</time>
      </trkpt>
      <trkpt lat="44.86428" lon="5.40606">
        <ele>1239</ele>
        <time>2019-07-25T14:20:22Z</time>
      </trkpt>
      <trkpt lat="44.86395" lon="5.40602">
        <ele>1236</ele>
        <time>2019-07-25T14:20:28Z</time>
      </trkpt>
      <trkpt lat="44.86229" lon="5.40555">
        <ele>1238</ele>
        <time>2019-07-25T14:20:58Z</time>
      </trkpt>
      <trkpt lat="44.86107" lon="5.40505">
        <ele>1246</ele>
        <time>2019-07-25T14:21:20Z</time>
      </trkpt>
      <trkpt lat="44.8605" lon="5.40497">
        <ele>1238</ele>
        <time>2019-07-25T14:21:31Z</time>
      </trkpt>
      <trkpt lat="44.86018" lon="5.40486">
        <ele>1237</ele>
        <time>2019-07-25T14:21:36Z</time>
      </trkpt>
      <trkpt lat="44.85987" lon="5.40462">
        <ele>1246</ele>
        <time>2019-07-25T14:21:43Z</time>
      </trkpt>
      <trkpt lat="44.85945" lon="5.40458">
        <ele>1245</ele>
        <time>2019-07-25T14:21:50Z</time>
      </trkpt>
      <trkpt lat="44.85859" lon="5.40459">
        <ele>1237</ele>
        <time>2019-07-25T14:22:06Z</time>
      </trkpt>
      <trkpt lat="44.85806" lon="5.40433">
        <ele>1248</ele>
        <time>2019-07-25T14:22:16Z</time>
      </trkpt>
      <trkpt lat="44.85784" lon="5.40429">
        <ele>1249</ele>
        <time>2019-07-25T14:22:19Z</time>
      </trkpt>
      <trkpt lat="44.85734" lon="5.40446">
        <ele>1236</ele>
        <time>2019-07-25T14:22:29Z</time>
      </trkpt>
      <trkpt lat="44.85706" lon="5.40442">
        <ele>1234</ele>
        <time>2019-07-25T14:22:34Z</time>
      </trkpt>
      <trkpt lat="44.85681" lon="5.40419">
        <ele>1242</ele>
        <time>2019-07-25T14:22:39Z</time>
      </trkpt>
      <trkpt lat="44.85647" lon="5.40402">
        <ele>1249</ele>
        <time>2019-07-25T14:22:45Z</time>
      </trkpt>
      <trkpt lat="44.85616" lon="5.40404">
        <ele>1247</ele>
        <time>2019-07-25T14:22:51Z</time>
      </trkpt>
      <trkpt lat="44.8555" lon="5.40444">
        <ele>1230</ele>
        <time>2019-07-25T14:23:04Z</time>
      </trkpt>
      <trkpt lat="44.85511" lon="5.40452">
        <ele>1233</ele>
        <time>2019-07-25T14:23:11Z</time>
      </trkpt>
      <trkpt lat="44.85469" lon="5.40454">
        <ele>1233</ele>
        <time>2019-07-25T14:23:18Z</time>
      </trkpt>
      <trkpt lat="44.85373" lon="5.40432">
        <ele>1237</ele>
        <time>2019-07-25T14:23:35Z</time>
      </trkpt>
      <trkpt lat="44.85317" lon="5.40426">
        <ele>1233</ele>
        <time>2019-07-25T14:23:45Z</time>
      </trkpt>
      <trkpt lat="44.8528" lon="5.40408">
        <ele>1238</ele>
        <time>2019-07-25T14:23:52Z</time>
      </trkpt>
      <trkpt lat="44.85248" lon="5.40403">
        <ele>1239</ele>
        <time>2019-07-25T14:23:58Z</time>
      </trkpt>
      <trkpt lat="44.85227" lon="5.40414">
        <ele>1235</ele>
        <time>2019-07-25T14:24:02Z</time>
      </trkpt>
      <trkpt lat="44.85195" lon="5.40437">
        <ele>1228</ele>
        <time>2019-07-25T14:24:09Z</time>
      </trkpt>
      <trkpt lat="44.85135" lon="5.40454">
        <ele>1227</ele>
        <time>2019-07-25T14:24:19Z</time>
      </trkpt>
      <trkpt lat="44.84984" lon="5.40458">
        <ele>1227</ele>
        <time>2019-07-25T14:24:46Z</time>
      </trkpt>
      <trkpt lat="44.84937" lon="5.40455">
        <ele>1230</ele>
        <time>2019-07-25T14:24:55Z</time>
      </trkpt>
      <trkpt lat="44.84898" lon="5.40447">
        <ele>1234</ele>
        <time>2019-07-25T14:25:02Z</time>
      </trkpt>
      <trkpt lat="44.8487" lon="5.40448">
        <ele>1233</ele>
        <time>2019-07-25T14:25:07Z</time>
      </trkpt>
      <trkpt lat="44.84818" lon="5.40454">
        <ele>1230</ele>
        <time>2019-07-25T14:25:16Z</time>
      </trkpt>
      <trkpt lat="44.84761" lon="5.40447">
        <ele>1232</ele>
        <time>2019-07-25T14:25:26Z</time>
      </trkpt>
      <trkpt lat="44.84721" lon="5.40457">
        <ele>1230</ele>
        <time>2019-07-25T14:25:33Z</time>
      </trkpt>
      <trkpt lat="44.84686" lon="5.40452">
        <ele>1236</ele>
        <time>2019-07-25T14:25:40Z</time>
      </trkpt>
      <trkpt lat="44.84675" lon="5.40458">
        <ele>1234</ele>
        <time>2019-07-25T14:25:42Z</time>
      </trkpt>
      <trkpt lat="44.84667" lon="5.40469">
        <ele>1230</ele>
        <time>2019-07-25T14:25:44Z</time>
      </trkpt>
      <trkpt lat="44.84615" lon="5.40481">
        <ele>1231</ele>
        <time>2019-07-25T14:25:53Z</time>
      </trkpt>
      <trkpt lat="44.84474" lon="5.40497">
        <ele>1237</ele>
        <time>2019-07-25T14:26:18Z</time>
      </trkpt>
      <trkpt lat="44.84381" lon="5.4051">
        <ele>1244</ele>
        <time>2019-07-25T14:26:35Z</time>
      </trkpt>
      <trkpt lat="44.84306" lon="5.40511">
        <ele>1250</ele>
        <time>2019-07-25T14:26:48Z</time>
      </trkpt>
      <trkpt lat="44.84196" lon="5.40538">
        <ele>1253</ele>
        <time>2019-07-25T14:27:08Z</time>
      </trkpt>
      <trkpt lat="44.84107" lon="5.40577">
        <ele>1252</ele>
        <time>2019-07-25T14:27:25Z</time>
      </trkpt>
      <trkpt lat="44.84086" lon="5.40587">
        <ele>1252</ele>
        <time>2019-07-25T14:27:29Z</time>
      </trkpt>
      <trkpt lat="44.8407" lon="5.40588">
        <ele>1253</ele>
        <time>2019-07-25T14:27:31Z</time>
      </trkpt>
      <trkpt lat="44.84061" lon="5.40591">
        <ele>1253</ele>
        <time>2019-07-25T14:27:33Z</time>
      </trkpt>
      <trkpt lat="44.84039" lon="5.40556">
        <ele>1263</ele>
        <time>2019-07-25T14:27:39Z</time>
      </trkpt>
      <trkpt lat="44.83815" lon="5.39751">
        <ele>1264</ele>
        <time>2019-07-25T14:29:28Z</time>
      </trkpt>
      <trkpt lat="44.83811" lon="5.39715">
        <ele>1255</ele>
        <time>2019-07-25T14:29:33Z</time>
      </trkpt>
      <trkpt lat="44.8381" lon="5.39658">
        <ele>1244</ele>
        <time>2019-07-25T14:29:40Z</time>
      </trkpt>
      <trkpt lat="44.83812" lon="5.39636">
        <ele>1241</ele>
        <time>2019-07-25T14:29:43Z</time>
      </trkpt>
      <trkpt lat="44.83816" lon="5.39615">
        <ele>1240</ele>
        <time>2019-07-25T14:29:45Z</time>
      </trkpt>
      <trkpt lat="44.83829" lon="5.39587">
        <ele>1241</ele>
        <time>2019-07-25T14:29:50Z</time>
      </trkpt>
      <trkpt lat="44.83834" lon="5.39571">
        <ele>1240</ele>
        <time>2019-07-25T14:29:52Z</time>
      </trkpt>
      <trkpt lat="44.83851" lon="5.39531">
        <ele>1239</ele>
        <time>2019-07-25T14:29:58Z</time>
      </trkpt>
      <trkpt lat="44.83872" lon="5.39487">
        <ele>1239</ele>
        <time>2019-07-25T14:30:04Z</time>
      </trkpt>
      <trkpt lat="44.83903" lon="5.39433">
        <ele>1240</ele>
        <time>2019-07-25T14:30:13Z</time>
      </trkpt>
      <trkpt lat="44.83916" lon="5.39392">
        <ele>1242</ele>
        <time>2019-07-25T14:30:19Z</time>
      </trkpt>
      <trkpt lat="44.83916" lon="5.39372">
        <ele>1242</ele>
        <time>2019-07-25T14:30:21Z</time>
      </trkpt>
      <trkpt lat="44.8391" lon="5.39352">
        <ele>1240</ele>
        <time>2019-07-25T14:30:24Z</time>
      </trkpt>
      <trkpt lat="44.83887" lon="5.39307">
        <ele>1238</ele>
        <time>2019-07-25T14:30:31Z</time>
      </trkpt>
      <trkpt lat="44.83873" lon="5.39287">
        <ele>1237</ele>
        <time>2019-07-25T14:30:35Z</time>
      </trkpt>
      <trkpt lat="44.83835" lon="5.39248">
        <ele>1230</ele>
        <time>2019-07-25T14:30:43Z</time>
      </trkpt>
      <trkpt lat="44.83747" lon="5.39169">
        <ele>1223</ele>
        <time>2019-07-25T14:31:02Z</time>
      </trkpt>
      <trkpt lat="44.83713" lon="5.39137">
        <ele>1238</ele>
        <time>2019-07-25T14:31:09Z</time>
      </trkpt>
      <trkpt lat="44.83699" lon="5.39112">
        <ele>1256</ele>
        <time>2019-07-25T14:31:13Z</time>
      </trkpt>
      <trkpt lat="44.83691" lon="5.3911">
        <ele>1254</ele>
        <time>2019-07-25T14:31:14Z</time>
      </trkpt>
      <trkpt lat="44.83684" lon="5.39117">
        <ele>1243</ele>
        <time>2019-07-25T14:31:16Z</time>
      </trkpt>
      <trkpt lat="44.83684" lon="5.39129">
        <ele>1232</ele>
        <time>2019-07-25T14:31:17Z</time>
      </trkpt>
      <trkpt lat="44.83689" lon="5.39136">
        <ele>1227</ele>
        <time>2019-07-25T14:31:19Z</time>
      </trkpt>
      <trkpt lat="44.83708" lon="5.39149">
        <ele>1224</ele>
        <time>2019-07-25T14:31:22Z</time>
      </trkpt>
      <trkpt lat="44.83758" lon="5.39211">
        <ele>1213</ele>
        <time>2019-07-25T14:31:34Z</time>
      </trkpt>
      <trkpt lat="44.83797" lon="5.39254">
        <ele>1212</ele>
        <time>2019-07-25T14:31:43Z</time>
      </trkpt>
      <trkpt lat="44.83838" lon="5.39309">
        <ele>1215</ele>
        <time>2019-07-25T14:31:53Z</time>
      </trkpt>
      <trkpt lat="44.83852" lon="5.39338">
        <ele>1215</ele>
        <time>2019-07-25T14:31:58Z</time>
      </trkpt>
      <trkpt lat="44.83857" lon="5.39355">
        <ele>1217</ele>
        <time>2019-07-25T14:32:00Z</time>
      </trkpt>
      <trkpt lat="44.83857" lon="5.39367">
        <ele>1217</ele>
        <time>2019-07-25T14:32:01Z</time>
      </trkpt>
      <trkpt lat="44.83855" lon="5.39379">
        <ele>1216</ele>
        <time>2019-07-25T14:32:03Z</time>
      </trkpt>
      <trkpt lat="44.8384" lon="5.39413">
        <ele>1210</ele>
        <time>2019-07-25T14:32:08Z</time>
      </trkpt>
      <trkpt lat="44.83803" lon="5.39467">
        <ele>1201</ele>
        <time>2019-07-25T14:32:17Z</time>
      </trkpt>
      <trkpt lat="44.83774" lon="5.39518">
        <ele>1197</ele>
        <time>2019-07-25T14:32:26Z</time>
      </trkpt>
      <trkpt lat="44.83757" lon="5.39537">
        <ele>1193</ele>
        <time>2019-07-25T14:32:30Z</time>
      </trkpt>
      <trkpt lat="44.83742" lon="5.39557">
        <ele>1190</ele>
        <time>2019-07-25T14:32:33Z</time>
      </trkpt>
      <trkpt lat="44.8373" lon="5.39587">
        <ele>1190</ele>
        <time>2019-07-25T14:32:38Z</time>
      </trkpt>
      <trkpt lat="44.83721" lon="5.39618">
        <ele>1189</ele>
        <time>2019-07-25T14:32:42Z</time>
      </trkpt>
      <trkpt lat="44.83714" lon="5.39656">
        <ele>1191</ele>
        <time>2019-07-25T14:32:47Z</time>
      </trkpt>
      <trkpt lat="44.83713" lon="5.39676">
        <ele>1193</ele>
        <time>2019-07-25T14:32:49Z</time>
      </trkpt>
      <trkpt lat="44.83709" lon="5.39694">
        <ele>1194</ele>
        <time>2019-07-25T14:32:52Z</time>
      </trkpt>
      <trkpt lat="44.83704" lon="5.39704">
        <ele>1193</ele>
        <time>2019-07-25T14:32:53Z</time>
      </trkpt>
      <trkpt lat="44.83694" lon="5.39713">
        <ele>1189</ele>
        <time>2019-07-25T14:32:55Z</time>
      </trkpt>
      <trkpt lat="44.83684" lon="5.39729">
        <ele>1186</ele>
        <time>2019-07-25T14:32:58Z</time>
      </trkpt>
      <trkpt lat="44.83679" lon="5.39744">
        <ele>1186</ele>
        <time>2019-07-25T14:33:00Z</time>
      </trkpt>
      <trkpt lat="44.83677" lon="5.39756">
        <ele>1187</ele>
        <time>2019-07-25T14:33:02Z</time>
      </trkpt>
      <trkpt lat="44.83674" lon="5.39763">
        <ele>1188</ele>
        <time>2019-07-25T14:33:03Z</time>
      </trkpt>
      <trkpt lat="44.83668" lon="5.39769">
        <ele>1187</ele>
        <time>2019-07-25T14:33:04Z</time>
      </trkpt>
      <trkpt lat="44.83662" lon="5.39768">
        <ele>1184</ele>
        <time>2019-07-25T14:33:05Z</time>
      </trkpt>
      <trkpt lat="44.83658" lon="5.3976">
        <ele>1179</ele>
        <time>2019-07-25T14:33:06Z</time>
      </trkpt>
      <trkpt lat="44.83659" lon="5.39753">
        <ele>1177</ele>
        <time>2019-07-25T14:33:07Z</time>
      </trkpt>
      <trkpt lat="44.83682" lon="5.39707">
        <ele>1182</ele>
        <time>2019-07-25T14:33:14Z</time>
      </trkpt>
      <trkpt lat="44.83692" lon="5.39692">
        <ele>1185</ele>
        <time>2019-07-25T14:33:17Z</time>
      </trkpt>
      <trkpt lat="44.83696" lon="5.39671">
        <ele>1184</ele>
        <time>2019-07-25T14:33:20Z</time>
      </trkpt>
      <trkpt lat="44.83698" lon="5.39606">
        <ele>1175</ele>
        <time>2019-07-25T14:33:28Z</time>
      </trkpt>
      <trkpt lat="44.83705" lon="5.39572">
        <ele>1173</ele>
        <time>2019-07-25T14:33:32Z</time>
      </trkpt>
      <trkpt lat="44.83715" lon="5.3954">
        <ele>1172</ele>
        <time>2019-07-25T14:33:37Z</time>
      </trkpt>
      <trkpt lat="44.83751" lon="5.39468">
        <ele>1175</ele>
        <time>2019-07-25T14:33:48Z</time>
      </trkpt>
      <trkpt lat="44.83781" lon="5.39394">
        <ele>1181</ele>
        <time>2019-07-25T14:33:59Z</time>
      </trkpt>
      <trkpt lat="44.83785" lon="5.39375">
        <ele>1183</ele>
        <time>2019-07-25T14:34:01Z</time>
      </trkpt>
      <trkpt lat="44.83785" lon="5.39357">
        <ele>1183</ele>
        <time>2019-07-25T14:34:03Z</time>
      </trkpt>
      <trkpt lat="44.83782" lon="5.39343">
        <ele>1182</ele>
        <time>2019-07-25T14:34:05Z</time>
      </trkpt>
      <trkpt lat="44.8377" lon="5.39326">
        <ele>1179</ele>
        <time>2019-07-25T14:34:08Z</time>
      </trkpt>
      <trkpt lat="44.83654" lon="5.39215">
        <ele>1163</ele>
        <time>2019-07-25T14:34:33Z</time>
      </trkpt>
      <trkpt lat="44.83554" lon="5.3911">
        <ele>1160</ele>
        <time>2019-07-25T14:34:55Z</time>
      </trkpt>
      <trkpt lat="44.83509" lon="5.39058">
        <ele>1176</ele>
        <time>2019-07-25T14:35:06Z</time>
      </trkpt>
      <trkpt lat="44.83448" lon="5.39001">
        <ele>1197</ele>
        <time>2019-07-25T14:35:19Z</time>
      </trkpt>
      <trkpt lat="44.83436" lon="5.38995">
        <ele>1195</ele>
        <time>2019-07-25T14:35:21Z</time>
      </trkpt>
      <trkpt lat="44.83423" lon="5.38991">
        <ele>1191</ele>
        <time>2019-07-25T14:35:23Z</time>
      </trkpt>
      <trkpt lat="44.83407" lon="5.38993">
        <ele>1183</ele>
        <time>2019-07-25T14:35:26Z</time>
      </trkpt>
      <trkpt lat="44.83393" lon="5.39">
        <ele>1173</ele>
        <time>2019-07-25T14:35:29Z</time>
      </trkpt>
      <trkpt lat="44.83358" lon="5.39035">
        <ele>1145</ele>
        <time>2019-07-25T14:35:37Z</time>
      </trkpt>
      <trkpt lat="44.83346" lon="5.39039">
        <ele>1142</ele>
        <time>2019-07-25T14:35:39Z</time>
      </trkpt>
      <trkpt lat="44.83333" lon="5.39037">
        <ele>1142</ele>
        <time>2019-07-25T14:35:41Z</time>
      </trkpt>
      <trkpt lat="44.83308" lon="5.39015">
        <ele>1153</ele>
        <time>2019-07-25T14:35:46Z</time>
      </trkpt>
      <trkpt lat="44.83295" lon="5.3901">
        <ele>1154</ele>
        <time>2019-07-25T14:35:49Z</time>
      </trkpt>
      <trkpt lat="44.83277" lon="5.39012">
        <ele>1149</ele>
        <time>2019-07-25T14:35:52Z</time>
      </trkpt>
      <trkpt lat="44.83257" lon="5.39019">
        <ele>1142</ele>
        <time>2019-07-25T14:35:56Z</time>
      </trkpt>
      <trkpt lat="44.83217" lon="5.39044">
        <ele>1131</ele>
        <time>2019-07-25T14:36:03Z</time>
      </trkpt>
      <trkpt lat="44.83197" lon="5.39051">
        <ele>1130</ele>
        <time>2019-07-25T14:36:07Z</time>
      </trkpt>
      <trkpt lat="44.83148" lon="5.39063">
        <ele>1127</ele>
        <time>2019-07-25T14:36:16Z</time>
      </trkpt>
      <trkpt lat="44.83129" lon="5.39065">
        <ele>1126</ele>
        <time>2019-07-25T14:36:19Z</time>
      </trkpt>
      <trkpt lat="44.83091" lon="5.39057">
        <ele>1129</ele>
        <time>2019-07-25T14:36:26Z</time>
      </trkpt>
      <trkpt lat="44.83062" lon="5.39056">
        <ele>1127</ele>
        <time>2019-07-25T14:36:31Z</time>
      </trkpt>
      <trkpt lat="44.83036" lon="5.39053">
        <ele>1126</ele>
        <time>2019-07-25T14:36:36Z</time>
      </trkpt>
      <trkpt lat="44.82931" lon="5.39018">
        <ele>1119</ele>
        <time>2019-07-25T14:36:55Z</time>
      </trkpt>
      <trkpt lat="44.829" lon="5.39012">
        <ele>1117</ele>
        <time>2019-07-25T14:37:01Z</time>
      </trkpt>
      <trkpt lat="44.82854" lon="5.39013">
        <ele>1112</ele>
        <time>2019-07-25T14:37:09Z</time>
      </trkpt>
      <trkpt lat="44.82817" lon="5.39011">
        <ele>1109</ele>
        <time>2019-07-25T14:37:15Z</time>
      </trkpt>
      <trkpt lat="44.8275" lon="5.3899">
        <ele>1110</ele>
        <time>2019-07-25T14:37:28Z</time>
      </trkpt>
      <trkpt lat="44.8272" lon="5.38976">
        <ele>1105</ele>
        <time>2019-07-25T14:37:33Z</time>
      </trkpt>
      <trkpt lat="44.82696" lon="5.38955">
        <ele>1104</ele>
        <time>2019-07-25T14:37:38Z</time>
      </trkpt>
      <trkpt lat="44.82681" lon="5.38935">
        <ele>1105</ele>
        <time>2019-07-25T14:37:42Z</time>
      </trkpt>
      <trkpt lat="44.82654" lon="5.38883">
        <ele>1107</ele>
        <time>2019-07-25T14:37:50Z</time>
      </trkpt>
      <trkpt lat="44.82601" lon="5.38776">
        <ele>1091</ele>
        <time>2019-07-25T14:38:07Z</time>
      </trkpt>
      <trkpt lat="44.82598" lon="5.38756">
        <ele>1090</ele>
        <time>2019-07-25T14:38:09Z</time>
      </trkpt>
      <trkpt lat="44.826" lon="5.38727">
        <ele>1094</ele>
        <time>2019-07-25T14:38:13Z</time>
      </trkpt>
      <trkpt lat="44.826" lon="5.38704">
        <ele>1096</ele>
        <time>2019-07-25T14:38:16Z</time>
      </trkpt>
      <trkpt lat="44.82595" lon="5.3867">
        <ele>1096</ele>
        <time>2019-07-25T14:38:20Z</time>
      </trkpt>
      <trkpt lat="44.8258" lon="5.38604">
        <ele>1096</ele>
        <time>2019-07-25T14:38:29Z</time>
      </trkpt>
      <trkpt lat="44.82572" lon="5.38559">
        <ele>1101</ele>
        <time>2019-07-25T14:38:35Z</time>
      </trkpt>
      <trkpt lat="44.82559" lon="5.38517">
        <ele>1106</ele>
        <time>2019-07-25T14:38:41Z</time>
      </trkpt>
      <trkpt lat="44.82542" lon="5.38487">
        <ele>1104</ele>
        <time>2019-07-25T14:38:45Z</time>
      </trkpt>
      <trkpt lat="44.82527" lon="5.38465">
        <ele>1101</ele>
        <time>2019-07-25T14:38:49Z</time>
      </trkpt>
      <trkpt lat="44.8251" lon="5.3845">
        <ele>1095</ele>
        <time>2019-07-25T14:38:53Z</time>
      </trkpt>
      <trkpt lat="44.82491" lon="5.38437">
        <ele>1089</ele>
        <time>2019-07-25T14:38:57Z</time>
      </trkpt>
      <trkpt lat="44.82481" lon="5.38427">
        <ele>1087</ele>
        <time>2019-07-25T14:38:59Z</time>
      </trkpt>
      <trkpt lat="44.82473" lon="5.38409">
        <ele>1087</ele>
        <time>2019-07-25T14:39:01Z</time>
      </trkpt>
      <trkpt lat="44.82464" lon="5.38399">
        <ele>1084</ele>
        <time>2019-07-25T14:39:03Z</time>
      </trkpt>
      <trkpt lat="44.82457" lon="5.38398">
        <ele>1081</ele>
        <time>2019-07-25T14:39:05Z</time>
      </trkpt>
      <trkpt lat="44.82453" lon="5.38405">
        <ele>1078</ele>
        <time>2019-07-25T14:39:06Z</time>
      </trkpt>
      <trkpt lat="44.82457" lon="5.38417">
        <ele>1079</ele>
        <time>2019-07-25T14:39:07Z</time>
      </trkpt>
      <trkpt lat="44.82466" lon="5.3843">
        <ele>1080</ele>
        <time>2019-07-25T14:39:10Z</time>
      </trkpt>
      <trkpt lat="44.82514" lon="5.38476">
        <ele>1091</ele>
        <time>2019-07-25T14:39:20Z</time>
      </trkpt>
      <trkpt lat="44.82529" lon="5.385">
        <ele>1093</ele>
        <time>2019-07-25T14:39:24Z</time>
      </trkpt>
      <trkpt lat="44.8254" lon="5.38526">
        <ele>1092</ele>
        <time>2019-07-25T14:39:28Z</time>
      </trkpt>
      <trkpt lat="44.82549" lon="5.38559">
        <ele>1088</ele>
        <time>2019-07-25T14:39:32Z</time>
      </trkpt>
      <trkpt lat="44.82562" lon="5.38658">
        <ele>1076</ele>
        <time>2019-07-25T14:39:45Z</time>
      </trkpt>
      <trkpt lat="44.82566" lon="5.38714">
        <ele>1072</ele>
        <time>2019-07-25T14:39:52Z</time>
      </trkpt>
      <trkpt lat="44.82562" lon="5.38736">
        <ele>1066</ele>
        <time>2019-07-25T14:39:55Z</time>
      </trkpt>
      <trkpt lat="44.82553" lon="5.38762">
        <ele>1058</ele>
        <time>2019-07-25T14:39:59Z</time>
      </trkpt>
      <trkpt lat="44.8255" lon="5.38777">
        <ele>1055</ele>
        <time>2019-07-25T14:40:01Z</time>
      </trkpt>
      <trkpt lat="44.82553" lon="5.38799">
        <ele>1056</ele>
        <time>2019-07-25T14:40:04Z</time>
      </trkpt>
      <trkpt lat="44.82562" lon="5.38825">
        <ele>1060</ele>
        <time>2019-07-25T14:40:07Z</time>
      </trkpt>
      <trkpt lat="44.82596" lon="5.38897">
        <ele>1066</ele>
        <time>2019-07-25T14:40:18Z</time>
      </trkpt>
      <trkpt lat="44.8263" lon="5.38985">
        <ele>1059</ele>
        <time>2019-07-25T14:40:31Z</time>
      </trkpt>
      <trkpt lat="44.8265" lon="5.39025">
        <ele>1055</ele>
        <time>2019-07-25T14:40:37Z</time>
      </trkpt>
      <trkpt lat="44.82668" lon="5.39045">
        <ele>1055</ele>
        <time>2019-07-25T14:40:41Z</time>
      </trkpt>
      <trkpt lat="44.82689" lon="5.39061">
        <ele>1053</ele>
        <time>2019-07-25T14:40:45Z</time>
      </trkpt>
      <trkpt lat="44.82786" lon="5.39118">
        <ele>1046</ele>
        <time>2019-07-25T14:41:04Z</time>
      </trkpt>
      <trkpt lat="44.82815" lon="5.39142">
        <ele>1038</ele>
        <time>2019-07-25T14:41:10Z</time>
      </trkpt>
      <trkpt lat="44.82831" lon="5.39154">
        <ele>1034</ele>
        <time>2019-07-25T14:41:13Z</time>
      </trkpt>
      <trkpt lat="44.8285" lon="5.39158">
        <ele>1035</ele>
        <time>2019-07-25T14:41:17Z</time>
      </trkpt>
      <trkpt lat="44.82878" lon="5.39159">
        <ele>1039</ele>
        <time>2019-07-25T14:41:22Z</time>
      </trkpt>
      <trkpt lat="44.82901" lon="5.39165">
        <ele>1040</ele>
        <time>2019-07-25T14:41:26Z</time>
      </trkpt>
      <trkpt lat="44.82984" lon="5.39214">
        <ele>1038</ele>
        <time>2019-07-25T14:41:42Z</time>
      </trkpt>
      <trkpt lat="44.83029" lon="5.39245">
        <ele>1032</ele>
        <time>2019-07-25T14:41:51Z</time>
      </trkpt>
      <trkpt lat="44.83044" lon="5.39248">
        <ele>1032</ele>
        <time>2019-07-25T14:41:53Z</time>
      </trkpt>
      <trkpt lat="44.83067" lon="5.39248">
        <ele>1036</ele>
        <time>2019-07-25T14:41:57Z</time>
      </trkpt>
      <trkpt lat="44.83089" lon="5.39264">
        <ele>1031</ele>
        <time>2019-07-25T14:42:02Z</time>
      </trkpt>
      <trkpt lat="44.83117" lon="5.39278">
        <ele>1026</ele>
        <time>2019-07-25T14:42:07Z</time>
      </trkpt>
      <trkpt lat="44.83172" lon="5.39288">
        <ele>1024</ele>
        <time>2019-07-25T14:42:17Z</time>
      </trkpt>
      <trkpt lat="44.83209" lon="5.39306">
        <ele>1016</ele>
        <time>2019-07-25T14:42:24Z</time>
      </trkpt>
      <trkpt lat="44.83236" lon="5.39304">
        <ele>1017</ele>
        <time>2019-07-25T14:42:29Z</time>
      </trkpt>
      <trkpt lat="44.83261" lon="5.39285">
        <ele>1024</ele>
        <time>2019-07-25T14:42:34Z</time>
      </trkpt>
      <trkpt lat="44.83277" lon="5.39287">
        <ele>1023</ele>
        <time>2019-07-25T14:42:37Z</time>
      </trkpt>
      <trkpt lat="44.833" lon="5.393">
        <ele>1018</ele>
        <time>2019-07-25T14:42:41Z</time>
      </trkpt>
      <trkpt lat="44.83321" lon="5.39307">
        <ele>1014</ele>
        <time>2019-07-25T14:42:45Z</time>
      </trkpt>
      <trkpt lat="44.83365" lon="5.39309">
        <ele>1021</ele>
        <time>2019-07-25T14:42:53Z</time>
      </trkpt>
      <trkpt lat="44.8338" lon="5.39317">
        <ele>1022</ele>
        <time>2019-07-25T14:42:56Z</time>
      </trkpt>
      <trkpt lat="44.83391" lon="5.39336">
        <ele>1019</ele>
        <time>2019-07-25T14:42:59Z</time>
      </trkpt>
      <trkpt lat="44.83395" lon="5.39367">
        <ele>1016</ele>
        <time>2019-07-25T14:43:03Z</time>
      </trkpt>
      <trkpt lat="44.83389" lon="5.39417">
        <ele>1007</ele>
        <time>2019-07-25T14:43:09Z</time>
      </trkpt>
      <trkpt lat="44.83381" lon="5.39452">
        <ele>1008</ele>
        <time>2019-07-25T14:43:14Z</time>
      </trkpt>
      <trkpt lat="44.8336" lon="5.39492">
        <ele>1003</ele>
        <time>2019-07-25T14:43:20Z</time>
      </trkpt>
      <trkpt lat="44.83338" lon="5.39527">
        <ele>1001</ele>
        <time>2019-07-25T14:43:26Z</time>
      </trkpt>
      <trkpt lat="44.83299" lon="5.39572">
        <ele>992</ele>
        <time>2019-07-25T14:43:35Z</time>
      </trkpt>
      <trkpt lat="44.83282" lon="5.39605">
        <ele>992</ele>
        <time>2019-07-25T14:43:40Z</time>
      </trkpt>
      <trkpt lat="44.83271" lon="5.3963">
        <ele>995</ele>
        <time>2019-07-25T14:43:44Z</time>
      </trkpt>
      <trkpt lat="44.83257" lon="5.39648">
        <ele>995</ele>
        <time>2019-07-25T14:43:47Z</time>
      </trkpt>
      <trkpt lat="44.83234" lon="5.39655">
        <ele>989</ele>
        <time>2019-07-25T14:43:51Z</time>
      </trkpt>
      <trkpt lat="44.83216" lon="5.3967">
        <ele>988</ele>
        <time>2019-07-25T14:43:55Z</time>
      </trkpt>
      <trkpt lat="44.83198" lon="5.39702">
        <ele>995</ele>
        <time>2019-07-25T14:44:00Z</time>
      </trkpt>
      <trkpt lat="44.83186" lon="5.39712">
        <ele>996</ele>
        <time>2019-07-25T14:44:03Z</time>
      </trkpt>
      <trkpt lat="44.83164" lon="5.39709">
        <ele>989</ele>
        <time>2019-07-25T14:44:07Z</time>
      </trkpt>
      <trkpt lat="44.83135" lon="5.39711">
        <ele>981</ele>
        <time>2019-07-25T14:44:12Z</time>
      </trkpt>
      <trkpt lat="44.83109" lon="5.39726">
        <ele>981</ele>
        <time>2019-07-25T14:44:17Z</time>
      </trkpt>
      <trkpt lat="44.83062" lon="5.39772">
        <ele>986</ele>
        <time>2019-07-25T14:44:27Z</time>
      </trkpt>
      <trkpt lat="44.83048" lon="5.39781">
        <ele>985</ele>
        <time>2019-07-25T14:44:30Z</time>
      </trkpt>
      <trkpt lat="44.83004" lon="5.39802">
        <ele>978</ele>
        <time>2019-07-25T14:44:38Z</time>
      </trkpt>
      <trkpt lat="44.82958" lon="5.39816">
        <ele>967</ele>
        <time>2019-07-25T14:44:46Z</time>
      </trkpt>
      <trkpt lat="44.82929" lon="5.39834">
        <ele>962</ele>
        <time>2019-07-25T14:44:52Z</time>
      </trkpt>
      <trkpt lat="44.82921" lon="5.39831">
        <ele>958</ele>
        <time>2019-07-25T14:44:53Z</time>
      </trkpt>
      <trkpt lat="44.82917" lon="5.39819">
        <ele>954</ele>
        <time>2019-07-25T14:44:55Z</time>
      </trkpt>
      <trkpt lat="44.82919" lon="5.39807">
        <ele>952</ele>
        <time>2019-07-25T14:44:57Z</time>
      </trkpt>
      <trkpt lat="44.82928" lon="5.39803">
        <ele>954</ele>
        <time>2019-07-25T14:44:58Z</time>
      </trkpt>
      <trkpt lat="44.82941" lon="5.39805">
        <ele>959</ele>
        <time>2019-07-25T14:45:01Z</time>
      </trkpt>
      <trkpt lat="44.82964" lon="5.39799">
        <ele>964</ele>
        <time>2019-07-25T14:45:05Z</time>
      </trkpt>
      <trkpt lat="44.83027" lon="5.39762">
        <ele>971</ele>
        <time>2019-07-25T14:45:17Z</time>
      </trkpt>
      <trkpt lat="44.83055" lon="5.39733">
        <ele>968</ele>
        <time>2019-07-25T14:45:23Z</time>
      </trkpt>
      <trkpt lat="44.83085" lon="5.39699">
        <ele>962</ele>
        <time>2019-07-25T14:45:30Z</time>
      </trkpt>
      <trkpt lat="44.83121" lon="5.39666">
        <ele>958</ele>
        <time>2019-07-25T14:45:38Z</time>
      </trkpt>
      <trkpt lat="44.83164" lon="5.39643">
        <ele>963</ele>
        <time>2019-07-25T14:45:46Z</time>
      </trkpt>
      <trkpt lat="44.83229" lon="5.39549">
        <ele>961</ele>
        <time>2019-07-25T14:46:02Z</time>
      </trkpt>
      <trkpt lat="44.83233" lon="5.39533">
        <ele>960</ele>
        <time>2019-07-25T14:46:05Z</time>
      </trkpt>
      <trkpt lat="44.83231" lon="5.39512">
        <ele>957</ele>
        <time>2019-07-25T14:46:07Z</time>
      </trkpt>
      <trkpt lat="44.83226" lon="5.39497">
        <ele>955</ele>
        <time>2019-07-25T14:46:09Z</time>
      </trkpt>
      <trkpt lat="44.83211" lon="5.39481">
        <ele>955</ele>
        <time>2019-07-25T14:46:13Z</time>
      </trkpt>
      <trkpt lat="44.8317" lon="5.39469">
        <ele>951</ele>
        <time>2019-07-25T14:46:20Z</time>
      </trkpt>
      <trkpt lat="44.83085" lon="5.3944">
        <ele>946</ele>
        <time>2019-07-25T14:46:36Z</time>
      </trkpt>
      <trkpt lat="44.83054" lon="5.39421">
        <ele>947</ele>
        <time>2019-07-25T14:46:42Z</time>
      </trkpt>
      <trkpt lat="44.82962" lon="5.3939">
        <ele>945</ele>
        <time>2019-07-25T14:46:58Z</time>
      </trkpt>
      <trkpt lat="44.82906" lon="5.39388">
        <ele>936</ele>
        <time>2019-07-25T14:47:08Z</time>
      </trkpt>
      <trkpt lat="44.82857" lon="5.39368">
        <ele>940</ele>
        <time>2019-07-25T14:47:18Z</time>
      </trkpt>
      <trkpt lat="44.82812" lon="5.39371">
        <ele>931</ele>
        <time>2019-07-25T14:47:26Z</time>
      </trkpt>
      <trkpt lat="44.82789" lon="5.39356">
        <ele>934</ele>
        <time>2019-07-25T14:47:30Z</time>
      </trkpt>
      <trkpt lat="44.82754" lon="5.39346">
        <ele>932</ele>
        <time>2019-07-25T14:47:36Z</time>
      </trkpt>
      <trkpt lat="44.82725" lon="5.39319">
        <ele>938</ele>
        <time>2019-07-25T14:47:43Z</time>
      </trkpt>
      <trkpt lat="44.82694" lon="5.39305">
        <ele>938</ele>
        <time>2019-07-25T14:47:48Z</time>
      </trkpt>
      <trkpt lat="44.82677" lon="5.39308">
        <ele>933</ele>
        <time>2019-07-25T14:47:51Z</time>
      </trkpt>
      <trkpt lat="44.82646" lon="5.39332">
        <ele>916</ele>
        <time>2019-07-25T14:47:58Z</time>
      </trkpt>
      <trkpt lat="44.82628" lon="5.39326">
        <ele>916</ele>
        <time>2019-07-25T14:48:01Z</time>
      </trkpt>
      <trkpt lat="44.8257" lon="5.39281">
        <ele>920</ele>
        <time>2019-07-25T14:48:13Z</time>
      </trkpt>
      <trkpt lat="44.82507" lon="5.39203">
        <ele>926</ele>
        <time>2019-07-25T14:48:28Z</time>
      </trkpt>
      <trkpt lat="44.82468" lon="5.39177">
        <ele>919</ele>
        <time>2019-07-25T14:48:35Z</time>
      </trkpt>
      <trkpt lat="44.82439" lon="5.3915">
        <ele>914</ele>
        <time>2019-07-25T14:48:42Z</time>
      </trkpt>
      <trkpt lat="44.82406" lon="5.39091">
        <ele>914</ele>
        <time>2019-07-25T14:48:51Z</time>
      </trkpt>
      <trkpt lat="44.82348" lon="5.39023">
        <ele>902</ele>
        <time>2019-07-25T14:49:04Z</time>
      </trkpt>
      <trkpt lat="44.82331" lon="5.38992">
        <ele>895</ele>
        <time>2019-07-25T14:49:09Z</time>
      </trkpt>
      <trkpt lat="44.82324" lon="5.38966">
        <ele>890</ele>
        <time>2019-07-25T14:49:13Z</time>
      </trkpt>
      <trkpt lat="44.82327" lon="5.38942">
        <ele>891</ele>
        <time>2019-07-25T14:49:16Z</time>
      </trkpt>
      <trkpt lat="44.82336" lon="5.38916">
        <ele>896</ele>
        <time>2019-07-25T14:49:20Z</time>
      </trkpt>
      <trkpt lat="44.82336" lon="5.38893">
        <ele>898</ele>
        <time>2019-07-25T14:49:23Z</time>
      </trkpt>
      <trkpt lat="44.82323" lon="5.38834">
        <ele>896</ele>
        <time>2019-07-25T14:49:30Z</time>
      </trkpt>
      <trkpt lat="44.82324" lon="5.38811">
        <ele>901</ele>
        <time>2019-07-25T14:49:33Z</time>
      </trkpt>
      <trkpt lat="44.82318" lon="5.388">
        <ele>901</ele>
        <time>2019-07-25T14:49:35Z</time>
      </trkpt>
      <trkpt lat="44.8231" lon="5.38803">
        <ele>896</ele>
        <time>2019-07-25T14:49:36Z</time>
      </trkpt>
      <trkpt lat="44.82306" lon="5.38815">
        <ele>890</ele>
        <time>2019-07-25T14:49:38Z</time>
      </trkpt>
      <trkpt lat="44.82307" lon="5.38827">
        <ele>888</ele>
        <time>2019-07-25T14:49:40Z</time>
      </trkpt>
      <trkpt lat="44.82312" lon="5.38841">
        <ele>889</ele>
        <time>2019-07-25T14:49:42Z</time>
      </trkpt>
      <trkpt lat="44.82323" lon="5.38883">
        <ele>891</ele>
        <time>2019-07-25T14:49:47Z</time>
      </trkpt>
      <trkpt lat="44.82324" lon="5.38899">
        <ele>890</ele>
        <time>2019-07-25T14:49:49Z</time>
      </trkpt>
      <trkpt lat="44.82295" lon="5.38961">
        <ele>872</ele>
        <time>2019-07-25T14:49:59Z</time>
      </trkpt>
      <trkpt lat="44.82294" lon="5.38989">
        <ele>874</ele>
        <time>2019-07-25T14:50:02Z</time>
      </trkpt>
      <trkpt lat="44.82306" lon="5.39033">
        <ele>880</ele>
        <time>2019-07-25T14:50:08Z</time>
      </trkpt>
      <trkpt lat="44.82321" lon="5.3907">
        <ele>884</ele>
        <time>2019-07-25T14:50:14Z</time>
      </trkpt>
      <trkpt lat="44.82371" lon="5.39155">
        <ele>884</ele>
        <time>2019-07-25T14:50:28Z</time>
      </trkpt>
      <trkpt lat="44.82396" lon="5.39218">
        <ele>878</ele>
        <time>2019-07-25T14:50:37Z</time>
      </trkpt>
      <trkpt lat="44.82417" lon="5.39247">
        <ele>878</ele>
        <time>2019-07-25T14:50:42Z</time>
      </trkpt>
      <trkpt lat="44.82465" lon="5.39286">
        <ele>882</ele>
        <time>2019-07-25T14:50:52Z</time>
      </trkpt>
      <trkpt lat="44.82482" lon="5.39314">
        <ele>877</ele>
        <time>2019-07-25T14:50:56Z</time>
      </trkpt>
      <trkpt lat="44.82521" lon="5.39366">
        <ele>870</ele>
        <time>2019-07-25T14:51:06Z</time>
      </trkpt>
      <trkpt lat="44.82592" lon="5.39431">
        <ele>862</ele>
        <time>2019-07-25T14:51:21Z</time>
      </trkpt>
      <trkpt lat="44.82659" lon="5.39447">
        <ele>861</ele>
        <time>2019-07-25T14:51:33Z</time>
      </trkpt>
      <trkpt lat="44.82688" lon="5.39464">
        <ele>855</ele>
        <time>2019-07-25T14:51:39Z</time>
      </trkpt>
      <trkpt lat="44.8279" lon="5.39506">
        <ele>852</ele>
        <time>2019-07-25T14:51:58Z</time>
      </trkpt>
      <trkpt lat="44.82814" lon="5.39524">
        <ele>855</ele>
        <time>2019-07-25T14:52:02Z</time>
      </trkpt>
      <trkpt lat="44.82821" lon="5.39541">
        <ele>855</ele>
        <time>2019-07-25T14:52:05Z</time>
      </trkpt>
      <trkpt lat="44.82818" lon="5.39564">
        <ele>851</ele>
        <time>2019-07-25T14:52:08Z</time>
      </trkpt>
      <trkpt lat="44.82803" lon="5.39581">
        <ele>844</ele>
        <time>2019-07-25T14:52:11Z</time>
      </trkpt>
      <trkpt lat="44.82774" lon="5.39597">
        <ele>840</ele>
        <time>2019-07-25T14:52:17Z</time>
      </trkpt>
      <trkpt lat="44.8273" lon="5.39642">
        <ele>838</ele>
        <time>2019-07-25T14:52:26Z</time>
      </trkpt>
      <trkpt lat="44.82649" lon="5.39692">
        <ele>825</ele>
        <time>2019-07-25T14:52:42Z</time>
      </trkpt>
      <trkpt lat="44.82626" lon="5.39731">
        <ele>827</ele>
        <time>2019-07-25T14:52:49Z</time>
      </trkpt>
      <trkpt lat="44.82611" lon="5.39746">
        <ele>826</ele>
        <time>2019-07-25T14:52:52Z</time>
      </trkpt>
      <trkpt lat="44.8259" lon="5.3976">
        <ele>820</ele>
        <time>2019-07-25T14:52:56Z</time>
      </trkpt>
      <trkpt lat="44.82565" lon="5.39785">
        <ele>811</ele>
        <time>2019-07-25T14:53:01Z</time>
      </trkpt>
      <trkpt lat="44.82557" lon="5.39779">
        <ele>807</ele>
        <time>2019-07-25T14:53:03Z</time>
      </trkpt>
      <trkpt lat="44.82555" lon="5.39762">
        <ele>807</ele>
        <time>2019-07-25T14:53:05Z</time>
      </trkpt>
      <trkpt lat="44.82566" lon="5.39752">
        <ele>811</ele>
        <time>2019-07-25T14:53:08Z</time>
      </trkpt>
      <trkpt lat="44.82598" lon="5.39738">
        <ele>819</ele>
        <time>2019-07-25T14:53:14Z</time>
      </trkpt>
      <trkpt lat="44.82612" lon="5.39723">
        <ele>820</ele>
        <time>2019-07-25T14:53:17Z</time>
      </trkpt>
      <trkpt lat="44.82633" lon="5.39683">
        <ele>816</ele>
        <time>2019-07-25T14:53:23Z</time>
      </trkpt>
      <trkpt lat="44.82658" lon="5.3965">
        <ele>817</ele>
        <time>2019-07-25T14:53:29Z</time>
      </trkpt>
      <trkpt lat="44.82715" lon="5.39608">
        <ele>825</ele>
        <time>2019-07-25T14:53:40Z</time>
      </trkpt>
      <trkpt lat="44.82725" lon="5.39588">
        <ele>823</ele>
        <time>2019-07-25T14:53:44Z</time>
      </trkpt>
      <trkpt lat="44.82725" lon="5.39568">
        <ele>825</ele>
        <time>2019-07-25T14:53:46Z</time>
      </trkpt>
      <trkpt lat="44.82717" lon="5.39552">
        <ele>826</ele>
        <time>2019-07-25T14:53:49Z</time>
      </trkpt>
      <trkpt lat="44.82706" lon="5.39543">
        <ele>825</ele>
        <time>2019-07-25T14:53:51Z</time>
      </trkpt>
      <trkpt lat="44.82683" lon="5.39529">
        <ele>822</ele>
        <time>2019-07-25T14:53:55Z</time>
      </trkpt>
      <trkpt lat="44.82653" lon="5.39519">
        <ele>818</ele>
        <time>2019-07-25T14:54:01Z</time>
      </trkpt>
      <trkpt lat="44.82568" lon="5.39494">
        <ele>814</ele>
        <time>2019-07-25T14:54:16Z</time>
      </trkpt>
      <trkpt lat="44.82501" lon="5.39487">
        <ele>806</ele>
        <time>2019-07-25T14:54:28Z</time>
      </trkpt>
      <trkpt lat="44.82482" lon="5.39479">
        <ele>805</ele>
        <time>2019-07-25T14:54:32Z</time>
      </trkpt>
      <trkpt lat="44.82403" lon="5.39431">
        <ele>806</ele>
        <time>2019-07-25T14:54:47Z</time>
      </trkpt>
      <trkpt lat="44.82345" lon="5.39413">
        <ele>800</ele>
        <time>2019-07-25T14:54:58Z</time>
      </trkpt>
      <trkpt lat="44.82312" lon="5.39401">
        <ele>795</ele>
        <time>2019-07-25T14:55:04Z</time>
      </trkpt>
      <trkpt lat="44.82284" lon="5.39379">
        <ele>793</ele>
        <time>2019-07-25T14:55:09Z</time>
      </trkpt>
      <trkpt lat="44.82259" lon="5.39353">
        <ele>791</ele>
        <time>2019-07-25T14:55:15Z</time>
      </trkpt>
      <trkpt lat="44.8222" lon="5.39319">
        <ele>783</ele>
        <time>2019-07-25T14:55:23Z</time>
      </trkpt>
      <trkpt lat="44.82209" lon="5.39302">
        <ele>782</ele>
        <time>2019-07-25T14:55:26Z</time>
      </trkpt>
      <trkpt lat="44.82171" lon="5.39212">
        <ele>786</ele>
        <time>2019-07-25T14:55:39Z</time>
      </trkpt>
      <trkpt lat="44.82161" lon="5.39175">
        <ele>791</ele>
        <time>2019-07-25T14:55:44Z</time>
      </trkpt>
      <trkpt lat="44.82155" lon="5.39168">
        <ele>790</ele>
        <time>2019-07-25T14:55:46Z</time>
      </trkpt>
      <trkpt lat="44.82148" lon="5.39168">
        <ele>786</ele>
        <time>2019-07-25T14:55:47Z</time>
      </trkpt>
      <trkpt lat="44.82144" lon="5.39176">
        <ele>782</ele>
        <time>2019-07-25T14:55:48Z</time>
      </trkpt>
      <trkpt lat="44.82163" lon="5.3922">
        <ele>779</ele>
        <time>2019-07-25T14:55:55Z</time>
      </trkpt>
      <trkpt lat="44.82178" lon="5.3928">
        <ele>772</ele>
        <time>2019-07-25T14:56:03Z</time>
      </trkpt>
      <trkpt lat="44.8219" lon="5.39334">
        <ele>767</ele>
        <time>2019-07-25T14:56:10Z</time>
      </trkpt>
      <trkpt lat="44.82202" lon="5.39367">
        <ele>768</ele>
        <time>2019-07-25T14:56:14Z</time>
      </trkpt>
      <trkpt lat="44.82214" lon="5.39385">
        <ele>769</ele>
        <time>2019-07-25T14:56:17Z</time>
      </trkpt>
      <trkpt lat="44.82266" lon="5.39441">
        <ele>770</ele>
        <time>2019-07-25T14:56:29Z</time>
      </trkpt>
      <trkpt lat="44.82318" lon="5.3948">
        <ele>768</ele>
        <time>2019-07-25T14:56:40Z</time>
      </trkpt>
      <trkpt lat="44.82364" lon="5.39504">
        <ele>767</ele>
        <time>2019-07-25T14:56:48Z</time>
      </trkpt>
      <trkpt lat="44.82397" lon="5.39514">
        <ele>767</ele>
        <time>2019-07-25T14:56:54Z</time>
      </trkpt>
      <trkpt lat="44.82405" lon="5.39518">
        <ele>766</ele>
        <time>2019-07-25T14:56:56Z</time>
      </trkpt>
      <trkpt lat="44.82406" lon="5.39527">
        <ele>761</ele>
        <time>2019-07-25T14:56:57Z</time>
      </trkpt>
      <trkpt lat="44.824" lon="5.39533">
        <ele>757</ele>
        <time>2019-07-25T14:56:58Z</time>
      </trkpt>
      <trkpt lat="44.8236" lon="5.39521">
        <ele>758</ele>
        <time>2019-07-25T14:57:06Z</time>
      </trkpt>
      <trkpt lat="44.82273" lon="5.39486">
        <ele>757</ele>
        <time>2019-07-25T14:57:22Z</time>
      </trkpt>
      <trkpt lat="44.82225" lon="5.39474">
        <ele>752</ele>
        <time>2019-07-25T14:57:30Z</time>
      </trkpt>
      <trkpt lat="44.82204" lon="5.39475">
        <ele>749</ele>
        <time>2019-07-25T14:57:34Z</time>
      </trkpt>
      <trkpt lat="44.82174" lon="5.39488">
        <ele>742</ele>
        <time>2019-07-25T14:57:40Z</time>
      </trkpt>
      <trkpt lat="44.82118" lon="5.39523">
        <ele>730</ele>
        <time>2019-07-25T14:57:51Z</time>
      </trkpt>
      <trkpt lat="44.82093" lon="5.39531">
        <ele>728</ele>
        <time>2019-07-25T14:57:55Z</time>
      </trkpt>
      <trkpt lat="44.82063" lon="5.39527">
        <ele>724</ele>
        <time>2019-07-25T14:58:00Z</time>
      </trkpt>
      <trkpt lat="44.8203" lon="5.39506">
        <ele>721</ele>
        <time>2019-07-25T14:58:07Z</time>
      </trkpt>
      <trkpt lat="44.82024" lon="5.39498">
        <ele>720</ele>
        <time>2019-07-25T14:58:08Z</time>
      </trkpt>
      <trkpt lat="44.8202" lon="5.39481">
        <ele>717</ele>
        <time>2019-07-25T14:58:11Z</time>
      </trkpt>
      <trkpt lat="44.82022" lon="5.39466">
        <ele>715</ele>
        <time>2019-07-25T14:58:13Z</time>
      </trkpt>
      <trkpt lat="44.8203" lon="5.39451">
        <ele>715</ele>
        <time>2019-07-25T14:58:15Z</time>
      </trkpt>
      <trkpt lat="44.8204" lon="5.3944">
        <ele>716</ele>
        <time>2019-07-25T14:58:17Z</time>
      </trkpt>
      <trkpt lat="44.82065" lon="5.39424">
        <ele>721</ele>
        <time>2019-07-25T14:58:22Z</time>
      </trkpt>
      <trkpt lat="44.82077" lon="5.39408">
        <ele>723</ele>
        <time>2019-07-25T14:58:25Z</time>
      </trkpt>
      <trkpt lat="44.82081" lon="5.39397">
        <ele>724</ele>
        <time>2019-07-25T14:58:27Z</time>
      </trkpt>
      <trkpt lat="44.82084" lon="5.39376">
        <ele>724</ele>
        <time>2019-07-25T14:58:29Z</time>
      </trkpt>
      <trkpt lat="44.82081" lon="5.39356">
        <ele>723</ele>
        <time>2019-07-25T14:58:32Z</time>
      </trkpt>
      <trkpt lat="44.82068" lon="5.39306">
        <ele>722</ele>
        <time>2019-07-25T14:58:39Z</time>
      </trkpt>
      <trkpt lat="44.8206" lon="5.39292">
        <ele>722</ele>
        <time>2019-07-25T14:58:41Z</time>
      </trkpt>
      <trkpt lat="44.8205" lon="5.39281">
        <ele>720</ele>
        <time>2019-07-25T14:58:43Z</time>
      </trkpt>
      <trkpt lat="44.82017" lon="5.39258">
        <ele>710</ele>
        <time>2019-07-25T14:58:50Z</time>
      </trkpt>
      <trkpt lat="44.82006" lon="5.39245">
        <ele>709</ele>
        <time>2019-07-25T14:58:52Z</time>
      </trkpt>
      <trkpt lat="44.81981" lon="5.392">
        <ele>719</ele>
        <time>2019-07-25T14:58:59Z</time>
      </trkpt>
      <trkpt lat="44.81975" lon="5.39193">
        <ele>721</ele>
        <time>2019-07-25T14:59:01Z</time>
      </trkpt>
      <trkpt lat="44.81965" lon="5.39191">
        <ele>723</ele>
        <time>2019-07-25T14:59:03Z</time>
      </trkpt>
      <trkpt lat="44.81956" lon="5.39196">
        <ele>722</ele>
        <time>2019-07-25T14:59:04Z</time>
      </trkpt>
      <trkpt lat="44.81907" lon="5.39242">
        <ele>702</ele>
        <time>2019-07-25T14:59:15Z</time>
      </trkpt>
      <trkpt lat="44.81881" lon="5.39261">
        <ele>696</ele>
        <time>2019-07-25T14:59:20Z</time>
      </trkpt>
      <trkpt lat="44.81861" lon="5.3927">
        <ele>695</ele>
        <time>2019-07-25T14:59:24Z</time>
      </trkpt>
      <trkpt lat="44.81832" lon="5.39274">
        <ele>695</ele>
        <time>2019-07-25T14:59:29Z</time>
      </trkpt>
      <trkpt lat="44.81803" lon="5.39271">
        <ele>693</ele>
        <time>2019-07-25T14:59:34Z</time>
      </trkpt>
      <trkpt lat="44.81614" lon="5.39229">
        <ele>694</ele>
        <time>2019-07-25T15:00:08Z</time>
      </trkpt>
      <trkpt lat="44.81587" lon="5.39229">
        <ele>693</ele>
        <time>2019-07-25T15:00:13Z</time>
      </trkpt>
      <trkpt lat="44.81469" lon="5.39246">
        <ele>683</ele>
        <time>2019-07-25T15:00:34Z</time>
      </trkpt>
      <trkpt lat="44.81394" lon="5.39264">
        <ele>668</ele>
        <time>2019-07-25T15:00:48Z</time>
      </trkpt>
      <trkpt lat="44.81378" lon="5.39261">
        <ele>667</ele>
        <time>2019-07-25T15:00:50Z</time>
      </trkpt>
      <trkpt lat="44.81368" lon="5.39255">
        <ele>667</ele>
        <time>2019-07-25T15:00:52Z</time>
      </trkpt>
      <trkpt lat="44.81351" lon="5.39227">
        <ele>673</ele>
        <time>2019-07-25T15:00:57Z</time>
      </trkpt>
      <trkpt lat="44.81335" lon="5.39223">
        <ele>671</ele>
        <time>2019-07-25T15:01:00Z</time>
      </trkpt>
      <trkpt lat="44.81325" lon="5.39227">
        <ele>672</ele>
        <time>2019-07-25T15:01:02Z</time>
      </trkpt>
      <trkpt lat="44.81281" lon="5.39278">
        <ele>669</ele>
        <time>2019-07-25T15:01:12Z</time>
      </trkpt>
      <trkpt lat="44.8125" lon="5.39321">
        <ele>662</ele>
        <time>2019-07-25T15:01:20Z</time>
      </trkpt>
      <trkpt lat="44.81239" lon="5.39345">
        <ele>659</ele>
        <time>2019-07-25T15:01:23Z</time>
      </trkpt>
      <trkpt lat="44.81225" lon="5.39397">
        <ele>651</ele>
        <time>2019-07-25T15:01:30Z</time>
      </trkpt>
      <trkpt lat="44.81216" lon="5.39416">
        <ele>649</ele>
        <time>2019-07-25T15:01:33Z</time>
      </trkpt>
      <trkpt lat="44.81206" lon="5.39426">
        <ele>648</ele>
        <time>2019-07-25T15:01:35Z</time>
      </trkpt>
      <trkpt lat="44.81195" lon="5.39431">
        <ele>648</ele>
        <time>2019-07-25T15:01:37Z</time>
      </trkpt>
      <trkpt lat="44.81182" lon="5.39432">
        <ele>649</ele>
        <time>2019-07-25T15:01:40Z</time>
      </trkpt>
      <trkpt lat="44.81171" lon="5.39431">
        <ele>651</ele>
        <time>2019-07-25T15:01:42Z</time>
      </trkpt>
      <trkpt lat="44.81057" lon="5.39382">
        <ele>653</ele>
        <time>2019-07-25T15:02:03Z</time>
      </trkpt>
      <trkpt lat="44.80973" lon="5.39382">
        <ele>642</ele>
        <time>2019-07-25T15:02:18Z</time>
      </trkpt>
      <trkpt lat="44.80935" lon="5.39373">
        <ele>641</ele>
        <time>2019-07-25T15:02:25Z</time>
      </trkpt>
      <trkpt lat="44.80874" lon="5.39354">
        <ele>640</ele>
        <time>2019-07-25T15:02:36Z</time>
      </trkpt>
      <trkpt lat="44.8085" lon="5.39355">
        <ele>635</ele>
        <time>2019-07-25T15:02:40Z</time>
      </trkpt>
      <trkpt lat="44.80825" lon="5.39353">
        <ele>631</ele>
        <time>2019-07-25T15:02:45Z</time>
      </trkpt>
      <trkpt lat="44.80805" lon="5.39342">
        <ele>632</ele>
        <time>2019-07-25T15:02:48Z</time>
      </trkpt>
      <trkpt lat="44.80775" lon="5.39316">
        <ele>639</ele>
        <time>2019-07-25T15:02:55Z</time>
      </trkpt>
      <trkpt lat="44.80742" lon="5.39305">
        <ele>635</ele>
        <time>2019-07-25T15:03:01Z</time>
      </trkpt>
      <trkpt lat="44.80702" lon="5.39307">
        <ele>619</ele>
        <time>2019-07-25T15:03:08Z</time>
      </trkpt>
      <trkpt lat="44.80692" lon="5.39298">
        <ele>618</ele>
        <time>2019-07-25T15:03:10Z</time>
      </trkpt>
      <trkpt lat="44.80675" lon="5.39265">
        <ele>622</ele>
        <time>2019-07-25T15:03:15Z</time>
      </trkpt>
      <trkpt lat="44.80648" lon="5.39201">
        <ele>618</ele>
        <time>2019-07-25T15:03:24Z</time>
      </trkpt>
      <trkpt lat="44.80649" lon="5.39177">
        <ele>620</ele>
        <time>2019-07-25T15:03:28Z</time>
      </trkpt>
      <trkpt lat="44.80641" lon="5.39117">
        <ele>621</ele>
        <time>2019-07-25T15:03:35Z</time>
      </trkpt>
      <trkpt lat="44.80658" lon="5.3907">
        <ele>628</ele>
        <time>2019-07-25T15:03:42Z</time>
      </trkpt>
      <trkpt lat="44.80654" lon="5.39053">
        <ele>631</ele>
        <time>2019-07-25T15:03:44Z</time>
      </trkpt>
      <trkpt lat="44.80642" lon="5.3904">
        <ele>633</ele>
        <time>2019-07-25T15:03:47Z</time>
      </trkpt>
      <trkpt lat="44.80626" lon="5.39043">
        <ele>631</ele>
        <time>2019-07-25T15:03:50Z</time>
      </trkpt>
      <trkpt lat="44.80594" lon="5.39062">
        <ele>623</ele>
        <time>2019-07-25T15:03:56Z</time>
      </trkpt>
      <trkpt lat="44.80528" lon="5.39107">
        <ele>607</ele>
        <time>2019-07-25T15:04:09Z</time>
      </trkpt>
      <trkpt lat="44.80501" lon="5.39114">
        <ele>604</ele>
        <time>2019-07-25T15:04:14Z</time>
      </trkpt>
      <trkpt lat="44.80415" lon="5.39109">
        <ele>595</ele>
        <time>2019-07-25T15:04:29Z</time>
      </trkpt>
      <trkpt lat="44.80393" lon="5.39104">
        <ele>591</ele>
        <time>2019-07-25T15:04:33Z</time>
      </trkpt>
      <trkpt lat="44.8038" lon="5.3909">
        <ele>591</ele>
        <time>2019-07-25T15:04:36Z</time>
      </trkpt>
      <trkpt lat="44.80336" lon="5.39027">
        <ele>588</ele>
        <time>2019-07-25T15:04:47Z</time>
      </trkpt>
      <trkpt lat="44.80323" lon="5.38986">
        <ele>589</ele>
        <time>2019-07-25T15:04:53Z</time>
      </trkpt>
      <trkpt lat="44.80315" lon="5.38971">
        <ele>589</ele>
        <time>2019-07-25T15:04:55Z</time>
      </trkpt>
      <trkpt lat="44.80283" lon="5.3894">
        <ele>582</ele>
        <time>2019-07-25T15:05:02Z</time>
      </trkpt>
      <trkpt lat="44.80274" lon="5.38923">
        <ele>582</ele>
        <time>2019-07-25T15:05:05Z</time>
      </trkpt>
      <trkpt lat="44.80257" lon="5.38881">
        <ele>581</ele>
        <time>2019-07-25T15:05:11Z</time>
      </trkpt>
      <trkpt lat="44.80228" lon="5.38836">
        <ele>577</ele>
        <time>2019-07-25T15:05:19Z</time>
      </trkpt>
      <trkpt lat="44.80218" lon="5.388">
        <ele>574</ele>
        <time>2019-07-25T15:05:23Z</time>
      </trkpt>
      <trkpt lat="44.80216" lon="5.38775">
        <ele>574</ele>
        <time>2019-07-25T15:05:27Z</time>
      </trkpt>
      <trkpt lat="44.80223" lon="5.38749">
        <ele>575</ele>
        <time>2019-07-25T15:05:30Z</time>
      </trkpt>
      <trkpt lat="44.80236" lon="5.3871">
        <ele>580</ele>
        <time>2019-07-25T15:05:36Z</time>
      </trkpt>
      <trkpt lat="44.80235" lon="5.38693">
        <ele>580</ele>
        <time>2019-07-25T15:05:38Z</time>
      </trkpt>
      <trkpt lat="44.80229" lon="5.38687">
        <ele>580</ele>
        <time>2019-07-25T15:05:39Z</time>
      </trkpt>
      <trkpt lat="44.80216" lon="5.38684">
        <ele>578</ele>
        <time>2019-07-25T15:05:41Z</time>
      </trkpt>
      <trkpt lat="44.80193" lon="5.38689">
        <ele>573</ele>
        <time>2019-07-25T15:05:46Z</time>
      </trkpt>
      <trkpt lat="44.80165" lon="5.3869">
        <ele>569</ele>
        <time>2019-07-25T15:05:50Z</time>
      </trkpt>
      <trkpt lat="44.80138" lon="5.38685">
        <ele>565</ele>
        <time>2019-07-25T15:05:55Z</time>
      </trkpt>
      <trkpt lat="44.80109" lon="5.38664">
        <ele>564</ele>
        <time>2019-07-25T15:06:01Z</time>
      </trkpt>
      <trkpt lat="44.80067" lon="5.38627">
        <ele>564</ele>
        <time>2019-07-25T15:06:10Z</time>
      </trkpt>
      <trkpt lat="44.79932" lon="5.38474">
        <ele>551</ele>
        <time>2019-07-25T15:06:41Z</time>
      </trkpt>
      <trkpt lat="44.79922" lon="5.38455">
        <ele>550</ele>
        <time>2019-07-25T15:06:44Z</time>
      </trkpt>
      <trkpt lat="44.79913" lon="5.38431">
        <ele>550</ele>
        <time>2019-07-25T15:06:47Z</time>
      </trkpt>
      <trkpt lat="44.79907" lon="5.38419">
        <ele>550</ele>
        <time>2019-07-25T15:06:49Z</time>
      </trkpt>
      <trkpt lat="44.79863" lon="5.38368">
        <ele>548</ele>
        <time>2019-07-25T15:06:59Z</time>
      </trkpt>
      <trkpt lat="44.79847" lon="5.38355">
        <ele>547</ele>
        <time>2019-07-25T15:07:02Z</time>
      </trkpt>
      <trkpt lat="44.79831" lon="5.38345">
        <ele>546</ele>
        <time>2019-07-25T15:07:06Z</time>
      </trkpt>
      <trkpt lat="44.79769" lon="5.3832">
        <ele>541</ele>
        <time>2019-07-25T15:07:17Z</time>
      </trkpt>
      <trkpt lat="44.79744" lon="5.38317">
        <ele>539</ele>
        <time>2019-07-25T15:07:22Z</time>
      </trkpt>
      <trkpt lat="44.79647" lon="5.38294">
        <ele>533</ele>
        <time>2019-07-25T15:07:39Z</time>
      </trkpt>
      <trkpt lat="44.79623" lon="5.38292">
        <ele>531</ele>
        <time>2019-07-25T15:07:43Z</time>
      </trkpt>
      <trkpt lat="44.79599" lon="5.38292">
        <ele>530</ele>
        <time>2019-07-25T15:07:48Z</time>
      </trkpt>
      <trkpt lat="44.79537" lon="5.38298">
        <ele>534</ele>
        <time>2019-07-25T15:07:59Z</time>
      </trkpt>
      <trkpt lat="44.79522" lon="5.38292">
        <ele>536</ele>
        <time>2019-07-25T15:08:01Z</time>
      </trkpt>
      <trkpt lat="44.79514" lon="5.38282">
        <ele>536</ele>
        <time>2019-07-25T15:08:03Z</time>
      </trkpt>
      <trkpt lat="44.79506" lon="5.38266">
        <ele>537</ele>
        <time>2019-07-25T15:08:06Z</time>
      </trkpt>
      <trkpt lat="44.79496" lon="5.38224">
        <ele>536</ele>
        <time>2019-07-25T15:08:11Z</time>
      </trkpt>
      <trkpt lat="44.79485" lon="5.38199">
        <ele>536</ele>
        <time>2019-07-25T15:08:15Z</time>
      </trkpt>
      <trkpt lat="44.79464" lon="5.38157">
        <ele>537</ele>
        <time>2019-07-25T15:08:22Z</time>
      </trkpt>
      <trkpt lat="44.79419" lon="5.38002">
        <ele>532</ele>
        <time>2019-07-25T15:08:43Z</time>
      </trkpt>
      <trkpt lat="44.79412" lon="5.37959">
        <ele>534</ele>
        <time>2019-07-25T15:08:48Z</time>
      </trkpt>
      <trkpt lat="44.79412" lon="5.37792">
        <ele>534</ele>
        <time>2019-07-25T15:09:09Z</time>
      </trkpt>
      <trkpt lat="44.79403" lon="5.37702">
        <ele>534</ele>
        <time>2019-07-25T15:09:21Z</time>
      </trkpt>
      <trkpt lat="44.79398" lon="5.37688">
        <ele>535</ele>
        <time>2019-07-25T15:09:23Z</time>
      </trkpt>
      <trkpt lat="44.79388" lon="5.37671">
        <ele>538</ele>
        <time>2019-07-25T15:09:26Z</time>
      </trkpt>
      <trkpt lat="44.79368" lon="5.37597">
        <ele>541</ele>
        <time>2019-07-25T15:09:36Z</time>
      </trkpt>
      <trkpt lat="44.79346" lon="5.3746">
        <ele>544</ele>
        <time>2019-07-25T15:09:53Z</time>
      </trkpt>
      <trkpt lat="44.79345" lon="5.37397">
        <ele>544</ele>
        <time>2019-07-25T15:10:01Z</time>
      </trkpt>
      <trkpt lat="44.79323" lon="5.3724">
        <ele>544</ele>
        <time>2019-07-25T15:10:22Z</time>
      </trkpt>
      <trkpt lat="44.793" lon="5.37151">
        <ele>539</ele>
        <time>2019-07-25T15:10:33Z</time>
      </trkpt>
      <trkpt lat="44.79291" lon="5.37131">
        <ele>539</ele>
        <time>2019-07-25T15:10:36Z</time>
      </trkpt>
      <trkpt lat="44.7925" lon="5.37058">
        <ele>540</ele>
        <time>2019-07-25T15:10:48Z</time>
      </trkpt>
      <trkpt lat="44.79191" lon="5.36958">
        <ele>536</ele>
        <time>2019-07-25T15:11:05Z</time>
      </trkpt>
      <trkpt lat="44.79176" lon="5.36937">
        <ele>536</ele>
        <time>2019-07-25T15:11:08Z</time>
      </trkpt>
      <trkpt lat="44.79101" lon="5.36867">
        <ele>540</ele>
        <time>2019-07-25T15:11:24Z</time>
      </trkpt>
      <trkpt lat="44.79014" lon="5.36712">
        <ele>529</ele>
        <time>2019-07-25T15:11:49Z</time>
      </trkpt>
      <trkpt lat="44.79004" lon="5.36697">
        <ele>527</ele>
        <time>2019-07-25T15:11:52Z</time>
      </trkpt>
      <trkpt lat="44.78989" lon="5.36683">
        <ele>526</ele>
        <time>2019-07-25T15:11:55Z</time>
      </trkpt>
      <trkpt lat="44.78938" lon="5.36655">
        <ele>526</ele>
        <time>2019-07-25T15:12:05Z</time>
      </trkpt>
      <trkpt lat="44.7892" lon="5.36651">
        <ele>527</ele>
        <time>2019-07-25T15:12:08Z</time>
      </trkpt>
      <trkpt lat="44.78885" lon="5.36634">
        <ele>523</ele>
        <time>2019-07-25T15:12:15Z</time>
      </trkpt>
      <trkpt lat="44.78874" lon="5.36631">
        <ele>522</ele>
        <time>2019-07-25T15:12:17Z</time>
      </trkpt>
      <trkpt lat="44.78861" lon="5.36632">
        <ele>522</ele>
        <time>2019-07-25T15:12:19Z</time>
      </trkpt>
      <trkpt lat="44.78815" lon="5.36653">
        <ele>523</ele>
        <time>2019-07-25T15:12:28Z</time>
      </trkpt>
      <trkpt lat="44.78789" lon="5.36653">
        <ele>521</ele>
        <time>2019-07-25T15:12:32Z</time>
      </trkpt>
      <trkpt lat="44.78755" lon="5.36659">
        <ele>519</ele>
        <time>2019-07-25T15:12:38Z</time>
      </trkpt>
      <trkpt lat="44.78726" lon="5.36653">
        <ele>515</ele>
        <time>2019-07-25T15:12:44Z</time>
      </trkpt>
      <trkpt lat="44.78707" lon="5.36654">
        <ele>513</ele>
        <time>2019-07-25T15:12:47Z</time>
      </trkpt>
      <trkpt lat="44.78691" lon="5.36663">
        <ele>512</ele>
        <time>2019-07-25T15:12:50Z</time>
      </trkpt>
      <trkpt lat="44.78677" lon="5.36681">
        <ele>514</ele>
        <time>2019-07-25T15:12:53Z</time>
      </trkpt>
      <trkpt lat="44.78648" lon="5.36734">
        <ele>517</ele>
        <time>2019-07-25T15:13:02Z</time>
      </trkpt>
      <trkpt lat="44.78627" lon="5.3676">
        <ele>515</ele>
        <time>2019-07-25T15:13:07Z</time>
      </trkpt>
      <trkpt lat="44.78612" lon="5.36774">
        <ele>514</ele>
        <time>2019-07-25T15:13:10Z</time>
      </trkpt>
      <trkpt lat="44.78568" lon="5.36802">
        <ele>509</ele>
        <time>2019-07-25T15:13:19Z</time>
      </trkpt>
      <trkpt lat="44.78546" lon="5.3681">
        <ele>505</ele>
        <time>2019-07-25T15:13:23Z</time>
      </trkpt>
      <trkpt lat="44.78533" lon="5.3682">
        <ele>504</ele>
        <time>2019-07-25T15:13:25Z</time>
      </trkpt>
      <trkpt lat="44.7852" lon="5.36838">
        <ele>505</ele>
        <time>2019-07-25T15:13:29Z</time>
      </trkpt>
      <trkpt lat="44.78507" lon="5.36863">
        <ele>508</ele>
        <time>2019-07-25T15:13:32Z</time>
      </trkpt>
      <trkpt lat="44.78495" lon="5.36874">
        <ele>510</ele>
        <time>2019-07-25T15:13:35Z</time>
      </trkpt>
      <trkpt lat="44.7848" lon="5.36877">
        <ele>513</ele>
        <time>2019-07-25T15:13:38Z</time>
      </trkpt>
      <trkpt lat="44.7847" lon="5.36873">
        <ele>513</ele>
        <time>2019-07-25T15:13:40Z</time>
      </trkpt>
      <trkpt lat="44.78458" lon="5.36861">
        <ele>512</ele>
        <time>2019-07-25T15:13:42Z</time>
      </trkpt>
      <trkpt lat="44.78447" lon="5.36828">
        <ele>504</ele>
        <time>2019-07-25T15:13:47Z</time>
      </trkpt>
      <trkpt lat="44.78418" lon="5.3678">
        <ele>492</ele>
        <time>2019-07-25T15:13:55Z</time>
      </trkpt>
      <trkpt lat="44.78403" lon="5.36765">
        <ele>490</ele>
        <time>2019-07-25T15:13:58Z</time>
      </trkpt>
      <trkpt lat="44.78388" lon="5.36757">
        <ele>489</ele>
        <time>2019-07-25T15:14:01Z</time>
      </trkpt>
      <trkpt lat="44.78371" lon="5.36762">
        <ele>493</ele>
        <time>2019-07-25T15:14:04Z</time>
      </trkpt>
      <trkpt lat="44.78346" lon="5.3678">
        <ele>507</ele>
        <time>2019-07-25T15:14:09Z</time>
      </trkpt>
      <trkpt lat="44.78327" lon="5.36781">
        <ele>511</ele>
        <time>2019-07-25T15:14:12Z</time>
      </trkpt>
      <trkpt lat="44.78305" lon="5.36773">
        <ele>509</ele>
        <time>2019-07-25T15:14:16Z</time>
      </trkpt>
      <trkpt lat="44.78278" lon="5.36752">
        <ele>498</ele>
        <time>2019-07-25T15:14:22Z</time>
      </trkpt>
      <trkpt lat="44.78239" lon="5.36739">
        <ele>496</ele>
        <time>2019-07-25T15:14:29Z</time>
      </trkpt>
      <trkpt lat="44.78187" lon="5.36709">
        <ele>485</ele>
        <time>2019-07-25T15:14:39Z</time>
      </trkpt>
      <trkpt lat="44.78121" lon="5.36697">
        <ele>480</ele>
        <time>2019-07-25T15:14:51Z</time>
      </trkpt>
      <trkpt lat="44.7809" lon="5.36689">
        <ele>475</ele>
        <time>2019-07-25T15:14:56Z</time>
      </trkpt>
      <trkpt lat="44.78037" lon="5.36672">
        <ele>472</ele>
        <time>2019-07-25T15:15:06Z</time>
      </trkpt>
      <trkpt lat="44.78006" lon="5.36667">
        <ele>474</ele>
        <time>2019-07-25T15:15:12Z</time>
      </trkpt>
      <trkpt lat="44.77967" lon="5.36668">
        <ele>480</ele>
        <time>2019-07-25T15:15:19Z</time>
      </trkpt>
      <trkpt lat="44.77949" lon="5.36663">
        <ele>480</ele>
        <time>2019-07-25T15:15:22Z</time>
      </trkpt>
      <trkpt lat="44.77927" lon="5.36647">
        <ele>476</ele>
        <time>2019-07-25T15:15:26Z</time>
      </trkpt>
      <trkpt lat="44.77828" lon="5.36549">
        <ele>461</ele>
        <time>2019-07-25T15:15:48Z</time>
      </trkpt>
      <trkpt lat="44.77813" lon="5.36538">
        <ele>458</ele>
        <time>2019-07-25T15:15:51Z</time>
      </trkpt>
      <trkpt lat="44.77795" lon="5.3653">
        <ele>456</ele>
        <time>2019-07-25T15:15:54Z</time>
      </trkpt>
      <trkpt lat="44.77735" lon="5.36519">
        <ele>455</ele>
        <time>2019-07-25T15:16:05Z</time>
      </trkpt>
      <trkpt lat="44.77718" lon="5.3651">
        <ele>454</ele>
        <time>2019-07-25T15:16:08Z</time>
      </trkpt>
      <trkpt lat="44.77667" lon="5.36471">
        <ele>447</ele>
        <time>2019-07-25T15:16:18Z</time>
      </trkpt>
      <trkpt lat="44.77655" lon="5.36465">
        <ele>447</ele>
        <time>2019-07-25T15:16:21Z</time>
      </trkpt>
      <trkpt lat="44.77615" lon="5.36454">
        <ele>447</ele>
        <time>2019-07-25T15:16:28Z</time>
      </trkpt>
      <trkpt lat="44.77603" lon="5.36445">
        <ele>446</ele>
        <time>2019-07-25T15:16:30Z</time>
      </trkpt>
      <trkpt lat="44.7759" lon="5.36432">
        <ele>445</ele>
        <time>2019-07-25T15:16:33Z</time>
      </trkpt>
      <trkpt lat="44.77481" lon="5.36305">
        <ele>430</ele>
        <time>2019-07-25T15:16:58Z</time>
      </trkpt>
      <trkpt lat="44.7746" lon="5.36288">
        <ele>428</ele>
        <time>2019-07-25T15:17:03Z</time>
      </trkpt>
      <trkpt lat="44.77439" lon="5.36278">
        <ele>427</ele>
        <time>2019-07-25T15:17:07Z</time>
      </trkpt>
      <trkpt lat="44.77294" lon="5.36232">
        <ele>419</ele>
        <time>2019-07-25T15:17:33Z</time>
      </trkpt>
      <trkpt lat="44.77265" lon="5.36218">
        <ele>418</ele>
        <time>2019-07-25T15:17:39Z</time>
      </trkpt>
      <trkpt lat="44.77244" lon="5.36206">
        <ele>417</ele>
        <time>2019-07-25T15:17:43Z</time>
      </trkpt>
      <trkpt lat="44.77213" lon="5.36186">
        <ele>415</ele>
        <time>2019-07-25T15:17:49Z</time>
      </trkpt>
      <trkpt lat="44.77132" lon="5.36124">
        <ele>410</ele>
        <time>2019-07-25T15:18:05Z</time>
      </trkpt>
      <trkpt lat="44.77114" lon="5.36114">
        <ele>409</ele>
        <time>2019-07-25T15:18:09Z</time>
      </trkpt>
      <trkpt lat="44.77095" lon="5.36106">
        <ele>408</ele>
        <time>2019-07-25T15:18:12Z</time>
      </trkpt>
      <trkpt lat="44.77078" lon="5.36102">
        <ele>408</ele>
        <time>2019-07-25T15:18:15Z</time>
      </trkpt>
      <trkpt lat="44.7705" lon="5.36103">
        <ele>408</ele>
        <time>2019-07-25T15:18:20Z</time>
      </trkpt>
      <trkpt lat="44.76856" lon="5.36157">
        <ele>407</ele>
        <time>2019-07-25T15:18:55Z</time>
      </trkpt>
      <trkpt lat="44.76836" lon="5.36166">
        <ele>408</ele>
        <time>2019-07-25T15:18:59Z</time>
      </trkpt>
      <trkpt lat="44.76698" lon="5.36246">
        <ele>412</ele>
        <time>2019-07-25T15:19:26Z</time>
      </trkpt>
      <trkpt lat="44.7668" lon="5.36254">
        <ele>412</ele>
        <time>2019-07-25T15:19:29Z</time>
      </trkpt>
      <trkpt lat="44.76659" lon="5.36258">
        <ele>412</ele>
        <time>2019-07-25T15:19:33Z</time>
      </trkpt>
      <trkpt lat="44.76618" lon="5.36256">
        <ele>411</ele>
        <time>2019-07-25T15:19:40Z</time>
      </trkpt>
      <trkpt lat="44.7638" lon="5.3623">
        <ele>406</ele>
        <time>2019-07-25T15:20:22Z</time>
      </trkpt>
      <trkpt lat="44.76359" lon="5.36225">
        <ele>405</ele>
        <time>2019-07-25T15:20:26Z</time>
      </trkpt>
      <trkpt lat="44.76234" lon="5.36145">
        <ele>400</ele>
        <time>2019-07-25T15:20:51Z</time>
      </trkpt>
      <trkpt lat="44.76174" lon="5.36093">
        <ele>399</ele>
        <time>2019-07-25T15:21:03Z</time>
      </trkpt>
      <trkpt lat="44.76149" lon="5.36068">
        <ele>398</ele>
        <time>2019-07-25T15:21:09Z</time>
      </trkpt>
      <trkpt lat="44.76115" lon="5.36031">
        <ele>398</ele>
        <time>2019-07-25T15:21:16Z</time>
      </trkpt>
      <trkpt lat="44.76099" lon="5.36016">
        <ele>398</ele>
        <time>2019-07-25T15:21:20Z</time>
      </trkpt>
      <trkpt lat="44.76085" lon="5.36011">
        <ele>398</ele>
        <time>2019-07-25T15:21:22Z</time>
      </trkpt>
      <trkpt lat="44.76077" lon="5.36014">
        <ele>398</ele>
        <time>2019-07-25T15:21:24Z</time>
      </trkpt>
      <trkpt lat="44.76065" lon="5.36025">
        <ele>398</ele>
        <time>2019-07-25T15:21:26Z</time>
      </trkpt>
      <trkpt lat="44.75941" lon="5.36183">
        <ele>397</ele>
        <time>2019-07-25T15:21:56Z</time>
      </trkpt>
      <trkpt lat="44.7589" lon="5.36289">
        <ele>397</ele>
        <time>2019-07-25T15:22:12Z</time>
      </trkpt>
      <trkpt lat="44.75798" lon="5.36456">
        <ele>399</ele>
        <time>2019-07-25T15:22:39Z</time>
      </trkpt>
      <trkpt lat="44.7562" lon="5.3676">
        <ele>408</ele>
        <time>2019-07-25T15:23:29Z</time>
      </trkpt>
      <trkpt lat="44.75556" lon="5.36877">
        <ele>415</ele>
        <time>2019-07-25T15:23:47Z</time>
      </trkpt>
      <trkpt lat="44.75517" lon="5.3694">
        <ele>419</ele>
        <time>2019-07-25T15:23:58Z</time>
      </trkpt>
      <trkpt lat="44.75435" lon="5.36963">
        <ele>420</ele>
        <time>2019-07-25T15:24:13Z</time>
      </trkpt>
      <trkpt lat="44.75393" lon="5.36985">
        <ele>420</ele>
        <time>2019-07-25T15:24:21Z</time>
      </trkpt>
      <trkpt lat="44.75378" lon="5.36994">
        <ele>420</ele>
        <time>2019-07-25T15:24:24Z</time>
      </trkpt>
      <trkpt lat="44.7536" lon="5.37002">
        <ele>420</ele>
        <time>2019-07-25T15:24:27Z</time>
      </trkpt>
      <trkpt lat="44.75322" lon="5.37005">
        <ele>420</ele>
        <time>2019-07-25T15:24:34Z</time>
      </trkpt>
      <trkpt lat="44.75282" lon="5.37035">
        <ele>420</ele>
        <time>2019-07-25T15:24:42Z</time>
      </trkpt>
      <trkpt lat="44.7525" lon="5.37066">
        <ele>421</ele>
        <time>2019-07-25T15:24:49Z</time>
      </trkpt>
      <trkpt lat="44.75249" lon="5.37071">
        <ele>421</ele>
        <time>2019-07-25T15:24:50Z</time>
      </trkpt>
      <trkpt lat="44.75252" lon="5.37095">
        <ele>421</ele>
        <time>2019-07-25T15:24:53Z</time>
      </trkpt>
      <trkpt lat="44.75254" lon="5.3712">
        <ele>420</ele>
        <time>2019-07-25T15:24:56Z</time>
      </trkpt>
      <trkpt lat="44.75251" lon="5.37136">
        <ele>420</ele>
        <time>2019-07-25T15:24:58Z</time>
      </trkpt>
      <trkpt lat="44.75248" lon="5.37142">
        <ele>420</ele>
        <time>2019-07-25T15:24:59Z</time>
      </trkpt>
      <trkpt lat="44.75255" lon="5.37153">
        <ele>419</ele>
        <time>2019-07-25T15:25:01Z</time>
      </trkpt>
      <trkpt lat="44.75261" lon="5.37168">
        <ele>419</ele>
        <time>2019-07-25T15:25:03Z</time>
      </trkpt>
      <trkpt lat="44.75276" lon="5.37225">
        <ele>420</ele>
        <time>2019-07-25T15:25:11Z</time>
      </trkpt>
      <trkpt lat="44.75283" lon="5.37238">
        <ele>420</ele>
        <time>2019-07-25T15:25:13Z</time>
      </trkpt>
      <trkpt lat="44.75339" lon="5.37305">
        <ele>421</ele>
        <time>2019-07-25T15:25:26Z</time>
      </trkpt>
      <trkpt lat="44.75337" lon="5.37311">
        <ele>421</ele>
        <time>2019-07-25T15:25:26Z</time>
      </trkpt>
      <trkpt lat="44.75208" lon="5.37479">
        <ele>413</ele>
        <time>2019-07-25T15:25:58Z</time>
      </trkpt>
      <trkpt lat="44.75205" lon="5.37477">
        <ele>413</ele>
        <time>2019-07-25T15:25:58Z</time>
      </trkpt>
      <trkpt lat="44.75198" lon="5.3748">
        <ele>413</ele>
        <time>2019-07-25T15:26:00Z</time>
      </trkpt>
      <trkpt lat="44.75197" lon="5.37491">
        <ele>414</ele>
        <time>2019-07-25T15:26:01Z</time>
      </trkpt>
      <trkpt lat="44.75198" lon="5.37494">
        <ele>414</ele>
        <time>2019-07-25T15:26:01Z</time>
      </trkpt>
      <trkpt lat="44.75168" lon="5.37531">
        <ele>415</ele>
        <time>2019-07-25T15:26:09Z</time>
      </trkpt>
      <trkpt lat="44.7507" lon="5.37654">
        <ele>415</ele>
        <time>2019-07-25T15:26:32Z</time>
      </trkpt>
      <trkpt lat="44.75015" lon="5.37744">
        <ele>414</ele>
        <time>2019-07-25T15:26:47Z</time>
      </trkpt>
      <trkpt lat="44.74943" lon="5.37871">
        <ele>408</ele>
        <time>2019-07-25T15:27:07Z</time>
      </trkpt>
      <trkpt lat="44.74897" lon="5.37944">
        <ele>406</ele>
        <time>2019-07-25T15:27:20Z</time>
      </trkpt>
      <trkpt lat="44.74885" lon="5.37951">
        <ele>406</ele>
        <time>2019-07-25T15:27:22Z</time>
      </trkpt>
      <trkpt lat="44.74871" lon="5.37948">
        <ele>405</ele>
        <time>2019-07-25T15:27:25Z</time>
      </trkpt>
      <trkpt lat="44.74856" lon="5.3794">
        <ele>404</ele>
        <time>2019-07-25T15:27:27Z</time>
      </trkpt>
      <trkpt lat="44.74854" lon="5.37932">
        <ele>404</ele>
        <time>2019-07-25T15:27:29Z</time>
      </trkpt>
      <trkpt lat="44.7485" lon="5.37924">
        <ele>404</ele>
        <time>2019-07-25T15:27:30Z</time>
      </trkpt>
      <trkpt lat="44.74841" lon="5.37917">
        <ele>403</ele>
        <time>2019-07-25T15:27:32Z</time>
      </trkpt>
      <trkpt lat="44.74831" lon="5.37916">
        <ele>403</ele>
        <time>2019-07-25T15:27:33Z</time>
      </trkpt>
      <trkpt lat="44.74826" lon="5.37918">
        <ele>403</ele>
        <time>2019-07-25T15:27:34Z</time>
      </trkpt>
      <trkpt lat="44.74817" lon="5.37928">
        <ele>403</ele>
        <time>2019-07-25T15:27:36Z</time>
      </trkpt>
      <trkpt lat="44.74814" lon="5.37936">
        <ele>403</ele>
        <time>2019-07-25T15:27:37Z</time>
      </trkpt>
      <trkpt lat="44.74813" lon="5.3795">
        <ele>403</ele>
        <time>2019-07-25T15:27:39Z</time>
      </trkpt>
      <trkpt lat="44.74825" lon="5.37991">
        <ele>405</ele>
        <time>2019-07-25T15:27:45Z</time>
      </trkpt>
      <trkpt lat="44.74828" lon="5.38017">
        <ele>405</ele>
        <time>2019-07-25T15:27:48Z</time>
      </trkpt>
      <trkpt lat="44.7483" lon="5.38055">
        <ele>406</ele>
        <time>2019-07-25T15:27:53Z</time>
      </trkpt>
      <trkpt lat="44.74821" lon="5.38078">
        <ele>407</ele>
        <time>2019-07-25T15:27:56Z</time>
      </trkpt>
      <trkpt lat="44.74645" lon="5.38384">
        <ele>406</ele>
        <time>2019-07-25T15:28:46Z</time>
      </trkpt>
      <trkpt lat="44.74604" lon="5.38437">
        <ele>408</ele>
        <time>2019-07-25T15:28:56Z</time>
      </trkpt>
      <trkpt lat="44.74561" lon="5.38478">
        <ele>408</ele>
        <time>2019-07-25T15:29:05Z</time>
      </trkpt>
      <trkpt lat="44.74498" lon="5.38524">
        <ele>408</ele>
        <time>2019-07-25T15:29:18Z</time>
      </trkpt>
      <trkpt lat="44.74429" lon="5.38553">
        <ele>408</ele>
        <time>2019-07-25T15:29:31Z</time>
      </trkpt>
      <trkpt lat="44.74062" lon="5.3865">
        <ele>416</ele>
        <time>2019-07-25T15:30:37Z</time>
      </trkpt>
      <trkpt lat="44.73998" lon="5.38677">
        <ele>418</ele>
        <time>2019-07-25T15:30:49Z</time>
      </trkpt>
      <trkpt lat="44.73394" lon="5.39006">
        <ele>423</ele>
        <time>2019-07-25T15:32:44Z</time>
      </trkpt>
      <trkpt lat="44.73165" lon="5.39134">
        <ele>423</ele>
        <time>2019-07-25T15:33:28Z</time>
      </trkpt>
      <trkpt lat="44.73038" lon="5.392">
        <ele>425</ele>
        <time>2019-07-25T15:33:52Z</time>
      </trkpt>
      <trkpt lat="44.7301" lon="5.39212">
        <ele>426</ele>
        <time>2019-07-25T15:33:57Z</time>
      </trkpt>
      <trkpt lat="44.72985" lon="5.39217">
        <ele>426</ele>
        <time>2019-07-25T15:34:02Z</time>
      </trkpt>
      <trkpt lat="44.72969" lon="5.39216">
        <ele>427</ele>
        <time>2019-07-25T15:34:05Z</time>
      </trkpt>
      <trkpt lat="44.72882" lon="5.39199">
        <ele>426</ele>
        <time>2019-07-25T15:34:20Z</time>
      </trkpt>
      <trkpt lat="44.72862" lon="5.39199">
        <ele>425</ele>
        <time>2019-07-25T15:34:24Z</time>
      </trkpt>
      <trkpt lat="44.72845" lon="5.39206">
        <ele>425</ele>
        <time>2019-07-25T15:34:27Z</time>
      </trkpt>
      <trkpt lat="44.72832" lon="5.39217">
        <ele>426</ele>
        <time>2019-07-25T15:34:30Z</time>
      </trkpt>
      <trkpt lat="44.72819" lon="5.3923">
        <ele>426</ele>
        <time>2019-07-25T15:34:33Z</time>
      </trkpt>
      <trkpt lat="44.72713" lon="5.39423">
        <ele>429</ele>
        <time>2019-07-25T15:35:03Z</time>
      </trkpt>
      <trkpt lat="44.72702" lon="5.39448">
        <ele>429</ele>
        <time>2019-07-25T15:35:07Z</time>
      </trkpt>
      <trkpt lat="44.72691" lon="5.3951">
        <ele>431</ele>
        <time>2019-07-25T15:35:15Z</time>
      </trkpt>
      <trkpt lat="44.72679" lon="5.39529">
        <ele>432</ele>
        <time>2019-07-25T15:35:18Z</time>
      </trkpt>
      <trkpt lat="44.72654" lon="5.39536">
        <ele>430</ele>
        <time>2019-07-25T15:35:23Z</time>
      </trkpt>
      <trkpt lat="44.72637" lon="5.39557">
        <ele>431</ele>
        <time>2019-07-25T15:35:27Z</time>
      </trkpt>
      <trkpt lat="44.72599" lon="5.39627">
        <ele>430</ele>
        <time>2019-07-25T15:35:38Z</time>
      </trkpt>
      <trkpt lat="44.7256" lon="5.39692">
        <ele>429</ele>
        <time>2019-07-25T15:35:49Z</time>
      </trkpt>
      <trkpt lat="44.72533" lon="5.39728">
        <ele>429</ele>
        <time>2019-07-25T15:35:56Z</time>
      </trkpt>
      <trkpt lat="44.72491" lon="5.39769">
        <ele>428</ele>
        <time>2019-07-25T15:36:05Z</time>
      </trkpt>
      <trkpt lat="44.72451" lon="5.39792">
        <ele>428</ele>
        <time>2019-07-25T15:36:12Z</time>
      </trkpt>
      <trkpt lat="44.72397" lon="5.39814">
        <ele>428</ele>
        <time>2019-07-25T15:36:22Z</time>
      </trkpt>
      <trkpt lat="44.72128" lon="5.3988">
        <ele>432</ele>
        <time>2019-07-25T15:37:11Z</time>
      </trkpt>
      <trkpt lat="44.71749" lon="5.40002">
        <ele>439</ele>
        <time>2019-07-25T15:38:20Z</time>
      </trkpt>
      <trkpt lat="44.71692" lon="5.40023">
        <ele>441</ele>
        <time>2019-07-25T15:38:31Z</time>
      </trkpt>
      <trkpt lat="44.71604" lon="5.40049">
        <ele>441</ele>
        <time>2019-07-25T15:38:47Z</time>
      </trkpt>
      <trkpt lat="44.71386" lon="5.40123">
        <ele>442</ele>
        <time>2019-07-25T15:39:26Z</time>
      </trkpt>
      <trkpt lat="44.71241" lon="5.40169">
        <ele>445</ele>
        <time>2019-07-25T15:39:53Z</time>
      </trkpt>
      <trkpt lat="44.71228" lon="5.40167">
        <ele>444</ele>
        <time>2019-07-25T15:39:55Z</time>
      </trkpt>
      <trkpt lat="44.71221" lon="5.40164">
        <ele>444</ele>
        <time>2019-07-25T15:39:57Z</time>
      </trkpt>
      <trkpt lat="44.71217" lon="5.4017">
        <ele>444</ele>
        <time>2019-07-25T15:39:58Z</time>
      </trkpt>
      <trkpt lat="44.71199" lon="5.40182">
        <ele>444</ele>
        <time>2019-07-25T15:40:01Z</time>
      </trkpt>
      <trkpt lat="44.71117" lon="5.40198">
        <ele>443</ele>
        <time>2019-07-25T15:40:16Z</time>
      </trkpt>
      <trkpt lat="44.71082" lon="5.40198">
        <ele>443</ele>
        <time>2019-07-25T15:40:22Z</time>
      </trkpt>
      <trkpt lat="44.71038" lon="5.4019">
        <ele>443</ele>
        <time>2019-07-25T15:40:30Z</time>
      </trkpt>
      <trkpt lat="44.71009" lon="5.40181">
        <ele>443</ele>
        <time>2019-07-25T15:40:35Z</time>
      </trkpt>
      <trkpt lat="44.70931" lon="5.40163">
        <ele>444</ele>
        <time>2019-07-25T15:40:49Z</time>
      </trkpt>
      <trkpt lat="44.70839" lon="5.40122">
        <ele>444</ele>
        <time>2019-07-25T15:41:06Z</time>
      </trkpt>
      <trkpt lat="44.70823" lon="5.40108">
        <ele>443</ele>
        <time>2019-07-25T15:41:10Z</time>
      </trkpt>
      <trkpt lat="44.70815" lon="5.40095">
        <ele>442</ele>
        <time>2019-07-25T15:41:12Z</time>
      </trkpt>
      <trkpt lat="44.70799" lon="5.40112">
        <ele>442</ele>
        <time>2019-07-25T15:41:16Z</time>
      </trkpt>
      <trkpt lat="44.70779" lon="5.40143">
        <ele>443</ele>
        <time>2019-07-25T15:41:21Z</time>
      </trkpt>
      <trkpt lat="44.70734" lon="5.40218">
        <ele>451</ele>
        <time>2019-07-25T15:41:33Z</time>
      </trkpt>
      <trkpt lat="44.70724" lon="5.4023">
        <ele>451</ele>
        <time>2019-07-25T15:41:36Z</time>
      </trkpt>
      <trkpt lat="44.70672" lon="5.40272">
        <ele>449</ele>
        <time>2019-07-25T15:41:46Z</time>
      </trkpt>
      <trkpt lat="44.70656" lon="5.4028">
        <ele>448</ele>
        <time>2019-07-25T15:41:49Z</time>
      </trkpt>
      <trkpt lat="44.70553" lon="5.40291">
        <ele>448</ele>
        <time>2019-07-25T15:42:08Z</time>
      </trkpt>
      <trkpt lat="44.70534" lon="5.40287">
        <ele>448</ele>
        <time>2019-07-25T15:42:11Z</time>
      </trkpt>
      <trkpt lat="44.70471" lon="5.40264">
        <ele>445</ele>
        <time>2019-07-25T15:42:23Z</time>
      </trkpt>
      <trkpt lat="44.7045" lon="5.40262">
        <ele>444</ele>
        <time>2019-07-25T15:42:26Z</time>
      </trkpt>
      <trkpt lat="44.70431" lon="5.40271">
        <ele>444</ele>
        <time>2019-07-25T15:42:30Z</time>
      </trkpt>
      <trkpt lat="44.70419" lon="5.40291">
        <ele>446</ele>
        <time>2019-07-25T15:42:33Z</time>
      </trkpt>
      <trkpt lat="44.70397" lon="5.40378">
        <ele>452</ele>
        <time>2019-07-25T15:42:45Z</time>
      </trkpt>
      <trkpt lat="44.70387" lon="5.40428">
        <ele>456</ele>
        <time>2019-07-25T15:42:52Z</time>
      </trkpt>
      <trkpt lat="44.70382" lon="5.40509">
        <ele>459</ele>
        <time>2019-07-25T15:43:02Z</time>
      </trkpt>
      <trkpt lat="44.70389" lon="5.40534">
        <ele>459</ele>
        <time>2019-07-25T15:43:05Z</time>
      </trkpt>
      <trkpt lat="44.7038" lon="5.4062">
        <ele>462</ele>
        <time>2019-07-25T15:43:16Z</time>
      </trkpt>
      <trkpt lat="44.70382" lon="5.40696">
        <ele>462</ele>
        <time>2019-07-25T15:43:26Z</time>
      </trkpt>
      <trkpt lat="44.70373" lon="5.40778">
        <ele>462</ele>
        <time>2019-07-25T15:43:36Z</time>
      </trkpt>
      <trkpt lat="44.70365" lon="5.40827">
        <ele>462</ele>
        <time>2019-07-25T15:43:43Z</time>
      </trkpt>
      <trkpt lat="44.70352" lon="5.4087">
        <ele>461</ele>
        <time>2019-07-25T15:43:49Z</time>
      </trkpt>
      <trkpt lat="44.70182" lon="5.41278">
        <ele>468</ele>
        <time>2019-07-25T15:44:48Z</time>
      </trkpt>
      <trkpt lat="44.70115" lon="5.41392">
        <ele>472</ele>
        <time>2019-07-25T15:45:07Z</time>
      </trkpt>
      <trkpt lat="44.70058" lon="5.41473">
        <ele>475</ele>
        <time>2019-07-25T15:45:22Z</time>
      </trkpt>
      <trkpt lat="44.69982" lon="5.41596">
        <ele>479</ele>
        <time>2019-07-25T15:45:42Z</time>
      </trkpt>
      <trkpt lat="44.69946" lon="5.41684">
        <ele>482</ele>
        <time>2019-07-25T15:45:55Z</time>
      </trkpt>
      <trkpt lat="44.69923" lon="5.4176">
        <ele>481</ele>
        <time>2019-07-25T15:46:05Z</time>
      </trkpt>
      <trkpt lat="44.69907" lon="5.41801">
        <ele>484</ele>
        <time>2019-07-25T15:46:11Z</time>
      </trkpt>
      <trkpt lat="44.69879" lon="5.41834">
        <ele>485</ele>
        <time>2019-07-25T15:46:18Z</time>
      </trkpt>
      <trkpt lat="44.69812" lon="5.41895">
        <ele>489</ele>
        <time>2019-07-25T15:46:32Z</time>
      </trkpt>
      <trkpt lat="44.69747" lon="5.41949">
        <ele>491</ele>
        <time>2019-07-25T15:46:45Z</time>
      </trkpt>
      <trkpt lat="44.69683" lon="5.42009">
        <ele>494</ele>
        <time>2019-07-25T15:46:59Z</time>
      </trkpt>
      <trkpt lat="44.69599" lon="5.42117">
        <ele>497</ele>
        <time>2019-07-25T15:47:19Z</time>
      </trkpt>
      <trkpt lat="44.69202" lon="5.42969">
        <ele>521</ele>
        <time>2019-07-25T15:49:28Z</time>
      </trkpt>
      <trkpt lat="44.69197" lon="5.42966">
        <ele>521</ele>
        <time>2019-07-25T15:49:29Z</time>
      </trkpt>
      <trkpt lat="44.69192" lon="5.42967">
        <ele>520</ele>
        <time>2019-07-25T15:49:30Z</time>
      </trkpt>
      <trkpt lat="44.69188" lon="5.4297">
        <ele>520</ele>
        <time>2019-07-25T15:49:31Z</time>
      </trkpt>
      <trkpt lat="44.69185" lon="5.42976">
        <ele>519</ele>
        <time>2019-07-25T15:49:32Z</time>
      </trkpt>
      <trkpt lat="44.69184" lon="5.42984">
        <ele>519</ele>
        <time>2019-07-25T15:49:33Z</time>
      </trkpt>
      <trkpt lat="44.69185" lon="5.42991">
        <ele>520</ele>
        <time>2019-07-25T15:49:34Z</time>
      </trkpt>
      <trkpt lat="44.69189" lon="5.42996">
        <ele>520</ele>
        <time>2019-07-25T15:49:35Z</time>
      </trkpt>
      <trkpt lat="44.69176" lon="5.43031">
        <ele>520</ele>
        <time>2019-07-25T15:49:40Z</time>
      </trkpt>
      <trkpt lat="44.69131" lon="5.43132">
        <ele>522</ele>
        <time>2019-07-25T15:49:55Z</time>
      </trkpt>
      <trkpt lat="44.69081" lon="5.43216">
        <ele>526</ele>
        <time>2019-07-25T15:50:09Z</time>
      </trkpt>
      <trkpt lat="44.6906" lon="5.43243">
        <ele>527</ele>
        <time>2019-07-25T15:50:14Z</time>
      </trkpt>
      <trkpt lat="44.69045" lon="5.43254">
        <ele>527</ele>
        <time>2019-07-25T15:50:17Z</time>
      </trkpt>
      <trkpt lat="44.6903" lon="5.43268">
        <ele>527</ele>
        <time>2019-07-25T15:50:20Z</time>
      </trkpt>
      <trkpt lat="44.69022" lon="5.43282">
        <ele>528</ele>
        <time>2019-07-25T15:50:22Z</time>
      </trkpt>
      <trkpt lat="44.69006" lon="5.43302">
        <ele>528</ele>
        <time>2019-07-25T15:50:26Z</time>
      </trkpt>
      <trkpt lat="44.68686" lon="5.43619">
        <ele>539</ele>
        <time>2019-07-25T15:51:36Z</time>
      </trkpt>
      <trkpt lat="44.68626" lon="5.43684">
        <ele>538</ele>
        <time>2019-07-25T15:51:49Z</time>
      </trkpt>
      <trkpt lat="44.68584" lon="5.43745">
        <ele>534</ele>
        <time>2019-07-25T15:52:00Z</time>
      </trkpt>
      <trkpt lat="44.68556" lon="5.43796">
        <ele>534</ele>
        <time>2019-07-25T15:52:08Z</time>
      </trkpt>
      <trkpt lat="44.68531" lon="5.43851">
        <ele>533</ele>
        <time>2019-07-25T15:52:16Z</time>
      </trkpt>
      <trkpt lat="44.68507" lon="5.43917">
        <ele>530</ele>
        <time>2019-07-25T15:52:26Z</time>
      </trkpt>
      <trkpt lat="44.68395" lon="5.44298">
        <ele>522</ele>
        <time>2019-07-25T15:53:18Z</time>
      </trkpt>
      <trkpt lat="44.68386" lon="5.4434">
        <ele>521</ele>
        <time>2019-07-25T15:53:23Z</time>
      </trkpt>
      <trkpt lat="44.68381" lon="5.44382">
        <ele>520</ele>
        <time>2019-07-25T15:53:29Z</time>
      </trkpt>
      <trkpt lat="44.6838" lon="5.444">
        <ele>520</ele>
        <time>2019-07-25T15:53:31Z</time>
      </trkpt>
      <trkpt lat="44.68384" lon="5.44463">
        <ele>520</ele>
        <time>2019-07-25T15:53:39Z</time>
      </trkpt>
      <trkpt lat="44.68429" lon="5.448">
        <ele>524</ele>
        <time>2019-07-25T15:54:22Z</time>
      </trkpt>
      <trkpt lat="44.68434" lon="5.44857">
        <ele>524</ele>
        <time>2019-07-25T15:54:30Z</time>
      </trkpt>
      <trkpt lat="44.68449" lon="5.45134">
        <ele>525</ele>
        <time>2019-07-25T15:55:05Z</time>
      </trkpt>
      <trkpt lat="44.68464" lon="5.45269">
        <ele>525</ele>
        <time>2019-07-25T15:55:22Z</time>
      </trkpt>
      <trkpt lat="44.68474" lon="5.4532">
        <ele>526</ele>
        <time>2019-07-25T15:55:29Z</time>
      </trkpt>
      <trkpt lat="44.685" lon="5.45434">
        <ele>528</ele>
        <time>2019-07-25T15:55:44Z</time>
      </trkpt>
      <trkpt lat="44.68505" lon="5.45479">
        <ele>530</ele>
        <time>2019-07-25T15:55:50Z</time>
      </trkpt>
      <trkpt lat="44.68511" lon="5.45586">
        <ele>531</ele>
        <time>2019-07-25T15:56:03Z</time>
      </trkpt>
      <trkpt lat="44.6852" lon="5.45648">
        <ele>531</ele>
        <time>2019-07-25T15:56:11Z</time>
      </trkpt>
      <trkpt lat="44.68556" lon="5.45791">
        <ele>533</ele>
        <time>2019-07-25T15:56:30Z</time>
      </trkpt>
      <trkpt lat="44.68577" lon="5.45845">
        <ele>534</ele>
        <time>2019-07-25T15:56:38Z</time>
      </trkpt>
      <trkpt lat="44.68658" lon="5.46033">
        <ele>536</ele>
        <time>2019-07-25T15:57:06Z</time>
      </trkpt>
      <trkpt lat="44.68669" lon="5.46079">
        <ele>537</ele>
        <time>2019-07-25T15:57:12Z</time>
      </trkpt>
      <trkpt lat="44.68717" lon="5.46423">
        <ele>538</ele>
        <time>2019-07-25T15:57:57Z</time>
      </trkpt>
      <trkpt lat="44.68729" lon="5.46468">
        <ele>538</ele>
        <time>2019-07-25T15:58:03Z</time>
      </trkpt>
      <trkpt lat="44.68764" lon="5.46547">
        <ele>538</ele>
        <time>2019-07-25T15:58:14Z</time>
      </trkpt>
      <trkpt lat="44.68906" lon="5.46921">
        <ele>547</ele>
        <time>2019-07-25T15:59:08Z</time>
      </trkpt>
      <trkpt lat="44.69005" lon="5.47174">
        <ele>547</ele>
        <time>2019-07-25T15:59:45Z</time>
      </trkpt>
      <trkpt lat="44.69245" lon="5.47798">
        <ele>560</ele>
        <time>2019-07-25T16:01:14Z</time>
      </trkpt>
      <trkpt lat="44.69262" lon="5.47851">
        <ele>564</ele>
        <time>2019-07-25T16:01:22Z</time>
      </trkpt>
      <trkpt lat="44.6934" lon="5.48144">
        <ele>575</ele>
        <time>2019-07-25T16:02:01Z</time>
      </trkpt>
      <trkpt lat="44.69372" lon="5.48252">
        <ele>576</ele>
        <time>2019-07-25T16:02:16Z</time>
      </trkpt>
      <trkpt lat="44.69397" lon="5.48347">
        <ele>571</ele>
        <time>2019-07-25T16:02:29Z</time>
      </trkpt>
      <trkpt lat="44.69409" lon="5.48399">
        <ele>573</ele>
        <time>2019-07-25T16:02:36Z</time>
      </trkpt>
      <trkpt lat="44.6942" lon="5.48465">
        <ele>575</ele>
        <time>2019-07-25T16:02:44Z</time>
      </trkpt>
      <trkpt lat="44.69425" lon="5.48544">
        <ele>572</ele>
        <time>2019-07-25T16:02:54Z</time>
      </trkpt>
      <trkpt lat="44.69442" lon="5.48754">
        <ele>567</ele>
        <time>2019-07-25T16:03:21Z</time>
      </trkpt>
      <trkpt lat="44.69445" lon="5.48849">
        <ele>567</ele>
        <time>2019-07-25T16:03:33Z</time>
      </trkpt>
      <trkpt lat="44.69444" lon="5.48924">
        <ele>569</ele>
        <time>2019-07-25T16:03:43Z</time>
      </trkpt>
      <trkpt lat="44.6944" lon="5.48961">
        <ele>570</ele>
        <time>2019-07-25T16:03:47Z</time>
      </trkpt>
      <trkpt lat="44.69428" lon="5.49013">
        <ele>570</ele>
        <time>2019-07-25T16:03:54Z</time>
      </trkpt>
      <trkpt lat="44.6942" lon="5.49032">
        <ele>569</ele>
        <time>2019-07-25T16:03:57Z</time>
      </trkpt>
      <trkpt lat="44.69413" lon="5.49043">
        <ele>569</ele>
        <time>2019-07-25T16:03:59Z</time>
      </trkpt>
      <trkpt lat="44.69371" lon="5.49464">
        <ele>582</ele>
        <time>2019-07-25T16:04:53Z</time>
      </trkpt>
      <trkpt lat="44.69367" lon="5.49528">
        <ele>585</ele>
        <time>2019-07-25T16:05:01Z</time>
      </trkpt>
      <trkpt lat="44.69361" lon="5.49578">
        <ele>585</ele>
        <time>2019-07-25T16:05:07Z</time>
      </trkpt>
      <trkpt lat="44.69351" lon="5.49636">
        <ele>587</ele>
        <time>2019-07-25T16:05:15Z</time>
      </trkpt>
      <trkpt lat="44.69318" lon="5.49712">
        <ele>585</ele>
        <time>2019-07-25T16:05:26Z</time>
      </trkpt>
      <trkpt lat="44.69286" lon="5.49778">
        <ele>587</ele>
        <time>2019-07-25T16:05:36Z</time>
      </trkpt>
      <trkpt lat="44.69217" lon="5.4993">
        <ele>590</ele>
        <time>2019-07-25T16:05:59Z</time>
      </trkpt>
      <trkpt lat="44.69212" lon="5.49945">
        <ele>590</ele>
        <time>2019-07-25T16:06:01Z</time>
      </trkpt>
      <trkpt lat="44.69211" lon="5.49962">
        <ele>591</ele>
        <time>2019-07-25T16:06:03Z</time>
      </trkpt>
      <trkpt lat="44.69211" lon="5.49979">
        <ele>593</ele>
        <time>2019-07-25T16:06:05Z</time>
      </trkpt>
      <trkpt lat="44.69222" lon="5.50054">
        <ele>599</ele>
        <time>2019-07-25T16:06:15Z</time>
      </trkpt>
      <trkpt lat="44.69224" lon="5.50082">
        <ele>600</ele>
        <time>2019-07-25T16:06:19Z</time>
      </trkpt>
      <trkpt lat="44.69223" lon="5.50132">
        <ele>601</ele>
        <time>2019-07-25T16:06:25Z</time>
      </trkpt>
      <trkpt lat="44.69221" lon="5.50149">
        <ele>600</ele>
        <time>2019-07-25T16:06:27Z</time>
      </trkpt>
      <trkpt lat="44.69202" lon="5.50245">
        <ele>594</ele>
        <time>2019-07-25T16:06:40Z</time>
      </trkpt>
      <trkpt lat="44.69202" lon="5.50263">
        <ele>594</ele>
        <time>2019-07-25T16:06:42Z</time>
      </trkpt>
      <trkpt lat="44.69206" lon="5.50296">
        <ele>595</ele>
        <time>2019-07-25T16:06:46Z</time>
      </trkpt>
      <trkpt lat="44.69221" lon="5.50338">
        <ele>600</ele>
        <time>2019-07-25T16:06:52Z</time>
      </trkpt>
      <trkpt lat="44.69225" lon="5.50352">
        <ele>602</ele>
        <time>2019-07-25T16:06:54Z</time>
      </trkpt>
      <trkpt lat="44.69226" lon="5.50368">
        <ele>603</ele>
        <time>2019-07-25T16:06:56Z</time>
      </trkpt>
      <trkpt lat="44.69225" lon="5.50383">
        <ele>604</ele>
        <time>2019-07-25T16:06:58Z</time>
      </trkpt>
      <trkpt lat="44.69221" lon="5.50398">
        <ele>604</ele>
        <time>2019-07-25T16:07:00Z</time>
      </trkpt>
      <trkpt lat="44.69199" lon="5.50458">
        <ele>599</ele>
        <time>2019-07-25T16:07:09Z</time>
      </trkpt>
      <trkpt lat="44.69191" lon="5.50489">
        <ele>598</ele>
        <time>2019-07-25T16:07:13Z</time>
      </trkpt>
      <trkpt lat="44.69185" lon="5.50522">
        <ele>598</ele>
        <time>2019-07-25T16:07:17Z</time>
      </trkpt>
      <trkpt lat="44.69179" lon="5.5057">
        <ele>599</ele>
        <time>2019-07-25T16:07:23Z</time>
      </trkpt>
      <trkpt lat="44.69176" lon="5.50586">
        <ele>599</ele>
        <time>2019-07-25T16:07:25Z</time>
      </trkpt>
      <trkpt lat="44.69166" lon="5.50616">
        <ele>597</ele>
        <time>2019-07-25T16:07:30Z</time>
      </trkpt>
      <trkpt lat="44.69124" lon="5.5073">
        <ele>593</ele>
        <time>2019-07-25T16:07:46Z</time>
      </trkpt>
      <trkpt lat="44.69103" lon="5.50842">
        <ele>596</ele>
        <time>2019-07-25T16:08:00Z</time>
      </trkpt>
      <trkpt lat="44.6908" lon="5.50918">
        <ele>595</ele>
        <time>2019-07-25T16:08:11Z</time>
      </trkpt>
      <trkpt lat="44.69079" lon="5.5094">
        <ele>598</ele>
        <time>2019-07-25T16:08:14Z</time>
      </trkpt>
      <trkpt lat="44.69081" lon="5.50963">
        <ele>601</ele>
        <time>2019-07-25T16:08:17Z</time>
      </trkpt>
      <trkpt lat="44.69079" lon="5.50979">
        <ele>602</ele>
        <time>2019-07-25T16:08:19Z</time>
      </trkpt>
      <trkpt lat="44.69074" lon="5.50995">
        <ele>603</ele>
        <time>2019-07-25T16:08:21Z</time>
      </trkpt>
      <trkpt lat="44.69068" lon="5.5101">
        <ele>603</ele>
        <time>2019-07-25T16:08:23Z</time>
      </trkpt>
      <trkpt lat="44.69015" lon="5.51078">
        <ele>598</ele>
        <time>2019-07-25T16:08:36Z</time>
      </trkpt>
      <trkpt lat="44.69006" lon="5.51093">
        <ele>598</ele>
        <time>2019-07-25T16:08:38Z</time>
      </trkpt>
      <trkpt lat="44.68979" lon="5.51159">
        <ele>603</ele>
        <time>2019-07-25T16:08:48Z</time>
      </trkpt>
      <trkpt lat="44.68948" lon="5.51199">
        <ele>605</ele>
        <time>2019-07-25T16:08:55Z</time>
      </trkpt>
      <trkpt lat="44.68916" lon="5.51235">
        <ele>601</ele>
        <time>2019-07-25T16:09:03Z</time>
      </trkpt>
      <trkpt lat="44.68908" lon="5.51249">
        <ele>602</ele>
        <time>2019-07-25T16:09:05Z</time>
      </trkpt>
      <trkpt lat="44.68883" lon="5.51315">
        <ele>605</ele>
        <time>2019-07-25T16:09:14Z</time>
      </trkpt>
      <trkpt lat="44.6887" lon="5.5139">
        <ele>606</ele>
        <time>2019-07-25T16:09:24Z</time>
      </trkpt>
      <trkpt lat="44.68858" lon="5.51425">
        <ele>604</ele>
        <time>2019-07-25T16:09:29Z</time>
      </trkpt>
      <trkpt lat="44.68806" lon="5.51506">
        <ele>599</ele>
        <time>2019-07-25T16:09:43Z</time>
      </trkpt>
      <trkpt lat="44.68795" lon="5.51526">
        <ele>600</ele>
        <time>2019-07-25T16:09:46Z</time>
      </trkpt>
      <trkpt lat="44.6879" lon="5.51554">
        <ele>603</ele>
        <time>2019-07-25T16:09:50Z</time>
      </trkpt>
      <trkpt lat="44.6879" lon="5.51583">
        <ele>607</ele>
        <time>2019-07-25T16:09:53Z</time>
      </trkpt>
      <trkpt lat="44.68796" lon="5.51631">
        <ele>607</ele>
        <time>2019-07-25T16:10:00Z</time>
      </trkpt>
      <trkpt lat="44.68803" lon="5.51674">
        <ele>608</ele>
        <time>2019-07-25T16:10:05Z</time>
      </trkpt>
      <trkpt lat="44.68818" lon="5.51728">
        <ele>606</ele>
        <time>2019-07-25T16:10:13Z</time>
      </trkpt>
      <trkpt lat="44.68835" lon="5.51767">
        <ele>605</ele>
        <time>2019-07-25T16:10:18Z</time>
      </trkpt>
      <trkpt lat="44.6885" lon="5.51794">
        <ele>609</ele>
        <time>2019-07-25T16:10:23Z</time>
      </trkpt>
      <trkpt lat="44.68886" lon="5.51849">
        <ele>611</ele>
        <time>2019-07-25T16:10:32Z</time>
      </trkpt>
      <trkpt lat="44.68897" lon="5.51861">
        <ele>611</ele>
        <time>2019-07-25T16:10:35Z</time>
      </trkpt>
      <trkpt lat="44.6892" lon="5.5188">
        <ele>609</ele>
        <time>2019-07-25T16:10:39Z</time>
      </trkpt>
      <trkpt lat="44.68973" lon="5.51909">
        <ele>610</ele>
        <time>2019-07-25T16:10:49Z</time>
      </trkpt>
      <trkpt lat="44.68999" lon="5.5192">
        <ele>611</ele>
        <time>2019-07-25T16:10:54Z</time>
      </trkpt>
      <trkpt lat="44.6907" lon="5.51934">
        <ele>615</ele>
        <time>2019-07-25T16:11:07Z</time>
      </trkpt>
      <trkpt lat="44.69084" lon="5.51939">
        <ele>615</ele>
        <time>2019-07-25T16:11:10Z</time>
      </trkpt>
      <trkpt lat="44.69148" lon="5.51979">
        <ele>614</ele>
        <time>2019-07-25T16:11:22Z</time>
      </trkpt>
      <trkpt lat="44.69194" lon="5.52021">
        <ele>612</ele>
        <time>2019-07-25T16:11:32Z</time>
      </trkpt>
      <trkpt lat="44.69254" lon="5.52059">
        <ele>615</ele>
        <time>2019-07-25T16:11:44Z</time>
      </trkpt>
      <trkpt lat="44.69274" lon="5.52078">
        <ele>616</ele>
        <time>2019-07-25T16:11:48Z</time>
      </trkpt>
      <trkpt lat="44.69288" lon="5.52102">
        <ele>617</ele>
        <time>2019-07-25T16:11:52Z</time>
      </trkpt>
      <trkpt lat="44.69307" lon="5.52141">
        <ele>614</ele>
        <time>2019-07-25T16:11:58Z</time>
      </trkpt>
      <trkpt lat="44.69322" lon="5.52163">
        <ele>611</ele>
        <time>2019-07-25T16:12:02Z</time>
      </trkpt>
      <trkpt lat="44.69338" lon="5.5218">
        <ele>611</ele>
        <time>2019-07-25T16:12:05Z</time>
      </trkpt>
      <trkpt lat="44.69355" lon="5.52192">
        <ele>611</ele>
        <time>2019-07-25T16:12:09Z</time>
      </trkpt>
      <trkpt lat="44.69376" lon="5.52197">
        <ele>613</ele>
        <time>2019-07-25T16:12:12Z</time>
      </trkpt>
      <trkpt lat="44.69418" lon="5.52192">
        <ele>617</ele>
        <time>2019-07-25T16:12:20Z</time>
      </trkpt>
      <trkpt lat="44.69438" lon="5.52198">
        <ele>618</ele>
        <time>2019-07-25T16:12:23Z</time>
      </trkpt>
      <trkpt lat="44.69448" lon="5.52204">
        <ele>618</ele>
        <time>2019-07-25T16:12:25Z</time>
      </trkpt>
      <trkpt lat="44.69518" lon="5.52267">
        <ele>613</ele>
        <time>2019-07-25T16:12:40Z</time>
      </trkpt>
      <trkpt lat="44.69547" lon="5.52286">
        <ele>614</ele>
        <time>2019-07-25T16:12:46Z</time>
      </trkpt>
      <trkpt lat="44.69568" lon="5.52289">
        <ele>615</ele>
        <time>2019-07-25T16:12:50Z</time>
      </trkpt>
      <trkpt lat="44.69597" lon="5.52281">
        <ele>618</ele>
        <time>2019-07-25T16:12:55Z</time>
      </trkpt>
      <trkpt lat="44.69606" lon="5.5228">
        <ele>619</ele>
        <time>2019-07-25T16:12:57Z</time>
      </trkpt>
      <trkpt lat="44.69626" lon="5.52285">
        <ele>619</ele>
        <time>2019-07-25T16:13:00Z</time>
      </trkpt>
      <trkpt lat="44.69656" lon="5.52298">
        <ele>618</ele>
        <time>2019-07-25T16:13:06Z</time>
      </trkpt>
      <trkpt lat="44.69667" lon="5.523">
        <ele>618</ele>
        <time>2019-07-25T16:13:08Z</time>
      </trkpt>
      <trkpt lat="44.69715" lon="5.52292">
        <ele>624</ele>
        <time>2019-07-25T16:13:16Z</time>
      </trkpt>
      <trkpt lat="44.69753" lon="5.52295">
        <ele>625</ele>
        <time>2019-07-25T16:13:23Z</time>
      </trkpt>
      <trkpt lat="44.69781" lon="5.52303">
        <ele>624</ele>
        <time>2019-07-25T16:13:28Z</time>
      </trkpt>
      <trkpt lat="44.69844" lon="5.52334">
        <ele>624</ele>
        <time>2019-07-25T16:13:40Z</time>
      </trkpt>
      <trkpt lat="44.69868" lon="5.52348">
        <ele>629</ele>
        <time>2019-07-25T16:13:45Z</time>
      </trkpt>
      <trkpt lat="44.69877" lon="5.52357">
        <ele>630</ele>
        <time>2019-07-25T16:13:47Z</time>
      </trkpt>
      <trkpt lat="44.69905" lon="5.5239">
        <ele>629</ele>
        <time>2019-07-25T16:13:53Z</time>
      </trkpt>
      <trkpt lat="44.69915" lon="5.52399">
        <ele>628</ele>
        <time>2019-07-25T16:13:55Z</time>
      </trkpt>
      <trkpt lat="44.69963" lon="5.52426">
        <ele>631</ele>
        <time>2019-07-25T16:14:04Z</time>
      </trkpt>
      <trkpt lat="44.69988" lon="5.52445">
        <ele>631</ele>
        <time>2019-07-25T16:14:09Z</time>
      </trkpt>
      <trkpt lat="44.70085" lon="5.52537">
        <ele>633</ele>
        <time>2019-07-25T16:14:30Z</time>
      </trkpt>
      <trkpt lat="44.70145" lon="5.52589">
        <ele>630</ele>
        <time>2019-07-25T16:14:43Z</time>
      </trkpt>
      <trkpt lat="44.7023" lon="5.52643">
        <ele>630</ele>
        <time>2019-07-25T16:14:59Z</time>
      </trkpt>
      <trkpt lat="44.70242" lon="5.52649">
        <ele>630</ele>
        <time>2019-07-25T16:15:02Z</time>
      </trkpt>
      <trkpt lat="44.70294" lon="5.52664">
        <ele>634</ele>
        <time>2019-07-25T16:15:11Z</time>
      </trkpt>
      <trkpt lat="44.70307" lon="5.52671">
        <ele>635</ele>
        <time>2019-07-25T16:15:14Z</time>
      </trkpt>
      <trkpt lat="44.70318" lon="5.5268">
        <ele>635</ele>
        <time>2019-07-25T16:15:16Z</time>
      </trkpt>
      <trkpt lat="44.70346" lon="5.52712">
        <ele>632</ele>
        <time>2019-07-25T16:15:22Z</time>
      </trkpt>
      <trkpt lat="44.70357" lon="5.52719">
        <ele>632</ele>
        <time>2019-07-25T16:15:24Z</time>
      </trkpt>
      <trkpt lat="44.70369" lon="5.52724">
        <ele>631</ele>
        <time>2019-07-25T16:15:27Z</time>
      </trkpt>
      <trkpt lat="44.70433" lon="5.52738">
        <ele>632</ele>
        <time>2019-07-25T16:15:38Z</time>
      </trkpt>
      <trkpt lat="44.70469" lon="5.52742">
        <ele>634</ele>
        <time>2019-07-25T16:15:45Z</time>
      </trkpt>
      <trkpt lat="44.70481" lon="5.52745">
        <ele>634</ele>
        <time>2019-07-25T16:15:47Z</time>
      </trkpt>
      <trkpt lat="44.70512" lon="5.52764">
        <ele>632</ele>
        <time>2019-07-25T16:15:53Z</time>
      </trkpt>
      <trkpt lat="44.70524" lon="5.52766">
        <ele>632</ele>
        <time>2019-07-25T16:15:55Z</time>
      </trkpt>
      <trkpt lat="44.70535" lon="5.52764">
        <ele>633</ele>
        <time>2019-07-25T16:15:57Z</time>
      </trkpt>
      <trkpt lat="44.70547" lon="5.5276">
        <ele>634</ele>
        <time>2019-07-25T16:15:59Z</time>
      </trkpt>
      <trkpt lat="44.70616" lon="5.52722">
        <ele>649</ele>
        <time>2019-07-25T16:16:12Z</time>
      </trkpt>
      <trkpt lat="44.70627" lon="5.52718">
        <ele>650</ele>
        <time>2019-07-25T16:16:14Z</time>
      </trkpt>
      <trkpt lat="44.70639" lon="5.52717">
        <ele>650</ele>
        <time>2019-07-25T16:16:16Z</time>
      </trkpt>
      <trkpt lat="44.70662" lon="5.52718">
        <ele>648</ele>
        <time>2019-07-25T16:16:21Z</time>
      </trkpt>
      <trkpt lat="44.70685" lon="5.52722">
        <ele>647</ele>
        <time>2019-07-25T16:16:25Z</time>
      </trkpt>
      <trkpt lat="44.70815" lon="5.52756">
        <ele>640</ele>
        <time>2019-07-25T16:16:48Z</time>
      </trkpt>
      <trkpt lat="44.7086" lon="5.52751">
        <ele>646</ele>
        <time>2019-07-25T16:16:56Z</time>
      </trkpt>
      <trkpt lat="44.70883" lon="5.52751">
        <ele>649</ele>
        <time>2019-07-25T16:17:00Z</time>
      </trkpt>
      <trkpt lat="44.70895" lon="5.52755">
        <ele>650</ele>
        <time>2019-07-25T16:17:03Z</time>
      </trkpt>
      <trkpt lat="44.70916" lon="5.5277">
        <ele>648</ele>
        <time>2019-07-25T16:17:07Z</time>
      </trkpt>
      <trkpt lat="44.70953" lon="5.52804">
        <ele>646</ele>
        <time>2019-07-25T16:17:15Z</time>
      </trkpt>
      <trkpt lat="44.70972" lon="5.52814">
        <ele>645</ele>
        <time>2019-07-25T16:17:18Z</time>
      </trkpt>
      <trkpt lat="44.71018" lon="5.5282">
        <ele>651</ele>
        <time>2019-07-25T16:17:26Z</time>
      </trkpt>
      <trkpt lat="44.71042" lon="5.52829">
        <ele>652</ele>
        <time>2019-07-25T16:17:31Z</time>
      </trkpt>
      <trkpt lat="44.71078" lon="5.52844">
        <ele>654</ele>
        <time>2019-07-25T16:17:37Z</time>
      </trkpt>
      <trkpt lat="44.711" lon="5.5285">
        <ele>654</ele>
        <time>2019-07-25T16:17:41Z</time>
      </trkpt>
      <trkpt lat="44.71185" lon="5.52848">
        <ele>657</ele>
        <time>2019-07-25T16:17:57Z</time>
      </trkpt>
      <trkpt lat="44.71218" lon="5.52843">
        <ele>656</ele>
        <time>2019-07-25T16:18:03Z</time>
      </trkpt>
      <trkpt lat="44.71253" lon="5.52841">
        <ele>654</ele>
        <time>2019-07-25T16:18:09Z</time>
      </trkpt>
      <trkpt lat="44.71274" lon="5.52837">
        <ele>653</ele>
        <time>2019-07-25T16:18:13Z</time>
      </trkpt>
      <trkpt lat="44.71318" lon="5.52822">
        <ele>656</ele>
        <time>2019-07-25T16:18:21Z</time>
      </trkpt>
      <trkpt lat="44.71411" lon="5.52812">
        <ele>654</ele>
        <time>2019-07-25T16:18:37Z</time>
      </trkpt>
      <trkpt lat="44.71439" lon="5.52817">
        <ele>650</ele>
        <time>2019-07-25T16:18:42Z</time>
      </trkpt>
      <trkpt lat="44.71474" lon="5.52827">
        <ele>645</ele>
        <time>2019-07-25T16:18:49Z</time>
      </trkpt>
      <trkpt lat="44.71491" lon="5.52829">
        <ele>644</ele>
        <time>2019-07-25T16:18:52Z</time>
      </trkpt>
      <trkpt lat="44.71505" lon="5.52828">
        <ele>644</ele>
        <time>2019-07-25T16:18:54Z</time>
      </trkpt>
      <trkpt lat="44.71511" lon="5.5283">
        <ele>644</ele>
        <time>2019-07-25T16:18:55Z</time>
      </trkpt>
      <trkpt lat="44.71515" lon="5.52834">
        <ele>642</ele>
        <time>2019-07-25T16:18:56Z</time>
      </trkpt>
      <trkpt lat="44.71532" lon="5.52888">
        <ele>641</ele>
        <time>2019-07-25T16:19:04Z</time>
      </trkpt>
      <trkpt lat="44.71554" lon="5.52972">
        <ele>647</ele>
        <time>2019-07-25T16:19:15Z</time>
      </trkpt>
      <trkpt lat="44.71565" lon="5.53033">
        <ele>652</ele>
        <time>2019-07-25T16:19:23Z</time>
      </trkpt>
      <trkpt lat="44.71589" lon="5.53123">
        <ele>654</ele>
        <time>2019-07-25T16:19:35Z</time>
      </trkpt>
      <trkpt lat="44.71595" lon="5.53152">
        <ele>655</ele>
        <time>2019-07-25T16:19:39Z</time>
      </trkpt>
      <trkpt lat="44.71599" lon="5.53164">
        <ele>656</ele>
        <time>2019-07-25T16:19:40Z</time>
      </trkpt>
      <trkpt lat="44.71604" lon="5.53175">
        <ele>657</ele>
        <time>2019-07-25T16:19:42Z</time>
      </trkpt>
      <trkpt lat="44.71611" lon="5.53185">
        <ele>658</ele>
        <time>2019-07-25T16:19:44Z</time>
      </trkpt>
      <trkpt lat="44.7162" lon="5.53193">
        <ele>660</ele>
        <time>2019-07-25T16:19:46Z</time>
      </trkpt>
      <trkpt lat="44.7164" lon="5.53207">
        <ele>663</ele>
        <time>2019-07-25T16:19:50Z</time>
      </trkpt>
      <trkpt lat="44.71661" lon="5.53227">
        <ele>663</ele>
        <time>2019-07-25T16:19:54Z</time>
      </trkpt>
      <trkpt lat="44.717" lon="5.53283">
        <ele>670</ele>
        <time>2019-07-25T16:20:04Z</time>
      </trkpt>
      <trkpt lat="44.71731" lon="5.53319">
        <ele>674</ele>
        <time>2019-07-25T16:20:11Z</time>
      </trkpt>
      <trkpt lat="44.71792" lon="5.53424">
        <ele>667</ele>
        <time>2019-07-25T16:20:28Z</time>
      </trkpt>
      <trkpt lat="44.71808" lon="5.53445">
        <ele>667</ele>
        <time>2019-07-25T16:20:32Z</time>
      </trkpt>
      <trkpt lat="44.71817" lon="5.53452">
        <ele>666</ele>
        <time>2019-07-25T16:20:34Z</time>
      </trkpt>
      <trkpt lat="44.71828" lon="5.53456">
        <ele>666</ele>
        <time>2019-07-25T16:20:36Z</time>
      </trkpt>
      <trkpt lat="44.719" lon="5.53479">
        <ele>676</ele>
        <time>2019-07-25T16:20:49Z</time>
      </trkpt>
      <trkpt lat="44.71944" lon="5.53508">
        <ele>681</ele>
        <time>2019-07-25T16:20:58Z</time>
      </trkpt>
      <trkpt lat="44.71962" lon="5.53526">
        <ele>684</ele>
        <time>2019-07-25T16:21:02Z</time>
      </trkpt>
      <trkpt lat="44.71995" lon="5.53585">
        <ele>675</ele>
        <time>2019-07-25T16:21:11Z</time>
      </trkpt>
      <trkpt lat="44.72003" lon="5.53595">
        <ele>676</ele>
        <time>2019-07-25T16:21:13Z</time>
      </trkpt>
      <trkpt lat="44.72023" lon="5.53608">
        <ele>681</ele>
        <time>2019-07-25T16:21:17Z</time>
      </trkpt>
      <trkpt lat="44.72045" lon="5.53616">
        <ele>687</ele>
        <time>2019-07-25T16:21:21Z</time>
      </trkpt>
      <trkpt lat="44.72066" lon="5.53631">
        <ele>689</ele>
        <time>2019-07-25T16:21:25Z</time>
      </trkpt>
      <trkpt lat="44.72093" lon="5.53663">
        <ele>687</ele>
        <time>2019-07-25T16:21:32Z</time>
      </trkpt>
      <trkpt lat="44.72115" lon="5.53698">
        <ele>694</ele>
        <time>2019-07-25T16:21:38Z</time>
      </trkpt>
      <trkpt lat="44.72122" lon="5.5371">
        <ele>695</ele>
        <time>2019-07-25T16:21:40Z</time>
      </trkpt>
      <trkpt lat="44.72132" lon="5.53737">
        <ele>695</ele>
        <time>2019-07-25T16:21:43Z</time>
      </trkpt>
      <trkpt lat="44.72138" lon="5.53766">
        <ele>695</ele>
        <time>2019-07-25T16:21:47Z</time>
      </trkpt>
      <trkpt lat="44.72138" lon="5.53795">
        <ele>695</ele>
        <time>2019-07-25T16:21:51Z</time>
      </trkpt>
      <trkpt lat="44.7213" lon="5.53841">
        <ele>692</ele>
        <time>2019-07-25T16:21:57Z</time>
      </trkpt>
      <trkpt lat="44.72129" lon="5.53872">
        <ele>692</ele>
        <time>2019-07-25T16:22:01Z</time>
      </trkpt>
      <trkpt lat="44.72134" lon="5.53935">
        <ele>693</ele>
        <time>2019-07-25T16:22:09Z</time>
      </trkpt>
      <trkpt lat="44.72137" lon="5.53951">
        <ele>693</ele>
        <time>2019-07-25T16:22:11Z</time>
      </trkpt>
      <trkpt lat="44.72145" lon="5.53981">
        <ele>692</ele>
        <time>2019-07-25T16:22:15Z</time>
      </trkpt>
      <trkpt lat="44.72156" lon="5.5401">
        <ele>691</ele>
        <time>2019-07-25T16:22:19Z</time>
      </trkpt>
      <trkpt lat="44.72163" lon="5.54022">
        <ele>690</ele>
        <time>2019-07-25T16:22:21Z</time>
      </trkpt>
      <trkpt lat="44.72194" lon="5.54067">
        <ele>692</ele>
        <time>2019-07-25T16:22:29Z</time>
      </trkpt>
      <trkpt lat="44.72207" lon="5.54092">
        <ele>692</ele>
        <time>2019-07-25T16:22:33Z</time>
      </trkpt>
      <trkpt lat="44.72215" lon="5.54102">
        <ele>693</ele>
        <time>2019-07-25T16:22:35Z</time>
      </trkpt>
      <trkpt lat="44.72243" lon="5.54128">
        <ele>695</ele>
        <time>2019-07-25T16:22:41Z</time>
      </trkpt>
      <trkpt lat="44.72267" lon="5.54163">
        <ele>696</ele>
        <time>2019-07-25T16:22:47Z</time>
      </trkpt>
      <trkpt lat="44.72281" lon="5.54189">
        <ele>699</ele>
        <time>2019-07-25T16:22:51Z</time>
      </trkpt>
      <trkpt lat="44.72306" lon="5.54245">
        <ele>700</ele>
        <time>2019-07-25T16:22:59Z</time>
      </trkpt>
      <trkpt lat="44.72322" lon="5.54269">
        <ele>701</ele>
        <time>2019-07-25T16:23:04Z</time>
      </trkpt>
      <trkpt lat="44.72336" lon="5.54294">
        <ele>701</ele>
        <time>2019-07-25T16:23:08Z</time>
      </trkpt>
      <trkpt lat="44.72372" lon="5.54393">
        <ele>709</ele>
        <time>2019-07-25T16:23:22Z</time>
      </trkpt>
      <trkpt lat="44.7239" lon="5.5445">
        <ele>714</ele>
        <time>2019-07-25T16:23:30Z</time>
      </trkpt>
      <trkpt lat="44.72396" lon="5.54461">
        <ele>715</ele>
        <time>2019-07-25T16:23:31Z</time>
      </trkpt>
      <trkpt lat="44.72399" lon="5.54462">
        <ele>716</ele>
        <time>2019-07-25T16:23:32Z</time>
      </trkpt>
      <trkpt lat="44.72402" lon="5.54459">
        <ele>717</ele>
        <time>2019-07-25T16:23:33Z</time>
      </trkpt>
      <trkpt lat="44.72404" lon="5.54455">
        <ele>718</ele>
        <time>2019-07-25T16:23:33Z</time>
      </trkpt>
      <trkpt lat="44.7239" lon="5.54407">
        <ele>716</ele>
        <time>2019-07-25T16:23:40Z</time>
      </trkpt>
      <trkpt lat="44.7238" lon="5.54338">
        <ele>716</ele>
        <time>2019-07-25T16:23:49Z</time>
      </trkpt>
      <trkpt lat="44.72375" lon="5.5431">
        <ele>719</ele>
        <time>2019-07-25T16:23:52Z</time>
      </trkpt>
      <trkpt lat="44.72361" lon="5.54274">
        <ele>719</ele>
        <time>2019-07-25T16:23:57Z</time>
      </trkpt>
      <trkpt lat="44.72353" lon="5.54248">
        <ele>719</ele>
        <time>2019-07-25T16:24:01Z</time>
      </trkpt>
      <trkpt lat="44.72345" lon="5.5421">
        <ele>722</ele>
        <time>2019-07-25T16:24:06Z</time>
      </trkpt>
      <trkpt lat="44.72317" lon="5.5414">
        <ele>722</ele>
        <time>2019-07-25T16:24:16Z</time>
      </trkpt>
      <trkpt lat="44.72302" lon="5.54117">
        <ele>720</ele>
        <time>2019-07-25T16:24:20Z</time>
      </trkpt>
      <trkpt lat="44.723" lon="5.5411">
        <ele>721</ele>
        <time>2019-07-25T16:24:21Z</time>
      </trkpt>
      <trkpt lat="44.723" lon="5.54103">
        <ele>722</ele>
        <time>2019-07-25T16:24:22Z</time>
      </trkpt>
      <trkpt lat="44.72303" lon="5.54098">
        <ele>725</ele>
        <time>2019-07-25T16:24:23Z</time>
      </trkpt>
      <trkpt lat="44.72309" lon="5.54097">
        <ele>727</ele>
        <time>2019-07-25T16:24:24Z</time>
      </trkpt>
      <trkpt lat="44.72314" lon="5.54099">
        <ele>729</ele>
        <time>2019-07-25T16:24:25Z</time>
      </trkpt>
      <trkpt lat="44.72323" lon="5.54113">
        <ele>730</ele>
        <time>2019-07-25T16:24:27Z</time>
      </trkpt>
      <trkpt lat="44.72341" lon="5.54148">
        <ele>732</ele>
        <time>2019-07-25T16:24:33Z</time>
      </trkpt>
      <trkpt lat="44.72365" lon="5.54186">
        <ele>738</ele>
        <time>2019-07-25T16:24:39Z</time>
      </trkpt>
      <trkpt lat="44.7237" lon="5.54201">
        <ele>738</ele>
        <time>2019-07-25T16:24:41Z</time>
      </trkpt>
      <trkpt lat="44.72378" lon="5.54233">
        <ele>737</ele>
        <time>2019-07-25T16:24:46Z</time>
      </trkpt>
      <trkpt lat="44.72383" lon="5.54248">
        <ele>737</ele>
        <time>2019-07-25T16:24:48Z</time>
      </trkpt>
      <trkpt lat="44.72397" lon="5.54273">
        <ele>740</ele>
        <time>2019-07-25T16:24:52Z</time>
      </trkpt>
      <trkpt lat="44.72419" lon="5.54304">
        <ele>744</ele>
        <time>2019-07-25T16:24:57Z</time>
      </trkpt>
      <trkpt lat="44.72424" lon="5.54317">
        <ele>744</ele>
        <time>2019-07-25T16:24:59Z</time>
      </trkpt>
      <trkpt lat="44.72436" lon="5.54363">
        <ele>745</ele>
        <time>2019-07-25T16:25:05Z</time>
      </trkpt>
      <trkpt lat="44.72453" lon="5.54407">
        <ele>749</ele>
        <time>2019-07-25T16:25:12Z</time>
      </trkpt>
      <trkpt lat="44.72456" lon="5.54422">
        <ele>749</ele>
        <time>2019-07-25T16:25:14Z</time>
      </trkpt>
      <trkpt lat="44.72463" lon="5.54539">
        <ele>741</ele>
        <time>2019-07-25T16:25:28Z</time>
      </trkpt>
      <trkpt lat="44.72471" lon="5.54586">
        <ele>739</ele>
        <time>2019-07-25T16:25:34Z</time>
      </trkpt>
      <trkpt lat="44.72476" lon="5.54598">
        <ele>740</ele>
        <time>2019-07-25T16:25:36Z</time>
      </trkpt>
      <trkpt lat="44.72492" lon="5.54619">
        <ele>743</ele>
        <time>2019-07-25T16:25:40Z</time>
      </trkpt>
      <trkpt lat="44.72533" lon="5.54657">
        <ele>748</ele>
        <time>2019-07-25T16:25:49Z</time>
      </trkpt>
      <trkpt lat="44.72561" lon="5.54688">
        <ele>747</ele>
        <time>2019-07-25T16:25:55Z</time>
      </trkpt>
      <trkpt lat="44.72582" lon="5.54701">
        <ele>748</ele>
        <time>2019-07-25T16:25:59Z</time>
      </trkpt>
      <trkpt lat="44.72605" lon="5.54708">
        <ele>749</ele>
        <time>2019-07-25T16:26:03Z</time>
      </trkpt>
      <trkpt lat="44.72627" lon="5.54711">
        <ele>751</ele>
        <time>2019-07-25T16:26:07Z</time>
      </trkpt>
      <trkpt lat="44.72672" lon="5.54711">
        <ele>758</ele>
        <time>2019-07-25T16:26:15Z</time>
      </trkpt>
      <trkpt lat="44.72739" lon="5.54739">
        <ele>761</ele>
        <time>2019-07-25T16:26:28Z</time>
      </trkpt>
      <trkpt lat="44.72792" lon="5.54777">
        <ele>757</ele>
        <time>2019-07-25T16:26:38Z</time>
      </trkpt>
      <trkpt lat="44.72803" lon="5.54784">
        <ele>756</ele>
        <time>2019-07-25T16:26:41Z</time>
      </trkpt>
      <trkpt lat="44.72826" lon="5.54789">
        <ele>759</ele>
        <time>2019-07-25T16:26:45Z</time>
      </trkpt>
      <trkpt lat="44.72862" lon="5.54792">
        <ele>764</ele>
        <time>2019-07-25T16:26:51Z</time>
      </trkpt>
      <trkpt lat="44.72932" lon="5.54808">
        <ele>766</ele>
        <time>2019-07-25T16:27:04Z</time>
      </trkpt>
      <trkpt lat="44.72954" lon="5.54807">
        <ele>768</ele>
        <time>2019-07-25T16:27:08Z</time>
      </trkpt>
      <trkpt lat="44.72999" lon="5.54786">
        <ele>778</ele>
        <time>2019-07-25T16:27:16Z</time>
      </trkpt>
      <trkpt lat="44.73046" lon="5.54775">
        <ele>782</ele>
        <time>2019-07-25T16:27:25Z</time>
      </trkpt>
      <trkpt lat="44.7307" lon="5.54772">
        <ele>783</ele>
        <time>2019-07-25T16:27:29Z</time>
      </trkpt>
      <trkpt lat="44.73093" lon="5.54774">
        <ele>783</ele>
        <time>2019-07-25T16:27:33Z</time>
      </trkpt>
      <trkpt lat="44.73114" lon="5.54785">
        <ele>783</ele>
        <time>2019-07-25T16:27:37Z</time>
      </trkpt>
      <trkpt lat="44.7319" lon="5.54851">
        <ele>778</ele>
        <time>2019-07-25T16:27:53Z</time>
      </trkpt>
      <trkpt lat="44.73199" lon="5.54857">
        <ele>777</ele>
        <time>2019-07-25T16:27:55Z</time>
      </trkpt>
      <trkpt lat="44.73208" lon="5.54859">
        <ele>778</ele>
        <time>2019-07-25T16:27:56Z</time>
      </trkpt>
      <trkpt lat="44.73218" lon="5.54858">
        <ele>778</ele>
        <time>2019-07-25T16:27:58Z</time>
      </trkpt>
      <trkpt lat="44.73226" lon="5.54852">
        <ele>780</ele>
        <time>2019-07-25T16:28:00Z</time>
      </trkpt>
      <trkpt lat="44.7325" lon="5.54822">
        <ele>788</ele>
        <time>2019-07-25T16:28:05Z</time>
      </trkpt>
      <trkpt lat="44.7326" lon="5.54813">
        <ele>790</ele>
        <time>2019-07-25T16:28:07Z</time>
      </trkpt>
      <trkpt lat="44.73306" lon="5.54785">
        <ele>795</ele>
        <time>2019-07-25T16:28:16Z</time>
      </trkpt>
      <trkpt lat="44.73337" lon="5.54759">
        <ele>802</ele>
        <time>2019-07-25T16:28:23Z</time>
      </trkpt>
      <trkpt lat="44.73359" lon="5.54748">
        <ele>806</ele>
        <time>2019-07-25T16:28:27Z</time>
      </trkpt>
      <trkpt lat="44.73369" lon="5.54748">
        <ele>806</ele>
        <time>2019-07-25T16:28:29Z</time>
      </trkpt>
      <trkpt lat="44.7338" lon="5.54747">
        <ele>807</ele>
        <time>2019-07-25T16:28:31Z</time>
      </trkpt>
      <trkpt lat="44.73454" lon="5.54756">
        <ele>811</ele>
        <time>2019-07-25T16:28:44Z</time>
      </trkpt>
      <trkpt lat="44.73513" lon="5.54774">
        <ele>815</ele>
        <time>2019-07-25T16:28:55Z</time>
      </trkpt>
      <trkpt lat="44.73616" lon="5.54842">
        <ele>813</ele>
        <time>2019-07-25T16:29:15Z</time>
      </trkpt>
      <trkpt lat="44.73626" lon="5.54848">
        <ele>813</ele>
        <time>2019-07-25T16:29:17Z</time>
      </trkpt>
      <trkpt lat="44.73636" lon="5.5485">
        <ele>814</ele>
        <time>2019-07-25T16:29:19Z</time>
      </trkpt>
      <trkpt lat="44.73657" lon="5.54851">
        <ele>818</ele>
        <time>2019-07-25T16:29:22Z</time>
      </trkpt>
      <trkpt lat="44.73699" lon="5.54844">
        <ele>823</ele>
        <time>2019-07-25T16:29:30Z</time>
      </trkpt>
      <trkpt lat="44.73722" lon="5.54845">
        <ele>824</ele>
        <time>2019-07-25T16:29:34Z</time>
      </trkpt>
      <trkpt lat="44.73751" lon="5.54851">
        <ele>822</ele>
        <time>2019-07-25T16:29:39Z</time>
      </trkpt>
      <trkpt lat="44.73771" lon="5.5485">
        <ele>823</ele>
        <time>2019-07-25T16:29:43Z</time>
      </trkpt>
      <trkpt lat="44.73826" lon="5.54825">
        <ele>832</ele>
        <time>2019-07-25T16:29:53Z</time>
      </trkpt>
      <trkpt lat="44.7385" lon="5.54817">
        <ele>837</ele>
        <time>2019-07-25T16:29:57Z</time>
      </trkpt>
      <trkpt lat="44.73869" lon="5.54818">
        <ele>837</ele>
        <time>2019-07-25T16:30:01Z</time>
      </trkpt>
      <trkpt lat="44.73913" lon="5.54833">
        <ele>836</ele>
        <time>2019-07-25T16:30:09Z</time>
      </trkpt>
      <trkpt lat="44.73918" lon="5.54837">
        <ele>836</ele>
        <time>2019-07-25T16:30:10Z</time>
      </trkpt>
      <trkpt lat="44.73924" lon="5.54851">
        <ele>837</ele>
        <time>2019-07-25T16:30:12Z</time>
      </trkpt>
      <trkpt lat="44.73925" lon="5.54858">
        <ele>837</ele>
        <time>2019-07-25T16:30:13Z</time>
      </trkpt>
      <trkpt lat="44.73924" lon="5.54865">
        <ele>836</ele>
        <time>2019-07-25T16:30:14Z</time>
      </trkpt>
      <trkpt lat="44.7392" lon="5.54873">
        <ele>835</ele>
        <time>2019-07-25T16:30:15Z</time>
      </trkpt>
      <trkpt lat="44.73895" lon="5.54901">
        <ele>830</ele>
        <time>2019-07-25T16:30:21Z</time>
      </trkpt>
      <trkpt lat="44.73883" lon="5.54917">
        <ele>826</ele>
        <time>2019-07-25T16:30:24Z</time>
      </trkpt>
      <trkpt lat="44.73873" lon="5.54936">
        <ele>827</ele>
        <time>2019-07-25T16:30:27Z</time>
      </trkpt>
      <trkpt lat="44.73841" lon="5.55017">
        <ele>835</ele>
        <time>2019-07-25T16:30:38Z</time>
      </trkpt>
      <trkpt lat="44.7383" lon="5.5504">
        <ele>837</ele>
        <time>2019-07-25T16:30:42Z</time>
      </trkpt>
      <trkpt lat="44.73821" lon="5.55053">
        <ele>837</ele>
        <time>2019-07-25T16:30:44Z</time>
      </trkpt>
      <trkpt lat="44.73788" lon="5.55095">
        <ele>841</ele>
        <time>2019-07-25T16:30:52Z</time>
      </trkpt>
      <trkpt lat="44.73768" lon="5.55116">
        <ele>843</ele>
        <time>2019-07-25T16:30:56Z</time>
      </trkpt>
      <trkpt lat="44.7375" lon="5.55143">
        <ele>846</ele>
        <time>2019-07-25T16:31:01Z</time>
      </trkpt>
      <trkpt lat="44.73735" lon="5.55161">
        <ele>848</ele>
        <time>2019-07-25T16:31:05Z</time>
      </trkpt>
      <trkpt lat="44.73717" lon="5.55178">
        <ele>849</ele>
        <time>2019-07-25T16:31:09Z</time>
      </trkpt>
      <trkpt lat="44.73695" lon="5.55187">
        <ele>847</ele>
        <time>2019-07-25T16:31:13Z</time>
      </trkpt>
      <trkpt lat="44.73659" lon="5.55185">
        <ele>842</ele>
        <time>2019-07-25T16:31:19Z</time>
      </trkpt>
      <trkpt lat="44.73651" lon="5.55188">
        <ele>842</ele>
        <time>2019-07-25T16:31:20Z</time>
      </trkpt>
      <trkpt lat="44.73644" lon="5.55193">
        <ele>842</ele>
        <time>2019-07-25T16:31:22Z</time>
      </trkpt>
      <trkpt lat="44.73636" lon="5.55208">
        <ele>843</ele>
        <time>2019-07-25T16:31:24Z</time>
      </trkpt>
      <trkpt lat="44.73634" lon="5.55217">
        <ele>844</ele>
        <time>2019-07-25T16:31:25Z</time>
      </trkpt>
      <trkpt lat="44.73633" lon="5.55233">
        <ele>846</ele>
        <time>2019-07-25T16:31:27Z</time>
      </trkpt>
      <trkpt lat="44.73637" lon="5.553">
        <ele>851</ele>
        <time>2019-07-25T16:31:36Z</time>
      </trkpt>
      <trkpt lat="44.73648" lon="5.5534">
        <ele>855</ele>
        <time>2019-07-25T16:31:41Z</time>
      </trkpt>
      <trkpt lat="44.7366" lon="5.55372">
        <ele>858</ele>
        <time>2019-07-25T16:31:46Z</time>
      </trkpt>
      <trkpt lat="44.737" lon="5.5545">
        <ele>865</ele>
        <time>2019-07-25T16:31:58Z</time>
      </trkpt>
      <trkpt lat="44.73702" lon="5.55447">
        <ele>865</ele>
        <time>2019-07-25T16:31:59Z</time>
      </trkpt>
      <trkpt lat="44.737" lon="5.5543">
        <ele>864</ele>
        <time>2019-07-25T16:32:01Z</time>
      </trkpt>
      <trkpt lat="44.73703" lon="5.55411">
        <ele>863</ele>
        <time>2019-07-25T16:32:03Z</time>
      </trkpt>
      <trkpt lat="44.73706" lon="5.55409">
        <ele>864</ele>
        <time>2019-07-25T16:32:04Z</time>
      </trkpt>
      <trkpt lat="44.73713" lon="5.55376">
        <ele>865</ele>
        <time>2019-07-25T16:32:08Z</time>
      </trkpt>
      <trkpt lat="44.73732" lon="5.5539">
        <ele>868</ele>
        <time>2019-07-25T16:32:12Z</time>
      </trkpt>
      <trkpt lat="44.73754" lon="5.55414">
        <ele>870</ele>
        <time>2019-07-25T16:32:17Z</time>
      </trkpt>
      <trkpt lat="44.73758" lon="5.55406">
        <ele>871</ele>
        <time>2019-07-25T16:32:18Z</time>
      </trkpt>
      <trkpt lat="44.73769" lon="5.55395">
        <ele>875</ele>
        <time>2019-07-25T16:32:21Z</time>
      </trkpt>
      <trkpt lat="44.73778" lon="5.55391">
        <ele>878</ele>
        <time>2019-07-25T16:32:22Z</time>
      </trkpt>
      <trkpt lat="44.7376" lon="5.55263">
        <ele>875</ele>
        <time>2019-07-25T16:32:39Z</time>
      </trkpt>
      <trkpt lat="44.7376" lon="5.55253">
        <ele>875</ele>
        <time>2019-07-25T16:32:40Z</time>
      </trkpt>
      <trkpt lat="44.73763" lon="5.55242">
        <ele>874</ele>
        <time>2019-07-25T16:32:42Z</time>
      </trkpt>
      <trkpt lat="44.73769" lon="5.55233">
        <ele>873</ele>
        <time>2019-07-25T16:32:43Z</time>
      </trkpt>
      <trkpt lat="44.73794" lon="5.55207">
        <ele>874</ele>
        <time>2019-07-25T16:32:49Z</time>
      </trkpt>
      <trkpt lat="44.73803" lon="5.55203">
        <ele>875</ele>
        <time>2019-07-25T16:32:50Z</time>
      </trkpt>
      <trkpt lat="44.73834" lon="5.55199">
        <ele>883</ele>
        <time>2019-07-25T16:32:56Z</time>
      </trkpt>
      <trkpt lat="44.73859" lon="5.55192">
        <ele>887</ele>
        <time>2019-07-25T16:33:00Z</time>
      </trkpt>
      <trkpt lat="44.73908" lon="5.55165">
        <ele>890</ele>
        <time>2019-07-25T16:33:10Z</time>
      </trkpt>
      <trkpt lat="44.73929" lon="5.55147">
        <ele>891</ele>
        <time>2019-07-25T16:33:14Z</time>
      </trkpt>
      <trkpt lat="44.73967" lon="5.55104">
        <ele>889</ele>
        <time>2019-07-25T16:33:23Z</time>
      </trkpt>
      <trkpt lat="44.73977" lon="5.55095">
        <ele>888</ele>
        <time>2019-07-25T16:33:25Z</time>
      </trkpt>
      <trkpt lat="44.74024" lon="5.55066">
        <ele>895</ele>
        <time>2019-07-25T16:33:34Z</time>
      </trkpt>
      <trkpt lat="44.74056" lon="5.5504">
        <ele>900</ele>
        <time>2019-07-25T16:33:41Z</time>
      </trkpt>
      <trkpt lat="44.74073" lon="5.55018">
        <ele>898</ele>
        <time>2019-07-25T16:33:45Z</time>
      </trkpt>
      <trkpt lat="44.74095" lon="5.54978">
        <ele>897</ele>
        <time>2019-07-25T16:33:51Z</time>
      </trkpt>
      <trkpt lat="44.74129" lon="5.54931">
        <ele>903</ele>
        <time>2019-07-25T16:34:00Z</time>
      </trkpt>
      <trkpt lat="44.74151" lon="5.5489">
        <ele>903</ele>
        <time>2019-07-25T16:34:06Z</time>
      </trkpt>
      <trkpt lat="44.74176" lon="5.54856">
        <ele>903</ele>
        <time>2019-07-25T16:34:12Z</time>
      </trkpt>
      <trkpt lat="44.74193" lon="5.54834">
        <ele>903</ele>
        <time>2019-07-25T16:34:16Z</time>
      </trkpt>
      <trkpt lat="44.74221" lon="5.54808">
        <ele>909</ele>
        <time>2019-07-25T16:34:22Z</time>
      </trkpt>
      <trkpt lat="44.74269" lon="5.54748">
        <ele>913</ele>
        <time>2019-07-25T16:34:34Z</time>
      </trkpt>
      <trkpt lat="44.74303" lon="5.5473">
        <ele>923</ele>
        <time>2019-07-25T16:34:40Z</time>
      </trkpt>
      <trkpt lat="44.74311" lon="5.5472">
        <ele>924</ele>
        <time>2019-07-25T16:34:42Z</time>
      </trkpt>
      <trkpt lat="44.74318" lon="5.54708">
        <ele>925</ele>
        <time>2019-07-25T16:34:44Z</time>
      </trkpt>
      <trkpt lat="44.74322" lon="5.54693">
        <ele>923</ele>
        <time>2019-07-25T16:34:46Z</time>
      </trkpt>
      <trkpt lat="44.74331" lon="5.54649">
        <ele>921</ele>
        <time>2019-07-25T16:34:52Z</time>
      </trkpt>
      <trkpt lat="44.74331" lon="5.54633">
        <ele>921</ele>
        <time>2019-07-25T16:34:54Z</time>
      </trkpt>
      <trkpt lat="44.74325" lon="5.54559">
        <ele>925</ele>
        <time>2019-07-25T16:35:03Z</time>
      </trkpt>
      <trkpt lat="44.74322" lon="5.54539">
        <ele>929</ele>
        <time>2019-07-25T16:35:06Z</time>
      </trkpt>
      <trkpt lat="44.74315" lon="5.54513">
        <ele>934</ele>
        <time>2019-07-25T16:35:09Z</time>
      </trkpt>
      <trkpt lat="44.74312" lon="5.5451">
        <ele>935</ele>
        <time>2019-07-25T16:35:10Z</time>
      </trkpt>
      <trkpt lat="44.74305" lon="5.54508">
        <ele>935</ele>
        <time>2019-07-25T16:35:11Z</time>
      </trkpt>
      <trkpt lat="44.74286" lon="5.54509">
        <ele>934</ele>
        <time>2019-07-25T16:35:15Z</time>
      </trkpt>
      <trkpt lat="44.74227" lon="5.54523">
        <ele>927</ele>
        <time>2019-07-25T16:35:25Z</time>
      </trkpt>
      <trkpt lat="44.74204" lon="5.54523">
        <ele>925</ele>
        <time>2019-07-25T16:35:30Z</time>
      </trkpt>
      <trkpt lat="44.74182" lon="5.54516">
        <ele>926</ele>
        <time>2019-07-25T16:35:34Z</time>
      </trkpt>
      <trkpt lat="44.74135" lon="5.54482">
        <ele>939</ele>
        <time>2019-07-25T16:35:43Z</time>
      </trkpt>
      <trkpt lat="44.74125" lon="5.54479">
        <ele>941</ele>
        <time>2019-07-25T16:35:45Z</time>
      </trkpt>
      <trkpt lat="44.74115" lon="5.54478">
        <ele>942</ele>
        <time>2019-07-25T16:35:47Z</time>
      </trkpt>
      <trkpt lat="44.74085" lon="5.54483">
        <ele>940</ele>
        <time>2019-07-25T16:35:52Z</time>
      </trkpt>
      <trkpt lat="44.74041" lon="5.545">
        <ele>939</ele>
        <time>2019-07-25T16:36:00Z</time>
      </trkpt>
      <trkpt lat="44.7396" lon="5.54522">
        <ele>949</ele>
        <time>2019-07-25T16:36:15Z</time>
      </trkpt>
      <trkpt lat="44.73956" lon="5.5452">
        <ele>951</ele>
        <time>2019-07-25T16:36:15Z</time>
      </trkpt>
      <trkpt lat="44.73954" lon="5.54515">
        <ele>954</ele>
        <time>2019-07-25T16:36:16Z</time>
      </trkpt>
      <trkpt lat="44.73954" lon="5.5451">
        <ele>956</ele>
        <time>2019-07-25T16:36:17Z</time>
      </trkpt>
      <trkpt lat="44.73956" lon="5.54504">
        <ele>958</ele>
        <time>2019-07-25T16:36:18Z</time>
      </trkpt>
      <trkpt lat="44.73965" lon="5.54499">
        <ele>958</ele>
        <time>2019-07-25T16:36:19Z</time>
      </trkpt>
      <trkpt lat="44.73989" lon="5.54499">
        <ele>950</ele>
        <time>2019-07-25T16:36:24Z</time>
      </trkpt>
      <trkpt lat="44.74014" lon="5.5449">
        <ele>949</ele>
        <time>2019-07-25T16:36:28Z</time>
      </trkpt>
      <trkpt lat="44.74041" lon="5.54474">
        <ele>952</ele>
        <time>2019-07-25T16:36:33Z</time>
      </trkpt>
      <trkpt lat="44.74088" lon="5.54443">
        <ele>960</ele>
        <time>2019-07-25T16:36:43Z</time>
      </trkpt>
      <trkpt lat="44.74118" lon="5.54429">
        <ele>965</ele>
        <time>2019-07-25T16:36:48Z</time>
      </trkpt>
      <trkpt lat="44.74138" lon="5.54431">
        <ele>964</ele>
        <time>2019-07-25T16:36:52Z</time>
      </trkpt>
      <trkpt lat="44.74156" lon="5.54438">
        <ele>959</ele>
        <time>2019-07-25T16:36:55Z</time>
      </trkpt>
      <trkpt lat="44.74172" lon="5.54448">
        <ele>954</ele>
        <time>2019-07-25T16:36:58Z</time>
      </trkpt>
      <trkpt lat="44.7418" lon="5.54451">
        <ele>953</ele>
        <time>2019-07-25T16:37:00Z</time>
      </trkpt>
      <trkpt lat="44.74189" lon="5.54451">
        <ele>953</ele>
        <time>2019-07-25T16:37:01Z</time>
      </trkpt>
      <trkpt lat="44.74197" lon="5.54446">
        <ele>956</ele>
        <time>2019-07-25T16:37:03Z</time>
      </trkpt>
      <trkpt lat="44.74214" lon="5.54431">
        <ele>962</ele>
        <time>2019-07-25T16:37:07Z</time>
      </trkpt>
      <trkpt lat="44.74234" lon="5.54421">
        <ele>966</ele>
        <time>2019-07-25T16:37:10Z</time>
      </trkpt>
      <trkpt lat="44.74245" lon="5.5442">
        <ele>967</ele>
        <time>2019-07-25T16:37:12Z</time>
      </trkpt>
      <trkpt lat="44.7428" lon="5.54424">
        <ele>966</ele>
        <time>2019-07-25T16:37:18Z</time>
      </trkpt>
      <trkpt lat="44.74292" lon="5.54423">
        <ele>966</ele>
        <time>2019-07-25T16:37:21Z</time>
      </trkpt>
      <trkpt lat="44.74315" lon="5.54419">
        <ele>968</ele>
        <time>2019-07-25T16:37:25Z</time>
      </trkpt>
      <trkpt lat="44.74349" lon="5.5441">
        <ele>973</ele>
        <time>2019-07-25T16:37:31Z</time>
      </trkpt>
      <trkpt lat="44.74371" lon="5.54408">
        <ele>974</ele>
        <time>2019-07-25T16:37:35Z</time>
      </trkpt>
      <trkpt lat="44.74392" lon="5.54414">
        <ele>972</ele>
        <time>2019-07-25T16:37:39Z</time>
      </trkpt>
      <trkpt lat="44.74411" lon="5.54427">
        <ele>969</ele>
        <time>2019-07-25T16:37:42Z</time>
      </trkpt>
      <trkpt lat="44.74421" lon="5.54431">
        <ele>967</ele>
        <time>2019-07-25T16:37:44Z</time>
      </trkpt>
      <trkpt lat="44.74431" lon="5.54433">
        <ele>967</ele>
        <time>2019-07-25T16:37:46Z</time>
      </trkpt>
      <trkpt lat="44.74441" lon="5.54432">
        <ele>967</ele>
        <time>2019-07-25T16:37:48Z</time>
      </trkpt>
      <trkpt lat="44.7445" lon="5.54429">
        <ele>968</ele>
        <time>2019-07-25T16:37:49Z</time>
      </trkpt>
      <trkpt lat="44.74467" lon="5.54417">
        <ele>971</ele>
        <time>2019-07-25T16:37:53Z</time>
      </trkpt>
      <trkpt lat="44.74489" lon="5.54391">
        <ele>980</ele>
        <time>2019-07-25T16:37:58Z</time>
      </trkpt>
      <trkpt lat="44.74498" lon="5.54386">
        <ele>982</ele>
        <time>2019-07-25T16:38:00Z</time>
      </trkpt>
      <trkpt lat="44.7454" lon="5.54375">
        <ele>988</ele>
        <time>2019-07-25T16:38:07Z</time>
      </trkpt>
      <trkpt lat="44.7455" lon="5.54373">
        <ele>989</ele>
        <time>2019-07-25T16:38:09Z</time>
      </trkpt>
      <trkpt lat="44.74578" lon="5.5438">
        <ele>988</ele>
        <time>2019-07-25T16:38:14Z</time>
      </trkpt>
      <trkpt lat="44.7461" lon="5.54405">
        <ele>985</ele>
        <time>2019-07-25T16:38:21Z</time>
      </trkpt>
      <trkpt lat="44.74637" lon="5.5441">
        <ele>988</ele>
        <time>2019-07-25T16:38:26Z</time>
      </trkpt>
      <trkpt lat="44.74645" lon="5.54417">
        <ele>988</ele>
        <time>2019-07-25T16:38:27Z</time>
      </trkpt>
      <trkpt lat="44.74655" lon="5.54428">
        <ele>989</ele>
        <time>2019-07-25T16:38:29Z</time>
      </trkpt>
      <trkpt lat="44.74666" lon="5.54446">
        <ele>990</ele>
        <time>2019-07-25T16:38:32Z</time>
      </trkpt>
      <trkpt lat="44.74672" lon="5.54456">
        <ele>992</ele>
        <time>2019-07-25T16:38:34Z</time>
      </trkpt>
      <trkpt lat="44.74675" lon="5.54468">
        <ele>992</ele>
        <time>2019-07-25T16:38:36Z</time>
      </trkpt>
      <trkpt lat="44.74676" lon="5.54481">
        <ele>992</ele>
        <time>2019-07-25T16:38:37Z</time>
      </trkpt>
      <trkpt lat="44.7467" lon="5.54508">
        <ele>992</ele>
        <time>2019-07-25T16:38:41Z</time>
      </trkpt>
      <trkpt lat="44.74658" lon="5.54534">
        <ele>997</ele>
        <time>2019-07-25T16:38:45Z</time>
      </trkpt>
      <trkpt lat="44.74641" lon="5.54558">
        <ele>998</ele>
        <time>2019-07-25T16:38:49Z</time>
      </trkpt>
      <trkpt lat="44.74601" lon="5.54596">
        <ele>990</ele>
        <time>2019-07-25T16:38:58Z</time>
      </trkpt>
      <trkpt lat="44.74593" lon="5.54607">
        <ele>991</ele>
        <time>2019-07-25T16:39:00Z</time>
      </trkpt>
      <trkpt lat="44.74555" lon="5.54676">
        <ele>1002</ele>
        <time>2019-07-25T16:39:11Z</time>
      </trkpt>
      <trkpt lat="44.74529" lon="5.54715">
        <ele>1002</ele>
        <time>2019-07-25T16:39:18Z</time>
      </trkpt>
      <trkpt lat="44.74507" lon="5.5475">
        <ele>1004</ele>
        <time>2019-07-25T16:39:23Z</time>
      </trkpt>
      <trkpt lat="44.74478" lon="5.54776">
        <ele>1004</ele>
        <time>2019-07-25T16:39:30Z</time>
      </trkpt>
      <trkpt lat="44.74429" lon="5.54831">
        <ele>1009</ele>
        <time>2019-07-25T16:39:41Z</time>
      </trkpt>
      <trkpt lat="44.74397" lon="5.54861">
        <ele>1008</ele>
        <time>2019-07-25T16:39:48Z</time>
      </trkpt>
      <trkpt lat="44.74389" lon="5.54872">
        <ele>1010</ele>
        <time>2019-07-25T16:39:50Z</time>
      </trkpt>
      <trkpt lat="44.7437" lon="5.54913">
        <ele>1019</ele>
        <time>2019-07-25T16:39:56Z</time>
      </trkpt>
      <trkpt lat="44.74346" lon="5.54952">
        <ele>1022</ele>
        <time>2019-07-25T16:40:02Z</time>
      </trkpt>
      <trkpt lat="44.74329" lon="5.54972">
        <ele>1021</ele>
        <time>2019-07-25T16:40:06Z</time>
      </trkpt>
      <trkpt lat="44.74303" lon="5.54994">
        <ele>1018</ele>
        <time>2019-07-25T16:40:12Z</time>
      </trkpt>
      <trkpt lat="44.74296" lon="5.55004">
        <ele>1018</ele>
        <time>2019-07-25T16:40:13Z</time>
      </trkpt>
      <trkpt lat="44.74291" lon="5.55016">
        <ele>1018</ele>
        <time>2019-07-25T16:40:15Z</time>
      </trkpt>
      <trkpt lat="44.74273" lon="5.55078">
        <ele>1024</ele>
        <time>2019-07-25T16:40:24Z</time>
      </trkpt>
      <trkpt lat="44.74271" lon="5.55094">
        <ele>1024</ele>
        <time>2019-07-25T16:40:26Z</time>
      </trkpt>
      <trkpt lat="44.74274" lon="5.55111">
        <ele>1026</ele>
        <time>2019-07-25T16:40:28Z</time>
      </trkpt>
      <trkpt lat="44.74288" lon="5.55153">
        <ele>1032</ele>
        <time>2019-07-25T16:40:34Z</time>
      </trkpt>
      <trkpt lat="44.74292" lon="5.55172">
        <ele>1034</ele>
        <time>2019-07-25T16:40:36Z</time>
      </trkpt>
      <trkpt lat="44.74293" lon="5.55192">
        <ele>1035</ele>
        <time>2019-07-25T16:40:39Z</time>
      </trkpt>
      <trkpt lat="44.74292" lon="5.55228">
        <ele>1035</ele>
        <time>2019-07-25T16:40:43Z</time>
      </trkpt>
      <trkpt lat="44.74286" lon="5.55265">
        <ele>1036</ele>
        <time>2019-07-25T16:40:48Z</time>
      </trkpt>
      <trkpt lat="44.74257" lon="5.55383">
        <ele>1038</ele>
        <time>2019-07-25T16:41:04Z</time>
      </trkpt>
      <trkpt lat="44.74246" lon="5.55458">
        <ele>1040</ele>
        <time>2019-07-25T16:41:14Z</time>
      </trkpt>
      <trkpt lat="44.74244" lon="5.55485">
        <ele>1041</ele>
        <time>2019-07-25T16:41:17Z</time>
      </trkpt>
      <trkpt lat="44.74245" lon="5.55503">
        <ele>1042</ele>
        <time>2019-07-25T16:41:19Z</time>
      </trkpt>
      <trkpt lat="44.74249" lon="5.55548">
        <ele>1044</ele>
        <time>2019-07-25T16:41:25Z</time>
      </trkpt>
      <trkpt lat="44.74256" lon="5.5559">
        <ele>1046</ele>
        <time>2019-07-25T16:41:30Z</time>
      </trkpt>
      <trkpt lat="44.7427" lon="5.55653">
        <ele>1048</ele>
        <time>2019-07-25T16:41:39Z</time>
      </trkpt>
      <trkpt lat="44.74291" lon="5.55699">
        <ele>1052</ele>
        <time>2019-07-25T16:41:46Z</time>
      </trkpt>
      <trkpt lat="44.74299" lon="5.5572">
        <ele>1053</ele>
        <time>2019-07-25T16:41:49Z</time>
      </trkpt>
      <trkpt lat="44.74327" lon="5.55819">
        <ele>1054</ele>
        <time>2019-07-25T16:42:02Z</time>
      </trkpt>
      <trkpt lat="44.74336" lon="5.55846">
        <ele>1054</ele>
        <time>2019-07-25T16:42:06Z</time>
      </trkpt>
      <trkpt lat="44.74364" lon="5.55888">
        <ele>1056</ele>
        <time>2019-07-25T16:42:13Z</time>
      </trkpt>
      <trkpt lat="44.74374" lon="5.55897">
        <ele>1057</ele>
        <time>2019-07-25T16:42:15Z</time>
      </trkpt>
      <trkpt lat="44.74383" lon="5.55902">
        <ele>1059</ele>
        <time>2019-07-25T16:42:17Z</time>
      </trkpt>
      <trkpt lat="44.74411" lon="5.55911">
        <ele>1065</ele>
        <time>2019-07-25T16:42:22Z</time>
      </trkpt>
      <trkpt lat="44.74419" lon="5.55919">
        <ele>1067</ele>
        <time>2019-07-25T16:42:24Z</time>
      </trkpt>
      <trkpt lat="44.74425" lon="5.55927">
        <ele>1068</ele>
        <time>2019-07-25T16:42:25Z</time>
      </trkpt>
      <trkpt lat="44.74429" lon="5.55939">
        <ele>1068</ele>
        <time>2019-07-25T16:42:27Z</time>
      </trkpt>
      <trkpt lat="44.74432" lon="5.55999">
        <ele>1065</ele>
        <time>2019-07-25T16:42:35Z</time>
      </trkpt>
      <trkpt lat="44.74435" lon="5.56014">
        <ele>1065</ele>
        <time>2019-07-25T16:42:37Z</time>
      </trkpt>
      <trkpt lat="44.74441" lon="5.5603">
        <ele>1066</ele>
        <time>2019-07-25T16:42:39Z</time>
      </trkpt>
      <trkpt lat="44.74473" lon="5.56095">
        <ele>1074</ele>
        <time>2019-07-25T16:42:49Z</time>
      </trkpt>
      <trkpt lat="44.74508" lon="5.5619">
        <ele>1080</ele>
        <time>2019-07-25T16:43:02Z</time>
      </trkpt>
      <trkpt lat="44.74512" lon="5.56206">
        <ele>1082</ele>
        <time>2019-07-25T16:43:05Z</time>
      </trkpt>
      <trkpt lat="44.74514" lon="5.56222">
        <ele>1083</ele>
        <time>2019-07-25T16:43:07Z</time>
      </trkpt>
      <trkpt lat="44.74515" lon="5.56239">
        <ele>1083</ele>
        <time>2019-07-25T16:43:09Z</time>
      </trkpt>
      <trkpt lat="44.74511" lon="5.56271">
        <ele>1084</ele>
        <time>2019-07-25T16:43:13Z</time>
      </trkpt>
      <trkpt lat="44.7449" lon="5.56358">
        <ele>1086</ele>
        <time>2019-07-25T16:43:24Z</time>
      </trkpt>
      <trkpt lat="44.74478" lon="5.5643">
        <ele>1090</ele>
        <time>2019-07-25T16:43:34Z</time>
      </trkpt>
      <trkpt lat="44.74454" lon="5.56509">
        <ele>1090</ele>
        <time>2019-07-25T16:43:45Z</time>
      </trkpt>
      <trkpt lat="44.74448" lon="5.56535">
        <ele>1089</ele>
        <time>2019-07-25T16:43:48Z</time>
      </trkpt>
      <trkpt lat="44.74447" lon="5.56548">
        <ele>1089</ele>
        <time>2019-07-25T16:43:50Z</time>
      </trkpt>
      <trkpt lat="44.74449" lon="5.56577">
        <ele>1092</ele>
        <time>2019-07-25T16:43:53Z</time>
      </trkpt>
      <trkpt lat="44.74465" lon="5.56685">
        <ele>1096</ele>
        <time>2019-07-25T16:44:07Z</time>
      </trkpt>
      <trkpt lat="44.7447" lon="5.56706">
        <ele>1099</ele>
        <time>2019-07-25T16:44:10Z</time>
      </trkpt>
      <trkpt lat="44.74483" lon="5.56736">
        <ele>1105</ele>
        <time>2019-07-25T16:44:15Z</time>
      </trkpt>
      <trkpt lat="44.74484" lon="5.56746">
        <ele>1105</ele>
        <time>2019-07-25T16:44:16Z</time>
      </trkpt>
      <trkpt lat="44.74483" lon="5.56756">
        <ele>1107</ele>
        <time>2019-07-25T16:44:17Z</time>
      </trkpt>
      <trkpt lat="44.74479" lon="5.5677">
        <ele>1109</ele>
        <time>2019-07-25T16:44:19Z</time>
      </trkpt>
      <trkpt lat="44.7447" lon="5.56777">
        <ele>1109</ele>
        <time>2019-07-25T16:44:21Z</time>
      </trkpt>
      <trkpt lat="44.74445" lon="5.56784">
        <ele>1104</ele>
        <time>2019-07-25T16:44:25Z</time>
      </trkpt>
      <trkpt lat="44.74422" lon="5.56794">
        <ele>1102</ele>
        <time>2019-07-25T16:44:30Z</time>
      </trkpt>
      <trkpt lat="44.74392" lon="5.56815">
        <ele>1094</ele>
        <time>2019-07-25T16:44:36Z</time>
      </trkpt>
      <trkpt lat="44.74383" lon="5.5683">
        <ele>1093</ele>
        <time>2019-07-25T16:44:38Z</time>
      </trkpt>
      <trkpt lat="44.74378" lon="5.56841">
        <ele>1092</ele>
        <time>2019-07-25T16:44:40Z</time>
      </trkpt>
      <trkpt lat="44.74375" lon="5.56856">
        <ele>1091</ele>
        <time>2019-07-25T16:44:42Z</time>
      </trkpt>
      <trkpt lat="44.74376" lon="5.56881">
        <ele>1095</ele>
        <time>2019-07-25T16:44:45Z</time>
      </trkpt>
      <trkpt lat="44.74381" lon="5.56905">
        <ele>1101</ele>
        <time>2019-07-25T16:44:48Z</time>
      </trkpt>
      <trkpt lat="44.74393" lon="5.56927">
        <ele>1110</ele>
        <time>2019-07-25T16:44:52Z</time>
      </trkpt>
      <trkpt lat="44.74425" lon="5.56971">
        <ele>1121</ele>
        <time>2019-07-25T16:45:00Z</time>
      </trkpt>
      <trkpt lat="44.74473" lon="5.5703">
        <ele>1132</ele>
        <time>2019-07-25T16:45:11Z</time>
      </trkpt>
      <trkpt lat="44.74491" lon="5.57056">
        <ele>1133</ele>
        <time>2019-07-25T16:45:16Z</time>
      </trkpt>
      <trkpt lat="44.74507" lon="5.57082">
        <ele>1133</ele>
        <time>2019-07-25T16:45:20Z</time>
      </trkpt>
      <trkpt lat="44.74571" lon="5.57202">
        <ele>1132</ele>
        <time>2019-07-25T16:45:39Z</time>
      </trkpt>
      <trkpt lat="44.74603" lon="5.57265">
        <ele>1133</ele>
        <time>2019-07-25T16:45:49Z</time>
      </trkpt>
      <trkpt lat="44.74641" lon="5.57354">
        <ele>1138</ele>
        <time>2019-07-25T16:46:02Z</time>
      </trkpt>
      <trkpt lat="44.74673" lon="5.57422">
        <ele>1141</ele>
        <time>2019-07-25T16:46:12Z</time>
      </trkpt>
      <trkpt lat="44.74684" lon="5.57455">
        <ele>1149</ele>
        <time>2019-07-25T16:46:17Z</time>
      </trkpt>
      <trkpt lat="44.74685" lon="5.57467">
        <ele>1150</ele>
        <time>2019-07-25T16:46:18Z</time>
      </trkpt>
      <trkpt lat="44.74681" lon="5.57485">
        <ele>1149</ele>
        <time>2019-07-25T16:46:21Z</time>
      </trkpt>
      <trkpt lat="44.74676" lon="5.57494">
        <ele>1148</ele>
        <time>2019-07-25T16:46:22Z</time>
      </trkpt>
      <trkpt lat="44.74663" lon="5.57502">
        <ele>1144</ele>
        <time>2019-07-25T16:46:25Z</time>
      </trkpt>
      <trkpt lat="44.74622" lon="5.57509">
        <ele>1142</ele>
        <time>2019-07-25T16:46:32Z</time>
      </trkpt>
      <trkpt lat="44.74554" lon="5.57502">
        <ele>1134</ele>
        <time>2019-07-25T16:46:44Z</time>
      </trkpt>
      <trkpt lat="44.74541" lon="5.57506">
        <ele>1133</ele>
        <time>2019-07-25T16:46:46Z</time>
      </trkpt>
      <trkpt lat="44.74528" lon="5.57516">
        <ele>1134</ele>
        <time>2019-07-25T16:46:49Z</time>
      </trkpt>
      <trkpt lat="44.74515" lon="5.57528">
        <ele>1136</ele>
        <time>2019-07-25T16:46:52Z</time>
      </trkpt>
      <trkpt lat="44.74452" lon="5.57604">
        <ele>1140</ele>
        <time>2019-07-25T16:47:07Z</time>
      </trkpt>
      <trkpt lat="44.74444" lon="5.5762">
        <ele>1141</ele>
        <time>2019-07-25T16:47:09Z</time>
      </trkpt>
      <trkpt lat="44.74423" lon="5.57677">
        <ele>1146</ele>
        <time>2019-07-25T16:47:17Z</time>
      </trkpt>
      <trkpt lat="44.7442" lon="5.57696">
        <ele>1146</ele>
        <time>2019-07-25T16:47:20Z</time>
      </trkpt>
      <trkpt lat="44.7442" lon="5.57705">
        <ele>1146</ele>
        <time>2019-07-25T16:47:21Z</time>
      </trkpt>
      <trkpt lat="44.74426" lon="5.57723">
        <ele>1147</ele>
        <time>2019-07-25T16:47:23Z</time>
      </trkpt>
      <trkpt lat="44.74452" lon="5.57765">
        <ele>1149</ele>
        <time>2019-07-25T16:47:30Z</time>
      </trkpt>
      <trkpt lat="44.74463" lon="5.57778">
        <ele>1149</ele>
        <time>2019-07-25T16:47:33Z</time>
      </trkpt>
      <trkpt lat="44.7447" lon="5.57781">
        <ele>1151</ele>
        <time>2019-07-25T16:47:34Z</time>
      </trkpt>
      <trkpt lat="44.74478" lon="5.57782">
        <ele>1154</ele>
        <time>2019-07-25T16:47:36Z</time>
      </trkpt>
      <trkpt lat="44.74484" lon="5.57781">
        <ele>1156</ele>
        <time>2019-07-25T16:47:37Z</time>
      </trkpt>
      <trkpt lat="44.74499" lon="5.57772">
        <ele>1162</ele>
        <time>2019-07-25T16:47:40Z</time>
      </trkpt>
      <trkpt lat="44.74518" lon="5.57757">
        <ele>1164</ele>
        <time>2019-07-25T16:47:43Z</time>
      </trkpt>
      <trkpt lat="44.74533" lon="5.57751">
        <ele>1165</ele>
        <time>2019-07-25T16:47:46Z</time>
      </trkpt>
      <trkpt lat="44.74554" lon="5.5775">
        <ele>1167</ele>
        <time>2019-07-25T16:47:50Z</time>
      </trkpt>
      <trkpt lat="44.74565" lon="5.57754">
        <ele>1168</ele>
        <time>2019-07-25T16:47:52Z</time>
      </trkpt>
      <trkpt lat="44.74572" lon="5.57761">
        <ele>1169</ele>
        <time>2019-07-25T16:47:54Z</time>
      </trkpt>
      <trkpt lat="44.74573" lon="5.57767">
        <ele>1170</ele>
        <time>2019-07-25T16:47:54Z</time>
      </trkpt>
      <trkpt lat="44.74571" lon="5.57773">
        <ele>1171</ele>
        <time>2019-07-25T16:47:55Z</time>
      </trkpt>
      <trkpt lat="44.74567" lon="5.57777">
        <ele>1170</ele>
        <time>2019-07-25T16:47:56Z</time>
      </trkpt>
      <trkpt lat="44.7455" lon="5.57787">
        <ele>1169</ele>
        <time>2019-07-25T16:47:59Z</time>
      </trkpt>
      <trkpt lat="44.74537" lon="5.57799">
        <ele>1167</ele>
        <time>2019-07-25T16:48:02Z</time>
      </trkpt>
      <trkpt lat="44.74531" lon="5.57816">
        <ele>1166</ele>
        <time>2019-07-25T16:48:04Z</time>
      </trkpt>
      <trkpt lat="44.74531" lon="5.57833">
        <ele>1167</ele>
        <time>2019-07-25T16:48:07Z</time>
      </trkpt>
      <trkpt lat="44.74533" lon="5.57842">
        <ele>1165</ele>
        <time>2019-07-25T16:48:08Z</time>
      </trkpt>
      <trkpt lat="44.74539" lon="5.57853">
        <ele>1164</ele>
        <time>2019-07-25T16:48:10Z</time>
      </trkpt>
      <trkpt lat="44.74555" lon="5.57871">
        <ele>1166</ele>
        <time>2019-07-25T16:48:13Z</time>
      </trkpt>
      <trkpt lat="44.74596" lon="5.57902">
        <ele>1177</ele>
        <time>2019-07-25T16:48:21Z</time>
      </trkpt>
      <trkpt lat="44.74613" lon="5.57911">
        <ele>1180</ele>
        <time>2019-07-25T16:48:25Z</time>
      </trkpt>
      <trkpt lat="44.74647" lon="5.57922">
        <ele>1185</ele>
        <time>2019-07-25T16:48:31Z</time>
      </trkpt>
      <trkpt lat="44.7466" lon="5.57928">
        <ele>1187</ele>
        <time>2019-07-25T16:48:33Z</time>
      </trkpt>
      <trkpt lat="44.74671" lon="5.57934">
        <ele>1188</ele>
        <time>2019-07-25T16:48:35Z</time>
      </trkpt>
      <trkpt lat="44.74684" lon="5.57946">
        <ele>1190</ele>
        <time>2019-07-25T16:48:38Z</time>
      </trkpt>
      <trkpt lat="44.74737" lon="5.58015">
        <ele>1197</ele>
        <time>2019-07-25T16:48:51Z</time>
      </trkpt>
      <trkpt lat="44.74749" lon="5.58034">
        <ele>1198</ele>
        <time>2019-07-25T16:48:54Z</time>
      </trkpt>
      <trkpt lat="44.74758" lon="5.58058">
        <ele>1197</ele>
        <time>2019-07-25T16:48:58Z</time>
      </trkpt>
      <trkpt lat="44.74764" lon="5.581">
        <ele>1192</ele>
        <time>2019-07-25T16:49:03Z</time>
      </trkpt>
      <trkpt lat="44.74771" lon="5.58115">
        <ele>1191</ele>
        <time>2019-07-25T16:49:05Z</time>
      </trkpt>
      <trkpt lat="44.74776" lon="5.58118">
        <ele>1192</ele>
        <time>2019-07-25T16:49:06Z</time>
      </trkpt>
      <trkpt lat="44.74788" lon="5.58116">
        <ele>1196</ele>
        <time>2019-07-25T16:49:08Z</time>
      </trkpt>
      <trkpt lat="44.74803" lon="5.58109">
        <ele>1201</ele>
        <time>2019-07-25T16:49:11Z</time>
      </trkpt>
      <trkpt lat="44.74819" lon="5.58097">
        <ele>1207</ele>
        <time>2019-07-25T16:49:15Z</time>
      </trkpt>
      <trkpt lat="44.74835" lon="5.58091">
        <ele>1212</ele>
        <time>2019-07-25T16:49:17Z</time>
      </trkpt>
      <trkpt lat="44.74844" lon="5.58092">
        <ele>1215</ele>
        <time>2019-07-25T16:49:19Z</time>
      </trkpt>
      <trkpt lat="44.74851" lon="5.58097">
        <ele>1217</ele>
        <time>2019-07-25T16:49:20Z</time>
      </trkpt>
      <trkpt lat="44.74858" lon="5.58105">
        <ele>1218</ele>
        <time>2019-07-25T16:49:22Z</time>
      </trkpt>
      <trkpt lat="44.74862" lon="5.58115">
        <ele>1218</ele>
        <time>2019-07-25T16:49:24Z</time>
      </trkpt>
      <trkpt lat="44.7488" lon="5.58215">
        <ele>1213</ele>
        <time>2019-07-25T16:49:37Z</time>
      </trkpt>
      <trkpt lat="44.74884" lon="5.58225">
        <ele>1214</ele>
        <time>2019-07-25T16:49:38Z</time>
      </trkpt>
      <trkpt lat="44.74889" lon="5.58234">
        <ele>1215</ele>
        <time>2019-07-25T16:49:39Z</time>
      </trkpt>
      <trkpt lat="44.74902" lon="5.58248">
        <ele>1218</ele>
        <time>2019-07-25T16:49:42Z</time>
      </trkpt>
      <trkpt lat="44.74904" lon="5.58258">
        <ele>1219</ele>
        <time>2019-07-25T16:49:44Z</time>
      </trkpt>
      <trkpt lat="44.74904" lon="5.58269">
        <ele>1219</ele>
        <time>2019-07-25T16:49:45Z</time>
      </trkpt>
      <trkpt lat="44.749" lon="5.58291">
        <ele>1218</ele>
        <time>2019-07-25T16:49:48Z</time>
      </trkpt>
      <trkpt lat="44.74899" lon="5.58303">
        <ele>1218</ele>
        <time>2019-07-25T16:49:49Z</time>
      </trkpt>
      <trkpt lat="44.74909" lon="5.58402">
        <ele>1224</ele>
        <time>2019-07-25T16:50:02Z</time>
      </trkpt>
      <trkpt lat="44.74909" lon="5.58436">
        <ele>1226</ele>
        <time>2019-07-25T16:50:06Z</time>
      </trkpt>
      <trkpt lat="44.74904" lon="5.58485">
        <ele>1227</ele>
        <time>2019-07-25T16:50:13Z</time>
      </trkpt>
      <trkpt lat="44.74905" lon="5.58534">
        <ele>1228</ele>
        <time>2019-07-25T16:50:19Z</time>
      </trkpt>
      <trkpt lat="44.74934" lon="5.58754">
        <ele>1233</ele>
        <time>2019-07-25T16:50:47Z</time>
      </trkpt>
      <trkpt lat="44.74934" lon="5.58781">
        <ele>1232</ele>
        <time>2019-07-25T16:50:51Z</time>
      </trkpt>
      <trkpt lat="44.74931" lon="5.58804">
        <ele>1231</ele>
        <time>2019-07-25T16:50:53Z</time>
      </trkpt>
      <trkpt lat="44.74932" lon="5.58827">
        <ele>1231</ele>
        <time>2019-07-25T16:50:56Z</time>
      </trkpt>
      <trkpt lat="44.74941" lon="5.58851">
        <ele>1231</ele>
        <time>2019-07-25T16:51:00Z</time>
      </trkpt>
      <trkpt lat="44.74953" lon="5.58875">
        <ele>1231</ele>
        <time>2019-07-25T16:51:04Z</time>
      </trkpt>
      <trkpt lat="44.74961" lon="5.58886">
        <ele>1232</ele>
        <time>2019-07-25T16:51:06Z</time>
      </trkpt>
      <trkpt lat="44.75022" lon="5.58955">
        <ele>1239</ele>
        <time>2019-07-25T16:51:19Z</time>
      </trkpt>
      <trkpt lat="44.75036" lon="5.58968">
        <ele>1238</ele>
        <time>2019-07-25T16:51:22Z</time>
      </trkpt>
      <trkpt lat="44.75055" lon="5.5898">
        <ele>1239</ele>
        <time>2019-07-25T16:51:26Z</time>
      </trkpt>
      <trkpt lat="44.75061" lon="5.5898">
        <ele>1240</ele>
        <time>2019-07-25T16:51:27Z</time>
      </trkpt>
      <trkpt lat="44.75066" lon="5.58977">
        <ele>1242</ele>
        <time>2019-07-25T16:51:28Z</time>
      </trkpt>
      <trkpt lat="44.75075" lon="5.58955">
        <ele>1250</ele>
        <time>2019-07-25T16:51:31Z</time>
      </trkpt>
      <trkpt lat="44.75079" lon="5.58949">
        <ele>1253</ele>
        <time>2019-07-25T16:51:32Z</time>
      </trkpt>
      <trkpt lat="44.75086" lon="5.58947">
        <ele>1255</ele>
        <time>2019-07-25T16:51:34Z</time>
      </trkpt>
      <trkpt lat="44.75093" lon="5.58948">
        <ele>1257</ele>
        <time>2019-07-25T16:51:35Z</time>
      </trkpt>
      <trkpt lat="44.75109" lon="5.5896">
        <ele>1258</ele>
        <time>2019-07-25T16:51:38Z</time>
      </trkpt>
      <trkpt lat="44.75124" lon="5.58977">
        <ele>1258</ele>
        <time>2019-07-25T16:51:42Z</time>
      </trkpt>
      <trkpt lat="44.75131" lon="5.58987">
        <ele>1258</ele>
        <time>2019-07-25T16:51:43Z</time>
      </trkpt>
      <trkpt lat="44.75147" lon="5.59023">
        <ele>1254</ele>
        <time>2019-07-25T16:51:49Z</time>
      </trkpt>
      <trkpt lat="44.75159" lon="5.59044">
        <ele>1253</ele>
        <time>2019-07-25T16:51:52Z</time>
      </trkpt>
      <trkpt lat="44.7518" lon="5.59065">
        <ele>1256</ele>
        <time>2019-07-25T16:51:57Z</time>
      </trkpt>
      <trkpt lat="44.75191" lon="5.59083">
        <ele>1256</ele>
        <time>2019-07-25T16:52:00Z</time>
      </trkpt>
      <trkpt lat="44.75204" lon="5.59111">
        <ele>1254</ele>
        <time>2019-07-25T16:52:04Z</time>
      </trkpt>
      <trkpt lat="44.75218" lon="5.59123">
        <ele>1256</ele>
        <time>2019-07-25T16:52:07Z</time>
      </trkpt>
      <trkpt lat="44.75225" lon="5.59126">
        <ele>1258</ele>
        <time>2019-07-25T16:52:08Z</time>
      </trkpt>
      <trkpt lat="44.75242" lon="5.59127">
        <ele>1264</ele>
        <time>2019-07-25T16:52:11Z</time>
      </trkpt>
      <trkpt lat="44.75258" lon="5.59121">
        <ele>1270</ele>
        <time>2019-07-25T16:52:14Z</time>
      </trkpt>
      <trkpt lat="44.75273" lon="5.59109">
        <ele>1275</ele>
        <time>2019-07-25T16:52:17Z</time>
      </trkpt>
      <trkpt lat="44.7529" lon="5.591">
        <ele>1278</ele>
        <time>2019-07-25T16:52:20Z</time>
      </trkpt>
      <trkpt lat="44.75308" lon="5.59096">
        <ele>1280</ele>
        <time>2019-07-25T16:52:24Z</time>
      </trkpt>
      <trkpt lat="44.7534" lon="5.59099">
        <ele>1284</ele>
        <time>2019-07-25T16:52:29Z</time>
      </trkpt>
      <trkpt lat="44.75345" lon="5.59097">
        <ele>1286</ele>
        <time>2019-07-25T16:52:30Z</time>
      </trkpt>
      <trkpt lat="44.75347" lon="5.59092">
        <ele>1287</ele>
        <time>2019-07-25T16:52:31Z</time>
      </trkpt>
      <trkpt lat="44.75348" lon="5.59085">
        <ele>1288</ele>
        <time>2019-07-25T16:52:32Z</time>
      </trkpt>
      <trkpt lat="44.75346" lon="5.5908">
        <ele>1288</ele>
        <time>2019-07-25T16:52:33Z</time>
      </trkpt>
      <trkpt lat="44.75342" lon="5.59075">
        <ele>1288</ele>
        <time>2019-07-25T16:52:34Z</time>
      </trkpt>
      <trkpt lat="44.75337" lon="5.59074">
        <ele>1287</ele>
        <time>2019-07-25T16:52:35Z</time>
      </trkpt>
      <trkpt lat="44.75313" lon="5.59082">
        <ele>1282</ele>
        <time>2019-07-25T16:52:39Z</time>
      </trkpt>
      <trkpt lat="44.7529" lon="5.59087">
        <ele>1280</ele>
        <time>2019-07-25T16:52:43Z</time>
      </trkpt>
      <trkpt lat="44.75253" lon="5.59101">
        <ele>1275</ele>
        <time>2019-07-25T16:52:50Z</time>
      </trkpt>
      <trkpt lat="44.75237" lon="5.591">
        <ele>1270</ele>
        <time>2019-07-25T16:52:53Z</time>
      </trkpt>
      <trkpt lat="44.7523" lon="5.59094">
        <ele>1269</ele>
        <time>2019-07-25T16:52:54Z</time>
      </trkpt>
      <trkpt lat="44.75224" lon="5.59086">
        <ele>1269</ele>
        <time>2019-07-25T16:52:56Z</time>
      </trkpt>
      <trkpt lat="44.7522" lon="5.59077">
        <ele>1269</ele>
        <time>2019-07-25T16:52:57Z</time>
      </trkpt>
      <trkpt lat="44.75172" lon="5.58906">
        <ele>1290</ele>
        <time>2019-07-25T16:53:20Z</time>
      </trkpt>
      <trkpt lat="44.75138" lon="5.58824">
        <ele>1299</ele>
        <time>2019-07-25T16:53:32Z</time>
      </trkpt>
      <trkpt lat="44.75115" lon="5.58782">
        <ele>1300</ele>
        <time>2019-07-25T16:53:39Z</time>
      </trkpt>
      <trkpt lat="44.75106" lon="5.58766">
        <ele>1300</ele>
        <time>2019-07-25T16:53:42Z</time>
      </trkpt>
      <trkpt lat="44.7507" lon="5.58716">
        <ele>1297</ele>
        <time>2019-07-25T16:53:50Z</time>
      </trkpt>
      <trkpt lat="44.75062" lon="5.58701">
        <ele>1298</ele>
        <time>2019-07-25T16:53:53Z</time>
      </trkpt>
      <trkpt lat="44.75045" lon="5.58653">
        <ele>1301</ele>
        <time>2019-07-25T16:54:00Z</time>
      </trkpt>
      <trkpt lat="44.75032" lon="5.58632">
        <ele>1298</ele>
        <time>2019-07-25T16:54:03Z</time>
      </trkpt>
      <trkpt lat="44.7503" lon="5.58622">
        <ele>1299</ele>
        <time>2019-07-25T16:54:04Z</time>
      </trkpt>
      <trkpt lat="44.75031" lon="5.58612">
        <ele>1301</ele>
        <time>2019-07-25T16:54:06Z</time>
      </trkpt>
      <trkpt lat="44.75037" lon="5.58607">
        <ele>1305</ele>
        <time>2019-07-25T16:54:07Z</time>
      </trkpt>
      <trkpt lat="44.75043" lon="5.58609">
        <ele>1309</ele>
        <time>2019-07-25T16:54:08Z</time>
      </trkpt>
      <trkpt lat="44.75049" lon="5.5862">
        <ele>1310</ele>
        <time>2019-07-25T16:54:10Z</time>
      </trkpt>
      <trkpt lat="44.75059" lon="5.58655">
        <ele>1308</ele>
        <time>2019-07-25T16:54:15Z</time>
      </trkpt>
      <trkpt lat="44.75071" lon="5.5868">
        <ele>1307</ele>
        <time>2019-07-25T16:54:18Z</time>
      </trkpt>
      <trkpt lat="44.75086" lon="5.58696">
        <ele>1310</ele>
        <time>2019-07-25T16:54:22Z</time>
      </trkpt>
      <trkpt lat="44.75127" lon="5.58731">
        <ele>1319</ele>
        <time>2019-07-25T16:54:30Z</time>
      </trkpt>
      <trkpt lat="44.75145" lon="5.5875">
        <ele>1322</ele>
        <time>2019-07-25T16:54:34Z</time>
      </trkpt>
      <trkpt lat="44.75189" lon="5.5882">
        <ele>1323</ele>
        <time>2019-07-25T16:54:46Z</time>
      </trkpt>
      <trkpt lat="44.75251" lon="5.58943">
        <ele>1319</ele>
        <time>2019-07-25T16:55:05Z</time>
      </trkpt>
      <trkpt lat="44.75265" lon="5.58979">
        <ele>1310</ele>
        <time>2019-07-25T16:55:10Z</time>
      </trkpt>
      <trkpt lat="44.75271" lon="5.58989">
        <ele>1308</ele>
        <time>2019-07-25T16:55:12Z</time>
      </trkpt>
      <trkpt lat="44.75279" lon="5.58994">
        <ele>1307</ele>
        <time>2019-07-25T16:55:14Z</time>
      </trkpt>
      <trkpt lat="44.75286" lon="5.58996">
        <ele>1307</ele>
        <time>2019-07-25T16:55:15Z</time>
      </trkpt>
      <trkpt lat="44.75294" lon="5.58995">
        <ele>1308</ele>
        <time>2019-07-25T16:55:16Z</time>
      </trkpt>
      <trkpt lat="44.75301" lon="5.58992">
        <ele>1310</ele>
        <time>2019-07-25T16:55:18Z</time>
      </trkpt>
      <trkpt lat="44.75308" lon="5.58986">
        <ele>1313</ele>
        <time>2019-07-25T16:55:19Z</time>
      </trkpt>
      <trkpt lat="44.75366" lon="5.5892">
        <ele>1338</ele>
        <time>2019-07-25T16:55:32Z</time>
      </trkpt>
      <trkpt lat="44.75385" lon="5.58904">
        <ele>1343</ele>
        <time>2019-07-25T16:55:36Z</time>
      </trkpt>
      <trkpt lat="44.75423" lon="5.58881">
        <ele>1350</ele>
        <time>2019-07-25T16:55:44Z</time>
      </trkpt>
      <trkpt lat="44.75441" lon="5.58862">
        <ele>1358</ele>
        <time>2019-07-25T16:55:48Z</time>
      </trkpt>
      <trkpt lat="44.75456" lon="5.58854">
        <ele>1361</ele>
        <time>2019-07-25T16:55:50Z</time>
      </trkpt>
      <trkpt lat="44.75463" lon="5.58854">
        <ele>1361</ele>
        <time>2019-07-25T16:55:52Z</time>
      </trkpt>
      <trkpt lat="44.7547" lon="5.58857">
        <ele>1361</ele>
        <time>2019-07-25T16:55:53Z</time>
      </trkpt>
      <trkpt lat="44.75475" lon="5.58862">
        <ele>1360</ele>
        <time>2019-07-25T16:55:54Z</time>
      </trkpt>
      <trkpt lat="44.75477" lon="5.58868">
        <ele>1360</ele>
        <time>2019-07-25T16:55:55Z</time>
      </trkpt>
      <trkpt lat="44.75479" lon="5.58877">
        <ele>1359</ele>
        <time>2019-07-25T16:55:56Z</time>
      </trkpt>
      <trkpt lat="44.75478" lon="5.58888">
        <ele>1357</ele>
        <time>2019-07-25T16:55:58Z</time>
      </trkpt>
      <trkpt lat="44.75472" lon="5.58922">
        <ele>1351</ele>
        <time>2019-07-25T16:56:02Z</time>
      </trkpt>
      <trkpt lat="44.75461" lon="5.58961">
        <ele>1347</ele>
        <time>2019-07-25T16:56:07Z</time>
      </trkpt>
      <trkpt lat="44.75457" lon="5.58983">
        <ele>1344</ele>
        <time>2019-07-25T16:56:10Z</time>
      </trkpt>
      <trkpt lat="44.75455" lon="5.59007">
        <ele>1342</ele>
        <time>2019-07-25T16:56:13Z</time>
      </trkpt>
      <trkpt lat="44.75459" lon="5.59068">
        <ele>1340</ele>
        <time>2019-07-25T16:56:21Z</time>
      </trkpt>
      <trkpt lat="44.75459" lon="5.59092">
        <ele>1339</ele>
        <time>2019-07-25T16:56:24Z</time>
      </trkpt>
      <trkpt lat="44.75456" lon="5.59134">
        <ele>1336</ele>
        <time>2019-07-25T16:56:29Z</time>
      </trkpt>
      <trkpt lat="44.75457" lon="5.59148">
        <ele>1336</ele>
        <time>2019-07-25T16:56:31Z</time>
      </trkpt>
      <trkpt lat="44.75465" lon="5.59171">
        <ele>1339</ele>
        <time>2019-07-25T16:56:34Z</time>
      </trkpt>
      <trkpt lat="44.75493" lon="5.59215">
        <ele>1346</ele>
        <time>2019-07-25T16:56:42Z</time>
      </trkpt>
      <trkpt lat="44.75505" lon="5.59253">
        <ele>1346</ele>
        <time>2019-07-25T16:56:47Z</time>
      </trkpt>
      <trkpt lat="44.75506" lon="5.5927">
        <ele>1348</ele>
        <time>2019-07-25T16:56:49Z</time>
      </trkpt>
      <trkpt lat="44.75505" lon="5.59282">
        <ele>1349</ele>
        <time>2019-07-25T16:56:51Z</time>
      </trkpt>
      <trkpt lat="44.75497" lon="5.59301">
        <ele>1348</ele>
        <time>2019-07-25T16:56:53Z</time>
      </trkpt>
      <trkpt lat="44.75479" lon="5.59325">
        <ele>1343</ele>
        <time>2019-07-25T16:56:58Z</time>
      </trkpt>
      <trkpt lat="44.75476" lon="5.59335">
        <ele>1343</ele>
        <time>2019-07-25T16:56:59Z</time>
      </trkpt>
      <trkpt lat="44.75473" lon="5.59349">
        <ele>1343</ele>
        <time>2019-07-25T16:57:01Z</time>
      </trkpt>
      <trkpt lat="44.75473" lon="5.59377">
        <ele>1345</ele>
        <time>2019-07-25T16:57:05Z</time>
      </trkpt>
      <trkpt lat="44.75483" lon="5.59413">
        <ele>1351</ele>
        <time>2019-07-25T16:57:10Z</time>
      </trkpt>
      <trkpt lat="44.75491" lon="5.59434">
        <ele>1353</ele>
        <time>2019-07-25T16:57:13Z</time>
      </trkpt>
      <trkpt lat="44.75502" lon="5.59452">
        <ele>1356</ele>
        <time>2019-07-25T16:57:16Z</time>
      </trkpt>
      <trkpt lat="44.75539" lon="5.59484">
        <ele>1362</ele>
        <time>2019-07-25T16:57:23Z</time>
      </trkpt>
      <trkpt lat="44.75554" lon="5.59509">
        <ele>1365</ele>
        <time>2019-07-25T16:57:27Z</time>
      </trkpt>
      <trkpt lat="44.75578" lon="5.59571">
        <ele>1368</ele>
        <time>2019-07-25T16:57:36Z</time>
      </trkpt>
      <trkpt lat="44.75587" lon="5.596">
        <ele>1371</ele>
        <time>2019-07-25T16:57:40Z</time>
      </trkpt>
      <trkpt lat="44.75591" lon="5.59617">
        <ele>1374</ele>
        <time>2019-07-25T16:57:43Z</time>
      </trkpt>
      <trkpt lat="44.75593" lon="5.59642">
        <ele>1376</ele>
        <time>2019-07-25T16:57:46Z</time>
      </trkpt>
      <trkpt lat="44.75592" lon="5.59669">
        <ele>1377</ele>
        <time>2019-07-25T16:57:49Z</time>
      </trkpt>
      <trkpt lat="44.75588" lon="5.59697">
        <ele>1377</ele>
        <time>2019-07-25T16:57:53Z</time>
      </trkpt>
      <trkpt lat="44.75572" lon="5.59772">
        <ele>1372</ele>
        <time>2019-07-25T16:58:03Z</time>
      </trkpt>
      <trkpt lat="44.7557" lon="5.59785">
        <ele>1370</ele>
        <time>2019-07-25T16:58:04Z</time>
      </trkpt>
      <trkpt lat="44.75572" lon="5.59797">
        <ele>1370</ele>
        <time>2019-07-25T16:58:06Z</time>
      </trkpt>
      <trkpt lat="44.75584" lon="5.59827">
        <ele>1373</ele>
        <time>2019-07-25T16:58:10Z</time>
      </trkpt>
      <trkpt lat="44.75589" lon="5.59835">
        <ele>1375</ele>
        <time>2019-07-25T16:58:12Z</time>
      </trkpt>
      <trkpt lat="44.75608" lon="5.59854">
        <ele>1382</ele>
        <time>2019-07-25T16:58:16Z</time>
      </trkpt>
      <trkpt lat="44.75613" lon="5.59865">
        <ele>1383</ele>
        <time>2019-07-25T16:58:17Z</time>
      </trkpt>
      <trkpt lat="44.75634" lon="5.59915">
        <ele>1385</ele>
        <time>2019-07-25T16:58:25Z</time>
      </trkpt>
      <trkpt lat="44.75641" lon="5.59954">
        <ele>1382</ele>
        <time>2019-07-25T16:58:30Z</time>
      </trkpt>
      <trkpt lat="44.75645" lon="5.59964">
        <ele>1383</ele>
        <time>2019-07-25T16:58:31Z</time>
      </trkpt>
      <trkpt lat="44.75652" lon="5.59974">
        <ele>1384</ele>
        <time>2019-07-25T16:58:33Z</time>
      </trkpt>
      <trkpt lat="44.75671" lon="5.59997">
        <ele>1389</ele>
        <time>2019-07-25T16:58:38Z</time>
      </trkpt>
      <trkpt lat="44.75683" lon="5.60015">
        <ele>1395</ele>
        <time>2019-07-25T16:58:41Z</time>
      </trkpt>
      <trkpt lat="44.75689" lon="5.60034">
        <ele>1397</ele>
        <time>2019-07-25T16:58:43Z</time>
      </trkpt>
      <trkpt lat="44.7569" lon="5.60077">
        <ele>1393</ele>
        <time>2019-07-25T16:58:49Z</time>
      </trkpt>
      <trkpt lat="44.75698" lon="5.60118">
        <ele>1399</ele>
        <time>2019-07-25T16:58:54Z</time>
      </trkpt>
      <trkpt lat="44.75703" lon="5.60172">
        <ele>1403</ele>
        <time>2019-07-25T16:59:01Z</time>
      </trkpt>
      <trkpt lat="44.75712" lon="5.60225">
        <ele>1412</ele>
        <time>2019-07-25T16:59:08Z</time>
      </trkpt>
      <trkpt lat="44.75717" lon="5.60236">
        <ele>1415</ele>
        <time>2019-07-25T16:59:10Z</time>
      </trkpt>
      <trkpt lat="44.75806" lon="5.60359">
        <ele>1457</ele>
        <time>2019-07-25T16:59:32Z</time>
      </trkpt>
      <trkpt lat="44.75888" lon="5.60477">
        <ele>1426</ele>
        <time>2019-07-25T16:59:53Z</time>
      </trkpt>
      <trkpt lat="44.75895" lon="5.60483">
        <ele>1423</ele>
        <time>2019-07-25T16:59:54Z</time>
      </trkpt>
      <trkpt lat="44.75902" lon="5.60484">
        <ele>1421</ele>
        <time>2019-07-25T16:59:55Z</time>
      </trkpt>
      <trkpt lat="44.75909" lon="5.6048">
        <ele>1420</ele>
        <time>2019-07-25T16:59:57Z</time>
      </trkpt>
      <trkpt lat="44.75934" lon="5.60451">
        <ele>1420</ele>
        <time>2019-07-25T17:00:02Z</time>
      </trkpt>
      <trkpt lat="44.75942" lon="5.60444">
        <ele>1420</ele>
        <time>2019-07-25T17:00:04Z</time>
      </trkpt>
      <trkpt lat="44.76025" lon="5.60398">
        <ele>1416</ele>
        <time>2019-07-25T17:00:20Z</time>
      </trkpt>
      <trkpt lat="44.76036" lon="5.60394">
        <ele>1416</ele>
        <time>2019-07-25T17:00:22Z</time>
      </trkpt>
      <trkpt lat="44.76044" lon="5.60395">
        <ele>1414</ele>
        <time>2019-07-25T17:00:23Z</time>
      </trkpt>
      <trkpt lat="44.76051" lon="5.60399">
        <ele>1412</ele>
        <time>2019-07-25T17:00:25Z</time>
      </trkpt>
      <trkpt lat="44.76055" lon="5.60407">
        <ele>1409</ele>
        <time>2019-07-25T17:00:26Z</time>
      </trkpt>
      <trkpt lat="44.76058" lon="5.60418">
        <ele>1406</ele>
        <time>2019-07-25T17:00:27Z</time>
      </trkpt>
      <trkpt lat="44.7606" lon="5.60458">
        <ele>1396</ele>
        <time>2019-07-25T17:00:33Z</time>
      </trkpt>
      <trkpt lat="44.76063" lon="5.60465">
        <ele>1394</ele>
        <time>2019-07-25T17:00:34Z</time>
      </trkpt>
      <trkpt lat="44.76067" lon="5.6047">
        <ele>1392</ele>
        <time>2019-07-25T17:00:34Z</time>
      </trkpt>
      <trkpt lat="44.76073" lon="5.60472">
        <ele>1392</ele>
        <time>2019-07-25T17:00:36Z</time>
      </trkpt>
      <trkpt lat="44.76084" lon="5.60467">
        <ele>1392</ele>
        <time>2019-07-25T17:00:38Z</time>
      </trkpt>
      <trkpt lat="44.76094" lon="5.60454">
        <ele>1390</ele>
        <time>2019-07-25T17:00:40Z</time>
      </trkpt>
      <trkpt lat="44.76109" lon="5.60428">
        <ele>1389</ele>
        <time>2019-07-25T17:00:44Z</time>
      </trkpt>
      <trkpt lat="44.76115" lon="5.60411">
        <ele>1389</ele>
        <time>2019-07-25T17:00:47Z</time>
      </trkpt>
      <trkpt lat="44.76117" lon="5.60396">
        <ele>1390</ele>
        <time>2019-07-25T17:00:49Z</time>
      </trkpt>
      <trkpt lat="44.76119" lon="5.60363">
        <ele>1394</ele>
        <time>2019-07-25T17:00:53Z</time>
      </trkpt>
      <trkpt lat="44.76128" lon="5.60309">
        <ele>1396</ele>
        <time>2019-07-25T17:01:00Z</time>
      </trkpt>
      <trkpt lat="44.76132" lon="5.60269">
        <ele>1398</ele>
        <time>2019-07-25T17:01:05Z</time>
      </trkpt>
      <trkpt lat="44.76135" lon="5.6026">
        <ele>1398</ele>
        <time>2019-07-25T17:01:06Z</time>
      </trkpt>
      <trkpt lat="44.76143" lon="5.60246">
        <ele>1394</ele>
        <time>2019-07-25T17:01:08Z</time>
      </trkpt>
      <trkpt lat="44.7615" lon="5.60229">
        <ele>1391</ele>
        <time>2019-07-25T17:01:11Z</time>
      </trkpt>
      <trkpt lat="44.7615" lon="5.60221">
        <ele>1391</ele>
        <time>2019-07-25T17:01:12Z</time>
      </trkpt>
      <trkpt lat="44.76146" lon="5.602">
        <ele>1394</ele>
        <time>2019-07-25T17:01:15Z</time>
      </trkpt>
      <trkpt lat="44.76132" lon="5.60173">
        <ele>1403</ele>
        <time>2019-07-25T17:01:19Z</time>
      </trkpt>
      <trkpt lat="44.76127" lon="5.60158">
        <ele>1406</ele>
        <time>2019-07-25T17:01:21Z</time>
      </trkpt>
      <trkpt lat="44.76127" lon="5.6015">
        <ele>1407</ele>
        <time>2019-07-25T17:01:22Z</time>
      </trkpt>
      <trkpt lat="44.76129" lon="5.60143">
        <ele>1407</ele>
        <time>2019-07-25T17:01:23Z</time>
      </trkpt>
      <trkpt lat="44.7614" lon="5.6011">
        <ele>1405</ele>
        <time>2019-07-25T17:01:28Z</time>
      </trkpt>
      <trkpt lat="44.76143" lon="5.60101">
        <ele>1404</ele>
        <time>2019-07-25T17:01:29Z</time>
      </trkpt>
      <trkpt lat="44.76149" lon="5.60094">
        <ele>1402</ele>
        <time>2019-07-25T17:01:30Z</time>
      </trkpt>
      <trkpt lat="44.76168" lon="5.60078">
        <ele>1395</ele>
        <time>2019-07-25T17:01:34Z</time>
      </trkpt>
      <trkpt lat="44.76179" lon="5.60065">
        <ele>1392</ele>
        <time>2019-07-25T17:01:37Z</time>
      </trkpt>
      <trkpt lat="44.76193" lon="5.60027">
        <ele>1394</ele>
        <time>2019-07-25T17:01:42Z</time>
      </trkpt>
      <trkpt lat="44.76206" lon="5.60013">
        <ele>1391</ele>
        <time>2019-07-25T17:01:45Z</time>
      </trkpt>
      <trkpt lat="44.76234" lon="5.59991">
        <ele>1382</ele>
        <time>2019-07-25T17:01:51Z</time>
      </trkpt>
      <trkpt lat="44.76237" lon="5.59986">
        <ele>1382</ele>
        <time>2019-07-25T17:01:52Z</time>
      </trkpt>
      <trkpt lat="44.7624" lon="5.59978">
        <ele>1382</ele>
        <time>2019-07-25T17:01:53Z</time>
      </trkpt>
      <trkpt lat="44.76241" lon="5.59969">
        <ele>1383</ele>
        <time>2019-07-25T17:01:54Z</time>
      </trkpt>
      <trkpt lat="44.7624" lon="5.59949">
        <ele>1388</ele>
        <time>2019-07-25T17:01:56Z</time>
      </trkpt>
      <trkpt lat="44.76234" lon="5.5991">
        <ele>1399</ele>
        <time>2019-07-25T17:02:01Z</time>
      </trkpt>
      <trkpt lat="44.76238" lon="5.59894">
        <ele>1401</ele>
        <time>2019-07-25T17:02:04Z</time>
      </trkpt>
      <trkpt lat="44.76248" lon="5.59884">
        <ele>1398</ele>
        <time>2019-07-25T17:02:06Z</time>
      </trkpt>
      <trkpt lat="44.76266" lon="5.59874">
        <ele>1389</ele>
        <time>2019-07-25T17:02:09Z</time>
      </trkpt>
      <trkpt lat="44.7628" lon="5.59857">
        <ele>1386</ele>
        <time>2019-07-25T17:02:12Z</time>
      </trkpt>
      <trkpt lat="44.76312" lon="5.59797">
        <ele>1385</ele>
        <time>2019-07-25T17:02:22Z</time>
      </trkpt>
      <trkpt lat="44.76324" lon="5.59773">
        <ele>1386</ele>
        <time>2019-07-25T17:02:26Z</time>
      </trkpt>
      <trkpt lat="44.76345" lon="5.59739">
        <ele>1384</ele>
        <time>2019-07-25T17:02:31Z</time>
      </trkpt>
      <trkpt lat="44.76394" lon="5.59639">
        <ele>1375</ele>
        <time>2019-07-25T17:02:47Z</time>
      </trkpt>
      <trkpt lat="44.76397" lon="5.59632">
        <ele>1374</ele>
        <time>2019-07-25T17:02:48Z</time>
      </trkpt>
      <trkpt lat="44.76398" lon="5.59617">
        <ele>1376</ele>
        <time>2019-07-25T17:02:50Z</time>
      </trkpt>
      <trkpt lat="44.76396" lon="5.59607">
        <ele>1379</ele>
        <time>2019-07-25T17:02:51Z</time>
      </trkpt>
      <trkpt lat="44.76384" lon="5.59576">
        <ele>1393</ele>
        <time>2019-07-25T17:02:55Z</time>
      </trkpt>
      <trkpt lat="44.76383" lon="5.59558">
        <ele>1399</ele>
        <time>2019-07-25T17:02:58Z</time>
      </trkpt>
      <trkpt lat="44.76387" lon="5.59528">
        <ele>1403</ele>
        <time>2019-07-25T17:03:02Z</time>
      </trkpt>
      <trkpt lat="44.76394" lon="5.5951">
        <ele>1403</ele>
        <time>2019-07-25T17:03:04Z</time>
      </trkpt>
      <trkpt lat="44.76398" lon="5.59502">
        <ele>1402</ele>
        <time>2019-07-25T17:03:05Z</time>
      </trkpt>
      <trkpt lat="44.76408" lon="5.59491">
        <ele>1399</ele>
        <time>2019-07-25T17:03:08Z</time>
      </trkpt>
      <trkpt lat="44.76423" lon="5.5948">
        <ele>1394</ele>
        <time>2019-07-25T17:03:11Z</time>
      </trkpt>
      <trkpt lat="44.76457" lon="5.59463">
        <ele>1379</ele>
        <time>2019-07-25T17:03:17Z</time>
      </trkpt>
      <trkpt lat="44.76475" lon="5.5946">
        <ele>1369</ele>
        <time>2019-07-25T17:03:20Z</time>
      </trkpt>
      <trkpt lat="44.76481" lon="5.59457">
        <ele>1367</ele>
        <time>2019-07-25T17:03:21Z</time>
      </trkpt>
      <trkpt lat="44.76491" lon="5.59444">
        <ele>1365</ele>
        <time>2019-07-25T17:03:24Z</time>
      </trkpt>
      <trkpt lat="44.76497" lon="5.5942">
        <ele>1369</ele>
        <time>2019-07-25T17:03:27Z</time>
      </trkpt>
      <trkpt lat="44.76518" lon="5.59361">
        <ele>1370</ele>
        <time>2019-07-25T17:03:35Z</time>
      </trkpt>
      <trkpt lat="44.7653" lon="5.59303">
        <ele>1369</ele>
        <time>2019-07-25T17:03:43Z</time>
      </trkpt>
      <trkpt lat="44.76532" lon="5.59274">
        <ele>1369</ele>
        <time>2019-07-25T17:03:47Z</time>
      </trkpt>
      <trkpt lat="44.76535" lon="5.59253">
        <ele>1368</ele>
        <time>2019-07-25T17:03:49Z</time>
      </trkpt>
      <trkpt lat="44.76555" lon="5.59188">
        <ele>1355</ele>
        <time>2019-07-25T17:03:58Z</time>
      </trkpt>
      <trkpt lat="44.76555" lon="5.5918">
        <ele>1356</ele>
        <time>2019-07-25T17:03:59Z</time>
      </trkpt>
      <trkpt lat="44.76551" lon="5.59153">
        <ele>1361</ele>
        <time>2019-07-25T17:04:03Z</time>
      </trkpt>
      <trkpt lat="44.76551" lon="5.59144">
        <ele>1362</ele>
        <time>2019-07-25T17:04:04Z</time>
      </trkpt>
      <trkpt lat="44.7656" lon="5.59108">
        <ele>1363</ele>
        <time>2019-07-25T17:04:09Z</time>
      </trkpt>
      <trkpt lat="44.76562" lon="5.59089">
        <ele>1366</ele>
        <time>2019-07-25T17:04:11Z</time>
      </trkpt>
      <trkpt lat="44.7657" lon="5.5907">
        <ele>1367</ele>
        <time>2019-07-25T17:04:14Z</time>
      </trkpt>
      <trkpt lat="44.76592" lon="5.59043">
        <ele>1372</ele>
        <time>2019-07-25T17:04:19Z</time>
      </trkpt>
      <trkpt lat="44.76599" lon="5.5904">
        <ele>1375</ele>
        <time>2019-07-25T17:04:21Z</time>
      </trkpt>
      <trkpt lat="44.7661" lon="5.59039">
        <ele>1379</ele>
        <time>2019-07-25T17:04:23Z</time>
      </trkpt>
      <trkpt lat="44.76617" lon="5.59044">
        <ele>1380</ele>
        <time>2019-07-25T17:04:24Z</time>
      </trkpt>
      <trkpt lat="44.76623" lon="5.59053">
        <ele>1378</ele>
        <time>2019-07-25T17:04:25Z</time>
      </trkpt>
      <trkpt lat="44.76633" lon="5.59075">
        <ele>1372</ele>
        <time>2019-07-25T17:04:29Z</time>
      </trkpt>
      <trkpt lat="44.76647" lon="5.59112">
        <ele>1362</ele>
        <time>2019-07-25T17:04:34Z</time>
      </trkpt>
      <trkpt lat="44.76674" lon="5.59166">
        <ele>1347</ele>
        <time>2019-07-25T17:04:42Z</time>
      </trkpt>
      <trkpt lat="44.76688" lon="5.59186">
        <ele>1344</ele>
        <time>2019-07-25T17:04:46Z</time>
      </trkpt>
      <trkpt lat="44.76709" lon="5.59213">
        <ele>1340</ele>
        <time>2019-07-25T17:04:51Z</time>
      </trkpt>
      <trkpt lat="44.76722" lon="5.59227">
        <ele>1338</ele>
        <time>2019-07-25T17:04:54Z</time>
      </trkpt>
      <trkpt lat="44.76736" lon="5.59234">
        <ele>1339</ele>
        <time>2019-07-25T17:04:57Z</time>
      </trkpt>
      <trkpt lat="44.7675" lon="5.59237">
        <ele>1341</ele>
        <time>2019-07-25T17:04:59Z</time>
      </trkpt>
      <trkpt lat="44.76764" lon="5.59235">
        <ele>1338</ele>
        <time>2019-07-25T17:05:02Z</time>
      </trkpt>
      <trkpt lat="44.76769" lon="5.59232">
        <ele>1337</ele>
        <time>2019-07-25T17:05:03Z</time>
      </trkpt>
      <trkpt lat="44.76782" lon="5.5922">
        <ele>1338</ele>
        <time>2019-07-25T17:05:05Z</time>
      </trkpt>
      <trkpt lat="44.76792" lon="5.59205">
        <ele>1339</ele>
        <time>2019-07-25T17:05:08Z</time>
      </trkpt>
      <trkpt lat="44.76803" lon="5.59179">
        <ele>1344</ele>
        <time>2019-07-25T17:05:12Z</time>
      </trkpt>
      <trkpt lat="44.76815" lon="5.59159">
        <ele>1345</ele>
        <time>2019-07-25T17:05:15Z</time>
      </trkpt>
      <trkpt lat="44.76853" lon="5.59112">
        <ele>1344</ele>
        <time>2019-07-25T17:05:24Z</time>
      </trkpt>
      <trkpt lat="44.76856" lon="5.59103">
        <ele>1346</ele>
        <time>2019-07-25T17:05:25Z</time>
      </trkpt>
      <trkpt lat="44.76858" lon="5.59074">
        <ele>1353</ele>
        <time>2019-07-25T17:05:29Z</time>
      </trkpt>
      <trkpt lat="44.7686" lon="5.59066">
        <ele>1355</ele>
        <time>2019-07-25T17:05:30Z</time>
      </trkpt>
      <trkpt lat="44.76865" lon="5.5906">
        <ele>1355</ele>
        <time>2019-07-25T17:05:31Z</time>
      </trkpt>
      <trkpt lat="44.76871" lon="5.59058">
        <ele>1354</ele>
        <time>2019-07-25T17:05:32Z</time>
      </trkpt>
      <trkpt lat="44.76878" lon="5.59059">
        <ele>1352</ele>
        <time>2019-07-25T17:05:34Z</time>
      </trkpt>
      <trkpt lat="44.76905" lon="5.59075">
        <ele>1340</ele>
        <time>2019-07-25T17:05:39Z</time>
      </trkpt>
      <trkpt lat="44.76911" lon="5.59077">
        <ele>1337</ele>
        <time>2019-07-25T17:05:40Z</time>
      </trkpt>
      <trkpt lat="44.76916" lon="5.59075">
        <ele>1337</ele>
        <time>2019-07-25T17:05:41Z</time>
      </trkpt>
      <trkpt lat="44.76921" lon="5.59071">
        <ele>1337</ele>
        <time>2019-07-25T17:05:42Z</time>
      </trkpt>
      <trkpt lat="44.76935" lon="5.59052">
        <ele>1339</ele>
        <time>2019-07-25T17:05:45Z</time>
      </trkpt>
      <trkpt lat="44.76941" lon="5.59048">
        <ele>1339</ele>
        <time>2019-07-25T17:05:46Z</time>
      </trkpt>
      <trkpt lat="44.76959" lon="5.59043">
        <ele>1336</ele>
        <time>2019-07-25T17:05:50Z</time>
      </trkpt>
      <trkpt lat="44.76965" lon="5.5904">
        <ele>1335</ele>
        <time>2019-07-25T17:05:51Z</time>
      </trkpt>
      <trkpt lat="44.7699" lon="5.59016">
        <ele>1335</ele>
        <time>2019-07-25T17:05:56Z</time>
      </trkpt>
      <trkpt lat="44.77004" lon="5.59011">
        <ele>1334</ele>
        <time>2019-07-25T17:05:59Z</time>
      </trkpt>
      <trkpt lat="44.7702" lon="5.59012">
        <ele>1333</ele>
        <time>2019-07-25T17:06:02Z</time>
      </trkpt>
      <trkpt lat="44.77026" lon="5.59011">
        <ele>1332</ele>
        <time>2019-07-25T17:06:03Z</time>
      </trkpt>
      <trkpt lat="44.77034" lon="5.59005">
        <ele>1334</ele>
        <time>2019-07-25T17:06:04Z</time>
      </trkpt>
      <trkpt lat="44.77043" lon="5.58979">
        <ele>1340</ele>
        <time>2019-07-25T17:06:08Z</time>
      </trkpt>
      <trkpt lat="44.77047" lon="5.58975">
        <ele>1341</ele>
        <time>2019-07-25T17:06:09Z</time>
      </trkpt>
      <trkpt lat="44.77051" lon="5.58974">
        <ele>1341</ele>
        <time>2019-07-25T17:06:10Z</time>
      </trkpt>
      <trkpt lat="44.7706" lon="5.5898">
        <ele>1338</ele>
        <time>2019-07-25T17:06:11Z</time>
      </trkpt>
      <trkpt lat="44.77076" lon="5.59007">
        <ele>1330</ele>
        <time>2019-07-25T17:06:16Z</time>
      </trkpt>
      <trkpt lat="44.77082" lon="5.59014">
        <ele>1328</ele>
        <time>2019-07-25T17:06:17Z</time>
      </trkpt>
      <trkpt lat="44.77096" lon="5.59023">
        <ele>1326</ele>
        <time>2019-07-25T17:06:20Z</time>
      </trkpt>
      <trkpt lat="44.77109" lon="5.59024">
        <ele>1327</ele>
        <time>2019-07-25T17:06:22Z</time>
      </trkpt>
      <trkpt lat="44.77115" lon="5.59027">
        <ele>1327</ele>
        <time>2019-07-25T17:06:23Z</time>
      </trkpt>
      <trkpt lat="44.7713" lon="5.5905">
        <ele>1321</ele>
        <time>2019-07-25T17:06:27Z</time>
      </trkpt>
      <trkpt lat="44.77156" lon="5.59078">
        <ele>1315</ele>
        <time>2019-07-25T17:06:33Z</time>
      </trkpt>
      <trkpt lat="44.77173" lon="5.5911">
        <ele>1306</ele>
        <time>2019-07-25T17:06:38Z</time>
      </trkpt>
      <trkpt lat="44.77177" lon="5.59116">
        <ele>1303</ele>
        <time>2019-07-25T17:06:39Z</time>
      </trkpt>
      <trkpt lat="44.77183" lon="5.59118">
        <ele>1301</ele>
        <time>2019-07-25T17:06:40Z</time>
      </trkpt>
      <trkpt lat="44.77188" lon="5.59115">
        <ele>1300</ele>
        <time>2019-07-25T17:06:41Z</time>
      </trkpt>
      <trkpt lat="44.77192" lon="5.5911">
        <ele>1300</ele>
        <time>2019-07-25T17:06:42Z</time>
      </trkpt>
      <trkpt lat="44.77201" lon="5.59089">
        <ele>1301</ele>
        <time>2019-07-25T17:06:45Z</time>
      </trkpt>
      <trkpt lat="44.77206" lon="5.59064">
        <ele>1305</ele>
        <time>2019-07-25T17:06:49Z</time>
      </trkpt>
      <trkpt lat="44.77207" lon="5.59051">
        <ele>1307</ele>
        <time>2019-07-25T17:06:50Z</time>
      </trkpt>
      <trkpt lat="44.77207" lon="5.59002">
        <ele>1318</ele>
        <time>2019-07-25T17:06:56Z</time>
      </trkpt>
      <trkpt lat="44.7721" lon="5.58982">
        <ele>1320</ele>
        <time>2019-07-25T17:06:59Z</time>
      </trkpt>
      <trkpt lat="44.77213" lon="5.58973">
        <ele>1321</ele>
        <time>2019-07-25T17:07:00Z</time>
      </trkpt>
      <trkpt lat="44.77221" lon="5.5896">
        <ele>1319</ele>
        <time>2019-07-25T17:07:02Z</time>
      </trkpt>
      <trkpt lat="44.77231" lon="5.5893">
        <ele>1318</ele>
        <time>2019-07-25T17:07:07Z</time>
      </trkpt>
      <trkpt lat="44.77236" lon="5.58927">
        <ele>1316</ele>
        <time>2019-07-25T17:07:08Z</time>
      </trkpt>
      <trkpt lat="44.77242" lon="5.58926">
        <ele>1313</ele>
        <time>2019-07-25T17:07:09Z</time>
      </trkpt>
      <trkpt lat="44.77248" lon="5.58929">
        <ele>1309</ele>
        <time>2019-07-25T17:07:10Z</time>
      </trkpt>
      <trkpt lat="44.77262" lon="5.58943">
        <ele>1303</ele>
        <time>2019-07-25T17:07:13Z</time>
      </trkpt>
      <trkpt lat="44.77267" lon="5.58943">
        <ele>1302</ele>
        <time>2019-07-25T17:07:14Z</time>
      </trkpt>
      <trkpt lat="44.77275" lon="5.58937">
        <ele>1301</ele>
        <time>2019-07-25T17:07:15Z</time>
      </trkpt>
      <trkpt lat="44.77282" lon="5.58909">
        <ele>1303</ele>
        <time>2019-07-25T17:07:19Z</time>
      </trkpt>
      <trkpt lat="44.77282" lon="5.58887">
        <ele>1307</ele>
        <time>2019-07-25T17:07:22Z</time>
      </trkpt>
      <trkpt lat="44.77284" lon="5.5887">
        <ele>1310</ele>
        <time>2019-07-25T17:07:24Z</time>
      </trkpt>
      <trkpt lat="44.77292" lon="5.58851">
        <ele>1311</ele>
        <time>2019-07-25T17:07:27Z</time>
      </trkpt>
      <trkpt lat="44.77296" lon="5.58836">
        <ele>1313</ele>
        <time>2019-07-25T17:07:29Z</time>
      </trkpt>
      <trkpt lat="44.77298" lon="5.58817">
        <ele>1315</ele>
        <time>2019-07-25T17:07:31Z</time>
      </trkpt>
      <trkpt lat="44.77294" lon="5.58792">
        <ele>1320</ele>
        <time>2019-07-25T17:07:35Z</time>
      </trkpt>
      <trkpt lat="44.77295" lon="5.58786">
        <ele>1321</ele>
        <time>2019-07-25T17:07:35Z</time>
      </trkpt>
      <trkpt lat="44.77299" lon="5.58781">
        <ele>1321</ele>
        <time>2019-07-25T17:07:36Z</time>
      </trkpt>
      <trkpt lat="44.77317" lon="5.58775">
        <ele>1316</ele>
        <time>2019-07-25T17:07:40Z</time>
      </trkpt>
      <trkpt lat="44.77323" lon="5.58778">
        <ele>1314</ele>
        <time>2019-07-25T17:07:41Z</time>
      </trkpt>
      <trkpt lat="44.77326" lon="5.58784">
        <ele>1312</ele>
        <time>2019-07-25T17:07:42Z</time>
      </trkpt>
      <trkpt lat="44.77346" lon="5.58844">
        <ele>1306</ele>
        <time>2019-07-25T17:07:50Z</time>
      </trkpt>
      <trkpt lat="44.77347" lon="5.58874">
        <ele>1301</ele>
        <time>2019-07-25T17:07:54Z</time>
      </trkpt>
      <trkpt lat="44.77353" lon="5.58892">
        <ele>1301</ele>
        <time>2019-07-25T17:07:56Z</time>
      </trkpt>
      <trkpt lat="44.77354" lon="5.589">
        <ele>1300</ele>
        <time>2019-07-25T17:07:57Z</time>
      </trkpt>
      <trkpt lat="44.77352" lon="5.58926">
        <ele>1296</ele>
        <time>2019-07-25T17:08:01Z</time>
      </trkpt>
      <trkpt lat="44.77353" lon="5.58936">
        <ele>1296</ele>
        <time>2019-07-25T17:08:02Z</time>
      </trkpt>
      <trkpt lat="44.77358" lon="5.58953">
        <ele>1298</ele>
        <time>2019-07-25T17:08:04Z</time>
      </trkpt>
      <trkpt lat="44.77356" lon="5.58966">
        <ele>1296</ele>
        <time>2019-07-25T17:08:06Z</time>
      </trkpt>
      <trkpt lat="44.77346" lon="5.58998">
        <ele>1291</ele>
        <time>2019-07-25T17:08:10Z</time>
      </trkpt>
      <trkpt lat="44.77346" lon="5.59011">
        <ele>1288</ele>
        <time>2019-07-25T17:08:12Z</time>
      </trkpt>
      <trkpt lat="44.77355" lon="5.59057">
        <ele>1283</ele>
        <time>2019-07-25T17:08:18Z</time>
      </trkpt>
      <trkpt lat="44.7736" lon="5.59069">
        <ele>1283</ele>
        <time>2019-07-25T17:08:20Z</time>
      </trkpt>
      <trkpt lat="44.77373" lon="5.59082">
        <ele>1285</ele>
        <time>2019-07-25T17:08:23Z</time>
      </trkpt>
      <trkpt lat="44.77381" lon="5.59086">
        <ele>1286</ele>
        <time>2019-07-25T17:08:24Z</time>
      </trkpt>
      <trkpt lat="44.77398" lon="5.59086">
        <ele>1292</ele>
        <time>2019-07-25T17:08:27Z</time>
      </trkpt>
      <trkpt lat="44.77407" lon="5.5909">
        <ele>1294</ele>
        <time>2019-07-25T17:08:29Z</time>
      </trkpt>
      <trkpt lat="44.77432" lon="5.59109">
        <ele>1296</ele>
        <time>2019-07-25T17:08:34Z</time>
      </trkpt>
      <trkpt lat="44.77438" lon="5.59117">
        <ele>1295</ele>
        <time>2019-07-25T17:08:35Z</time>
      </trkpt>
      <trkpt lat="44.77442" lon="5.59127">
        <ele>1294</ele>
        <time>2019-07-25T17:08:37Z</time>
      </trkpt>
      <trkpt lat="44.77451" lon="5.59172">
        <ele>1287</ele>
        <time>2019-07-25T17:08:43Z</time>
      </trkpt>
      <trkpt lat="44.77456" lon="5.59185">
        <ele>1286</ele>
        <time>2019-07-25T17:08:45Z</time>
      </trkpt>
      <trkpt lat="44.77483" lon="5.59231">
        <ele>1286</ele>
        <time>2019-07-25T17:08:52Z</time>
      </trkpt>
      <trkpt lat="44.77486" lon="5.5924">
        <ele>1285</ele>
        <time>2019-07-25T17:08:53Z</time>
      </trkpt>
      <trkpt lat="44.7749" lon="5.59268">
        <ele>1281</ele>
        <time>2019-07-25T17:08:57Z</time>
      </trkpt>
      <trkpt lat="44.77502" lon="5.59285">
        <ele>1281</ele>
        <time>2019-07-25T17:09:00Z</time>
      </trkpt>
      <trkpt lat="44.77531" lon="5.59316">
        <ele>1276</ele>
        <time>2019-07-25T17:09:07Z</time>
      </trkpt>
      <trkpt lat="44.77536" lon="5.59326">
        <ele>1275</ele>
        <time>2019-07-25T17:09:08Z</time>
      </trkpt>
      <trkpt lat="44.77549" lon="5.59388">
        <ele>1267</ele>
        <time>2019-07-25T17:09:16Z</time>
      </trkpt>
      <trkpt lat="44.77553" lon="5.59396">
        <ele>1266</ele>
        <time>2019-07-25T17:09:17Z</time>
      </trkpt>
      <trkpt lat="44.77558" lon="5.59399">
        <ele>1267</ele>
        <time>2019-07-25T17:09:18Z</time>
      </trkpt>
      <trkpt lat="44.77564" lon="5.59399">
        <ele>1268</ele>
        <time>2019-07-25T17:09:19Z</time>
      </trkpt>
      <trkpt lat="44.77569" lon="5.59394">
        <ele>1269</ele>
        <time>2019-07-25T17:09:21Z</time>
      </trkpt>
      <trkpt lat="44.77575" lon="5.59379">
        <ele>1273</ele>
        <time>2019-07-25T17:09:23Z</time>
      </trkpt>
      <trkpt lat="44.77583" lon="5.59342">
        <ele>1279</ele>
        <time>2019-07-25T17:09:28Z</time>
      </trkpt>
      <trkpt lat="44.7759" lon="5.59324">
        <ele>1279</ele>
        <time>2019-07-25T17:09:30Z</time>
      </trkpt>
      <trkpt lat="44.77595" lon="5.59318">
        <ele>1278</ele>
        <time>2019-07-25T17:09:31Z</time>
      </trkpt>
      <trkpt lat="44.77619" lon="5.593">
        <ele>1272</ele>
        <time>2019-07-25T17:09:36Z</time>
      </trkpt>
      <trkpt lat="44.77622" lon="5.5929">
        <ele>1272</ele>
        <time>2019-07-25T17:09:38Z</time>
      </trkpt>
      <trkpt lat="44.77621" lon="5.59266">
        <ele>1274</ele>
        <time>2019-07-25T17:09:41Z</time>
      </trkpt>
      <trkpt lat="44.77615" lon="5.5924">
        <ele>1278</ele>
        <time>2019-07-25T17:09:44Z</time>
      </trkpt>
      <trkpt lat="44.77603" lon="5.59195">
        <ele>1284</ele>
        <time>2019-07-25T17:09:50Z</time>
      </trkpt>
      <trkpt lat="44.77601" lon="5.59181">
        <ele>1285</ele>
        <time>2019-07-25T17:09:52Z</time>
      </trkpt>
      <trkpt lat="44.77601" lon="5.59144">
        <ele>1287</ele>
        <time>2019-07-25T17:09:57Z</time>
      </trkpt>
      <trkpt lat="44.77603" lon="5.59135">
        <ele>1287</ele>
        <time>2019-07-25T17:09:58Z</time>
      </trkpt>
      <trkpt lat="44.77608" lon="5.59129">
        <ele>1286</ele>
        <time>2019-07-25T17:09:59Z</time>
      </trkpt>
      <trkpt lat="44.77614" lon="5.59126">
        <ele>1284</ele>
        <time>2019-07-25T17:10:00Z</time>
      </trkpt>
      <trkpt lat="44.7762" lon="5.59128">
        <ele>1282</ele>
        <time>2019-07-25T17:10:01Z</time>
      </trkpt>
      <trkpt lat="44.77632" lon="5.59139">
        <ele>1277</ele>
        <time>2019-07-25T17:10:04Z</time>
      </trkpt>
      <trkpt lat="44.77638" lon="5.59143">
        <ele>1275</ele>
        <time>2019-07-25T17:10:05Z</time>
      </trkpt>
      <trkpt lat="44.77645" lon="5.59144">
        <ele>1273</ele>
        <time>2019-07-25T17:10:06Z</time>
      </trkpt>
      <trkpt lat="44.77651" lon="5.59141">
        <ele>1271</ele>
        <time>2019-07-25T17:10:07Z</time>
      </trkpt>
      <trkpt lat="44.77654" lon="5.59134">
        <ele>1271</ele>
        <time>2019-07-25T17:10:08Z</time>
      </trkpt>
      <trkpt lat="44.77653" lon="5.59093">
        <ele>1275</ele>
        <time>2019-07-25T17:10:14Z</time>
      </trkpt>
      <trkpt lat="44.77658" lon="5.59069">
        <ele>1278</ele>
        <time>2019-07-25T17:10:17Z</time>
      </trkpt>
      <trkpt lat="44.77663" lon="5.5906">
        <ele>1279</ele>
        <time>2019-07-25T17:10:18Z</time>
      </trkpt>
      <trkpt lat="44.7767" lon="5.59056">
        <ele>1280</ele>
        <time>2019-07-25T17:10:20Z</time>
      </trkpt>
      <trkpt lat="44.77678" lon="5.59056">
        <ele>1280</ele>
        <time>2019-07-25T17:10:21Z</time>
      </trkpt>
      <trkpt lat="44.77717" lon="5.59078">
        <ele>1278</ele>
        <time>2019-07-25T17:10:28Z</time>
      </trkpt>
      <trkpt lat="44.77736" lon="5.59092">
        <ele>1276</ele>
        <time>2019-07-25T17:10:32Z</time>
      </trkpt>
      <trkpt lat="44.77745" lon="5.59101">
        <ele>1273</ele>
        <time>2019-07-25T17:10:34Z</time>
      </trkpt>
      <trkpt lat="44.77751" lon="5.59112">
        <ele>1270</ele>
        <time>2019-07-25T17:10:36Z</time>
      </trkpt>
      <trkpt lat="44.7778" lon="5.59167">
        <ele>1255</ele>
        <time>2019-07-25T17:10:45Z</time>
      </trkpt>
      <trkpt lat="44.77785" lon="5.59171">
        <ele>1255</ele>
        <time>2019-07-25T17:10:46Z</time>
      </trkpt>
      <trkpt lat="44.7779" lon="5.59171">
        <ele>1255</ele>
        <time>2019-07-25T17:10:47Z</time>
      </trkpt>
      <trkpt lat="44.77809" lon="5.5916">
        <ele>1259</ele>
        <time>2019-07-25T17:10:50Z</time>
      </trkpt>
      <trkpt lat="44.77849" lon="5.59146">
        <ele>1265</ele>
        <time>2019-07-25T17:10:58Z</time>
      </trkpt>
      <trkpt lat="44.77855" lon="5.59141">
        <ele>1267</ele>
        <time>2019-07-25T17:10:59Z</time>
      </trkpt>
      <trkpt lat="44.77864" lon="5.59123">
        <ele>1272</ele>
        <time>2019-07-25T17:11:02Z</time>
      </trkpt>
      <trkpt lat="44.77874" lon="5.59119">
        <ele>1274</ele>
        <time>2019-07-25T17:11:03Z</time>
      </trkpt>
      <trkpt lat="44.77881" lon="5.59123">
        <ele>1273</ele>
        <time>2019-07-25T17:11:05Z</time>
      </trkpt>
      <trkpt lat="44.77895" lon="5.59138">
        <ele>1271</ele>
        <time>2019-07-25T17:11:08Z</time>
      </trkpt>
      <trkpt lat="44.77901" lon="5.59147">
        <ele>1270</ele>
        <time>2019-07-25T17:11:09Z</time>
      </trkpt>
      <trkpt lat="44.77905" lon="5.59157">
        <ele>1268</ele>
        <time>2019-07-25T17:11:11Z</time>
      </trkpt>
      <trkpt lat="44.77907" lon="5.59169">
        <ele>1267</ele>
        <time>2019-07-25T17:11:12Z</time>
      </trkpt>
      <trkpt lat="44.77909" lon="5.59208">
        <ele>1263</ele>
        <time>2019-07-25T17:11:17Z</time>
      </trkpt>
      <trkpt lat="44.77906" lon="5.59235">
        <ele>1259</ele>
        <time>2019-07-25T17:11:21Z</time>
      </trkpt>
      <trkpt lat="44.77897" lon="5.59275">
        <ele>1253</ele>
        <time>2019-07-25T17:11:26Z</time>
      </trkpt>
      <trkpt lat="44.77896" lon="5.5929">
        <ele>1251</ele>
        <time>2019-07-25T17:11:28Z</time>
      </trkpt>
      <trkpt lat="44.77896" lon="5.59302">
        <ele>1249</ele>
        <time>2019-07-25T17:11:30Z</time>
      </trkpt>
      <trkpt lat="44.77899" lon="5.59313">
        <ele>1249</ele>
        <time>2019-07-25T17:11:31Z</time>
      </trkpt>
      <trkpt lat="44.77914" lon="5.59347">
        <ele>1251</ele>
        <time>2019-07-25T17:11:36Z</time>
      </trkpt>
      <trkpt lat="44.77917" lon="5.59361">
        <ele>1251</ele>
        <time>2019-07-25T17:11:38Z</time>
      </trkpt>
      <trkpt lat="44.77915" lon="5.59409">
        <ele>1248</ele>
        <time>2019-07-25T17:11:44Z</time>
      </trkpt>
      <trkpt lat="44.77917" lon="5.59444">
        <ele>1245</ele>
        <time>2019-07-25T17:11:48Z</time>
      </trkpt>
      <trkpt lat="44.77949" lon="5.59628">
        <ele>1227</ele>
        <time>2019-07-25T17:12:12Z</time>
      </trkpt>
      <trkpt lat="44.77953" lon="5.59638">
        <ele>1226</ele>
        <time>2019-07-25T17:12:14Z</time>
      </trkpt>
      <trkpt lat="44.77958" lon="5.59646">
        <ele>1226</ele>
        <time>2019-07-25T17:12:15Z</time>
      </trkpt>
      <trkpt lat="44.77964" lon="5.5965">
        <ele>1226</ele>
        <time>2019-07-25T17:12:16Z</time>
      </trkpt>
      <trkpt lat="44.7797" lon="5.59649">
        <ele>1227</ele>
        <time>2019-07-25T17:12:17Z</time>
      </trkpt>
      <trkpt lat="44.77978" lon="5.59646">
        <ele>1228</ele>
        <time>2019-07-25T17:12:19Z</time>
      </trkpt>
      <trkpt lat="44.77985" lon="5.5963">
        <ele>1231</ele>
        <time>2019-07-25T17:12:21Z</time>
      </trkpt>
      <trkpt lat="44.78005" lon="5.59539">
        <ele>1245</ele>
        <time>2019-07-25T17:12:33Z</time>
      </trkpt>
      <trkpt lat="44.78018" lon="5.59498">
        <ele>1248</ele>
        <time>2019-07-25T17:12:39Z</time>
      </trkpt>
      <trkpt lat="44.78029" lon="5.59473">
        <ele>1247</ele>
        <time>2019-07-25T17:12:43Z</time>
      </trkpt>
      <trkpt lat="44.78056" lon="5.5942">
        <ele>1244</ele>
        <time>2019-07-25T17:12:51Z</time>
      </trkpt>
      <trkpt lat="44.78064" lon="5.59396">
        <ele>1246</ele>
        <time>2019-07-25T17:12:54Z</time>
      </trkpt>
      <trkpt lat="44.7807" lon="5.59354">
        <ele>1252</ele>
        <time>2019-07-25T17:13:00Z</time>
      </trkpt>
      <trkpt lat="44.78074" lon="5.59349">
        <ele>1253</ele>
        <time>2019-07-25T17:13:01Z</time>
      </trkpt>
      <trkpt lat="44.7808" lon="5.59346">
        <ele>1252</ele>
        <time>2019-07-25T17:13:02Z</time>
      </trkpt>
      <trkpt lat="44.78083" lon="5.59347">
        <ele>1251</ele>
        <time>2019-07-25T17:13:02Z</time>
      </trkpt>
      <trkpt lat="44.78088" lon="5.59352">
        <ele>1251</ele>
        <time>2019-07-25T17:13:03Z</time>
      </trkpt>
      <trkpt lat="44.78092" lon="5.59364">
        <ele>1249</ele>
        <time>2019-07-25T17:13:05Z</time>
      </trkpt>
      <trkpt lat="44.7812" lon="5.59473">
        <ele>1238</ele>
        <time>2019-07-25T17:13:20Z</time>
      </trkpt>
      <trkpt lat="44.78127" lon="5.59513">
        <ele>1234</ele>
        <time>2019-07-25T17:13:25Z</time>
      </trkpt>
      <trkpt lat="44.78128" lon="5.59566">
        <ele>1226</ele>
        <time>2019-07-25T17:13:32Z</time>
      </trkpt>
      <trkpt lat="44.78132" lon="5.59577">
        <ele>1224</ele>
        <time>2019-07-25T17:13:33Z</time>
      </trkpt>
      <trkpt lat="44.78146" lon="5.596">
        <ele>1222</ele>
        <time>2019-07-25T17:13:37Z</time>
      </trkpt>
      <trkpt lat="44.78156" lon="5.59602">
        <ele>1222</ele>
        <time>2019-07-25T17:13:39Z</time>
      </trkpt>
      <trkpt lat="44.78166" lon="5.596">
        <ele>1223</ele>
        <time>2019-07-25T17:13:41Z</time>
      </trkpt>
      <trkpt lat="44.78248" lon="5.5953">
        <ele>1229</ele>
        <time>2019-07-25T17:13:58Z</time>
      </trkpt>
      <trkpt lat="44.78257" lon="5.59519">
        <ele>1231</ele>
        <time>2019-07-25T17:14:00Z</time>
      </trkpt>
      <trkpt lat="44.7828" lon="5.59481">
        <ele>1238</ele>
        <time>2019-07-25T17:14:06Z</time>
      </trkpt>
      <trkpt lat="44.78315" lon="5.59448">
        <ele>1242</ele>
        <time>2019-07-25T17:14:14Z</time>
      </trkpt>
      <trkpt lat="44.78323" lon="5.59457">
        <ele>1239</ele>
        <time>2019-07-25T17:14:15Z</time>
      </trkpt>
      <trkpt lat="44.78329" lon="5.59495">
        <ele>1231</ele>
        <time>2019-07-25T17:14:20Z</time>
      </trkpt>
      <trkpt lat="44.78329" lon="5.5951">
        <ele>1229</ele>
        <time>2019-07-25T17:14:22Z</time>
      </trkpt>
      <trkpt lat="44.78325" lon="5.59526">
        <ele>1227</ele>
        <time>2019-07-25T17:14:24Z</time>
      </trkpt>
      <trkpt lat="44.78324" lon="5.59543">
        <ele>1225</ele>
        <time>2019-07-25T17:14:26Z</time>
      </trkpt>
      <trkpt lat="44.78324" lon="5.59579">
        <ele>1220</ele>
        <time>2019-07-25T17:14:31Z</time>
      </trkpt>
      <trkpt lat="44.78325" lon="5.59596">
        <ele>1218</ele>
        <time>2019-07-25T17:14:33Z</time>
      </trkpt>
      <trkpt lat="44.78342" lon="5.59678">
        <ele>1207</ele>
        <time>2019-07-25T17:14:44Z</time>
      </trkpt>
      <trkpt lat="44.78354" lon="5.59707">
        <ele>1205</ele>
        <time>2019-07-25T17:14:48Z</time>
      </trkpt>
      <trkpt lat="44.78366" lon="5.59724">
        <ele>1204</ele>
        <time>2019-07-25T17:14:51Z</time>
      </trkpt>
      <trkpt lat="44.78374" lon="5.59732">
        <ele>1204</ele>
        <time>2019-07-25T17:14:53Z</time>
      </trkpt>
      <trkpt lat="44.78445" lon="5.59777">
        <ele>1204</ele>
        <time>2019-07-25T17:15:07Z</time>
      </trkpt>
      <trkpt lat="44.7847" lon="5.59805">
        <ele>1203</ele>
        <time>2019-07-25T17:15:13Z</time>
      </trkpt>
      <trkpt lat="44.78497" lon="5.59852">
        <ele>1202</ele>
        <time>2019-07-25T17:15:20Z</time>
      </trkpt>
      <trkpt lat="44.78504" lon="5.59863">
        <ele>1201</ele>
        <time>2019-07-25T17:15:22Z</time>
      </trkpt>
      <trkpt lat="44.78517" lon="5.59873">
        <ele>1201</ele>
        <time>2019-07-25T17:15:25Z</time>
      </trkpt>
      <trkpt lat="44.78533" lon="5.59875">
        <ele>1201</ele>
        <time>2019-07-25T17:15:28Z</time>
      </trkpt>
      <trkpt lat="44.78561" lon="5.59872">
        <ele>1199</ele>
        <time>2019-07-25T17:15:33Z</time>
      </trkpt>
      <trkpt lat="44.78648" lon="5.59874">
        <ele>1192</ele>
        <time>2019-07-25T17:15:48Z</time>
      </trkpt>
      <trkpt lat="44.78697" lon="5.59864">
        <ele>1190</ele>
        <time>2019-07-25T17:15:57Z</time>
      </trkpt>
      <trkpt lat="44.78717" lon="5.59854">
        <ele>1190</ele>
        <time>2019-07-25T17:16:01Z</time>
      </trkpt>
      <trkpt lat="44.78762" lon="5.59819">
        <ele>1187</ele>
        <time>2019-07-25T17:16:10Z</time>
      </trkpt>
      <trkpt lat="44.78767" lon="5.59813">
        <ele>1187</ele>
        <time>2019-07-25T17:16:11Z</time>
      </trkpt>
      <trkpt lat="44.78776" lon="5.59786">
        <ele>1184</ele>
        <time>2019-07-25T17:16:15Z</time>
      </trkpt>
      <trkpt lat="44.78782" lon="5.59772">
        <ele>1183</ele>
        <time>2019-07-25T17:16:17Z</time>
      </trkpt>
      <trkpt lat="44.78831" lon="5.59716">
        <ele>1180</ele>
        <time>2019-07-25T17:16:28Z</time>
      </trkpt>
      <trkpt lat="44.78901" lon="5.59601">
        <ele>1164</ele>
        <time>2019-07-25T17:16:47Z</time>
      </trkpt>
      <trkpt lat="44.78912" lon="5.59586">
        <ele>1162</ele>
        <time>2019-07-25T17:16:50Z</time>
      </trkpt>
      <trkpt lat="44.78963" lon="5.59549">
        <ele>1159</ele>
        <time>2019-07-25T17:17:00Z</time>
      </trkpt>
      <trkpt lat="44.78973" lon="5.5954">
        <ele>1158</ele>
        <time>2019-07-25T17:17:02Z</time>
      </trkpt>
      <trkpt lat="44.78995" lon="5.5951">
        <ele>1153</ele>
        <time>2019-07-25T17:17:08Z</time>
      </trkpt>
      <trkpt lat="44.79003" lon="5.59504">
        <ele>1152</ele>
        <time>2019-07-25T17:17:09Z</time>
      </trkpt>
      <trkpt lat="44.79018" lon="5.59502">
        <ele>1152</ele>
        <time>2019-07-25T17:17:12Z</time>
      </trkpt>
      <trkpt lat="44.79041" lon="5.59509">
        <ele>1155</ele>
        <time>2019-07-25T17:17:16Z</time>
      </trkpt>
      <trkpt lat="44.79056" lon="5.59509">
        <ele>1156</ele>
        <time>2019-07-25T17:17:19Z</time>
      </trkpt>
      <trkpt lat="44.79069" lon="5.59507">
        <ele>1156</ele>
        <time>2019-07-25T17:17:21Z</time>
      </trkpt>
      <trkpt lat="44.79081" lon="5.59501">
        <ele>1155</ele>
        <time>2019-07-25T17:17:23Z</time>
      </trkpt>
      <trkpt lat="44.79149" lon="5.59449">
        <ele>1145</ele>
        <time>2019-07-25T17:17:37Z</time>
      </trkpt>
      <trkpt lat="44.79253" lon="5.59375">
        <ele>1134</ele>
        <time>2019-07-25T17:17:58Z</time>
      </trkpt>
      <trkpt lat="44.79282" lon="5.59356">
        <ele>1130</ele>
        <time>2019-07-25T17:18:04Z</time>
      </trkpt>
      <trkpt lat="44.79309" lon="5.59343">
        <ele>1129</ele>
        <time>2019-07-25T17:18:09Z</time>
      </trkpt>
      <trkpt lat="44.79347" lon="5.59326">
        <ele>1125</ele>
        <time>2019-07-25T17:18:16Z</time>
      </trkpt>
      <trkpt lat="44.7936" lon="5.59324">
        <ele>1124</ele>
        <time>2019-07-25T17:18:18Z</time>
      </trkpt>
      <trkpt lat="44.79371" lon="5.59326">
        <ele>1123</ele>
        <time>2019-07-25T17:18:20Z</time>
      </trkpt>
      <trkpt lat="44.79406" lon="5.59358">
        <ele>1128</ele>
        <time>2019-07-25T17:18:27Z</time>
      </trkpt>
      <trkpt lat="44.79416" lon="5.59362">
        <ele>1128</ele>
        <time>2019-07-25T17:18:29Z</time>
      </trkpt>
      <trkpt lat="44.79439" lon="5.5936">
        <ele>1129</ele>
        <time>2019-07-25T17:18:33Z</time>
      </trkpt>
      <trkpt lat="44.79449" lon="5.59355">
        <ele>1129</ele>
        <time>2019-07-25T17:18:35Z</time>
      </trkpt>
      <trkpt lat="44.7946" lon="5.59347">
        <ele>1127</ele>
        <time>2019-07-25T17:18:37Z</time>
      </trkpt>
      <trkpt lat="44.79483" lon="5.59323">
        <ele>1123</ele>
        <time>2019-07-25T17:18:43Z</time>
      </trkpt>
      <trkpt lat="44.79493" lon="5.59308">
        <ele>1120</ele>
        <time>2019-07-25T17:18:45Z</time>
      </trkpt>
      <trkpt lat="44.795" lon="5.59294">
        <ele>1118</ele>
        <time>2019-07-25T17:18:47Z</time>
      </trkpt>
      <trkpt lat="44.7951" lon="5.5925">
        <ele>1111</ele>
        <time>2019-07-25T17:18:53Z</time>
      </trkpt>
      <trkpt lat="44.79523" lon="5.59228">
        <ele>1109</ele>
        <time>2019-07-25T17:18:57Z</time>
      </trkpt>
      <trkpt lat="44.79559" lon="5.59189">
        <ele>1106</ele>
        <time>2019-07-25T17:19:05Z</time>
      </trkpt>
      <trkpt lat="44.79602" lon="5.59154">
        <ele>1104</ele>
        <time>2019-07-25T17:19:14Z</time>
      </trkpt>
      <trkpt lat="44.79693" lon="5.59089">
        <ele>1098</ele>
        <time>2019-07-25T17:19:32Z</time>
      </trkpt>
      <trkpt lat="44.79707" lon="5.59075">
        <ele>1097</ele>
        <time>2019-07-25T17:19:35Z</time>
      </trkpt>
      <trkpt lat="44.79729" lon="5.59039">
        <ele>1091</ele>
        <time>2019-07-25T17:19:41Z</time>
      </trkpt>
      <trkpt lat="44.7974" lon="5.59029">
        <ele>1090</ele>
        <time>2019-07-25T17:19:43Z</time>
      </trkpt>
      <trkpt lat="44.7981" lon="5.5898">
        <ele>1088</ele>
        <time>2019-07-25T17:19:57Z</time>
      </trkpt>
      <trkpt lat="44.79845" lon="5.58938">
        <ele>1080</ele>
        <time>2019-07-25T17:20:05Z</time>
      </trkpt>
      <trkpt lat="44.79858" lon="5.58928">
        <ele>1078</ele>
        <time>2019-07-25T17:20:08Z</time>
      </trkpt>
      <trkpt lat="44.79897" lon="5.58911">
        <ele>1076</ele>
        <time>2019-07-25T17:20:15Z</time>
      </trkpt>
      <trkpt lat="44.79911" lon="5.58909">
        <ele>1076</ele>
        <time>2019-07-25T17:20:18Z</time>
      </trkpt>
      <trkpt lat="44.79922" lon="5.58912">
        <ele>1076</ele>
        <time>2019-07-25T17:20:20Z</time>
      </trkpt>
      <trkpt lat="44.79932" lon="5.58918">
        <ele>1075</ele>
        <time>2019-07-25T17:20:22Z</time>
      </trkpt>
      <trkpt lat="44.7994" lon="5.58927">
        <ele>1074</ele>
        <time>2019-07-25T17:20:23Z</time>
      </trkpt>
      <trkpt lat="44.79947" lon="5.58941">
        <ele>1074</ele>
        <time>2019-07-25T17:20:26Z</time>
      </trkpt>
      <trkpt lat="44.79965" lon="5.58984">
        <ele>1075</ele>
        <time>2019-07-25T17:20:32Z</time>
      </trkpt>
      <trkpt lat="44.79983" lon="5.59015">
        <ele>1074</ele>
        <time>2019-07-25T17:20:37Z</time>
      </trkpt>
      <trkpt lat="44.80003" lon="5.59039">
        <ele>1072</ele>
        <time>2019-07-25T17:20:42Z</time>
      </trkpt>
      <trkpt lat="44.80009" lon="5.59053">
        <ele>1073</ele>
        <time>2019-07-25T17:20:44Z</time>
      </trkpt>
      <trkpt lat="44.80015" lon="5.59083">
        <ele>1076</ele>
        <time>2019-07-25T17:20:48Z</time>
      </trkpt>
      <trkpt lat="44.80019" lon="5.59093">
        <ele>1075</ele>
        <time>2019-07-25T17:20:49Z</time>
      </trkpt>
      <trkpt lat="44.80024" lon="5.59099">
        <ele>1075</ele>
        <time>2019-07-25T17:20:50Z</time>
      </trkpt>
      <trkpt lat="44.80037" lon="5.59105">
        <ele>1072</ele>
        <time>2019-07-25T17:20:53Z</time>
      </trkpt>
      <trkpt lat="44.80048" lon="5.59107">
        <ele>1069</ele>
        <time>2019-07-25T17:20:55Z</time>
      </trkpt>
      <trkpt lat="44.80092" lon="5.59101">
        <ele>1059</ele>
        <time>2019-07-25T17:21:03Z</time>
      </trkpt>
      <trkpt lat="44.801" lon="5.59096">
        <ele>1059</ele>
        <time>2019-07-25T17:21:04Z</time>
      </trkpt>
      <trkpt lat="44.80126" lon="5.59063">
        <ele>1055</ele>
        <time>2019-07-25T17:21:10Z</time>
      </trkpt>
      <trkpt lat="44.8018" lon="5.59029">
        <ele>1050</ele>
        <time>2019-07-25T17:21:21Z</time>
      </trkpt>
      <trkpt lat="44.80205" lon="5.59011">
        <ele>1047</ele>
        <time>2019-07-25T17:21:26Z</time>
      </trkpt>
      <trkpt lat="44.80245" lon="5.58964">
        <ele>1040</ele>
        <time>2019-07-25T17:21:35Z</time>
      </trkpt>
      <trkpt lat="44.80256" lon="5.58954">
        <ele>1039</ele>
        <time>2019-07-25T17:21:37Z</time>
      </trkpt>
      <trkpt lat="44.80279" lon="5.58936">
        <ele>1037</ele>
        <time>2019-07-25T17:21:42Z</time>
      </trkpt>
      <trkpt lat="44.80396" lon="5.58863">
        <ele>1031</ele>
        <time>2019-07-25T17:22:05Z</time>
      </trkpt>
      <trkpt lat="44.80407" lon="5.58851">
        <ele>1030</ele>
        <time>2019-07-25T17:22:07Z</time>
      </trkpt>
      <trkpt lat="44.80416" lon="5.58838">
        <ele>1028</ele>
        <time>2019-07-25T17:22:10Z</time>
      </trkpt>
      <trkpt lat="44.80438" lon="5.58788">
        <ele>1020</ele>
        <time>2019-07-25T17:22:17Z</time>
      </trkpt>
      <trkpt lat="44.80456" lon="5.58765">
        <ele>1017</ele>
        <time>2019-07-25T17:22:21Z</time>
      </trkpt>
      <trkpt lat="44.80494" lon="5.58743">
        <ele>1015</ele>
        <time>2019-07-25T17:22:29Z</time>
      </trkpt>
      <trkpt lat="44.80521" lon="5.58732">
        <ele>1013</ele>
        <time>2019-07-25T17:22:34Z</time>
      </trkpt>
      <trkpt lat="44.80618" lon="5.58717">
        <ele>1011</ele>
        <time>2019-07-25T17:22:51Z</time>
      </trkpt>
      <trkpt lat="44.80715" lon="5.58683">
        <ele>1004</ele>
        <time>2019-07-25T17:23:09Z</time>
      </trkpt>
      <trkpt lat="44.80745" lon="5.58663">
        <ele>1000</ele>
        <time>2019-07-25T17:23:15Z</time>
      </trkpt>
      <trkpt lat="44.80903" lon="5.58525">
        <ele>986</ele>
        <time>2019-07-25T17:23:48Z</time>
      </trkpt>
      <trkpt lat="44.80949" lon="5.58499">
        <ele>984</ele>
        <time>2019-07-25T17:23:57Z</time>
      </trkpt>
      <trkpt lat="44.8096" lon="5.58486">
        <ele>983</ele>
        <time>2019-07-25T17:23:59Z</time>
      </trkpt>
      <trkpt lat="44.81043" lon="5.58357">
        <ele>970</ele>
        <time>2019-07-25T17:24:21Z</time>
      </trkpt>
      <trkpt lat="44.81084" lon="5.58296">
        <ele>968</ele>
        <time>2019-07-25T17:24:32Z</time>
      </trkpt>
      <trkpt lat="44.8113" lon="5.58257">
        <ele>966</ele>
        <time>2019-07-25T17:24:41Z</time>
      </trkpt>
      <trkpt lat="44.81141" lon="5.5826">
        <ele>966</ele>
        <time>2019-07-25T17:24:43Z</time>
      </trkpt>
      <trkpt lat="44.81152" lon="5.58259">
        <ele>965</ele>
        <time>2019-07-25T17:24:45Z</time>
      </trkpt>
      <trkpt lat="44.81281" lon="5.58233">
        <ele>960</ele>
        <time>2019-07-25T17:25:08Z</time>
      </trkpt>
      <trkpt lat="44.81327" lon="5.58219">
        <ele>958</ele>
        <time>2019-07-25T17:25:17Z</time>
      </trkpt>
      <trkpt lat="44.81376" lon="5.58198">
        <ele>956</ele>
        <time>2019-07-25T17:25:26Z</time>
      </trkpt>
      <trkpt lat="44.81404" lon="5.58188">
        <ele>955</ele>
        <time>2019-07-25T17:25:31Z</time>
      </trkpt>
      <trkpt lat="44.81434" lon="5.58171">
        <ele>954</ele>
        <time>2019-07-25T17:25:37Z</time>
      </trkpt>
      <trkpt lat="44.81466" lon="5.58137">
        <ele>956</ele>
        <time>2019-07-25T17:25:44Z</time>
      </trkpt>
      <trkpt lat="44.81478" lon="5.58136">
        <ele>956</ele>
        <time>2019-07-25T17:25:46Z</time>
      </trkpt>
      <trkpt lat="44.81508" lon="5.58149">
        <ele>955</ele>
        <time>2019-07-25T17:25:52Z</time>
      </trkpt>
      <trkpt lat="44.81525" lon="5.58154">
        <ele>954</ele>
        <time>2019-07-25T17:25:55Z</time>
      </trkpt>
      <trkpt lat="44.81588" lon="5.58156">
        <ele>951</ele>
        <time>2019-07-25T17:26:06Z</time>
      </trkpt>
      <trkpt lat="44.81603" lon="5.58159">
        <ele>950</ele>
        <time>2019-07-25T17:26:09Z</time>
      </trkpt>
      <trkpt lat="44.81623" lon="5.58167">
        <ele>948</ele>
        <time>2019-07-25T17:26:12Z</time>
      </trkpt>
      <trkpt lat="44.81751" lon="5.58256">
        <ele>947</ele>
        <time>2019-07-25T17:26:38Z</time>
      </trkpt>
      <trkpt lat="44.81769" lon="5.58265">
        <ele>947</ele>
        <time>2019-07-25T17:26:41Z</time>
      </trkpt>
      <trkpt lat="44.81784" lon="5.58269">
        <ele>947</ele>
        <time>2019-07-25T17:26:44Z</time>
      </trkpt>
      <trkpt lat="44.81834" lon="5.58271">
        <ele>948</ele>
        <time>2019-07-25T17:26:53Z</time>
      </trkpt>
      <trkpt lat="44.8197" lon="5.58299">
        <ele>941</ele>
        <time>2019-07-25T17:27:17Z</time>
      </trkpt>
      <trkpt lat="44.81981" lon="5.58297">
        <ele>940</ele>
        <time>2019-07-25T17:27:19Z</time>
      </trkpt>
      <trkpt lat="44.81993" lon="5.58291">
        <ele>939</ele>
        <time>2019-07-25T17:27:21Z</time>
      </trkpt>
      <trkpt lat="44.82001" lon="5.58281">
        <ele>938</ele>
        <time>2019-07-25T17:27:23Z</time>
      </trkpt>
      <trkpt lat="44.82009" lon="5.58267">
        <ele>938</ele>
        <time>2019-07-25T17:27:26Z</time>
      </trkpt>
      <trkpt lat="44.82015" lon="5.58251">
        <ele>937</ele>
        <time>2019-07-25T17:27:28Z</time>
      </trkpt>
      <trkpt lat="44.82024" lon="5.58211">
        <ele>940</ele>
        <time>2019-07-25T17:27:33Z</time>
      </trkpt>
      <trkpt lat="44.82028" lon="5.58198">
        <ele>941</ele>
        <time>2019-07-25T17:27:35Z</time>
      </trkpt>
      <trkpt lat="44.82036" lon="5.58184">
        <ele>940</ele>
        <time>2019-07-25T17:27:37Z</time>
      </trkpt>
      <trkpt lat="44.82044" lon="5.58175">
        <ele>939</ele>
        <time>2019-07-25T17:27:39Z</time>
      </trkpt>
      <trkpt lat="44.82055" lon="5.58172">
        <ele>936</ele>
        <time>2019-07-25T17:27:41Z</time>
      </trkpt>
      <trkpt lat="44.82065" lon="5.58172">
        <ele>933</ele>
        <time>2019-07-25T17:27:43Z</time>
      </trkpt>
      <trkpt lat="44.82075" lon="5.58175">
        <ele>930</ele>
        <time>2019-07-25T17:27:45Z</time>
      </trkpt>
      <trkpt lat="44.82195" lon="5.58236">
        <ele>926</ele>
        <time>2019-07-25T17:28:07Z</time>
      </trkpt>
      <trkpt lat="44.82204" lon="5.58245">
        <ele>925</ele>
        <time>2019-07-25T17:28:09Z</time>
      </trkpt>
      <trkpt lat="44.82209" lon="5.58252">
        <ele>924</ele>
        <time>2019-07-25T17:28:11Z</time>
      </trkpt>
      <trkpt lat="44.82222" lon="5.58278">
        <ele>930</ele>
        <time>2019-07-25T17:28:15Z</time>
      </trkpt>
      <trkpt lat="44.82231" lon="5.58291">
        <ele>931</ele>
        <time>2019-07-25T17:28:17Z</time>
      </trkpt>
      <trkpt lat="44.82242" lon="5.58301">
        <ele>931</ele>
        <time>2019-07-25T17:28:19Z</time>
      </trkpt>
      <trkpt lat="44.82303" lon="5.58341">
        <ele>925</ele>
        <time>2019-07-25T17:28:31Z</time>
      </trkpt>
      <trkpt lat="44.82315" lon="5.58358">
        <ele>925</ele>
        <time>2019-07-25T17:28:34Z</time>
      </trkpt>
      <trkpt lat="44.82356" lon="5.58444">
        <ele>925</ele>
        <time>2019-07-25T17:28:47Z</time>
      </trkpt>
      <trkpt lat="44.82397" lon="5.58574">
        <ele>919</ele>
        <time>2019-07-25T17:29:05Z</time>
      </trkpt>
      <trkpt lat="44.82392" lon="5.58586">
        <ele>924</ele>
        <time>2019-07-25T17:29:07Z</time>
      </trkpt>
      <trkpt lat="44.82388" lon="5.58627">
        <ele>933</ele>
        <time>2019-07-25T17:29:12Z</time>
      </trkpt>
      <trkpt lat="44.82387" lon="5.58707">
        <ele>947</ele>
        <time>2019-07-25T17:29:22Z</time>
      </trkpt>
      <trkpt lat="44.82391" lon="5.58745">
        <ele>951</ele>
        <time>2019-07-25T17:29:27Z</time>
      </trkpt>
      <trkpt lat="44.82387" lon="5.58707">
        <ele>947</ele>
        <time>2019-07-25T17:29:32Z</time>
      </trkpt>
      <trkpt lat="44.82388" lon="5.58627">
        <ele>933</ele>
        <time>2019-07-25T17:29:42Z</time>
      </trkpt>
      <trkpt lat="44.82392" lon="5.58586">
        <ele>924</ele>
        <time>2019-07-25T17:29:47Z</time>
      </trkpt>
      <trkpt lat="44.82397" lon="5.58574">
        <ele>919</ele>
        <time>2019-07-25T17:29:49Z</time>
      </trkpt>
      <trkpt lat="44.82417" lon="5.58638">
        <ele>916</ele>
        <time>2019-07-25T17:29:58Z</time>
      </trkpt>
      <trkpt lat="44.82437" lon="5.58746">
        <ele>922</ele>
        <time>2019-07-25T17:30:12Z</time>
      </trkpt>
      <trkpt lat="44.82443" lon="5.58769">
        <ele>924</ele>
        <time>2019-07-25T17:30:15Z</time>
      </trkpt>
      <trkpt lat="44.8245" lon="5.58782">
        <ele>923</ele>
        <time>2019-07-25T17:30:17Z</time>
      </trkpt>
      <trkpt lat="44.82474" lon="5.58798">
        <ele>913</ele>
        <time>2019-07-25T17:30:22Z</time>
      </trkpt>
      <trkpt lat="44.8251" lon="5.58842">
        <ele>907</ele>
        <time>2019-07-25T17:30:30Z</time>
      </trkpt>
      <trkpt lat="44.8253" lon="5.58872">
        <ele>907</ele>
        <time>2019-07-25T17:30:36Z</time>
      </trkpt>
      <trkpt lat="44.82552" lon="5.5892">
        <ele>910</ele>
        <time>2019-07-25T17:30:43Z</time>
      </trkpt>
      <trkpt lat="44.82594" lon="5.58988">
        <ele>909</ele>
        <time>2019-07-25T17:30:54Z</time>
      </trkpt>
      <trkpt lat="44.82622" lon="5.5904">
        <ele>907</ele>
        <time>2019-07-25T17:31:02Z</time>
      </trkpt>
      <trkpt lat="44.82633" lon="5.59068">
        <ele>907</ele>
        <time>2019-07-25T17:31:06Z</time>
      </trkpt>
      <trkpt lat="44.82661" lon="5.59172">
        <ele>904</ele>
        <time>2019-07-25T17:31:21Z</time>
      </trkpt>
      <trkpt lat="44.82671" lon="5.59219">
        <ele>905</ele>
        <time>2019-07-25T17:31:27Z</time>
      </trkpt>
      <trkpt lat="44.82678" lon="5.59266">
        <ele>907</ele>
        <time>2019-07-25T17:31:33Z</time>
      </trkpt>
      <trkpt lat="44.82691" lon="5.59434">
        <ele>902</ele>
        <time>2019-07-25T17:31:54Z</time>
      </trkpt>
      <trkpt lat="44.82698" lon="5.59502">
        <ele>897</ele>
        <time>2019-07-25T17:32:03Z</time>
      </trkpt>
      <trkpt lat="44.82705" lon="5.59555">
        <ele>892</ele>
        <time>2019-07-25T17:32:10Z</time>
      </trkpt>
      <trkpt lat="44.82708" lon="5.59569">
        <ele>891</ele>
        <time>2019-07-25T17:32:11Z</time>
      </trkpt>
      <trkpt lat="44.82717" lon="5.59591">
        <ele>889</ele>
        <time>2019-07-25T17:32:15Z</time>
      </trkpt>
      <trkpt lat="44.82844" lon="5.59852">
        <ele>869</ele>
        <time>2019-07-25T17:32:55Z</time>
      </trkpt>
      <trkpt lat="44.8286" lon="5.59896">
        <ele>866</ele>
        <time>2019-07-25T17:33:01Z</time>
      </trkpt>
      <trkpt lat="44.82871" lon="5.59937">
        <ele>864</ele>
        <time>2019-07-25T17:33:06Z</time>
      </trkpt>
      <trkpt lat="44.82877" lon="5.60002">
        <ele>860</ele>
        <time>2019-07-25T17:33:15Z</time>
      </trkpt>
      <trkpt lat="44.82877" lon="5.60033">
        <ele>859</ele>
        <time>2019-07-25T17:33:19Z</time>
      </trkpt>
      <trkpt lat="44.82874" lon="5.60063">
        <ele>857</ele>
        <time>2019-07-25T17:33:22Z</time>
      </trkpt>
      <trkpt lat="44.8287" lon="5.60083">
        <ele>856</ele>
        <time>2019-07-25T17:33:25Z</time>
      </trkpt>
      <trkpt lat="44.82854" lon="5.60149">
        <ele>854</ele>
        <time>2019-07-25T17:33:34Z</time>
      </trkpt>
      <trkpt lat="44.82852" lon="5.6017">
        <ele>853</ele>
        <time>2019-07-25T17:33:36Z</time>
      </trkpt>
      <trkpt lat="44.82852" lon="5.6019">
        <ele>852</ele>
        <time>2019-07-25T17:33:39Z</time>
      </trkpt>
      <trkpt lat="44.82857" lon="5.60231">
        <ele>850</ele>
        <time>2019-07-25T17:33:44Z</time>
      </trkpt>
      <trkpt lat="44.82917" lon="5.60419">
        <ele>840</ele>
        <time>2019-07-25T17:34:10Z</time>
      </trkpt>
      <trkpt lat="44.82847" lon="5.6048">
        <ele>835</ele>
        <time>2019-07-25T17:34:25Z</time>
      </trkpt>
      <trkpt lat="44.82802" lon="5.60486">
        <ele>834</ele>
        <time>2019-07-25T17:34:33Z</time>
      </trkpt>
      <trkpt lat="44.82792" lon="5.60488">
        <ele>834</ele>
        <time>2019-07-25T17:34:35Z</time>
      </trkpt>
      <trkpt lat="44.82754" lon="5.60516">
        <ele>832</ele>
        <time>2019-07-25T17:34:42Z</time>
      </trkpt>
      <trkpt lat="44.82746" lon="5.60528">
        <ele>832</ele>
        <time>2019-07-25T17:34:44Z</time>
      </trkpt>
      <trkpt lat="44.8274" lon="5.60546">
        <ele>832</ele>
        <time>2019-07-25T17:34:47Z</time>
      </trkpt>
      <trkpt lat="44.82721" lon="5.60744">
        <ele>829</ele>
        <time>2019-07-25T17:35:12Z</time>
      </trkpt>
      <trkpt lat="44.8271" lon="5.60781">
        <ele>829</ele>
        <time>2019-07-25T17:35:17Z</time>
      </trkpt>
      <trkpt lat="44.82699" lon="5.6082">
        <ele>829</ele>
        <time>2019-07-25T17:35:23Z</time>
      </trkpt>
      <trkpt lat="44.82688" lon="5.60881">
        <ele>829</ele>
        <time>2019-07-25T17:35:30Z</time>
      </trkpt>
      <trkpt lat="44.82672" lon="5.60976">
        <ele>828</ele>
        <time>2019-07-25T17:35:43Z</time>
      </trkpt>
      <trkpt lat="44.82666" lon="5.61021">
        <ele>828</ele>
        <time>2019-07-25T17:35:49Z</time>
      </trkpt>
      <trkpt lat="44.82669" lon="5.61039">
        <ele>829</ele>
        <time>2019-07-25T17:35:51Z</time>
      </trkpt>
      <trkpt lat="44.82682" lon="5.61049">
        <ele>828</ele>
        <time>2019-07-25T17:35:54Z</time>
      </trkpt>
      <trkpt lat="44.82701" lon="5.6107">
        <ele>828</ele>
        <time>2019-07-25T17:35:58Z</time>
      </trkpt>
      <trkpt lat="44.82707" lon="5.61083">
        <ele>828</ele>
        <time>2019-07-25T17:36:00Z</time>
      </trkpt>
      <trkpt lat="44.82673" lon="5.61281">
        <ele>831</ele>
        <time>2019-07-25T17:36:25Z</time>
      </trkpt>
      <trkpt lat="44.82663" lon="5.61315">
        <ele>830</ele>
        <time>2019-07-25T17:36:30Z</time>
      </trkpt>
      <trkpt lat="44.82653" lon="5.61346">
        <ele>830</ele>
        <time>2019-07-25T17:36:34Z</time>
      </trkpt>
      <trkpt lat="44.82636" lon="5.61388">
        <ele>829</ele>
        <time>2019-07-25T17:36:41Z</time>
      </trkpt>
      <trkpt lat="44.82607" lon="5.61441">
        <ele>827</ele>
        <time>2019-07-25T17:36:49Z</time>
      </trkpt>
      <trkpt lat="44.82585" lon="5.61475">
        <ele>827</ele>
        <time>2019-07-25T17:36:55Z</time>
      </trkpt>
      <trkpt lat="44.82517" lon="5.61555">
        <ele>826</ele>
        <time>2019-07-25T17:37:11Z</time>
      </trkpt>
      <trkpt lat="44.82454" lon="5.61634">
        <ele>825</ele>
        <time>2019-07-25T17:37:26Z</time>
      </trkpt>
      <trkpt lat="44.82414" lon="5.61699">
        <ele>824</ele>
        <time>2019-07-25T17:37:36Z</time>
      </trkpt>
      <trkpt lat="44.82396" lon="5.61738">
        <ele>822</ele>
        <time>2019-07-25T17:37:42Z</time>
      </trkpt>
      <trkpt lat="44.82364" lon="5.61824">
        <ele>822</ele>
        <time>2019-07-25T17:37:55Z</time>
      </trkpt>
      <trkpt lat="44.82289" lon="5.62127">
        <ele>825</ele>
        <time>2019-07-25T17:38:35Z</time>
      </trkpt>
      <trkpt lat="44.82258" lon="5.62234">
        <ele>825</ele>
        <time>2019-07-25T17:38:50Z</time>
      </trkpt>
      <trkpt lat="44.82215" lon="5.62328">
        <ele>826</ele>
        <time>2019-07-25T17:39:04Z</time>
      </trkpt>
      <trkpt lat="44.82171" lon="5.62415">
        <ele>823</ele>
        <time>2019-07-25T17:39:17Z</time>
      </trkpt>
      <trkpt lat="44.82141" lon="5.62458">
        <ele>823</ele>
        <time>2019-07-25T17:39:25Z</time>
      </trkpt>
      <trkpt lat="44.8211" lon="5.62492">
        <ele>823</ele>
        <time>2019-07-25T17:39:32Z</time>
      </trkpt>
      <trkpt lat="44.82037" lon="5.62545">
        <ele>822</ele>
        <time>2019-07-25T17:39:46Z</time>
      </trkpt>
      <trkpt lat="44.81949" lon="5.62603">
        <ele>818</ele>
        <time>2019-07-25T17:40:04Z</time>
      </trkpt>
      <trkpt lat="44.81927" lon="5.62626">
        <ele>818</ele>
        <time>2019-07-25T17:40:09Z</time>
      </trkpt>
      <trkpt lat="44.81894" lon="5.62671">
        <ele>817</ele>
        <time>2019-07-25T17:40:17Z</time>
      </trkpt>
      <trkpt lat="44.81876" lon="5.6271">
        <ele>819</ele>
        <time>2019-07-25T17:40:23Z</time>
      </trkpt>
      <trkpt lat="44.81823" lon="5.62834">
        <ele>825</ele>
        <time>2019-07-25T17:40:41Z</time>
      </trkpt>
      <trkpt lat="44.81805" lon="5.62872">
        <ele>824</ele>
        <time>2019-07-25T17:40:47Z</time>
      </trkpt>
      <trkpt lat="44.81772" lon="5.62927">
        <ele>823</ele>
        <time>2019-07-25T17:40:56Z</time>
      </trkpt>
      <trkpt lat="44.8175" lon="5.62954">
        <ele>823</ele>
        <time>2019-07-25T17:41:01Z</time>
      </trkpt>
      <trkpt lat="44.81738" lon="5.62965">
        <ele>823</ele>
        <time>2019-07-25T17:41:03Z</time>
      </trkpt>
      <trkpt lat="44.81708" lon="5.62991">
        <ele>823</ele>
        <time>2019-07-25T17:41:10Z</time>
      </trkpt>
      <trkpt lat="44.81688" lon="5.63003">
        <ele>823</ele>
        <time>2019-07-25T17:41:14Z</time>
      </trkpt>
      <trkpt lat="44.81666" lon="5.63013">
        <ele>823</ele>
        <time>2019-07-25T17:41:18Z</time>
      </trkpt>
      <trkpt lat="44.81644" lon="5.6302">
        <ele>823</ele>
        <time>2019-07-25T17:41:22Z</time>
      </trkpt>
      <trkpt lat="44.81592" lon="5.63026">
        <ele>823</ele>
        <time>2019-07-25T17:41:31Z</time>
      </trkpt>
      <trkpt lat="44.81556" lon="5.63027">
        <ele>823</ele>
        <time>2019-07-25T17:41:37Z</time>
      </trkpt>
      <trkpt lat="44.81522" lon="5.63025">
        <ele>823</ele>
        <time>2019-07-25T17:41:43Z</time>
      </trkpt>
      <trkpt lat="44.81494" lon="5.63019">
        <ele>824</ele>
        <time>2019-07-25T17:41:49Z</time>
      </trkpt>
      <trkpt lat="44.81484" lon="5.63027">
        <ele>822</ele>
        <time>2019-07-25T17:41:51Z</time>
      </trkpt>
      <trkpt lat="44.81472" lon="5.63027">
        <ele>822</ele>
        <time>2019-07-25T17:41:53Z</time>
      </trkpt>
      <trkpt lat="44.81484" lon="5.63027">
        <ele>822</ele>
        <time>2019-07-25T17:41:55Z</time>
      </trkpt>
      <trkpt lat="44.81494" lon="5.63019">
        <ele>824</ele>
        <time>2019-07-25T17:41:57Z</time>
      </trkpt>
      <trkpt lat="44.81522" lon="5.63025">
        <ele>823</ele>
        <time>2019-07-25T17:42:02Z</time>
      </trkpt>
      <trkpt lat="44.81556" lon="5.63027">
        <ele>823</ele>
        <time>2019-07-25T17:42:08Z</time>
      </trkpt>
      <trkpt lat="44.81592" lon="5.63026">
        <ele>823</ele>
        <time>2019-07-25T17:42:14Z</time>
      </trkpt>
      <trkpt lat="44.81644" lon="5.6302">
        <ele>823</ele>
        <time>2019-07-25T17:42:24Z</time>
      </trkpt>
      <trkpt lat="44.81666" lon="5.63013">
        <ele>823</ele>
        <time>2019-07-25T17:42:28Z</time>
      </trkpt>
      <trkpt lat="44.81688" lon="5.63003">
        <ele>823</ele>
        <time>2019-07-25T17:42:32Z</time>
      </trkpt>
      <trkpt lat="44.81708" lon="5.62991">
        <ele>823</ele>
        <time>2019-07-25T17:42:36Z</time>
      </trkpt>
      <trkpt lat="44.81712" lon="5.63005">
        <ele>822</ele>
        <time>2019-07-25T17:42:38Z</time>
      </trkpt>
      <trkpt lat="44.81711" lon="5.63018">
        <ele>821</ele>
        <time>2019-07-25T17:42:39Z</time>
      </trkpt>
      <trkpt lat="44.81709" lon="5.63023">
        <ele>821</ele>
        <time>2019-07-25T17:42:40Z</time>
      </trkpt>
      <trkpt lat="44.81691" lon="5.63033">
        <ele>821</ele>
        <time>2019-07-25T17:42:43Z</time>
      </trkpt>
      <trkpt lat="44.8168" lon="5.63036">
        <ele>821</ele>
        <time>2019-07-25T17:42:45Z</time>
      </trkpt>
      <trkpt lat="44.81637" lon="5.6304">
        <ele>822</ele>
        <time>2019-07-25T17:42:53Z</time>
      </trkpt>
      <trkpt lat="44.81583" lon="5.63082">
        <ele>816</ele>
        <time>2019-07-25T17:43:04Z</time>
      </trkpt>
      <trkpt lat="44.81569" lon="5.63097">
        <ele>815</ele>
        <time>2019-07-25T17:43:07Z</time>
      </trkpt>
      <trkpt lat="44.8153" lon="5.63156">
        <ele>812</ele>
        <time>2019-07-25T17:43:17Z</time>
      </trkpt>
      <trkpt lat="44.8152" lon="5.63164">
        <ele>811</ele>
        <time>2019-07-25T17:43:19Z</time>
      </trkpt>
      <trkpt lat="44.815" lon="5.63166">
        <ele>811</ele>
        <time>2019-07-25T17:43:23Z</time>
      </trkpt>
      <trkpt lat="44.81475" lon="5.6315">
        <ele>809</ele>
        <time>2019-07-25T17:43:28Z</time>
      </trkpt>
      <trkpt lat="44.81463" lon="5.63145">
        <ele>809</ele>
        <time>2019-07-25T17:43:30Z</time>
      </trkpt>
      <trkpt lat="44.81421" lon="5.63152">
        <ele>803</ele>
        <time>2019-07-25T17:43:38Z</time>
      </trkpt>
      <trkpt lat="44.8141" lon="5.63148">
        <ele>803</ele>
        <time>2019-07-25T17:43:40Z</time>
      </trkpt>
      <trkpt lat="44.81387" lon="5.63122">
        <ele>803</ele>
        <time>2019-07-25T17:43:45Z</time>
      </trkpt>
      <trkpt lat="44.81349" lon="5.63085">
        <ele>802</ele>
        <time>2019-07-25T17:43:53Z</time>
      </trkpt>
      <trkpt lat="44.81341" lon="5.63084">
        <ele>801</ele>
        <time>2019-07-25T17:43:55Z</time>
      </trkpt>
      <trkpt lat="44.81335" lon="5.63088">
        <ele>800</ele>
        <time>2019-07-25T17:43:56Z</time>
      </trkpt>
      <trkpt lat="44.81333" lon="5.63095">
        <ele>798</ele>
        <time>2019-07-25T17:43:57Z</time>
      </trkpt>
      <trkpt lat="44.81334" lon="5.63104">
        <ele>797</ele>
        <time>2019-07-25T17:43:58Z</time>
      </trkpt>
      <trkpt lat="44.81356" lon="5.63134">
        <ele>797</ele>
        <time>2019-07-25T17:44:03Z</time>
      </trkpt>
      <trkpt lat="44.81363" lon="5.63154">
        <ele>795</ele>
        <time>2019-07-25T17:44:06Z</time>
      </trkpt>
      <trkpt lat="44.81375" lon="5.63206">
        <ele>792</ele>
        <time>2019-07-25T17:44:13Z</time>
      </trkpt>
      <trkpt lat="44.81384" lon="5.63236">
        <ele>791</ele>
        <time>2019-07-25T17:44:17Z</time>
      </trkpt>
      <trkpt lat="44.81387" lon="5.63251">
        <ele>790</ele>
        <time>2019-07-25T17:44:19Z</time>
      </trkpt>
      <trkpt lat="44.81386" lon="5.63264">
        <ele>789</ele>
        <time>2019-07-25T17:44:21Z</time>
      </trkpt>
      <trkpt lat="44.81383" lon="5.63276">
        <ele>787</ele>
        <time>2019-07-25T17:44:22Z</time>
      </trkpt>
      <trkpt lat="44.81378" lon="5.63286">
        <ele>785</ele>
        <time>2019-07-25T17:44:24Z</time>
      </trkpt>
      <trkpt lat="44.8137" lon="5.63291">
        <ele>784</ele>
        <time>2019-07-25T17:44:25Z</time>
      </trkpt>
      <trkpt lat="44.81351" lon="5.63296">
        <ele>781</ele>
        <time>2019-07-25T17:44:29Z</time>
      </trkpt>
      <trkpt lat="44.81329" lon="5.63309">
        <ele>777</ele>
        <time>2019-07-25T17:44:33Z</time>
      </trkpt>
      <trkpt lat="44.81297" lon="5.63333">
        <ele>774</ele>
        <time>2019-07-25T17:44:40Z</time>
      </trkpt>
      <trkpt lat="44.81248" lon="5.63376">
        <ele>769</ele>
        <time>2019-07-25T17:44:50Z</time>
      </trkpt>
      <trkpt lat="44.81229" lon="5.63396">
        <ele>767</ele>
        <time>2019-07-25T17:44:54Z</time>
      </trkpt>
      <trkpt lat="44.8119" lon="5.63421">
        <ele>764</ele>
        <time>2019-07-25T17:45:02Z</time>
      </trkpt>
      <trkpt lat="44.81093" lon="5.63524">
        <ele>758</ele>
        <time>2019-07-25T17:45:23Z</time>
      </trkpt>
      <trkpt lat="44.81084" lon="5.63537">
        <ele>758</ele>
        <time>2019-07-25T17:45:26Z</time>
      </trkpt>
      <trkpt lat="44.81078" lon="5.63558">
        <ele>758</ele>
        <time>2019-07-25T17:45:28Z</time>
      </trkpt>
      <trkpt lat="44.81068" lon="5.63677">
        <ele>757</ele>
        <time>2019-07-25T17:45:44Z</time>
      </trkpt>
      <trkpt lat="44.81064" lon="5.63704">
        <ele>757</ele>
        <time>2019-07-25T17:45:47Z</time>
      </trkpt>
      <trkpt lat="44.81058" lon="5.63729">
        <ele>757</ele>
        <time>2019-07-25T17:45:50Z</time>
      </trkpt>
      <trkpt lat="44.8101" lon="5.63808">
        <ele>758</ele>
        <time>2019-07-25T17:46:03Z</time>
      </trkpt>
      <trkpt lat="44.80999" lon="5.63822">
        <ele>757</ele>
        <time>2019-07-25T17:46:06Z</time>
      </trkpt>
      <trkpt lat="44.80986" lon="5.63831">
        <ele>757</ele>
        <time>2019-07-25T17:46:09Z</time>
      </trkpt>
      <trkpt lat="44.80946" lon="5.63845">
        <ele>759</ele>
        <time>2019-07-25T17:46:16Z</time>
      </trkpt>
      <trkpt lat="44.80938" lon="5.63857">
        <ele>760</ele>
        <time>2019-07-25T17:46:18Z</time>
      </trkpt>
      <trkpt lat="44.80934" lon="5.63875">
        <ele>761</ele>
        <time>2019-07-25T17:46:20Z</time>
      </trkpt>
      <trkpt lat="44.80942" lon="5.6396">
        <ele>759</ele>
        <time>2019-07-25T17:46:31Z</time>
      </trkpt>
      <trkpt lat="44.8094" lon="5.63979">
        <ele>760</ele>
        <time>2019-07-25T17:46:34Z</time>
      </trkpt>
      <trkpt lat="44.80934" lon="5.63995">
        <ele>761</ele>
        <time>2019-07-25T17:46:36Z</time>
      </trkpt>
      <trkpt lat="44.80925" lon="5.64009">
        <ele>761</ele>
        <time>2019-07-25T17:46:38Z</time>
      </trkpt>
      <trkpt lat="44.80882" lon="5.64034">
        <ele>765</ele>
        <time>2019-07-25T17:46:47Z</time>
      </trkpt>
      <trkpt lat="44.80865" lon="5.64053">
        <ele>766</ele>
        <time>2019-07-25T17:46:51Z</time>
      </trkpt>
      <trkpt lat="44.8083" lon="5.6412">
        <ele>768</ele>
        <time>2019-07-25T17:47:01Z</time>
      </trkpt>
      <trkpt lat="44.8078" lon="5.64249">
        <ele>769</ele>
        <time>2019-07-25T17:47:20Z</time>
      </trkpt>
      <trkpt lat="44.80775" lon="5.64271">
        <ele>769</ele>
        <time>2019-07-25T17:47:22Z</time>
      </trkpt>
      <trkpt lat="44.80768" lon="5.64373">
        <ele>766</ele>
        <time>2019-07-25T17:47:35Z</time>
      </trkpt>
      <trkpt lat="44.80765" lon="5.64386">
        <ele>765</ele>
        <time>2019-07-25T17:47:37Z</time>
      </trkpt>
      <trkpt lat="44.80758" lon="5.64395">
        <ele>764</ele>
        <time>2019-07-25T17:47:39Z</time>
      </trkpt>
      <trkpt lat="44.80749" lon="5.64396">
        <ele>764</ele>
        <time>2019-07-25T17:47:40Z</time>
      </trkpt>
      <trkpt lat="44.8074" lon="5.64393">
        <ele>764</ele>
        <time>2019-07-25T17:47:42Z</time>
      </trkpt>
      <trkpt lat="44.80722" lon="5.64377">
        <ele>765</ele>
        <time>2019-07-25T17:47:46Z</time>
      </trkpt>
      <trkpt lat="44.80702" lon="5.64369">
        <ele>765</ele>
        <time>2019-07-25T17:47:50Z</time>
      </trkpt>
      <trkpt lat="44.80625" lon="5.64352">
        <ele>761</ele>
        <time>2019-07-25T17:48:03Z</time>
      </trkpt>
      <trkpt lat="44.806" lon="5.64344">
        <ele>760</ele>
        <time>2019-07-25T17:48:08Z</time>
      </trkpt>
      <trkpt lat="44.80534" lon="5.64314">
        <ele>757</ele>
        <time>2019-07-25T17:48:20Z</time>
      </trkpt>
      <trkpt lat="44.80516" lon="5.64311">
        <ele>756</ele>
        <time>2019-07-25T17:48:24Z</time>
      </trkpt>
      <trkpt lat="44.80445" lon="5.64323">
        <ele>757</ele>
        <time>2019-07-25T17:48:36Z</time>
      </trkpt>
      <trkpt lat="44.80384" lon="5.64341">
        <ele>760</ele>
        <time>2019-07-25T17:48:47Z</time>
      </trkpt>
      <trkpt lat="44.80364" lon="5.64335">
        <ele>761</ele>
        <time>2019-07-25T17:48:51Z</time>
      </trkpt>
      <trkpt lat="44.8033" lon="5.6432">
        <ele>764</ele>
        <time>2019-07-25T17:48:57Z</time>
      </trkpt>
      <trkpt lat="44.80319" lon="5.64319">
        <ele>765</ele>
        <time>2019-07-25T17:48:59Z</time>
      </trkpt>
      <trkpt lat="44.80273" lon="5.64324">
        <ele>767</ele>
        <time>2019-07-25T17:49:08Z</time>
      </trkpt>
      <trkpt lat="44.80248" lon="5.6432">
        <ele>769</ele>
        <time>2019-07-25T17:49:12Z</time>
      </trkpt>
      <trkpt lat="44.80185" lon="5.64288">
        <ele>772</ele>
        <time>2019-07-25T17:49:24Z</time>
      </trkpt>
      <trkpt lat="44.80171" lon="5.64285">
        <ele>772</ele>
        <time>2019-07-25T17:49:26Z</time>
      </trkpt>
      <trkpt lat="44.80159" lon="5.64293">
        <ele>772</ele>
        <time>2019-07-25T17:49:29Z</time>
      </trkpt>
      <trkpt lat="44.80143" lon="5.64313">
        <ele>772</ele>
        <time>2019-07-25T17:49:33Z</time>
      </trkpt>
      <trkpt lat="44.80131" lon="5.64337">
        <ele>772</ele>
        <time>2019-07-25T17:49:36Z</time>
      </trkpt>
      <trkpt lat="44.80118" lon="5.64384">
        <ele>772</ele>
        <time>2019-07-25T17:49:43Z</time>
      </trkpt>
      <trkpt lat="44.8011" lon="5.64406">
        <ele>773</ele>
        <time>2019-07-25T17:49:46Z</time>
      </trkpt>
      <trkpt lat="44.80077" lon="5.64462">
        <ele>776</ele>
        <time>2019-07-25T17:49:55Z</time>
      </trkpt>
      <trkpt lat="44.80057" lon="5.645">
        <ele>779</ele>
        <time>2019-07-25T17:50:01Z</time>
      </trkpt>
      <trkpt lat="44.80027" lon="5.6457">
        <ele>782</ele>
        <time>2019-07-25T17:50:11Z</time>
      </trkpt>
      <trkpt lat="44.80016" lon="5.64584">
        <ele>783</ele>
        <time>2019-07-25T17:50:14Z</time>
      </trkpt>
      <trkpt lat="44.79987" lon="5.64604">
        <ele>783</ele>
        <time>2019-07-25T17:50:20Z</time>
      </trkpt>
      <trkpt lat="44.79997" lon="5.64642">
        <ele>784</ele>
        <time>2019-07-25T17:50:25Z</time>
      </trkpt>
      <trkpt lat="44.79987" lon="5.64604">
        <ele>783</ele>
        <time>2019-07-25T17:50:30Z</time>
      </trkpt>
      <trkpt lat="44.80016" lon="5.64584">
        <ele>783</ele>
        <time>2019-07-25T17:50:36Z</time>
      </trkpt>
      <trkpt lat="44.80002" lon="5.64557">
        <ele>784</ele>
        <time>2019-07-25T17:50:40Z</time>
      </trkpt>
      <trkpt lat="44.7999" lon="5.64522">
        <ele>786</ele>
        <time>2019-07-25T17:50:45Z</time>
      </trkpt>
      <trkpt lat="44.79959" lon="5.64346">
        <ele>789</ele>
        <time>2019-07-25T17:51:08Z</time>
      </trkpt>
      <trkpt lat="44.7995" lon="5.64309">
        <ele>790</ele>
        <time>2019-07-25T17:51:13Z</time>
      </trkpt>
      <trkpt lat="44.79898" lon="5.64163">
        <ele>793</ele>
        <time>2019-07-25T17:51:33Z</time>
      </trkpt>
      <trkpt lat="44.79884" lon="5.6413">
        <ele>796</ele>
        <time>2019-07-25T17:51:38Z</time>
      </trkpt>
      <trkpt lat="44.79873" lon="5.64109">
        <ele>798</ele>
        <time>2019-07-25T17:51:41Z</time>
      </trkpt>
      <trkpt lat="44.79859" lon="5.64092">
        <ele>801</ele>
        <time>2019-07-25T17:51:45Z</time>
      </trkpt>
      <trkpt lat="44.79847" lon="5.64082">
        <ele>802</ele>
        <time>2019-07-25T17:51:47Z</time>
      </trkpt>
      <trkpt lat="44.79834" lon="5.64074">
        <ele>804</ele>
        <time>2019-07-25T17:51:50Z</time>
      </trkpt>
      <trkpt lat="44.79763" lon="5.64047">
        <ele>811</ele>
        <time>2019-07-25T17:52:03Z</time>
      </trkpt>
      <trkpt lat="44.79723" lon="5.64037">
        <ele>814</ele>
        <time>2019-07-25T17:52:10Z</time>
      </trkpt>
      <trkpt lat="44.7969" lon="5.64032">
        <ele>816</ele>
        <time>2019-07-25T17:52:16Z</time>
      </trkpt>
      <trkpt lat="44.7967" lon="5.64026">
        <ele>818</ele>
        <time>2019-07-25T17:52:20Z</time>
      </trkpt>
      <trkpt lat="44.79653" lon="5.64013">
        <ele>820</ele>
        <time>2019-07-25T17:52:23Z</time>
      </trkpt>
      <trkpt lat="44.79636" lon="5.63992">
        <ele>822</ele>
        <time>2019-07-25T17:52:27Z</time>
      </trkpt>
      <trkpt lat="44.79608" lon="5.63945">
        <ele>823</ele>
        <time>2019-07-25T17:52:35Z</time>
      </trkpt>
      <trkpt lat="44.79601" lon="5.63924">
        <ele>824</ele>
        <time>2019-07-25T17:52:38Z</time>
      </trkpt>
      <trkpt lat="44.796" lon="5.63911">
        <ele>825</ele>
        <time>2019-07-25T17:52:39Z</time>
      </trkpt>
      <trkpt lat="44.79606" lon="5.63882">
        <ele>828</ele>
        <time>2019-07-25T17:52:43Z</time>
      </trkpt>
      <trkpt lat="44.79613" lon="5.63869">
        <ele>830</ele>
        <time>2019-07-25T17:52:45Z</time>
      </trkpt>
      <trkpt lat="44.79664" lon="5.63813">
        <ele>838</ele>
        <time>2019-07-25T17:52:57Z</time>
      </trkpt>
      <trkpt lat="44.79673" lon="5.63797">
        <ele>839</ele>
        <time>2019-07-25T17:52:59Z</time>
      </trkpt>
      <trkpt lat="44.79657" lon="5.63802">
        <ele>839</ele>
        <time>2019-07-25T17:53:02Z</time>
      </trkpt>
      <trkpt lat="44.79589" lon="5.63802">
        <ele>836</ele>
        <time>2019-07-25T17:53:14Z</time>
      </trkpt>
      <trkpt lat="44.7957" lon="5.63799">
        <ele>834</ele>
        <time>2019-07-25T17:53:18Z</time>
      </trkpt>
      <trkpt lat="44.79556" lon="5.63793">
        <ele>832</ele>
        <time>2019-07-25T17:53:20Z</time>
      </trkpt>
      <trkpt lat="44.79543" lon="5.63782">
        <ele>832</ele>
        <time>2019-07-25T17:53:23Z</time>
      </trkpt>
      <trkpt lat="44.79485" lon="5.63683">
        <ele>837</ele>
        <time>2019-07-25T17:53:39Z</time>
      </trkpt>
      <trkpt lat="44.79478" lon="5.63665">
        <ele>838</ele>
        <time>2019-07-25T17:53:42Z</time>
      </trkpt>
      <trkpt lat="44.79456" lon="5.63586">
        <ele>837</ele>
        <time>2019-07-25T17:53:53Z</time>
      </trkpt>
      <trkpt lat="44.79437" lon="5.63538">
        <ele>838</ele>
        <time>2019-07-25T17:53:59Z</time>
      </trkpt>
      <trkpt lat="44.79279" lon="5.63428">
        <ele>837</ele>
        <time>2019-07-25T17:54:31Z</time>
      </trkpt>
      <trkpt lat="44.79175" lon="5.63376">
        <ele>829</ele>
        <time>2019-07-25T17:54:50Z</time>
      </trkpt>
      <trkpt lat="44.79112" lon="5.63366">
        <ele>828</ele>
        <time>2019-07-25T17:55:02Z</time>
      </trkpt>
      <trkpt lat="44.79083" lon="5.63367">
        <ele>828</ele>
        <time>2019-07-25T17:55:07Z</time>
      </trkpt>
      <trkpt lat="44.79055" lon="5.63371">
        <ele>828</ele>
        <time>2019-07-25T17:55:12Z</time>
      </trkpt>
      <trkpt lat="44.79021" lon="5.63379">
        <ele>828</ele>
        <time>2019-07-25T17:55:18Z</time>
      </trkpt>
      <trkpt lat="44.78971" lon="5.634">
        <ele>823</ele>
        <time>2019-07-25T17:55:27Z</time>
      </trkpt>
      <trkpt lat="44.78944" lon="5.63416">
        <ele>818</ele>
        <time>2019-07-25T17:55:33Z</time>
      </trkpt>
      <trkpt lat="44.78911" lon="5.63442">
        <ele>811</ele>
        <time>2019-07-25T17:55:39Z</time>
      </trkpt>
      <trkpt lat="44.78872" lon="5.6348">
        <ele>805</ele>
        <time>2019-07-25T17:55:48Z</time>
      </trkpt>
      <trkpt lat="44.78841" lon="5.6352">
        <ele>804</ele>
        <time>2019-07-25T17:55:55Z</time>
      </trkpt>
      <trkpt lat="44.78827" lon="5.63544">
        <ele>805</ele>
        <time>2019-07-25T17:55:59Z</time>
      </trkpt>
      <trkpt lat="44.78802" lon="5.6359">
        <ele>811</ele>
        <time>2019-07-25T17:56:06Z</time>
      </trkpt>
      <trkpt lat="44.78778" lon="5.63654">
        <ele>818</ele>
        <time>2019-07-25T17:56:16Z</time>
      </trkpt>
      <trkpt lat="44.78769" lon="5.63685">
        <ele>820</ele>
        <time>2019-07-25T17:56:20Z</time>
      </trkpt>
      <trkpt lat="44.78757" lon="5.63733">
        <ele>821</ele>
        <time>2019-07-25T17:56:26Z</time>
      </trkpt>
      <trkpt lat="44.78746" lon="5.63807">
        <ele>823</ele>
        <time>2019-07-25T17:56:36Z</time>
      </trkpt>
      <trkpt lat="44.78743" lon="5.63877">
        <ele>824</ele>
        <time>2019-07-25T17:56:45Z</time>
      </trkpt>
      <trkpt lat="44.78743" lon="5.63904">
        <ele>824</ele>
        <time>2019-07-25T17:56:48Z</time>
      </trkpt>
      <trkpt lat="44.78745" lon="5.63937">
        <ele>823</ele>
        <time>2019-07-25T17:56:52Z</time>
      </trkpt>
      <trkpt lat="44.78769" lon="5.64118">
        <ele>823</ele>
        <time>2019-07-25T17:57:15Z</time>
      </trkpt>
      <trkpt lat="44.78773" lon="5.64174">
        <ele>824</ele>
        <time>2019-07-25T17:57:23Z</time>
      </trkpt>
      <trkpt lat="44.78772" lon="5.64239">
        <ele>826</ele>
        <time>2019-07-25T17:57:31Z</time>
      </trkpt>
      <trkpt lat="44.78766" lon="5.64301">
        <ele>826</ele>
        <time>2019-07-25T17:57:39Z</time>
      </trkpt>
      <trkpt lat="44.78753" lon="5.6437">
        <ele>823</ele>
        <time>2019-07-25T17:57:48Z</time>
      </trkpt>
      <trkpt lat="44.78743" lon="5.64408">
        <ele>821</ele>
        <time>2019-07-25T17:57:53Z</time>
      </trkpt>
      <trkpt lat="44.78728" lon="5.64452">
        <ele>821</ele>
        <time>2019-07-25T17:57:59Z</time>
      </trkpt>
      <trkpt lat="44.78704" lon="5.64508">
        <ele>823</ele>
        <time>2019-07-25T17:58:07Z</time>
      </trkpt>
      <trkpt lat="44.78693" lon="5.64529">
        <ele>824</ele>
        <time>2019-07-25T17:58:11Z</time>
      </trkpt>
      <trkpt lat="44.78667" lon="5.64567">
        <ele>827</ele>
        <time>2019-07-25T17:58:17Z</time>
      </trkpt>
      <trkpt lat="44.78649" lon="5.64591">
        <ele>828</ele>
        <time>2019-07-25T17:58:22Z</time>
      </trkpt>
      <trkpt lat="44.78617" lon="5.64624">
        <ele>830</ele>
        <time>2019-07-25T17:58:29Z</time>
      </trkpt>
      <trkpt lat="44.78576" lon="5.64658">
        <ele>833</ele>
        <time>2019-07-25T17:58:37Z</time>
      </trkpt>
      <trkpt lat="44.78524" lon="5.64688">
        <ele>836</ele>
        <time>2019-07-25T17:58:47Z</time>
      </trkpt>
      <trkpt lat="44.78469" lon="5.64706">
        <ele>837</ele>
        <time>2019-07-25T17:58:57Z</time>
      </trkpt>
      <trkpt lat="44.78437" lon="5.64711">
        <ele>836</ele>
        <time>2019-07-25T17:59:03Z</time>
      </trkpt>
      <trkpt lat="44.78393" lon="5.64712">
        <ele>835</ele>
        <time>2019-07-25T17:59:11Z</time>
      </trkpt>
      <trkpt lat="44.7836" lon="5.64706">
        <ele>835</ele>
        <time>2019-07-25T17:59:17Z</time>
      </trkpt>
      <trkpt lat="44.78318" lon="5.64693">
        <ele>836</ele>
        <time>2019-07-25T17:59:24Z</time>
      </trkpt>
      <trkpt lat="44.78211" lon="5.6464">
        <ele>843</ele>
        <time>2019-07-25T17:59:44Z</time>
      </trkpt>
      <trkpt lat="44.781" lon="5.64605">
        <ele>844</ele>
        <time>2019-07-25T18:00:05Z</time>
      </trkpt>
      <trkpt lat="44.78012" lon="5.64565">
        <ele>843</ele>
        <time>2019-07-25T18:00:21Z</time>
      </trkpt>
      <trkpt lat="44.7798" lon="5.64542">
        <ele>846</ele>
        <time>2019-07-25T18:00:28Z</time>
      </trkpt>
      <trkpt lat="44.77958" lon="5.6452">
        <ele>848</ele>
        <time>2019-07-25T18:00:32Z</time>
      </trkpt>
      <trkpt lat="44.77948" lon="5.64506">
        <ele>849</ele>
        <time>2019-07-25T18:00:35Z</time>
      </trkpt>
      <trkpt lat="44.77928" lon="5.64472">
        <ele>850</ele>
        <time>2019-07-25T18:00:40Z</time>
      </trkpt>
      <trkpt lat="44.77923" lon="5.64467">
        <ele>850</ele>
        <time>2019-07-25T18:00:42Z</time>
      </trkpt>
      <trkpt lat="44.77918" lon="5.64463">
        <ele>849</ele>
        <time>2019-07-25T18:00:43Z</time>
      </trkpt>
      <trkpt lat="44.77908" lon="5.64459">
        <ele>851</ele>
        <time>2019-07-25T18:00:44Z</time>
      </trkpt>
      <trkpt lat="44.77896" lon="5.64461">
        <ele>854</ele>
        <time>2019-07-25T18:00:47Z</time>
      </trkpt>
      <trkpt lat="44.7789" lon="5.64466">
        <ele>855</ele>
        <time>2019-07-25T18:00:48Z</time>
      </trkpt>
      <trkpt lat="44.77882" lon="5.64476">
        <ele>857</ele>
        <time>2019-07-25T18:00:50Z</time>
      </trkpt>
      <trkpt lat="44.77878" lon="5.64493">
        <ele>858</ele>
        <time>2019-07-25T18:00:52Z</time>
      </trkpt>
      <trkpt lat="44.77877" lon="5.64503">
        <ele>858</ele>
        <time>2019-07-25T18:00:53Z</time>
      </trkpt>
      <trkpt lat="44.77878" lon="5.64534">
        <ele>858</ele>
        <time>2019-07-25T18:00:57Z</time>
      </trkpt>
      <trkpt lat="44.77884" lon="5.6457">
        <ele>855</ele>
        <time>2019-07-25T18:01:02Z</time>
      </trkpt>
      <trkpt lat="44.77897" lon="5.64605">
        <ele>851</ele>
        <time>2019-07-25T18:01:07Z</time>
      </trkpt>
      <trkpt lat="44.7793" lon="5.64676">
        <ele>846</ele>
        <time>2019-07-25T18:01:18Z</time>
      </trkpt>
      <trkpt lat="44.77958" lon="5.64721">
        <ele>845</ele>
        <time>2019-07-25T18:01:25Z</time>
      </trkpt>
      <trkpt lat="44.77978" lon="5.64744">
        <ele>844</ele>
        <time>2019-07-25T18:01:30Z</time>
      </trkpt>
      <trkpt lat="44.77995" lon="5.64759">
        <ele>842</ele>
        <time>2019-07-25T18:01:33Z</time>
      </trkpt>
      <trkpt lat="44.7803" lon="5.64787">
        <ele>839</ele>
        <time>2019-07-25T18:01:40Z</time>
      </trkpt>
      <trkpt lat="44.78048" lon="5.64806">
        <ele>838</ele>
        <time>2019-07-25T18:01:44Z</time>
      </trkpt>
      <trkpt lat="44.7806" lon="5.64823">
        <ele>838</ele>
        <time>2019-07-25T18:01:47Z</time>
      </trkpt>
      <trkpt lat="44.7807" lon="5.64843">
        <ele>839</ele>
        <time>2019-07-25T18:01:51Z</time>
      </trkpt>
      <trkpt lat="44.78076" lon="5.64867">
        <ele>840</ele>
        <time>2019-07-25T18:01:54Z</time>
      </trkpt>
      <trkpt lat="44.78079" lon="5.64895">
        <ele>841</ele>
        <time>2019-07-25T18:01:57Z</time>
      </trkpt>
      <trkpt lat="44.78079" lon="5.6492">
        <ele>843</ele>
        <time>2019-07-25T18:02:00Z</time>
      </trkpt>
      <trkpt lat="44.78062" lon="5.65059">
        <ele>844</ele>
        <time>2019-07-25T18:02:18Z</time>
      </trkpt>
      <trkpt lat="44.78055" lon="5.65093">
        <ele>843</ele>
        <time>2019-07-25T18:02:23Z</time>
      </trkpt>
      <trkpt lat="44.78042" lon="5.65135">
        <ele>843</ele>
        <time>2019-07-25T18:02:29Z</time>
      </trkpt>
      <trkpt lat="44.7803" lon="5.65159">
        <ele>844</ele>
        <time>2019-07-25T18:02:32Z</time>
      </trkpt>
      <trkpt lat="44.7802" lon="5.65177">
        <ele>844</ele>
        <time>2019-07-25T18:02:35Z</time>
      </trkpt>
      <trkpt lat="44.78003" lon="5.652">
        <ele>845</ele>
        <time>2019-07-25T18:02:39Z</time>
      </trkpt>
      <trkpt lat="44.77986" lon="5.65218">
        <ele>845</ele>
        <time>2019-07-25T18:02:43Z</time>
      </trkpt>
      <trkpt lat="44.77975" lon="5.65227">
        <ele>845</ele>
        <time>2019-07-25T18:02:45Z</time>
      </trkpt>
      <trkpt lat="44.77895" lon="5.65276">
        <ele>845</ele>
        <time>2019-07-25T18:03:01Z</time>
      </trkpt>
      <trkpt lat="44.77878" lon="5.65284">
        <ele>844</ele>
        <time>2019-07-25T18:03:04Z</time>
      </trkpt>
      <trkpt lat="44.77844" lon="5.65291">
        <ele>843</ele>
        <time>2019-07-25T18:03:10Z</time>
      </trkpt>
      <trkpt lat="44.77819" lon="5.65292">
        <ele>844</ele>
        <time>2019-07-25T18:03:15Z</time>
      </trkpt>
      <trkpt lat="44.77709" lon="5.65277">
        <ele>849</ele>
        <time>2019-07-25T18:03:34Z</time>
      </trkpt>
      <trkpt lat="44.77645" lon="5.65261">
        <ele>851</ele>
        <time>2019-07-25T18:03:46Z</time>
      </trkpt>
      <trkpt lat="44.7762" lon="5.65259">
        <ele>851</ele>
        <time>2019-07-25T18:03:50Z</time>
      </trkpt>
      <trkpt lat="44.77566" lon="5.65258">
        <ele>852</ele>
        <time>2019-07-25T18:04:00Z</time>
      </trkpt>
      <trkpt lat="44.77513" lon="5.6526">
        <ele>855</ele>
        <time>2019-07-25T18:04:09Z</time>
      </trkpt>
      <trkpt lat="44.77504" lon="5.65267">
        <ele>856</ele>
        <time>2019-07-25T18:04:11Z</time>
      </trkpt>
      <trkpt lat="44.77494" lon="5.6528">
        <ele>858</ele>
        <time>2019-07-25T18:04:14Z</time>
      </trkpt>
      <trkpt lat="44.77491" lon="5.65296">
        <ele>859</ele>
        <time>2019-07-25T18:04:16Z</time>
      </trkpt>
      <trkpt lat="44.77492" lon="5.65308">
        <ele>860</ele>
        <time>2019-07-25T18:04:17Z</time>
      </trkpt>
      <trkpt lat="44.77496" lon="5.65322">
        <ele>860</ele>
        <time>2019-07-25T18:04:19Z</time>
      </trkpt>
      <trkpt lat="44.77508" lon="5.65342">
        <ele>860</ele>
        <time>2019-07-25T18:04:22Z</time>
      </trkpt>
      <trkpt lat="44.77549" lon="5.65395">
        <ele>858</ele>
        <time>2019-07-25T18:04:32Z</time>
      </trkpt>
      <trkpt lat="44.77605" lon="5.65461">
        <ele>856</ele>
        <time>2019-07-25T18:04:45Z</time>
      </trkpt>
      <trkpt lat="44.77624" lon="5.6549">
        <ele>856</ele>
        <time>2019-07-25T18:04:50Z</time>
      </trkpt>
      <trkpt lat="44.77637" lon="5.65519">
        <ele>856</ele>
        <time>2019-07-25T18:04:55Z</time>
      </trkpt>
      <trkpt lat="44.77651" lon="5.65565">
        <ele>857</ele>
        <time>2019-07-25T18:05:01Z</time>
      </trkpt>
      <trkpt lat="44.77708" lon="5.65803">
        <ele>856</ele>
        <time>2019-07-25T18:05:33Z</time>
      </trkpt>
      <trkpt lat="44.77715" lon="5.6585">
        <ele>855</ele>
        <time>2019-07-25T18:05:39Z</time>
      </trkpt>
      <trkpt lat="44.77716" lon="5.65889">
        <ele>856</ele>
        <time>2019-07-25T18:05:44Z</time>
      </trkpt>
      <trkpt lat="44.77712" lon="5.65924">
        <ele>857</ele>
        <time>2019-07-25T18:05:48Z</time>
      </trkpt>
      <trkpt lat="44.77707" lon="5.65945">
        <ele>857</ele>
        <time>2019-07-25T18:05:51Z</time>
      </trkpt>
      <trkpt lat="44.77692" lon="5.65981">
        <ele>858</ele>
        <time>2019-07-25T18:05:56Z</time>
      </trkpt>
      <trkpt lat="44.77673" lon="5.66006">
        <ele>859</ele>
        <time>2019-07-25T18:06:01Z</time>
      </trkpt>
      <trkpt lat="44.77649" lon="5.66028">
        <ele>859</ele>
        <time>2019-07-25T18:06:06Z</time>
      </trkpt>
      <trkpt lat="44.77625" lon="5.6604">
        <ele>859</ele>
        <time>2019-07-25T18:06:11Z</time>
      </trkpt>
      <trkpt lat="44.776" lon="5.66044">
        <ele>859</ele>
        <time>2019-07-25T18:06:15Z</time>
      </trkpt>
      <trkpt lat="44.77571" lon="5.66039">
        <ele>859</ele>
        <time>2019-07-25T18:06:20Z</time>
      </trkpt>
      <trkpt lat="44.77529" lon="5.6602">
        <ele>859</ele>
        <time>2019-07-25T18:06:28Z</time>
      </trkpt>
      <trkpt lat="44.77416" lon="5.65957">
        <ele>866</ele>
        <time>2019-07-25T18:06:50Z</time>
      </trkpt>
      <trkpt lat="44.77389" lon="5.65948">
        <ele>868</ele>
        <time>2019-07-25T18:06:55Z</time>
      </trkpt>
      <trkpt lat="44.7737" lon="5.65948">
        <ele>868</ele>
        <time>2019-07-25T18:06:58Z</time>
      </trkpt>
      <trkpt lat="44.77353" lon="5.65953">
        <ele>868</ele>
        <time>2019-07-25T18:07:01Z</time>
      </trkpt>
      <trkpt lat="44.77336" lon="5.65965">
        <ele>866</ele>
        <time>2019-07-25T18:07:04Z</time>
      </trkpt>
      <trkpt lat="44.77318" lon="5.65984">
        <ele>865</ele>
        <time>2019-07-25T18:07:08Z</time>
      </trkpt>
      <trkpt lat="44.77306" lon="5.66">
        <ele>865</ele>
        <time>2019-07-25T18:07:11Z</time>
      </trkpt>
      <trkpt lat="44.77278" lon="5.66047">
        <ele>864</ele>
        <time>2019-07-25T18:07:19Z</time>
      </trkpt>
      <trkpt lat="44.77267" lon="5.66062">
        <ele>864</ele>
        <time>2019-07-25T18:07:22Z</time>
      </trkpt>
      <trkpt lat="44.77208" lon="5.66125">
        <ele>867</ele>
        <time>2019-07-25T18:07:35Z</time>
      </trkpt>
      <trkpt lat="44.77158" lon="5.6617">
        <ele>866</ele>
        <time>2019-07-25T18:07:46Z</time>
      </trkpt>
      <trkpt lat="44.77121" lon="5.66196">
        <ele>866</ele>
        <time>2019-07-25T18:07:53Z</time>
      </trkpt>
      <trkpt lat="44.77086" lon="5.66217">
        <ele>866</ele>
        <time>2019-07-25T18:08:00Z</time>
      </trkpt>
      <trkpt lat="44.77083" lon="5.66228">
        <ele>865</ele>
        <time>2019-07-25T18:08:01Z</time>
      </trkpt>
      <trkpt lat="44.77079" lon="5.66236">
        <ele>864</ele>
        <time>2019-07-25T18:08:02Z</time>
      </trkpt>
      <trkpt lat="44.77066" lon="5.66245">
        <ele>864</ele>
        <time>2019-07-25T18:08:05Z</time>
      </trkpt>
      <trkpt lat="44.77014" lon="5.66273">
        <ele>860</ele>
        <time>2019-07-25T18:08:15Z</time>
      </trkpt>
      <trkpt lat="44.76901" lon="5.66301">
        <ele>854</ele>
        <time>2019-07-25T18:08:35Z</time>
      </trkpt>
      <trkpt lat="44.76893" lon="5.66302">
        <ele>853</ele>
        <time>2019-07-25T18:08:37Z</time>
      </trkpt>
      <trkpt lat="44.76853" lon="5.66294">
        <ele>852</ele>
        <time>2019-07-25T18:08:44Z</time>
      </trkpt>
      <trkpt lat="44.76841" lon="5.66289">
        <ele>852</ele>
        <time>2019-07-25T18:08:46Z</time>
      </trkpt>
      <trkpt lat="44.76833" lon="5.66281">
        <ele>853</ele>
        <time>2019-07-25T18:08:48Z</time>
      </trkpt>
      <trkpt lat="44.76814" lon="5.66253">
        <ele>856</ele>
        <time>2019-07-25T18:08:53Z</time>
      </trkpt>
      <trkpt lat="44.76808" lon="5.66247">
        <ele>856</ele>
        <time>2019-07-25T18:08:54Z</time>
      </trkpt>
      <trkpt lat="44.7677" lon="5.66221">
        <ele>855</ele>
        <time>2019-07-25T18:09:02Z</time>
      </trkpt>
      <trkpt lat="44.76743" lon="5.66198">
        <ele>855</ele>
        <time>2019-07-25T18:09:07Z</time>
      </trkpt>
      <trkpt lat="44.76731" lon="5.6619">
        <ele>855</ele>
        <time>2019-07-25T18:09:10Z</time>
      </trkpt>
      <trkpt lat="44.7662" lon="5.66146">
        <ele>849</ele>
        <time>2019-07-25T18:09:30Z</time>
      </trkpt>
      <trkpt lat="44.76601" lon="5.66149">
        <ele>847</ele>
        <time>2019-07-25T18:09:34Z</time>
      </trkpt>
      <trkpt lat="44.76585" lon="5.66161">
        <ele>842</ele>
        <time>2019-07-25T18:09:37Z</time>
      </trkpt>
      <trkpt lat="44.76576" lon="5.6618">
        <ele>840</ele>
        <time>2019-07-25T18:09:40Z</time>
      </trkpt>
      <trkpt lat="44.76557" lon="5.66256">
        <ele>837</ele>
        <time>2019-07-25T18:09:50Z</time>
      </trkpt>
      <trkpt lat="44.76551" lon="5.66269">
        <ele>837</ele>
        <time>2019-07-25T18:09:52Z</time>
      </trkpt>
      <trkpt lat="44.76512" lon="5.66299">
        <ele>839</ele>
        <time>2019-07-25T18:10:00Z</time>
      </trkpt>
      <trkpt lat="44.76506" lon="5.66308">
        <ele>840</ele>
        <time>2019-07-25T18:10:01Z</time>
      </trkpt>
      <trkpt lat="44.7649" lon="5.66351">
        <ele>840</ele>
        <time>2019-07-25T18:10:07Z</time>
      </trkpt>
      <trkpt lat="44.7648" lon="5.66368">
        <ele>840</ele>
        <time>2019-07-25T18:10:10Z</time>
      </trkpt>
      <trkpt lat="44.76454" lon="5.66399">
        <ele>841</ele>
        <time>2019-07-25T18:10:16Z</time>
      </trkpt>
      <trkpt lat="44.76439" lon="5.66381">
        <ele>843</ele>
        <time>2019-07-25T18:10:20Z</time>
      </trkpt>
      <trkpt lat="44.76431" lon="5.66393">
        <ele>843</ele>
        <time>2019-07-25T18:10:22Z</time>
      </trkpt>
      <trkpt lat="44.76413" lon="5.66377">
        <ele>845</ele>
        <time>2019-07-25T18:10:26Z</time>
      </trkpt>
      <trkpt lat="44.764" lon="5.66363">
        <ele>847</ele>
        <time>2019-07-25T18:10:29Z</time>
      </trkpt>
      <trkpt lat="44.76392" lon="5.66374">
        <ele>846</ele>
        <time>2019-07-25T18:10:31Z</time>
      </trkpt>
      <trkpt lat="44.76354" lon="5.66338">
        <ele>850</ele>
        <time>2019-07-25T18:10:39Z</time>
      </trkpt>
      <trkpt lat="44.76291" lon="5.66298">
        <ele>856</ele>
        <time>2019-07-25T18:10:51Z</time>
      </trkpt>
      <trkpt lat="44.76206" lon="5.66219">
        <ele>867</ele>
        <time>2019-07-25T18:11:09Z</time>
      </trkpt>
      <trkpt lat="44.76198" lon="5.66208">
        <ele>869</ele>
        <time>2019-07-25T18:11:11Z</time>
      </trkpt>
      <trkpt lat="44.76183" lon="5.66175">
        <ele>873</ele>
        <time>2019-07-25T18:11:16Z</time>
      </trkpt>
      <trkpt lat="44.76103" lon="5.66295">
        <ele>873</ele>
        <time>2019-07-25T18:11:37Z</time>
      </trkpt>
      <trkpt lat="44.76085" lon="5.66335">
        <ele>874</ele>
        <time>2019-07-25T18:11:43Z</time>
      </trkpt>
      <trkpt lat="44.76077" lon="5.66364">
        <ele>875</ele>
        <time>2019-07-25T18:11:47Z</time>
      </trkpt>
      <trkpt lat="44.76071" lon="5.66399">
        <ele>875</ele>
        <time>2019-07-25T18:11:51Z</time>
      </trkpt>
      <trkpt lat="44.7606" lon="5.66545">
        <ele>878</ele>
        <time>2019-07-25T18:12:10Z</time>
      </trkpt>
      <trkpt lat="44.76062" lon="5.66585">
        <ele>878</ele>
        <time>2019-07-25T18:12:15Z</time>
      </trkpt>
      <trkpt lat="44.76074" lon="5.66645">
        <ele>876</ele>
        <time>2019-07-25T18:12:23Z</time>
      </trkpt>
      <trkpt lat="44.76076" lon="5.6667">
        <ele>876</ele>
        <time>2019-07-25T18:12:26Z</time>
      </trkpt>
      <trkpt lat="44.76075" lon="5.66694">
        <ele>876</ele>
        <time>2019-07-25T18:12:29Z</time>
      </trkpt>
      <trkpt lat="44.76068" lon="5.66717">
        <ele>876</ele>
        <time>2019-07-25T18:12:32Z</time>
      </trkpt>
      <trkpt lat="44.76062" lon="5.66732">
        <ele>877</ele>
        <time>2019-07-25T18:12:34Z</time>
      </trkpt>
      <trkpt lat="44.76053" lon="5.66747">
        <ele>877</ele>
        <time>2019-07-25T18:12:37Z</time>
      </trkpt>
      <trkpt lat="44.76045" lon="5.66757">
        <ele>877</ele>
        <time>2019-07-25T18:12:39Z</time>
      </trkpt>
      <trkpt lat="44.76032" lon="5.66768">
        <ele>878</ele>
        <time>2019-07-25T18:12:41Z</time>
      </trkpt>
      <trkpt lat="44.76018" lon="5.66776">
        <ele>878</ele>
        <time>2019-07-25T18:12:44Z</time>
      </trkpt>
      <trkpt lat="44.76005" lon="5.66779">
        <ele>879</ele>
        <time>2019-07-25T18:12:46Z</time>
      </trkpt>
      <trkpt lat="44.75989" lon="5.66779">
        <ele>879</ele>
        <time>2019-07-25T18:12:49Z</time>
      </trkpt>
      <trkpt lat="44.75974" lon="5.66774">
        <ele>879</ele>
        <time>2019-07-25T18:12:52Z</time>
      </trkpt>
      <trkpt lat="44.75959" lon="5.66765">
        <ele>879</ele>
        <time>2019-07-25T18:12:55Z</time>
      </trkpt>
      <trkpt lat="44.75948" lon="5.66754">
        <ele>880</ele>
        <time>2019-07-25T18:12:57Z</time>
      </trkpt>
      <trkpt lat="44.75918" lon="5.66718">
        <ele>884</ele>
        <time>2019-07-25T18:13:04Z</time>
      </trkpt>
      <trkpt lat="44.75844" lon="5.66653">
        <ele>894</ele>
        <time>2019-07-25T18:13:20Z</time>
      </trkpt>
      <trkpt lat="44.75833" lon="5.66639">
        <ele>896</ele>
        <time>2019-07-25T18:13:23Z</time>
      </trkpt>
      <trkpt lat="44.75824" lon="5.66625">
        <ele>898</ele>
        <time>2019-07-25T18:13:25Z</time>
      </trkpt>
      <trkpt lat="44.75792" lon="5.66561">
        <ele>907</ele>
        <time>2019-07-25T18:13:35Z</time>
      </trkpt>
      <trkpt lat="44.75782" lon="5.66552">
        <ele>907</ele>
        <time>2019-07-25T18:13:37Z</time>
      </trkpt>
      <trkpt lat="44.75771" lon="5.66551">
        <ele>906</ele>
        <time>2019-07-25T18:13:39Z</time>
      </trkpt>
      <trkpt lat="44.75761" lon="5.66556">
        <ele>905</ele>
        <time>2019-07-25T18:13:41Z</time>
      </trkpt>
      <trkpt lat="44.75752" lon="5.6657">
        <ele>903</ele>
        <time>2019-07-25T18:13:43Z</time>
      </trkpt>
      <trkpt lat="44.7575" lon="5.66586">
        <ele>902</ele>
        <time>2019-07-25T18:13:45Z</time>
      </trkpt>
      <trkpt lat="44.7574" lon="5.66698">
        <ele>904</ele>
        <time>2019-07-25T18:13:59Z</time>
      </trkpt>
      <trkpt lat="44.75736" lon="5.66736">
        <ele>904</ele>
        <time>2019-07-25T18:14:04Z</time>
      </trkpt>
      <trkpt lat="44.75725" lon="5.66777">
        <ele>905</ele>
        <time>2019-07-25T18:14:10Z</time>
      </trkpt>
      <trkpt lat="44.75707" lon="5.66817">
        <ele>907</ele>
        <time>2019-07-25T18:14:16Z</time>
      </trkpt>
      <trkpt lat="44.75684" lon="5.66849">
        <ele>910</ele>
        <time>2019-07-25T18:14:22Z</time>
      </trkpt>
      <trkpt lat="44.7566" lon="5.66873">
        <ele>912</ele>
        <time>2019-07-25T18:14:27Z</time>
      </trkpt>
      <trkpt lat="44.7563" lon="5.66896">
        <ele>912</ele>
        <time>2019-07-25T18:14:33Z</time>
      </trkpt>
      <trkpt lat="44.75608" lon="5.66905">
        <ele>912</ele>
        <time>2019-07-25T18:14:37Z</time>
      </trkpt>
      <trkpt lat="44.75578" lon="5.66902">
        <ele>914</ele>
        <time>2019-07-25T18:14:42Z</time>
      </trkpt>
      <trkpt lat="44.75545" lon="5.66885">
        <ele>918</ele>
        <time>2019-07-25T18:14:49Z</time>
      </trkpt>
      <trkpt lat="44.75515" lon="5.66866">
        <ele>923</ele>
        <time>2019-07-25T18:14:54Z</time>
      </trkpt>
      <trkpt lat="44.75481" lon="5.6684">
        <ele>929</ele>
        <time>2019-07-25T18:15:01Z</time>
      </trkpt>
      <trkpt lat="44.75406" lon="5.66776">
        <ele>940</ele>
        <time>2019-07-25T18:15:17Z</time>
      </trkpt>
      <trkpt lat="44.75396" lon="5.66773">
        <ele>941</ele>
        <time>2019-07-25T18:15:19Z</time>
      </trkpt>
      <trkpt lat="44.75386" lon="5.66774">
        <ele>942</ele>
        <time>2019-07-25T18:15:21Z</time>
      </trkpt>
      <trkpt lat="44.75377" lon="5.6678">
        <ele>942</ele>
        <time>2019-07-25T18:15:22Z</time>
      </trkpt>
      <trkpt lat="44.7537" lon="5.66791">
        <ele>942</ele>
        <time>2019-07-25T18:15:24Z</time>
      </trkpt>
      <trkpt lat="44.75366" lon="5.66802">
        <ele>942</ele>
        <time>2019-07-25T18:15:26Z</time>
      </trkpt>
      <trkpt lat="44.75365" lon="5.66818">
        <ele>942</ele>
        <time>2019-07-25T18:15:28Z</time>
      </trkpt>
      <trkpt lat="44.75373" lon="5.66889">
        <ele>940</ele>
        <time>2019-07-25T18:15:37Z</time>
      </trkpt>
      <trkpt lat="44.75373" lon="5.66901">
        <ele>940</ele>
        <time>2019-07-25T18:15:38Z</time>
      </trkpt>
      <trkpt lat="44.75371" lon="5.6693">
        <ele>941</ele>
        <time>2019-07-25T18:15:42Z</time>
      </trkpt>
      <trkpt lat="44.75367" lon="5.6695">
        <ele>942</ele>
        <time>2019-07-25T18:15:45Z</time>
      </trkpt>
      <trkpt lat="44.75362" lon="5.66966">
        <ele>943</ele>
        <time>2019-07-25T18:15:47Z</time>
      </trkpt>
      <trkpt lat="44.75344" lon="5.67008">
        <ele>946</ele>
        <time>2019-07-25T18:15:53Z</time>
      </trkpt>
      <trkpt lat="44.75324" lon="5.67037">
        <ele>947</ele>
        <time>2019-07-25T18:15:58Z</time>
      </trkpt>
      <trkpt lat="44.75122" lon="5.67286">
        <ele>966</ele>
        <time>2019-07-25T18:16:46Z</time>
      </trkpt>
      <trkpt lat="44.75103" lon="5.67311">
        <ele>968</ele>
        <time>2019-07-25T18:16:51Z</time>
      </trkpt>
      <trkpt lat="44.7506" lon="5.67383">
        <ele>975</ele>
        <time>2019-07-25T18:17:02Z</time>
      </trkpt>
      <trkpt lat="44.75048" lon="5.67401">
        <ele>977</ele>
        <time>2019-07-25T18:17:06Z</time>
      </trkpt>
      <trkpt lat="44.74986" lon="5.67469">
        <ele>991</ele>
        <time>2019-07-25T18:17:20Z</time>
      </trkpt>
      <trkpt lat="44.74963" lon="5.67498">
        <ele>999</ele>
        <time>2019-07-25T18:17:25Z</time>
      </trkpt>
      <trkpt lat="44.74947" lon="5.67526">
        <ele>1000</ele>
        <time>2019-07-25T18:17:30Z</time>
      </trkpt>
      <trkpt lat="44.74914" lon="5.67601">
        <ele>998</ele>
        <time>2019-07-25T18:17:41Z</time>
      </trkpt>
      <trkpt lat="44.74867" lon="5.67688">
        <ele>1005</ele>
        <time>2019-07-25T18:17:55Z</time>
      </trkpt>
      <trkpt lat="44.74828" lon="5.67746">
        <ele>1007</ele>
        <time>2019-07-25T18:18:05Z</time>
      </trkpt>
      <trkpt lat="44.74771" lon="5.67822">
        <ele>1006</ele>
        <time>2019-07-25T18:18:19Z</time>
      </trkpt>
      <trkpt lat="44.74747" lon="5.67845">
        <ele>1006</ele>
        <time>2019-07-25T18:18:24Z</time>
      </trkpt>
      <trkpt lat="44.74717" lon="5.67863">
        <ele>1008</ele>
        <time>2019-07-25T18:18:30Z</time>
      </trkpt>
      <trkpt lat="44.74699" lon="5.67869">
        <ele>1011</ele>
        <time>2019-07-25T18:18:33Z</time>
      </trkpt>
      <trkpt lat="44.74657" lon="5.67874">
        <ele>1024</ele>
        <time>2019-07-25T18:18:40Z</time>
      </trkpt>
      <trkpt lat="44.74646" lon="5.67876">
        <ele>1028</ele>
        <time>2019-07-25T18:18:42Z</time>
      </trkpt>
      <trkpt lat="44.74636" lon="5.67883">
        <ele>1029</ele>
        <time>2019-07-25T18:18:44Z</time>
      </trkpt>
      <trkpt lat="44.74627" lon="5.67893">
        <ele>1028</ele>
        <time>2019-07-25T18:18:46Z</time>
      </trkpt>
      <trkpt lat="44.7457" lon="5.67984">
        <ele>1020</ele>
        <time>2019-07-25T18:19:02Z</time>
      </trkpt>
      <trkpt lat="44.74546" lon="5.68015">
        <ele>1019</ele>
        <time>2019-07-25T18:19:08Z</time>
      </trkpt>
      <trkpt lat="44.74536" lon="5.68025">
        <ele>1020</ele>
        <time>2019-07-25T18:19:10Z</time>
      </trkpt>
      <trkpt lat="44.74489" lon="5.6806">
        <ele>1026</ele>
        <time>2019-07-25T18:19:19Z</time>
      </trkpt>
      <trkpt lat="44.74443" lon="5.68117">
        <ele>1023</ele>
        <time>2019-07-25T18:19:30Z</time>
      </trkpt>
      <trkpt lat="44.74431" lon="5.6813">
        <ele>1024</ele>
        <time>2019-07-25T18:19:33Z</time>
      </trkpt>
      <trkpt lat="44.74406" lon="5.68144">
        <ele>1024</ele>
        <time>2019-07-25T18:19:38Z</time>
      </trkpt>
      <trkpt lat="44.74394" lon="5.68146">
        <ele>1024</ele>
        <time>2019-07-25T18:19:40Z</time>
      </trkpt>
      <trkpt lat="44.74382" lon="5.68146">
        <ele>1024</ele>
        <time>2019-07-25T18:19:42Z</time>
      </trkpt>
      <trkpt lat="44.74371" lon="5.68144">
        <ele>1026</ele>
        <time>2019-07-25T18:19:44Z</time>
      </trkpt>
      <trkpt lat="44.74327" lon="5.68123">
        <ele>1034</ele>
        <time>2019-07-25T18:19:52Z</time>
      </trkpt>
      <trkpt lat="44.74294" lon="5.68113">
        <ele>1038</ele>
        <time>2019-07-25T18:19:58Z</time>
      </trkpt>
      <trkpt lat="44.74166" lon="5.68095">
        <ele>1046</ele>
        <time>2019-07-25T18:20:21Z</time>
      </trkpt>
      <trkpt lat="44.7414" lon="5.68089">
        <ele>1046</ele>
        <time>2019-07-25T18:20:26Z</time>
      </trkpt>
      <trkpt lat="44.74094" lon="5.68072">
        <ele>1051</ele>
        <time>2019-07-25T18:20:34Z</time>
      </trkpt>
      <trkpt lat="44.73997" lon="5.68022">
        <ele>1051</ele>
        <time>2019-07-25T18:20:52Z</time>
      </trkpt>
      <trkpt lat="44.73977" lon="5.68003">
        <ele>1055</ele>
        <time>2019-07-25T18:20:57Z</time>
      </trkpt>
      <trkpt lat="44.7397" lon="5.67992">
        <ele>1057</ele>
        <time>2019-07-25T18:20:59Z</time>
      </trkpt>
      <trkpt lat="44.73965" lon="5.67979">
        <ele>1060</ele>
        <time>2019-07-25T18:21:01Z</time>
      </trkpt>
      <trkpt lat="44.73953" lon="5.67915">
        <ele>1073</ele>
        <time>2019-07-25T18:21:09Z</time>
      </trkpt>
      <trkpt lat="44.73921" lon="5.67804">
        <ele>1081</ele>
        <time>2019-07-25T18:21:24Z</time>
      </trkpt>
      <trkpt lat="44.7391" lon="5.67776">
        <ele>1087</ele>
        <time>2019-07-25T18:21:28Z</time>
      </trkpt>
      <trkpt lat="44.73904" lon="5.67767">
        <ele>1089</ele>
        <time>2019-07-25T18:21:30Z</time>
      </trkpt>
      <trkpt lat="44.73897" lon="5.67762">
        <ele>1092</ele>
        <time>2019-07-25T18:21:31Z</time>
      </trkpt>
      <trkpt lat="44.7389" lon="5.6776">
        <ele>1093</ele>
        <time>2019-07-25T18:21:32Z</time>
      </trkpt>
      <trkpt lat="44.73877" lon="5.67767">
        <ele>1094</ele>
        <time>2019-07-25T18:21:35Z</time>
      </trkpt>
      <trkpt lat="44.73872" lon="5.67775">
        <ele>1094</ele>
        <time>2019-07-25T18:21:36Z</time>
      </trkpt>
      <trkpt lat="44.73852" lon="5.67829">
        <ele>1088</ele>
        <time>2019-07-25T18:21:44Z</time>
      </trkpt>
      <trkpt lat="44.73813" lon="5.67865">
        <ele>1096</ele>
        <time>2019-07-25T18:21:52Z</time>
      </trkpt>
      <trkpt lat="44.73803" lon="5.67876">
        <ele>1099</ele>
        <time>2019-07-25T18:21:54Z</time>
      </trkpt>
      <trkpt lat="44.73797" lon="5.6789">
        <ele>1100</ele>
        <time>2019-07-25T18:21:56Z</time>
      </trkpt>
      <trkpt lat="44.73794" lon="5.67902">
        <ele>1099</ele>
        <time>2019-07-25T18:21:58Z</time>
      </trkpt>
      <trkpt lat="44.73794" lon="5.67917">
        <ele>1098</ele>
        <time>2019-07-25T18:22:00Z</time>
      </trkpt>
      <trkpt lat="44.73796" lon="5.67964">
        <ele>1090</ele>
        <time>2019-07-25T18:22:06Z</time>
      </trkpt>
      <trkpt lat="44.73793" lon="5.67977">
        <ele>1089</ele>
        <time>2019-07-25T18:22:08Z</time>
      </trkpt>
      <trkpt lat="44.73788" lon="5.6799">
        <ele>1089</ele>
        <time>2019-07-25T18:22:09Z</time>
      </trkpt>
      <trkpt lat="44.73777" lon="5.68009">
        <ele>1087</ele>
        <time>2019-07-25T18:22:13Z</time>
      </trkpt>
      <trkpt lat="44.7377" lon="5.68015">
        <ele>1087</ele>
        <time>2019-07-25T18:22:14Z</time>
      </trkpt>
      <trkpt lat="44.73762" lon="5.68019">
        <ele>1088</ele>
        <time>2019-07-25T18:22:16Z</time>
      </trkpt>
      <trkpt lat="44.73719" lon="5.68018">
        <ele>1099</ele>
        <time>2019-07-25T18:22:23Z</time>
      </trkpt>
      <trkpt lat="44.73681" lon="5.6802">
        <ele>1106</ele>
        <time>2019-07-25T18:22:30Z</time>
      </trkpt>
      <trkpt lat="44.7366" lon="5.68025">
        <ele>1110</ele>
        <time>2019-07-25T18:22:34Z</time>
      </trkpt>
      <trkpt lat="44.73649" lon="5.68033">
        <ele>1111</ele>
        <time>2019-07-25T18:22:36Z</time>
      </trkpt>
      <trkpt lat="44.73598" lon="5.6808">
        <ele>1109</ele>
        <time>2019-07-25T18:22:47Z</time>
      </trkpt>
      <trkpt lat="44.73586" lon="5.6809">
        <ele>1110</ele>
        <time>2019-07-25T18:22:49Z</time>
      </trkpt>
      <trkpt lat="44.73539" lon="5.68113">
        <ele>1110</ele>
        <time>2019-07-25T18:22:58Z</time>
      </trkpt>
      <trkpt lat="44.73522" lon="5.6812">
        <ele>1109</ele>
        <time>2019-07-25T18:23:01Z</time>
      </trkpt>
      <trkpt lat="44.73508" lon="5.68123">
        <ele>1110</ele>
        <time>2019-07-25T18:23:04Z</time>
      </trkpt>
      <trkpt lat="44.7348" lon="5.68122">
        <ele>1111</ele>
        <time>2019-07-25T18:23:09Z</time>
      </trkpt>
      <trkpt lat="44.73467" lon="5.68119">
        <ele>1112</ele>
        <time>2019-07-25T18:23:11Z</time>
      </trkpt>
      <trkpt lat="44.73452" lon="5.68113">
        <ele>1115</ele>
        <time>2019-07-25T18:23:14Z</time>
      </trkpt>
      <trkpt lat="44.73403" lon="5.68089">
        <ele>1125</ele>
        <time>2019-07-25T18:23:23Z</time>
      </trkpt>
      <trkpt lat="44.73389" lon="5.68088">
        <ele>1124</ele>
        <time>2019-07-25T18:23:26Z</time>
      </trkpt>
      <trkpt lat="44.73362" lon="5.6809">
        <ele>1119</ele>
        <time>2019-07-25T18:23:30Z</time>
      </trkpt>
      <trkpt lat="44.73348" lon="5.68086">
        <ele>1119</ele>
        <time>2019-07-25T18:23:33Z</time>
      </trkpt>
      <trkpt lat="44.73326" lon="5.6807">
        <ele>1124</ele>
        <time>2019-07-25T18:23:37Z</time>
      </trkpt>
      <trkpt lat="44.73298" lon="5.68062">
        <ele>1125</ele>
        <time>2019-07-25T18:23:42Z</time>
      </trkpt>
      <trkpt lat="44.73286" lon="5.68054">
        <ele>1126</ele>
        <time>2019-07-25T18:23:45Z</time>
      </trkpt>
      <trkpt lat="44.73269" lon="5.68031">
        <ele>1131</ele>
        <time>2019-07-25T18:23:49Z</time>
      </trkpt>
      <trkpt lat="44.73263" lon="5.68015">
        <ele>1134</ele>
        <time>2019-07-25T18:23:51Z</time>
      </trkpt>
      <trkpt lat="44.73255" lon="5.67979">
        <ele>1144</ele>
        <time>2019-07-25T18:23:56Z</time>
      </trkpt>
      <trkpt lat="44.73251" lon="5.6797">
        <ele>1146</ele>
        <time>2019-07-25T18:23:57Z</time>
      </trkpt>
      <trkpt lat="44.73244" lon="5.67965">
        <ele>1147</ele>
        <time>2019-07-25T18:23:59Z</time>
      </trkpt>
      <trkpt lat="44.73236" lon="5.67963">
        <ele>1148</ele>
        <time>2019-07-25T18:24:00Z</time>
      </trkpt>
      <trkpt lat="44.73227" lon="5.67965">
        <ele>1148</ele>
        <time>2019-07-25T18:24:02Z</time>
      </trkpt>
      <trkpt lat="44.73214" lon="5.67975">
        <ele>1145</ele>
        <time>2019-07-25T18:24:05Z</time>
      </trkpt>
      <trkpt lat="44.73167" lon="5.68042">
        <ele>1133</ele>
        <time>2019-07-25T18:24:16Z</time>
      </trkpt>
      <trkpt lat="44.7316" lon="5.68049">
        <ele>1133</ele>
        <time>2019-07-25T18:24:18Z</time>
      </trkpt>
      <trkpt lat="44.73153" lon="5.68051">
        <ele>1134</ele>
        <time>2019-07-25T18:24:19Z</time>
      </trkpt>
      <trkpt lat="44.73146" lon="5.6805">
        <ele>1135</ele>
        <time>2019-07-25T18:24:20Z</time>
      </trkpt>
      <trkpt lat="44.73138" lon="5.68045">
        <ele>1136</ele>
        <time>2019-07-25T18:24:22Z</time>
      </trkpt>
      <trkpt lat="44.73054" lon="5.67971">
        <ele>1147</ele>
        <time>2019-07-25T18:24:40Z</time>
      </trkpt>
      <trkpt lat="44.73041" lon="5.67963">
        <ele>1147</ele>
        <time>2019-07-25T18:24:42Z</time>
      </trkpt>
      <trkpt lat="44.73" lon="5.67949">
        <ele>1145</ele>
        <time>2019-07-25T18:24:50Z</time>
      </trkpt>
      <trkpt lat="44.72988" lon="5.67942">
        <ele>1146</ele>
        <time>2019-07-25T18:24:52Z</time>
      </trkpt>
      <trkpt lat="44.72979" lon="5.67933">
        <ele>1147</ele>
        <time>2019-07-25T18:24:54Z</time>
      </trkpt>
      <trkpt lat="44.72948" lon="5.67886">
        <ele>1152</ele>
        <time>2019-07-25T18:25:02Z</time>
      </trkpt>
      <trkpt lat="44.72931" lon="5.67873">
        <ele>1152</ele>
        <time>2019-07-25T18:25:06Z</time>
      </trkpt>
      <trkpt lat="44.72883" lon="5.67857">
        <ele>1152</ele>
        <time>2019-07-25T18:25:14Z</time>
      </trkpt>
      <trkpt lat="44.72852" lon="5.67841">
        <ele>1153</ele>
        <time>2019-07-25T18:25:20Z</time>
      </trkpt>
      <trkpt lat="44.7282" lon="5.6782">
        <ele>1156</ele>
        <time>2019-07-25T18:25:26Z</time>
      </trkpt>
      <trkpt lat="44.72804" lon="5.67812">
        <ele>1158</ele>
        <time>2019-07-25T18:25:29Z</time>
      </trkpt>
      <trkpt lat="44.72768" lon="5.67803">
        <ele>1160</ele>
        <time>2019-07-25T18:25:36Z</time>
      </trkpt>
      <trkpt lat="44.72656" lon="5.67786">
        <ele>1167</ele>
        <time>2019-07-25T18:25:56Z</time>
      </trkpt>
      <trkpt lat="44.72571" lon="5.67778">
        <ele>1171</ele>
        <time>2019-07-25T18:26:11Z</time>
      </trkpt>
      <trkpt lat="44.72481" lon="5.67774">
        <ele>1174</ele>
        <time>2019-07-25T18:26:27Z</time>
      </trkpt>
      <trkpt lat="44.72465" lon="5.67771">
        <ele>1175</ele>
        <time>2019-07-25T18:26:30Z</time>
      </trkpt>
      <trkpt lat="44.72423" lon="5.67759">
        <ele>1176</ele>
        <time>2019-07-25T18:26:38Z</time>
      </trkpt>
      <trkpt lat="44.72296" lon="5.67712">
        <ele>1172</ele>
        <time>2019-07-25T18:27:01Z</time>
      </trkpt>
      <trkpt lat="44.7209" lon="5.67658">
        <ele>1163</ele>
        <time>2019-07-25T18:27:38Z</time>
      </trkpt>
      <trkpt lat="44.71967" lon="5.67647">
        <ele>1161</ele>
        <time>2019-07-25T18:28:00Z</time>
      </trkpt>
      <trkpt lat="44.71815" lon="5.67636">
        <ele>1156</ele>
        <time>2019-07-25T18:28:27Z</time>
      </trkpt>
      <trkpt lat="44.71661" lon="5.67654">
        <ele>1153</ele>
        <time>2019-07-25T18:28:55Z</time>
      </trkpt>
      <trkpt lat="44.7157" lon="5.67673">
        <ele>1150</ele>
        <time>2019-07-25T18:29:11Z</time>
      </trkpt>
      <trkpt lat="44.71534" lon="5.67677">
        <ele>1149</ele>
        <time>2019-07-25T18:29:18Z</time>
      </trkpt>
      <trkpt lat="44.71501" lon="5.67675">
        <ele>1148</ele>
        <time>2019-07-25T18:29:24Z</time>
      </trkpt>
      <trkpt lat="44.71463" lon="5.67678">
        <ele>1148</ele>
        <time>2019-07-25T18:29:30Z</time>
      </trkpt>
      <trkpt lat="44.71441" lon="5.67686">
        <ele>1148</ele>
        <time>2019-07-25T18:29:34Z</time>
      </trkpt>
      <trkpt lat="44.71404" lon="5.67714">
        <ele>1146</ele>
        <time>2019-07-25T18:29:42Z</time>
      </trkpt>
      <trkpt lat="44.71382" lon="5.67726">
        <ele>1145</ele>
        <time>2019-07-25T18:29:46Z</time>
      </trkpt>
      <trkpt lat="44.71363" lon="5.67729">
        <ele>1144</ele>
        <time>2019-07-25T18:29:49Z</time>
      </trkpt>
      <trkpt lat="44.71343" lon="5.67728">
        <ele>1143</ele>
        <time>2019-07-25T18:29:53Z</time>
      </trkpt>
      <trkpt lat="44.71245" lon="5.67709">
        <ele>1140</ele>
        <time>2019-07-25T18:30:11Z</time>
      </trkpt>
      <trkpt lat="44.7123" lon="5.67709">
        <ele>1140</ele>
        <time>2019-07-25T18:30:13Z</time>
      </trkpt>
      <trkpt lat="44.71213" lon="5.67712">
        <ele>1139</ele>
        <time>2019-07-25T18:30:16Z</time>
      </trkpt>
      <trkpt lat="44.71163" lon="5.67743">
        <ele>1136</ele>
        <time>2019-07-25T18:30:26Z</time>
      </trkpt>
      <trkpt lat="44.71148" lon="5.67744">
        <ele>1134</ele>
        <time>2019-07-25T18:30:29Z</time>
      </trkpt>
      <trkpt lat="44.70994" lon="5.67723">
        <ele>1127</ele>
        <time>2019-07-25T18:30:56Z</time>
      </trkpt>
      <trkpt lat="44.70929" lon="5.67729">
        <ele>1123</ele>
        <time>2019-07-25T18:31:08Z</time>
      </trkpt>
      <trkpt lat="44.70867" lon="5.6774">
        <ele>1120</ele>
        <time>2019-07-25T18:31:19Z</time>
      </trkpt>
      <trkpt lat="44.70807" lon="5.67758">
        <ele>1117</ele>
        <time>2019-07-25T18:31:30Z</time>
      </trkpt>
      <trkpt lat="44.70698" lon="5.67803">
        <ele>1111</ele>
        <time>2019-07-25T18:31:50Z</time>
      </trkpt>
      <trkpt lat="44.70658" lon="5.67825">
        <ele>1108</ele>
        <time>2019-07-25T18:31:58Z</time>
      </trkpt>
      <trkpt lat="44.70552" lon="5.67891">
        <ele>1106</ele>
        <time>2019-07-25T18:32:18Z</time>
      </trkpt>
      <trkpt lat="44.70455" lon="5.67954">
        <ele>1106</ele>
        <time>2019-07-25T18:32:37Z</time>
      </trkpt>
      <trkpt lat="44.70391" lon="5.68006">
        <ele>1101</ele>
        <time>2019-07-25T18:32:50Z</time>
      </trkpt>
      <trkpt lat="44.70289" lon="5.68096">
        <ele>1096</ele>
        <time>2019-07-25T18:33:12Z</time>
      </trkpt>
      <trkpt lat="44.70248" lon="5.68124">
        <ele>1095</ele>
        <time>2019-07-25T18:33:20Z</time>
      </trkpt>
      <trkpt lat="44.70213" lon="5.68143">
        <ele>1094</ele>
        <time>2019-07-25T18:33:27Z</time>
      </trkpt>
      <trkpt lat="44.70174" lon="5.68159">
        <ele>1093</ele>
        <time>2019-07-25T18:33:34Z</time>
      </trkpt>
      <trkpt lat="44.70092" lon="5.68188">
        <ele>1088</ele>
        <time>2019-07-25T18:33:49Z</time>
      </trkpt>
      <trkpt lat="44.69936" lon="5.68236">
        <ele>1078</ele>
        <time>2019-07-25T18:34:17Z</time>
      </trkpt>
      <trkpt lat="44.69443" lon="5.68395">
        <ele>1062</ele>
        <time>2019-07-25T18:35:47Z</time>
      </trkpt>
      <trkpt lat="44.69397" lon="5.68411">
        <ele>1060</ele>
        <time>2019-07-25T18:35:56Z</time>
      </trkpt>
      <trkpt lat="44.69365" lon="5.68427">
        <ele>1060</ele>
        <time>2019-07-25T18:36:02Z</time>
      </trkpt>
      <trkpt lat="44.69338" lon="5.68445">
        <ele>1059</ele>
        <time>2019-07-25T18:36:07Z</time>
      </trkpt>
      <trkpt lat="44.69311" lon="5.68471">
        <ele>1058</ele>
        <time>2019-07-25T18:36:13Z</time>
      </trkpt>
      <trkpt lat="44.69209" lon="5.68587">
        <ele>1050</ele>
        <time>2019-07-25T18:36:36Z</time>
      </trkpt>
      <trkpt lat="44.69164" lon="5.68621">
        <ele>1050</ele>
        <time>2019-07-25T18:36:45Z</time>
      </trkpt>
      <trkpt lat="44.69105" lon="5.68647">
        <ele>1048</ele>
        <time>2019-07-25T18:36:56Z</time>
      </trkpt>
      <trkpt lat="44.69032" lon="5.68685">
        <ele>1045</ele>
        <time>2019-07-25T18:37:10Z</time>
      </trkpt>
      <trkpt lat="44.68764" lon="5.68848">
        <ele>1041</ele>
        <time>2019-07-25T18:38:02Z</time>
      </trkpt>
      <trkpt lat="44.68728" lon="5.68878">
        <ele>1041</ele>
        <time>2019-07-25T18:38:10Z</time>
      </trkpt>
      <trkpt lat="44.68712" lon="5.68897">
        <ele>1041</ele>
        <time>2019-07-25T18:38:13Z</time>
      </trkpt>
      <trkpt lat="44.68695" lon="5.68923">
        <ele>1041</ele>
        <time>2019-07-25T18:38:18Z</time>
      </trkpt>
      <trkpt lat="44.68663" lon="5.68984">
        <ele>1039</ele>
        <time>2019-07-25T18:38:27Z</time>
      </trkpt>
      <trkpt lat="44.68506" lon="5.69252">
        <ele>1035</ele>
        <time>2019-07-25T18:39:11Z</time>
      </trkpt>
      <trkpt lat="44.68468" lon="5.6931">
        <ele>1032</ele>
        <time>2019-07-25T18:39:21Z</time>
      </trkpt>
      <trkpt lat="44.6844" lon="5.69333">
        <ele>1031</ele>
        <time>2019-07-25T18:39:27Z</time>
      </trkpt>
      <trkpt lat="44.68412" lon="5.69352">
        <ele>1032</ele>
        <time>2019-07-25T18:39:33Z</time>
      </trkpt>
      <trkpt lat="44.68389" lon="5.6936">
        <ele>1031</ele>
        <time>2019-07-25T18:39:37Z</time>
      </trkpt>
      <trkpt lat="44.68367" lon="5.69367">
        <ele>1031</ele>
        <time>2019-07-25T18:39:41Z</time>
      </trkpt>
      <trkpt lat="44.68343" lon="5.69368">
        <ele>1030</ele>
        <time>2019-07-25T18:39:45Z</time>
      </trkpt>
      <trkpt lat="44.68319" lon="5.69366">
        <ele>1030</ele>
        <time>2019-07-25T18:39:49Z</time>
      </trkpt>
      <trkpt lat="44.68029" lon="5.69298">
        <ele>1031</ele>
        <time>2019-07-25T18:40:42Z</time>
      </trkpt>
      <trkpt lat="44.68008" lon="5.69297">
        <ele>1031</ele>
        <time>2019-07-25T18:40:45Z</time>
      </trkpt>
      <trkpt lat="44.67986" lon="5.693">
        <ele>1031</ele>
        <time>2019-07-25T18:40:49Z</time>
      </trkpt>
      <trkpt lat="44.67962" lon="5.69307">
        <ele>1032</ele>
        <time>2019-07-25T18:40:54Z</time>
      </trkpt>
      <trkpt lat="44.67937" lon="5.69317">
        <ele>1032</ele>
        <time>2019-07-25T18:40:58Z</time>
      </trkpt>
      <trkpt lat="44.67912" lon="5.69336">
        <ele>1031</ele>
        <time>2019-07-25T18:41:03Z</time>
      </trkpt>
      <trkpt lat="44.67886" lon="5.69359">
        <ele>1032</ele>
        <time>2019-07-25T18:41:09Z</time>
      </trkpt>
      <trkpt lat="44.6786" lon="5.69391">
        <ele>1031</ele>
        <time>2019-07-25T18:41:15Z</time>
      </trkpt>
      <trkpt lat="44.67837" lon="5.69427">
        <ele>1028</ele>
        <time>2019-07-25T18:41:21Z</time>
      </trkpt>
      <trkpt lat="44.67732" lon="5.69618">
        <ele>1025</ele>
        <time>2019-07-25T18:41:52Z</time>
      </trkpt>
      <trkpt lat="44.67686" lon="5.69685">
        <ele>1028</ele>
        <time>2019-07-25T18:42:04Z</time>
      </trkpt>
      <trkpt lat="44.67616" lon="5.69752">
        <ele>1024</ele>
        <time>2019-07-25T18:42:19Z</time>
      </trkpt>
      <trkpt lat="44.67565" lon="5.69788">
        <ele>1022</ele>
        <time>2019-07-25T18:42:29Z</time>
      </trkpt>
      <trkpt lat="44.67497" lon="5.69805">
        <ele>1019</ele>
        <time>2019-07-25T18:42:41Z</time>
      </trkpt>
      <trkpt lat="44.67338" lon="5.69819">
        <ele>1014</ele>
        <time>2019-07-25T18:43:09Z</time>
      </trkpt>
      <trkpt lat="44.6731" lon="5.69815">
        <ele>1014</ele>
        <time>2019-07-25T18:43:14Z</time>
      </trkpt>
      <trkpt lat="44.67279" lon="5.69805">
        <ele>1013</ele>
        <time>2019-07-25T18:43:20Z</time>
      </trkpt>
      <trkpt lat="44.67241" lon="5.69799">
        <ele>1013</ele>
        <time>2019-07-25T18:43:27Z</time>
      </trkpt>
      <trkpt lat="44.67215" lon="5.69799">
        <ele>1012</ele>
        <time>2019-07-25T18:43:31Z</time>
      </trkpt>
      <trkpt lat="44.67134" lon="5.69807">
        <ele>1010</ele>
        <time>2019-07-25T18:43:46Z</time>
      </trkpt>
      <trkpt lat="44.67107" lon="5.69803">
        <ele>1009</ele>
        <time>2019-07-25T18:43:51Z</time>
      </trkpt>
      <trkpt lat="44.67064" lon="5.69784">
        <ele>1010</ele>
        <time>2019-07-25T18:43:59Z</time>
      </trkpt>
      <trkpt lat="44.6705" lon="5.69782">
        <ele>1010</ele>
        <time>2019-07-25T18:44:01Z</time>
      </trkpt>
      <trkpt lat="44.67034" lon="5.69785">
        <ele>1009</ele>
        <time>2019-07-25T18:44:04Z</time>
      </trkpt>
      <trkpt lat="44.66927" lon="5.69827">
        <ele>1005</ele>
        <time>2019-07-25T18:44:24Z</time>
      </trkpt>
      <trkpt lat="44.66918" lon="5.69827">
        <ele>1005</ele>
        <time>2019-07-25T18:44:26Z</time>
      </trkpt>
      <trkpt lat="44.66868" lon="5.698">
        <ele>1005</ele>
        <time>2019-07-25T18:44:35Z</time>
      </trkpt>
      <trkpt lat="44.66789" lon="5.69751">
        <ele>1002</ele>
        <time>2019-07-25T18:44:50Z</time>
      </trkpt>
      <trkpt lat="44.6673" lon="5.69726">
        <ele>1000</ele>
        <time>2019-07-25T18:45:01Z</time>
      </trkpt>
      <trkpt lat="44.6666" lon="5.69711">
        <ele>1000</ele>
        <time>2019-07-25T18:45:14Z</time>
      </trkpt>
      <trkpt lat="44.66626" lon="5.69694">
        <ele>1000</ele>
        <time>2019-07-25T18:45:20Z</time>
      </trkpt>
      <trkpt lat="44.66597" lon="5.69676">
        <ele>1000</ele>
        <time>2019-07-25T18:45:26Z</time>
      </trkpt>
      <trkpt lat="44.66533" lon="5.69616">
        <ele>1002</ele>
        <time>2019-07-25T18:45:40Z</time>
      </trkpt>
      <trkpt lat="44.66513" lon="5.69606">
        <ele>1002</ele>
        <time>2019-07-25T18:45:43Z</time>
      </trkpt>
      <trkpt lat="44.6649" lon="5.69599">
        <ele>1002</ele>
        <time>2019-07-25T18:45:48Z</time>
      </trkpt>
      <trkpt lat="44.66363" lon="5.69579">
        <ele>1003</ele>
        <time>2019-07-25T18:46:10Z</time>
      </trkpt>
      <trkpt lat="44.66248" lon="5.69548">
        <ele>1002</ele>
        <time>2019-07-25T18:46:31Z</time>
      </trkpt>
      <trkpt lat="44.65979" lon="5.69468">
        <ele>997</ele>
        <time>2019-07-25T18:47:20Z</time>
      </trkpt>
      <trkpt lat="44.65783" lon="5.69407">
        <ele>991</ele>
        <time>2019-07-25T18:47:56Z</time>
      </trkpt>
      <trkpt lat="44.65716" lon="5.69393">
        <ele>994</ele>
        <time>2019-07-25T18:48:08Z</time>
      </trkpt>
      <trkpt lat="44.65603" lon="5.69393">
        <ele>996</ele>
        <time>2019-07-25T18:48:28Z</time>
      </trkpt>
      <trkpt lat="44.65567" lon="5.69398">
        <ele>996</ele>
        <time>2019-07-25T18:48:34Z</time>
      </trkpt>
      <trkpt lat="44.65542" lon="5.69406">
        <ele>996</ele>
        <time>2019-07-25T18:48:39Z</time>
      </trkpt>
      <trkpt lat="44.65516" lon="5.69424">
        <ele>995</ele>
        <time>2019-07-25T18:48:44Z</time>
      </trkpt>
      <trkpt lat="44.65429" lon="5.69509">
        <ele>1000</ele>
        <time>2019-07-25T18:49:03Z</time>
      </trkpt>
      <trkpt lat="44.65367" lon="5.69553">
        <ele>1000</ele>
        <time>2019-07-25T18:49:15Z</time>
      </trkpt>
      <trkpt lat="44.65329" lon="5.69571">
        <ele>998</ele>
        <time>2019-07-25T18:49:23Z</time>
      </trkpt>
      <trkpt lat="44.65222" lon="5.69606">
        <ele>999</ele>
        <time>2019-07-25T18:49:42Z</time>
      </trkpt>
      <trkpt lat="44.65186" lon="5.69623">
        <ele>999</ele>
        <time>2019-07-25T18:49:49Z</time>
      </trkpt>
      <trkpt lat="44.65147" lon="5.6965">
        <ele>999</ele>
        <time>2019-07-25T18:49:57Z</time>
      </trkpt>
      <trkpt lat="44.65075" lon="5.69717">
        <ele>1001</ele>
        <time>2019-07-25T18:50:12Z</time>
      </trkpt>
      <trkpt lat="44.65038" lon="5.69765">
        <ele>1003</ele>
        <time>2019-07-25T18:50:21Z</time>
      </trkpt>
      <trkpt lat="44.65009" lon="5.69808">
        <ele>1002</ele>
        <time>2019-07-25T18:50:28Z</time>
      </trkpt>
      <trkpt lat="44.64984" lon="5.69852">
        <ele>1002</ele>
        <time>2019-07-25T18:50:36Z</time>
      </trkpt>
      <trkpt lat="44.64945" lon="5.69924">
        <ele>1003</ele>
        <time>2019-07-25T18:50:47Z</time>
      </trkpt>
      <trkpt lat="44.64882" lon="5.70071">
        <ele>1002</ele>
        <time>2019-07-25T18:51:09Z</time>
      </trkpt>
      <trkpt lat="44.64862" lon="5.70116">
        <ele>998</ele>
        <time>2019-07-25T18:51:15Z</time>
      </trkpt>
      <trkpt lat="44.64838" lon="5.70164">
        <ele>988</ele>
        <time>2019-07-25T18:51:23Z</time>
      </trkpt>
      <trkpt lat="44.6481" lon="5.70202">
        <ele>989</ele>
        <time>2019-07-25T18:51:30Z</time>
      </trkpt>
      <trkpt lat="44.64791" lon="5.70221">
        <ele>989</ele>
        <time>2019-07-25T18:51:34Z</time>
      </trkpt>
      <trkpt lat="44.64778" lon="5.70231">
        <ele>988</ele>
        <time>2019-07-25T18:51:37Z</time>
      </trkpt>
      <trkpt lat="44.64765" lon="5.70238">
        <ele>987</ele>
        <time>2019-07-25T18:51:39Z</time>
      </trkpt>
      <trkpt lat="44.64736" lon="5.70246">
        <ele>986</ele>
        <time>2019-07-25T18:51:44Z</time>
      </trkpt>
      <trkpt lat="44.64704" lon="5.70248">
        <ele>987</ele>
        <time>2019-07-25T18:51:50Z</time>
      </trkpt>
      <trkpt lat="44.64572" lon="5.70244">
        <ele>985</ele>
        <time>2019-07-25T18:52:14Z</time>
      </trkpt>
      <trkpt lat="44.64547" lon="5.70239">
        <ele>984</ele>
        <time>2019-07-25T18:52:18Z</time>
      </trkpt>
      <trkpt lat="44.6452" lon="5.70231">
        <ele>984</ele>
        <time>2019-07-25T18:52:23Z</time>
      </trkpt>
      <trkpt lat="44.64495" lon="5.70218">
        <ele>984</ele>
        <time>2019-07-25T18:52:28Z</time>
      </trkpt>
      <trkpt lat="44.6447" lon="5.70201">
        <ele>984</ele>
        <time>2019-07-25T18:52:33Z</time>
      </trkpt>
      <trkpt lat="44.64439" lon="5.70172">
        <ele>983</ele>
        <time>2019-07-25T18:52:39Z</time>
      </trkpt>
      <trkpt lat="44.64407" lon="5.70136">
        <ele>982</ele>
        <time>2019-07-25T18:52:47Z</time>
      </trkpt>
      <trkpt lat="44.64057" lon="5.697">
        <ele>965</ele>
        <time>2019-07-25T18:54:10Z</time>
      </trkpt>
      <trkpt lat="44.63997" lon="5.69632">
        <ele>963</ele>
        <time>2019-07-25T18:54:23Z</time>
      </trkpt>
      <trkpt lat="44.6395" lon="5.69592">
        <ele>962</ele>
        <time>2019-07-25T18:54:33Z</time>
      </trkpt>
      <trkpt lat="44.63906" lon="5.69568">
        <ele>961</ele>
        <time>2019-07-25T18:54:42Z</time>
      </trkpt>
      <trkpt lat="44.63845" lon="5.69556">
        <ele>962</ele>
        <time>2019-07-25T18:54:53Z</time>
      </trkpt>
      <trkpt lat="44.63784" lon="5.69558">
        <ele>963</ele>
        <time>2019-07-25T18:55:03Z</time>
      </trkpt>
      <trkpt lat="44.63694" lon="5.69571">
        <ele>961</ele>
        <time>2019-07-25T18:55:20Z</time>
      </trkpt>
      <trkpt lat="44.63685" lon="5.69571">
        <ele>960</ele>
        <time>2019-07-25T18:55:21Z</time>
      </trkpt>
      <trkpt lat="44.63669" lon="5.69567">
        <ele>959</ele>
        <time>2019-07-25T18:55:24Z</time>
      </trkpt>
      <trkpt lat="44.63628" lon="5.69565">
        <ele>957</ele>
        <time>2019-07-25T18:55:31Z</time>
      </trkpt>
      <trkpt lat="44.63532" lon="5.69587">
        <ele>954</ele>
        <time>2019-07-25T18:55:49Z</time>
      </trkpt>
      <trkpt lat="44.63165" lon="5.6963">
        <ele>946</ele>
        <time>2019-07-25T18:56:54Z</time>
      </trkpt>
      <trkpt lat="44.63068" lon="5.69644">
        <ele>943</ele>
        <time>2019-07-25T18:57:12Z</time>
      </trkpt>
      <trkpt lat="44.62957" lon="5.69677">
        <ele>946</ele>
        <time>2019-07-25T18:57:32Z</time>
      </trkpt>
      <trkpt lat="44.62813" lon="5.69729">
        <ele>949</ele>
        <time>2019-07-25T18:57:58Z</time>
      </trkpt>
      <trkpt lat="44.62668" lon="5.69775">
        <ele>939</ele>
        <time>2019-07-25T18:58:25Z</time>
      </trkpt>
      <trkpt lat="44.62513" lon="5.69827">
        <ele>934</ele>
        <time>2019-07-25T18:58:53Z</time>
      </trkpt>
      <trkpt lat="44.62218" lon="5.69923">
        <ele>936</ele>
        <time>2019-07-25T18:59:47Z</time>
      </trkpt>
      <trkpt lat="44.62178" lon="5.6994">
        <ele>935</ele>
        <time>2019-07-25T18:59:54Z</time>
      </trkpt>
      <trkpt lat="44.62155" lon="5.69954">
        <ele>934</ele>
        <time>2019-07-25T18:59:59Z</time>
      </trkpt>
      <trkpt lat="44.62129" lon="5.69974">
        <ele>934</ele>
        <time>2019-07-25T19:00:04Z</time>
      </trkpt>
      <trkpt lat="44.62113" lon="5.69991">
        <ele>933</ele>
        <time>2019-07-25T19:00:08Z</time>
      </trkpt>
      <trkpt lat="44.62091" lon="5.70022">
        <ele>934</ele>
        <time>2019-07-25T19:00:13Z</time>
      </trkpt>
      <trkpt lat="44.61739" lon="5.70651">
        <ele>919</ele>
        <time>2019-07-25T19:01:54Z</time>
      </trkpt>
      <trkpt lat="44.61733" lon="5.70672">
        <ele>919</ele>
        <time>2019-07-25T19:01:57Z</time>
      </trkpt>
      <trkpt lat="44.61732" lon="5.70739">
        <ele>920</ele>
        <time>2019-07-25T19:02:06Z</time>
      </trkpt>
      <trkpt lat="44.61728" lon="5.70763">
        <ele>920</ele>
        <time>2019-07-25T19:02:09Z</time>
      </trkpt>
      <trkpt lat="44.61719" lon="5.70795">
        <ele>921</ele>
        <time>2019-07-25T19:02:13Z</time>
      </trkpt>
      <trkpt lat="44.6171" lon="5.70811">
        <ele>920</ele>
        <time>2019-07-25T19:02:16Z</time>
      </trkpt>
      <trkpt lat="44.61695" lon="5.70833">
        <ele>920</ele>
        <time>2019-07-25T19:02:20Z</time>
      </trkpt>
      <trkpt lat="44.61685" lon="5.70843">
        <ele>919</ele>
        <time>2019-07-25T19:02:22Z</time>
      </trkpt>
      <trkpt lat="44.61579" lon="5.70928">
        <ele>918</ele>
        <time>2019-07-25T19:02:44Z</time>
      </trkpt>
      <trkpt lat="44.61531" lon="5.70952">
        <ele>920</ele>
        <time>2019-07-25T19:02:53Z</time>
      </trkpt>
      <trkpt lat="44.61507" lon="5.70951">
        <ele>920</ele>
        <time>2019-07-25T19:02:57Z</time>
      </trkpt>
      <trkpt lat="44.61483" lon="5.70948">
        <ele>922</ele>
        <time>2019-07-25T19:03:01Z</time>
      </trkpt>
      <trkpt lat="44.61454" lon="5.7094">
        <ele>924</ele>
        <time>2019-07-25T19:03:06Z</time>
      </trkpt>
      <trkpt lat="44.61411" lon="5.70917">
        <ele>922</ele>
        <time>2019-07-25T19:03:15Z</time>
      </trkpt>
      <trkpt lat="44.61175" lon="5.70784">
        <ele>914</ele>
        <time>2019-07-25T19:04:00Z</time>
      </trkpt>
      <trkpt lat="44.61144" lon="5.70771">
        <ele>914</ele>
        <time>2019-07-25T19:04:06Z</time>
      </trkpt>
      <trkpt lat="44.61119" lon="5.70765">
        <ele>915</ele>
        <time>2019-07-25T19:04:10Z</time>
      </trkpt>
      <trkpt lat="44.61096" lon="5.70764">
        <ele>916</ele>
        <time>2019-07-25T19:04:14Z</time>
      </trkpt>
      <trkpt lat="44.61017" lon="5.70776">
        <ele>916</ele>
        <time>2019-07-25T19:04:28Z</time>
      </trkpt>
      <trkpt lat="44.59909" lon="5.70919">
        <ele>895</ele>
        <time>2019-07-25T19:07:46Z</time>
      </trkpt>
      <trkpt lat="44.59794" lon="5.70931">
        <ele>893</ele>
        <time>2019-07-25T19:08:07Z</time>
      </trkpt>
      <trkpt lat="44.59677" lon="5.70954">
        <ele>889</ele>
        <time>2019-07-25T19:08:28Z</time>
      </trkpt>
      <trkpt lat="44.59622" lon="5.70984">
        <ele>888</ele>
        <time>2019-07-25T19:08:38Z</time>
      </trkpt>
      <trkpt lat="44.5955" lon="5.71069">
        <ele>890</ele>
        <time>2019-07-25T19:08:55Z</time>
      </trkpt>
      <trkpt lat="44.59511" lon="5.7114">
        <ele>889</ele>
        <time>2019-07-25T19:09:07Z</time>
      </trkpt>
      <trkpt lat="44.59365" lon="5.71559">
        <ele>883</ele>
        <time>2019-07-25T19:10:06Z</time>
      </trkpt>
      <trkpt lat="44.59352" lon="5.71594">
        <ele>883</ele>
        <time>2019-07-25T19:10:11Z</time>
      </trkpt>
      <trkpt lat="44.59328" lon="5.71632">
        <ele>882</ele>
        <time>2019-07-25T19:10:17Z</time>
      </trkpt>
      <trkpt lat="44.59308" lon="5.71661">
        <ele>881</ele>
        <time>2019-07-25T19:10:22Z</time>
      </trkpt>
      <trkpt lat="44.59261" lon="5.71708">
        <ele>879</ele>
        <time>2019-07-25T19:10:32Z</time>
      </trkpt>
      <trkpt lat="44.59027" lon="5.71843">
        <ele>874</ele>
        <time>2019-07-25T19:11:17Z</time>
      </trkpt>
      <trkpt lat="44.58903" lon="5.7191">
        <ele>873</ele>
        <time>2019-07-25T19:11:41Z</time>
      </trkpt>
      <trkpt lat="44.58881" lon="5.71925">
        <ele>874</ele>
        <time>2019-07-25T19:11:45Z</time>
      </trkpt>
      <trkpt lat="44.58866" lon="5.71939">
        <ele>874</ele>
        <time>2019-07-25T19:11:49Z</time>
      </trkpt>
      <trkpt lat="44.58848" lon="5.71972">
        <ele>873</ele>
        <time>2019-07-25T19:11:54Z</time>
      </trkpt>
      <trkpt lat="44.58837" lon="5.72002">
        <ele>873</ele>
        <time>2019-07-25T19:11:58Z</time>
      </trkpt>
      <trkpt lat="44.58834" lon="5.72035">
        <ele>874</ele>
        <time>2019-07-25T19:12:02Z</time>
      </trkpt>
      <trkpt lat="44.58834" lon="5.72054">
        <ele>875</ele>
        <time>2019-07-25T19:12:05Z</time>
      </trkpt>
      <trkpt lat="44.58836" lon="5.72091">
        <ele>877</ele>
        <time>2019-07-25T19:12:10Z</time>
      </trkpt>
      <trkpt lat="44.58835" lon="5.72108">
        <ele>879</ele>
        <time>2019-07-25T19:12:12Z</time>
      </trkpt>
      <trkpt lat="44.58832" lon="5.72118">
        <ele>880</ele>
        <time>2019-07-25T19:12:13Z</time>
      </trkpt>
      <trkpt lat="44.58825" lon="5.72133">
        <ele>880</ele>
        <time>2019-07-25T19:12:15Z</time>
      </trkpt>
      <trkpt lat="44.58819" lon="5.7214">
        <ele>880</ele>
        <time>2019-07-25T19:12:17Z</time>
      </trkpt>
      <trkpt lat="44.5881" lon="5.72146">
        <ele>879</ele>
        <time>2019-07-25T19:12:19Z</time>
      </trkpt>
      <trkpt lat="44.58794" lon="5.72151">
        <ele>877</ele>
        <time>2019-07-25T19:12:21Z</time>
      </trkpt>
      <trkpt lat="44.58711" lon="5.72149">
        <ele>869</ele>
        <time>2019-07-25T19:12:36Z</time>
      </trkpt>
      <trkpt lat="44.58662" lon="5.72153">
        <ele>867</ele>
        <time>2019-07-25T19:12:45Z</time>
      </trkpt>
      <trkpt lat="44.58615" lon="5.72166">
        <ele>866</ele>
        <time>2019-07-25T19:12:53Z</time>
      </trkpt>
      <trkpt lat="44.58566" lon="5.72182">
        <ele>865</ele>
        <time>2019-07-25T19:13:02Z</time>
      </trkpt>
      <trkpt lat="44.58392" lon="5.7225">
        <ele>862</ele>
        <time>2019-07-25T19:13:35Z</time>
      </trkpt>
      <trkpt lat="44.58361" lon="5.7226">
        <ele>862</ele>
        <time>2019-07-25T19:13:40Z</time>
      </trkpt>
      <trkpt lat="44.58019" lon="5.72389">
        <ele>861</ele>
        <time>2019-07-25T19:14:43Z</time>
      </trkpt>
      <trkpt lat="44.57894" lon="5.72439">
        <ele>864</ele>
        <time>2019-07-25T19:15:06Z</time>
      </trkpt>
      <trkpt lat="44.57822" lon="5.72462">
        <ele>865</ele>
        <time>2019-07-25T19:15:19Z</time>
      </trkpt>
      <trkpt lat="44.57786" lon="5.72486">
        <ele>863</ele>
        <time>2019-07-25T19:15:27Z</time>
      </trkpt>
      <trkpt lat="44.57759" lon="5.72514">
        <ele>862</ele>
        <time>2019-07-25T19:15:33Z</time>
      </trkpt>
      <trkpt lat="44.57721" lon="5.7256">
        <ele>863</ele>
        <time>2019-07-25T19:15:41Z</time>
      </trkpt>
      <trkpt lat="44.57469" lon="5.72948">
        <ele>854</ele>
        <time>2019-07-25T19:16:48Z</time>
      </trkpt>
      <trkpt lat="44.57389" lon="5.73073">
        <ele>854</ele>
        <time>2019-07-25T19:17:09Z</time>
      </trkpt>
      <trkpt lat="44.57194" lon="5.73355">
        <ele>852</ele>
        <time>2019-07-25T19:17:59Z</time>
      </trkpt>
      <trkpt lat="44.57081" lon="5.73469">
        <ele>845</ele>
        <time>2019-07-25T19:18:24Z</time>
      </trkpt>
      <trkpt lat="44.5689" lon="5.73669">
        <ele>842</ele>
        <time>2019-07-25T19:19:06Z</time>
      </trkpt>
      <trkpt lat="44.56859" lon="5.73694">
        <ele>842</ele>
        <time>2019-07-25T19:19:13Z</time>
      </trkpt>
      <trkpt lat="44.56837" lon="5.73707">
        <ele>840</ele>
        <time>2019-07-25T19:19:17Z</time>
      </trkpt>
      <trkpt lat="44.56807" lon="5.73719">
        <ele>840</ele>
        <time>2019-07-25T19:19:22Z</time>
      </trkpt>
      <trkpt lat="44.56778" lon="5.73737">
        <ele>839</ele>
        <time>2019-07-25T19:19:28Z</time>
      </trkpt>
      <trkpt lat="44.56721" lon="5.73793">
        <ele>839</ele>
        <time>2019-07-25T19:19:40Z</time>
      </trkpt>
      <trkpt lat="44.56707" lon="5.73816">
        <ele>839</ele>
        <time>2019-07-25T19:19:44Z</time>
      </trkpt>
      <trkpt lat="44.56703" lon="5.73831">
        <ele>839</ele>
        <time>2019-07-25T19:19:46Z</time>
      </trkpt>
      <trkpt lat="44.567" lon="5.73849">
        <ele>840</ele>
        <time>2019-07-25T19:19:49Z</time>
      </trkpt>
      <trkpt lat="44.56703" lon="5.73871">
        <ele>840</ele>
        <time>2019-07-25T19:19:52Z</time>
      </trkpt>
      <trkpt lat="44.5672" lon="5.73932">
        <ele>843</ele>
        <time>2019-07-25T19:20:00Z</time>
      </trkpt>
      <trkpt lat="44.56723" lon="5.73949">
        <ele>843</ele>
        <time>2019-07-25T19:20:02Z</time>
      </trkpt>
      <trkpt lat="44.56718" lon="5.73973">
        <ele>843</ele>
        <time>2019-07-25T19:20:05Z</time>
      </trkpt>
      <trkpt lat="44.56702" lon="5.74033">
        <ele>842</ele>
        <time>2019-07-25T19:20:13Z</time>
      </trkpt>
      <trkpt lat="44.56698" lon="5.74138">
        <ele>842</ele>
        <time>2019-07-25T19:20:27Z</time>
      </trkpt>
      <trkpt lat="44.56699" lon="5.74236">
        <ele>841</ele>
        <time>2019-07-25T19:20:39Z</time>
      </trkpt>
      <trkpt lat="44.56706" lon="5.74382">
        <ele>845</ele>
        <time>2019-07-25T19:20:58Z</time>
      </trkpt>
      <trkpt lat="44.56724" lon="5.7485">
        <ele>836</ele>
        <time>2019-07-25T19:21:57Z</time>
      </trkpt>
      <trkpt lat="44.56721" lon="5.74939">
        <ele>839</ele>
        <time>2019-07-25T19:22:08Z</time>
      </trkpt>
      <trkpt lat="44.56662" lon="5.75419">
        <ele>834</ele>
        <time>2019-07-25T19:23:10Z</time>
      </trkpt>
      <trkpt lat="44.56654" lon="5.75452">
        <ele>832</ele>
        <time>2019-07-25T19:23:14Z</time>
      </trkpt>
      <trkpt lat="44.56641" lon="5.75488">
        <ele>831</ele>
        <time>2019-07-25T19:23:20Z</time>
      </trkpt>
      <trkpt lat="44.56598" lon="5.75568">
        <ele>829</ele>
        <time>2019-07-25T19:23:32Z</time>
      </trkpt>
      <trkpt lat="44.56564" lon="5.75653">
        <ele>827</ele>
        <time>2019-07-25T19:23:45Z</time>
      </trkpt>
      <trkpt lat="44.56533" lon="5.75754">
        <ele>827</ele>
        <time>2019-07-25T19:23:59Z</time>
      </trkpt>
      <trkpt lat="44.56518" lon="5.75809">
        <ele>828</ele>
        <time>2019-07-25T19:24:06Z</time>
      </trkpt>
      <trkpt lat="44.56505" lon="5.75846">
        <ele>827</ele>
        <time>2019-07-25T19:24:11Z</time>
      </trkpt>
      <trkpt lat="44.56443" lon="5.7597">
        <ele>826</ele>
        <time>2019-07-25T19:24:31Z</time>
      </trkpt>
      <trkpt lat="44.56391" lon="5.76033">
        <ele>820</ele>
        <time>2019-07-25T19:24:43Z</time>
      </trkpt>
      <trkpt lat="44.56108" lon="5.76473">
        <ele>818</ele>
        <time>2019-07-25T19:25:58Z</time>
      </trkpt>
      <trkpt lat="44.56077" lon="5.76519">
        <ele>820</ele>
        <time>2019-07-25T19:26:06Z</time>
      </trkpt>
      <trkpt lat="44.5606" lon="5.76534">
        <ele>822</ele>
        <time>2019-07-25T19:26:09Z</time>
      </trkpt>
      <trkpt lat="44.56038" lon="5.76546">
        <ele>821</ele>
        <time>2019-07-25T19:26:14Z</time>
      </trkpt>
      <trkpt lat="44.55727" lon="5.76624">
        <ele>817</ele>
        <time>2019-07-25T19:27:10Z</time>
      </trkpt>
      <trkpt lat="44.55689" lon="5.76647">
        <ele>815</ele>
        <time>2019-07-25T19:27:17Z</time>
      </trkpt>
      <trkpt lat="44.55649" lon="5.76682">
        <ele>812</ele>
        <time>2019-07-25T19:27:26Z</time>
      </trkpt>
      <trkpt lat="44.55614" lon="5.7671">
        <ele>812</ele>
        <time>2019-07-25T19:27:33Z</time>
      </trkpt>
      <trkpt lat="44.55577" lon="5.7673">
        <ele>810</ele>
        <time>2019-07-25T19:27:40Z</time>
      </trkpt>
      <trkpt lat="44.55558" lon="5.76734">
        <ele>809</ele>
        <time>2019-07-25T19:27:43Z</time>
      </trkpt>
      <trkpt lat="44.55517" lon="5.76727">
        <ele>807</ele>
        <time>2019-07-25T19:27:51Z</time>
      </trkpt>
      <trkpt lat="44.55473" lon="5.76708">
        <ele>809</ele>
        <time>2019-07-25T19:27:59Z</time>
      </trkpt>
      <trkpt lat="44.55412" lon="5.76685">
        <ele>810</ele>
        <time>2019-07-25T19:28:10Z</time>
      </trkpt>
      <trkpt lat="44.55392" lon="5.76683">
        <ele>809</ele>
        <time>2019-07-25T19:28:14Z</time>
      </trkpt>
      <trkpt lat="44.5537" lon="5.76687">
        <ele>809</ele>
        <time>2019-07-25T19:28:18Z</time>
      </trkpt>
      <trkpt lat="44.55359" lon="5.76694">
        <ele>809</ele>
        <time>2019-07-25T19:28:20Z</time>
      </trkpt>
      <trkpt lat="44.55344" lon="5.76711">
        <ele>809</ele>
        <time>2019-07-25T19:28:23Z</time>
      </trkpt>
      <trkpt lat="44.55333" lon="5.7673">
        <ele>809</ele>
        <time>2019-07-25T19:28:26Z</time>
      </trkpt>
      <trkpt lat="44.55323" lon="5.76756">
        <ele>810</ele>
        <time>2019-07-25T19:28:30Z</time>
      </trkpt>
      <trkpt lat="44.55224" lon="5.77302">
        <ele>822</ele>
        <time>2019-07-25T19:29:41Z</time>
      </trkpt>
      <trkpt lat="44.55217" lon="5.7732">
        <ele>823</ele>
        <time>2019-07-25T19:29:44Z</time>
      </trkpt>
      <trkpt lat="44.55192" lon="5.77368">
        <ele>821</ele>
        <time>2019-07-25T19:29:52Z</time>
      </trkpt>
      <trkpt lat="44.5519" lon="5.77385">
        <ele>820</ele>
        <time>2019-07-25T19:29:54Z</time>
      </trkpt>
      <trkpt lat="44.55198" lon="5.77418">
        <ele>821</ele>
        <time>2019-07-25T19:29:58Z</time>
      </trkpt>
      <trkpt lat="44.55198" lon="5.77441">
        <ele>821</ele>
        <time>2019-07-25T19:30:01Z</time>
      </trkpt>
      <trkpt lat="44.55194" lon="5.77485">
        <ele>820</ele>
        <time>2019-07-25T19:30:07Z</time>
      </trkpt>
      <trkpt lat="44.55187" lon="5.7752">
        <ele>817</ele>
        <time>2019-07-25T19:30:11Z</time>
      </trkpt>
      <trkpt lat="44.5518" lon="5.77547">
        <ele>813</ele>
        <time>2019-07-25T19:30:15Z</time>
      </trkpt>
      <trkpt lat="44.55173" lon="5.77564">
        <ele>809</ele>
        <time>2019-07-25T19:30:17Z</time>
      </trkpt>
      <trkpt lat="44.55164" lon="5.77582">
        <ele>805</ele>
        <time>2019-07-25T19:30:20Z</time>
      </trkpt>
      <trkpt lat="44.55154" lon="5.77591">
        <ele>806</ele>
        <time>2019-07-25T19:30:22Z</time>
      </trkpt>
      <trkpt lat="44.55162" lon="5.77606">
        <ele>807</ele>
        <time>2019-07-25T19:30:25Z</time>
      </trkpt>
      <trkpt lat="44.55163" lon="5.77623">
        <ele>808</ele>
        <time>2019-07-25T19:30:27Z</time>
      </trkpt>
      <trkpt lat="44.55152" lon="5.77653">
        <ele>808</ele>
        <time>2019-07-25T19:30:31Z</time>
      </trkpt>
      <trkpt lat="44.55127" lon="5.77703">
        <ele>812</ele>
        <time>2019-07-25T19:30:39Z</time>
      </trkpt>
      <trkpt lat="44.55113" lon="5.77725">
        <ele>811</ele>
        <time>2019-07-25T19:30:43Z</time>
      </trkpt>
      <trkpt lat="44.551" lon="5.7774">
        <ele>809</ele>
        <time>2019-07-25T19:30:46Z</time>
      </trkpt>
      <trkpt lat="44.55033" lon="5.77805">
        <ele>809</ele>
        <time>2019-07-25T19:31:00Z</time>
      </trkpt>
      <trkpt lat="44.55004" lon="5.7783">
        <ele>806</ele>
        <time>2019-07-25T19:31:06Z</time>
      </trkpt>
      <trkpt lat="44.54973" lon="5.77853">
        <ele>809</ele>
        <time>2019-07-25T19:31:12Z</time>
      </trkpt>
      <trkpt lat="44.54927" lon="5.77883">
        <ele>808</ele>
        <time>2019-07-25T19:31:21Z</time>
      </trkpt>
      <trkpt lat="44.54894" lon="5.779">
        <ele>809</ele>
        <time>2019-07-25T19:31:28Z</time>
      </trkpt>
      <trkpt lat="44.54862" lon="5.77913">
        <ele>809</ele>
        <time>2019-07-25T19:31:34Z</time>
      </trkpt>
      <trkpt lat="44.54812" lon="5.77927">
        <ele>809</ele>
        <time>2019-07-25T19:31:43Z</time>
      </trkpt>
      <trkpt lat="44.54795" lon="5.77934">
        <ele>810</ele>
        <time>2019-07-25T19:31:46Z</time>
      </trkpt>
      <trkpt lat="44.54765" lon="5.77958">
        <ele>813</ele>
        <time>2019-07-25T19:31:52Z</time>
      </trkpt>
      <trkpt lat="44.54721" lon="5.78">
        <ele>815</ele>
        <time>2019-07-25T19:32:01Z</time>
      </trkpt>
      <trkpt lat="44.54655" lon="5.78044">
        <ele>820</ele>
        <time>2019-07-25T19:32:14Z</time>
      </trkpt>
      <trkpt lat="44.54589" lon="5.78093">
        <ele>820</ele>
        <time>2019-07-25T19:32:28Z</time>
      </trkpt>
      <trkpt lat="44.54452" lon="5.7822">
        <ele>829</ele>
        <time>2019-07-25T19:32:57Z</time>
      </trkpt>
      <trkpt lat="44.54438" lon="5.78235">
        <ele>831</ele>
        <time>2019-07-25T19:33:00Z</time>
      </trkpt>
      <trkpt lat="44.54413" lon="5.7827">
        <ele>833</ele>
        <time>2019-07-25T19:33:06Z</time>
      </trkpt>
      <trkpt lat="44.54298" lon="5.78457">
        <ele>839</ele>
        <time>2019-07-25T19:33:38Z</time>
      </trkpt>
      <trkpt lat="44.54284" lon="5.78478">
        <ele>841</ele>
        <time>2019-07-25T19:33:41Z</time>
      </trkpt>
      <trkpt lat="44.54276" lon="5.78486">
        <ele>842</ele>
        <time>2019-07-25T19:33:43Z</time>
      </trkpt>
      <trkpt lat="44.54266" lon="5.7849">
        <ele>843</ele>
        <time>2019-07-25T19:33:45Z</time>
      </trkpt>
      <trkpt lat="44.54256" lon="5.78488">
        <ele>843</ele>
        <time>2019-07-25T19:33:47Z</time>
      </trkpt>
      <trkpt lat="44.54247" lon="5.78482">
        <ele>843</ele>
        <time>2019-07-25T19:33:49Z</time>
      </trkpt>
      <trkpt lat="44.54241" lon="5.7847">
        <ele>844</ele>
        <time>2019-07-25T19:33:50Z</time>
      </trkpt>
      <trkpt lat="44.54228" lon="5.78428">
        <ele>844</ele>
        <time>2019-07-25T19:33:56Z</time>
      </trkpt>
      <trkpt lat="44.54222" lon="5.78412">
        <ele>844</ele>
        <time>2019-07-25T19:33:59Z</time>
      </trkpt>
      <trkpt lat="44.54213" lon="5.78399">
        <ele>846</ele>
        <time>2019-07-25T19:34:01Z</time>
      </trkpt>
      <trkpt lat="44.54181" lon="5.78366">
        <ele>853</ele>
        <time>2019-07-25T19:34:08Z</time>
      </trkpt>
      <trkpt lat="44.54173" lon="5.78352">
        <ele>853</ele>
        <time>2019-07-25T19:34:10Z</time>
      </trkpt>
      <trkpt lat="44.54169" lon="5.78335">
        <ele>853</ele>
        <time>2019-07-25T19:34:12Z</time>
      </trkpt>
      <trkpt lat="44.5416" lon="5.78284">
        <ele>848</ele>
        <time>2019-07-25T19:34:19Z</time>
      </trkpt>
      <trkpt lat="44.54154" lon="5.78269">
        <ele>847</ele>
        <time>2019-07-25T19:34:21Z</time>
      </trkpt>
      <trkpt lat="44.54146" lon="5.78256">
        <ele>847</ele>
        <time>2019-07-25T19:34:23Z</time>
      </trkpt>
      <trkpt lat="44.54135" lon="5.78248">
        <ele>847</ele>
        <time>2019-07-25T19:34:26Z</time>
      </trkpt>
      <trkpt lat="44.54122" lon="5.78242">
        <ele>848</ele>
        <time>2019-07-25T19:34:28Z</time>
      </trkpt>
      <trkpt lat="44.54108" lon="5.7824">
        <ele>851</ele>
        <time>2019-07-25T19:34:31Z</time>
      </trkpt>
      <trkpt lat="44.54064" lon="5.78236">
        <ele>854</ele>
        <time>2019-07-25T19:34:38Z</time>
      </trkpt>
      <trkpt lat="44.54036" lon="5.78237">
        <ele>853</ele>
        <time>2019-07-25T19:34:43Z</time>
      </trkpt>
      <trkpt lat="44.54023" lon="5.78242">
        <ele>854</ele>
        <time>2019-07-25T19:34:46Z</time>
      </trkpt>
      <trkpt lat="44.53985" lon="5.78267">
        <ele>858</ele>
        <time>2019-07-25T19:34:53Z</time>
      </trkpt>
      <trkpt lat="44.53961" lon="5.78286">
        <ele>859</ele>
        <time>2019-07-25T19:34:58Z</time>
      </trkpt>
      <trkpt lat="44.53952" lon="5.78298">
        <ele>861</ele>
        <time>2019-07-25T19:35:00Z</time>
      </trkpt>
      <trkpt lat="44.5394" lon="5.78328">
        <ele>867</ele>
        <time>2019-07-25T19:35:05Z</time>
      </trkpt>
      <trkpt lat="44.53933" lon="5.78344">
        <ele>870</ele>
        <time>2019-07-25T19:35:07Z</time>
      </trkpt>
      <trkpt lat="44.53924" lon="5.78358">
        <ele>873</ele>
        <time>2019-07-25T19:35:10Z</time>
      </trkpt>
      <trkpt lat="44.53899" lon="5.78383">
        <ele>875</ele>
        <time>2019-07-25T19:35:15Z</time>
      </trkpt>
      <trkpt lat="44.53839" lon="5.78425">
        <ele>871</ele>
        <time>2019-07-25T19:35:27Z</time>
      </trkpt>
      <trkpt lat="44.53829" lon="5.78434">
        <ele>870</ele>
        <time>2019-07-25T19:35:29Z</time>
      </trkpt>
      <trkpt lat="44.53821" lon="5.78444">
        <ele>870</ele>
        <time>2019-07-25T19:35:31Z</time>
      </trkpt>
      <trkpt lat="44.53816" lon="5.78456">
        <ele>871</ele>
        <time>2019-07-25T19:35:33Z</time>
      </trkpt>
      <trkpt lat="44.538" lon="5.7853">
        <ele>880</ele>
        <time>2019-07-25T19:35:43Z</time>
      </trkpt>
      <trkpt lat="44.53794" lon="5.78554">
        <ele>883</ele>
        <time>2019-07-25T19:35:46Z</time>
      </trkpt>
      <trkpt lat="44.53755" lon="5.78671">
        <ele>885</ele>
        <time>2019-07-25T19:36:02Z</time>
      </trkpt>
      <trkpt lat="44.53676" lon="5.78924">
        <ele>902</ele>
        <time>2019-07-25T19:36:37Z</time>
      </trkpt>
      <trkpt lat="44.53665" lon="5.78967">
        <ele>904</ele>
        <time>2019-07-25T19:36:43Z</time>
      </trkpt>
      <trkpt lat="44.53661" lon="5.79011">
        <ele>908</ele>
        <time>2019-07-25T19:36:49Z</time>
      </trkpt>
      <trkpt lat="44.53662" lon="5.79082">
        <ele>910</ele>
        <time>2019-07-25T19:36:58Z</time>
      </trkpt>
      <trkpt lat="44.53667" lon="5.7913">
        <ele>912</ele>
        <time>2019-07-25T19:37:04Z</time>
      </trkpt>
      <trkpt lat="44.53708" lon="5.79354">
        <ele>917</ele>
        <time>2019-07-25T19:37:33Z</time>
      </trkpt>
      <trkpt lat="44.5371" lon="5.79377">
        <ele>917</ele>
        <time>2019-07-25T19:37:36Z</time>
      </trkpt>
      <trkpt lat="44.53708" lon="5.79433">
        <ele>918</ele>
        <time>2019-07-25T19:37:43Z</time>
      </trkpt>
      <trkpt lat="44.53704" lon="5.79455">
        <ele>918</ele>
        <time>2019-07-25T19:37:46Z</time>
      </trkpt>
      <trkpt lat="44.53698" lon="5.79477">
        <ele>917</ele>
        <time>2019-07-25T19:37:49Z</time>
      </trkpt>
      <trkpt lat="44.53687" lon="5.79504">
        <ele>916</ele>
        <time>2019-07-25T19:37:53Z</time>
      </trkpt>
      <trkpt lat="44.53677" lon="5.79522">
        <ele>916</ele>
        <time>2019-07-25T19:37:56Z</time>
      </trkpt>
      <trkpt lat="44.53662" lon="5.79542">
        <ele>915</ele>
        <time>2019-07-25T19:38:00Z</time>
      </trkpt>
      <trkpt lat="44.53628" lon="5.79576">
        <ele>914</ele>
        <time>2019-07-25T19:38:07Z</time>
      </trkpt>
      <trkpt lat="44.53588" lon="5.79608">
        <ele>912</ele>
        <time>2019-07-25T19:38:15Z</time>
      </trkpt>
      <trkpt lat="44.53553" lon="5.7963">
        <ele>911</ele>
        <time>2019-07-25T19:38:22Z</time>
      </trkpt>
      <trkpt lat="44.53414" lon="5.79705">
        <ele>910</ele>
        <time>2019-07-25T19:38:48Z</time>
      </trkpt>
      <trkpt lat="44.53396" lon="5.79713">
        <ele>909</ele>
        <time>2019-07-25T19:38:52Z</time>
      </trkpt>
      <trkpt lat="44.53379" lon="5.79718">
        <ele>908</ele>
        <time>2019-07-25T19:38:55Z</time>
      </trkpt>
      <trkpt lat="44.53165" lon="5.79757">
        <ele>893</ele>
        <time>2019-07-25T19:39:33Z</time>
      </trkpt>
      <trkpt lat="44.53153" lon="5.79763">
        <ele>892</ele>
        <time>2019-07-25T19:39:36Z</time>
      </trkpt>
      <trkpt lat="44.53143" lon="5.79772">
        <ele>891</ele>
        <time>2019-07-25T19:39:38Z</time>
      </trkpt>
      <trkpt lat="44.53135" lon="5.79784">
        <ele>891</ele>
        <time>2019-07-25T19:39:40Z</time>
      </trkpt>
      <trkpt lat="44.5313" lon="5.79799">
        <ele>890</ele>
        <time>2019-07-25T19:39:42Z</time>
      </trkpt>
      <trkpt lat="44.53122" lon="5.79851">
        <ele>887</ele>
        <time>2019-07-25T19:39:49Z</time>
      </trkpt>
      <trkpt lat="44.5312" lon="5.79892">
        <ele>884</ele>
        <time>2019-07-25T19:39:54Z</time>
      </trkpt>
      <trkpt lat="44.53126" lon="5.79967">
        <ele>876</ele>
        <time>2019-07-25T19:40:03Z</time>
      </trkpt>
      <trkpt lat="44.5313" lon="5.79982">
        <ele>875</ele>
        <time>2019-07-25T19:40:05Z</time>
      </trkpt>
      <trkpt lat="44.53137" lon="5.79994">
        <ele>874</ele>
        <time>2019-07-25T19:40:07Z</time>
      </trkpt>
      <trkpt lat="44.53145" lon="5.80003">
        <ele>874</ele>
        <time>2019-07-25T19:40:09Z</time>
      </trkpt>
      <trkpt lat="44.53154" lon="5.80007">
        <ele>876</ele>
        <time>2019-07-25T19:40:11Z</time>
      </trkpt>
      <trkpt lat="44.53163" lon="5.80007">
        <ele>878</ele>
        <time>2019-07-25T19:40:12Z</time>
      </trkpt>
      <trkpt lat="44.53173" lon="5.80002">
        <ele>879</ele>
        <time>2019-07-25T19:40:14Z</time>
      </trkpt>
      <trkpt lat="44.5319" lon="5.79984">
        <ele>879</ele>
        <time>2019-07-25T19:40:18Z</time>
      </trkpt>
      <trkpt lat="44.53245" lon="5.79911">
        <ele>884</ele>
        <time>2019-07-25T19:40:32Z</time>
      </trkpt>
      <trkpt lat="44.53254" lon="5.79902">
        <ele>885</ele>
        <time>2019-07-25T19:40:34Z</time>
      </trkpt>
      <trkpt lat="44.53264" lon="5.79897">
        <ele>886</ele>
        <time>2019-07-25T19:40:36Z</time>
      </trkpt>
      <trkpt lat="44.53275" lon="5.79897">
        <ele>885</ele>
        <time>2019-07-25T19:40:37Z</time>
      </trkpt>
      <trkpt lat="44.53285" lon="5.799">
        <ele>885</ele>
        <time>2019-07-25T19:40:39Z</time>
      </trkpt>
      <trkpt lat="44.5333" lon="5.79927">
        <ele>877</ele>
        <time>2019-07-25T19:40:48Z</time>
      </trkpt>
      <trkpt lat="44.53375" lon="5.79946">
        <ele>877</ele>
        <time>2019-07-25T19:40:56Z</time>
      </trkpt>
      <trkpt lat="44.53383" lon="5.79953">
        <ele>877</ele>
        <time>2019-07-25T19:40:58Z</time>
      </trkpt>
      <trkpt lat="44.53387" lon="5.79963">
        <ele>875</ele>
        <time>2019-07-25T19:40:59Z</time>
      </trkpt>
      <trkpt lat="44.53388" lon="5.79974">
        <ele>872</ele>
        <time>2019-07-25T19:41:01Z</time>
      </trkpt>
      <trkpt lat="44.53385" lon="5.79985">
        <ele>869</ele>
        <time>2019-07-25T19:41:02Z</time>
      </trkpt>
      <trkpt lat="44.53379" lon="5.79991">
        <ele>867</ele>
        <time>2019-07-25T19:41:04Z</time>
      </trkpt>
      <trkpt lat="44.5337" lon="5.79993">
        <ele>866</ele>
        <time>2019-07-25T19:41:05Z</time>
      </trkpt>
      <trkpt lat="44.53361" lon="5.79992">
        <ele>865</ele>
        <time>2019-07-25T19:41:07Z</time>
      </trkpt>
      <trkpt lat="44.53353" lon="5.79987">
        <ele>866</ele>
        <time>2019-07-25T19:41:08Z</time>
      </trkpt>
      <trkpt lat="44.53325" lon="5.79969">
        <ele>868</ele>
        <time>2019-07-25T19:41:14Z</time>
      </trkpt>
      <trkpt lat="44.53306" lon="5.79973">
        <ele>868</ele>
        <time>2019-07-25T19:41:17Z</time>
      </trkpt>
      <trkpt lat="44.5329" lon="5.79995">
        <ele>865</ele>
        <time>2019-07-25T19:41:21Z</time>
      </trkpt>
      <trkpt lat="44.53259" lon="5.80053">
        <ele>858</ele>
        <time>2019-07-25T19:41:31Z</time>
      </trkpt>
      <trkpt lat="44.53227" lon="5.80106">
        <ele>854</ele>
        <time>2019-07-25T19:41:39Z</time>
      </trkpt>
      <trkpt lat="44.53218" lon="5.80115">
        <ele>854</ele>
        <time>2019-07-25T19:41:41Z</time>
      </trkpt>
      <trkpt lat="44.53198" lon="5.80127">
        <ele>853</ele>
        <time>2019-07-25T19:41:45Z</time>
      </trkpt>
      <trkpt lat="44.53177" lon="5.80137">
        <ele>853</ele>
        <time>2019-07-25T19:41:49Z</time>
      </trkpt>
      <trkpt lat="44.53153" lon="5.80142">
        <ele>851</ele>
        <time>2019-07-25T19:41:53Z</time>
      </trkpt>
      <trkpt lat="44.53142" lon="5.80141">
        <ele>849</ele>
        <time>2019-07-25T19:41:55Z</time>
      </trkpt>
      <trkpt lat="44.53121" lon="5.80129">
        <ele>848</ele>
        <time>2019-07-25T19:41:59Z</time>
      </trkpt>
      <trkpt lat="44.53104" lon="5.80108">
        <ele>849</ele>
        <time>2019-07-25T19:42:03Z</time>
      </trkpt>
      <trkpt lat="44.53084" lon="5.8007">
        <ele>850</ele>
        <time>2019-07-25T19:42:09Z</time>
      </trkpt>
      <trkpt lat="44.53078" lon="5.80057">
        <ele>851</ele>
        <time>2019-07-25T19:42:11Z</time>
      </trkpt>
      <trkpt lat="44.53066" lon="5.80018">
        <ele>855</ele>
        <time>2019-07-25T19:42:17Z</time>
      </trkpt>
      <trkpt lat="44.53061" lon="5.80009">
        <ele>856</ele>
        <time>2019-07-25T19:42:18Z</time>
      </trkpt>
      <trkpt lat="44.53054" lon="5.80006">
        <ele>855</ele>
        <time>2019-07-25T19:42:20Z</time>
      </trkpt>
      <trkpt lat="44.53047" lon="5.80008">
        <ele>853</ele>
        <time>2019-07-25T19:42:21Z</time>
      </trkpt>
      <trkpt lat="44.53043" lon="5.80013">
        <ele>852</ele>
        <time>2019-07-25T19:42:22Z</time>
      </trkpt>
      <trkpt lat="44.53041" lon="5.80022">
        <ele>850</ele>
        <time>2019-07-25T19:42:23Z</time>
      </trkpt>
      <trkpt lat="44.53042" lon="5.80044">
        <ele>847</ele>
        <time>2019-07-25T19:42:26Z</time>
      </trkpt>
      <trkpt lat="44.53061" lon="5.80149">
        <ele>838</ele>
        <time>2019-07-25T19:42:40Z</time>
      </trkpt>
      <trkpt lat="44.53102" lon="5.80336">
        <ele>828</ele>
        <time>2019-07-25T19:43:04Z</time>
      </trkpt>
      <trkpt lat="44.53135" lon="5.80503">
        <ele>825</ele>
        <time>2019-07-25T19:43:26Z</time>
      </trkpt>
      <trkpt lat="44.53154" lon="5.80618">
        <ele>825</ele>
        <time>2019-07-25T19:43:41Z</time>
      </trkpt>
      <trkpt lat="44.53168" lon="5.80754">
        <ele>823</ele>
        <time>2019-07-25T19:43:59Z</time>
      </trkpt>
      <trkpt lat="44.53204" lon="5.80929">
        <ele>821</ele>
        <time>2019-07-25T19:44:22Z</time>
      </trkpt>
      <trkpt lat="44.53218" lon="5.81002">
        <ele>820</ele>
        <time>2019-07-25T19:44:31Z</time>
      </trkpt>
      <trkpt lat="44.53243" lon="5.81254">
        <ele>819</ele>
        <time>2019-07-25T19:45:04Z</time>
      </trkpt>
      <trkpt lat="44.53256" lon="5.81403">
        <ele>819</ele>
        <time>2019-07-25T19:45:23Z</time>
      </trkpt>
      <trkpt lat="44.53269" lon="5.81478">
        <ele>820</ele>
        <time>2019-07-25T19:45:33Z</time>
      </trkpt>
      <trkpt lat="44.53275" lon="5.81533">
        <ele>821</ele>
        <time>2019-07-25T19:45:40Z</time>
      </trkpt>
      <trkpt lat="44.53221" lon="5.81557">
        <ele>818</ele>
        <time>2019-07-25T19:45:50Z</time>
      </trkpt>
      <trkpt lat="44.5323" lon="5.81584">
        <ele>818</ele>
        <time>2019-07-25T19:45:53Z</time>
      </trkpt>
      <trkpt lat="44.53243" lon="5.81638">
        <ele>819</ele>
        <time>2019-07-25T19:46:01Z</time>
      </trkpt>
      <trkpt lat="44.53238" lon="5.81669">
        <ele>819</ele>
        <time>2019-07-25T19:46:05Z</time>
      </trkpt>
      <trkpt lat="44.53255" lon="5.81749">
        <ele>818</ele>
        <time>2019-07-25T19:46:15Z</time>
      </trkpt>
      <trkpt lat="44.53283" lon="5.81929">
        <ele>820</ele>
        <time>2019-07-25T19:46:39Z</time>
      </trkpt>
      <trkpt lat="44.53281" lon="5.81955">
        <ele>820</ele>
        <time>2019-07-25T19:46:42Z</time>
      </trkpt>
      <trkpt lat="44.53276" lon="5.81967">
        <ele>820</ele>
        <time>2019-07-25T19:46:44Z</time>
      </trkpt>
      <trkpt lat="44.53241" lon="5.81928">
        <ele>818</ele>
        <time>2019-07-25T19:46:52Z</time>
      </trkpt>
      <trkpt lat="44.53177" lon="5.81971">
        <ele>815</ele>
        <time>2019-07-25T19:47:04Z</time>
      </trkpt>
      <trkpt lat="44.53232" lon="5.82041">
        <ele>818</ele>
        <time>2019-07-25T19:47:18Z</time>
      </trkpt>
      <trkpt lat="44.53252" lon="5.82071">
        <ele>819</ele>
        <time>2019-07-25T19:47:23Z</time>
      </trkpt>
      <trkpt lat="44.53265" lon="5.821">
        <ele>820</ele>
        <time>2019-07-25T19:47:27Z</time>
      </trkpt>
      <trkpt lat="44.5328" lon="5.82194">
        <ele>820</ele>
        <time>2019-07-25T19:47:39Z</time>
      </trkpt>
    </trkseg>
  </trk>
</gpx>